{
  "fields": [{"id":"_id","type":"int"},{"id":"data_ora","type":"text"},{"id":"id_station","type":"text"},{"id":"denominazione","type":"text"},{"id":"temperatura","type":"text"},{"id":"cod_validazione_temperatura","type":"text"},{"id":"umidita","type":"text"},{"id":"cod_validazione_umidita_rel","type":"text"},{"id":"precipitazione","type":"text"},{"id":"cod_validazione_precipitazione","type":"text"},{"id":"velocita_vento","type":"text"},{"id":"cod_validazione_velocita_vento","type":"text"},{"id":"direzione_vento","type":"text"},{"id":"cod_validazione_direzione_vento","type":"text"},{"id":"rad_solare_globale","type":"text"},{"id":"cod_validazione_rad_solare_globale","type":"text"},{"id":"pressione_atmosferica","type":"text"},{"id":"cod_validazione_pressione_atmosferica","type":"text"},{"id":"Latitude","type":"text"},{"id":"Longitude","type":"text"}],
  "records": [
    [1,"2024-01-01 00:00:00","11","andria","10.86","1","67.42","1","0.0","1","null","6","null","6","0.0","1","993.51","1","41.231637","16.30298"],
    [2,"2024-01-01 01:00:00","11","andria","11.35","1","64.52","1","0.0","1","null","6","null","6","0.0","5","993.15","1","41.231637","16.30298"],
    [3,"2024-01-01 02:00:00","11","andria","11.5","1","64.29","1","0.0","1","null","6","null","6","0.0","5","992.86","1","41.231637","16.30298"],
    [4,"2024-01-01 03:00:00","11","andria","11.84","1","61.51","1","0.0","1","null","6","null","6","0.0","5","992.62","1","41.231637","16.30298"],
    [5,"2024-01-01 04:00:00","11","andria","11.67","1","63.52","1","0.0","1","null","6","null","6","0.0","1","992.38","1","41.231637","16.30298"],
    [6,"2024-01-01 05:00:00","11","andria","11.98","1","62.66","1","0.0","1","null","6","null","6","0.0","5","991.89","1","41.231637","16.30298"],
    [7,"2024-01-01 06:00:00","11","andria","12.18","1","62.01","1","0.0","1","null","6","null","6","0.0","5","991.44","1","41.231637","16.30298"],
    [8,"2024-01-01 07:00:00","11","andria","13.2","1","57.37","1","0.0","1","null","6","null","6","0.0","5","991.35","1","41.231637","16.30298"],
    [9,"2024-01-01 08:00:00","11","andria","13.04","1","57.91","1","0.0","1","null","6","null","6","0.0","5","991.44","1","41.231637","16.30298"],
    [10,"2024-01-01 09:00:00","11","andria","13.26","1","57.63","1","0.0","1","null","6","null","6","75.91","1","991.64","1","41.231637","16.30298"],
    [11,"2024-01-01 10:00:00","11","andria","14.58","1","55.32","1","0.0","1","null","6","null","6","120.25","1","991.84","1","41.231637","16.30298"],
    [12,"2024-01-01 11:00:00","11","andria","15.47","1","53.39","1","0.0","1","null","6","null","6","190.84","1","991.78","1","41.231637","16.30298"],
    [13,"2024-01-01 12:00:00","11","andria","17.02","1","47.18","1","0.0","1","null","6","null","6","254.13","1","991.11","1","41.231637","16.30298"],
    [14,"2024-01-01 13:00:00","11","andria","18.38","1","41.59","1","0.0","1","null","6","null","6","382.19","1","990.84","1","41.231637","16.30298"],
    [15,"2024-01-01 14:00:00","11","andria","17.51","1","41.96","1","0.0","1","null","6","null","6","141.97","1","990.61","1","41.231637","16.30298"],
    [16,"2024-01-01 15:00:00","11","andria","16.23","1","49.06","1","0.0","1","null","6","null","6","61.29","1","990.79","1","41.231637","16.30298"],
    [17,"2024-01-01 16:00:00","11","andria","14.9","1","59.79","1","0.0","1","null","6","null","6","41.05","1","990.92","1","41.231637","16.30298"],
    [18,"2024-01-01 17:00:00","11","andria","14.22","1","62.15","1","0.0","1","null","6","null","6","0.0","5","991.5","1","41.231637","16.30298"],
    [19,"2024-01-01 18:00:00","11","andria","13.51","1","65.83","1","0.0","1","null","6","null","6","0.0","5","991.72","1","41.231637","16.30298"],
    [20,"2024-01-01 19:00:00","11","andria","12.84","1","67.61","1","0.0","1","null","6","null","6","0.0","5","991.89","1","41.231637","16.30298"],
    [21,"2024-01-01 20:00:00","11","andria","12.44","1","67.58","1","0.0","1","null","6","null","6","0.0","1","991.97","1","41.231637","16.30298"],
    [22,"2024-01-01 21:00:00","11","andria","12.52","1","67.83","1","0.0","1","null","6","null","6","0.0","5","991.99","1","41.231637","16.30298"],
    [23,"2024-01-01 22:00:00","11","andria","12.17","1","73.08","1","0.0","1","null","6","null","6","0.0","5","991.85","1","41.231637","16.30298"],
    [24,"2024-01-01 23:00:00","11","andria","12.27","1","71.04","1","0.0","1","null","6","null","6","0.0","1","991.78","1","41.231637","16.30298"],
    [25,"2024-01-02 00:00:00","11","andria","12.35","1","66.98","1","0.0","1","null","6","null","6","0.0","5","991.91","1","41.231637","16.30298"],
    [26,"2024-01-02 01:00:00","11","andria","12.22","1","64.02","1","0.0","1","null","6","null","6","0.0","1","991.67","1","41.231637","16.30298"],
    [27,"2024-01-02 02:00:00","11","andria","10.96","1","73.11","1","0.0","1","null","6","null","6","0.0","5","992.21","1","41.231637","16.30298"],
    [28,"2024-01-02 03:00:00","11","andria","10.73","1","70.88","1","0.0","1","null","6","null","6","0.0","5","992.59","1","41.231637","16.30298"],
    [29,"2024-01-02 04:00:00","11","andria","10.64","1","67.85","1","0.0","1","null","6","null","6","0.0","5","992.51","1","41.231637","16.30298"],
    [30,"2024-01-02 05:00:00","11","andria","10.4","1","70.22","1","0.0","1","null","6","null","6","0.0","5","992.93","1","41.231637","16.30298"],
    [31,"2024-01-02 06:00:00","11","andria","10.08","1","73.21","1","0.0","1","null","6","null","6","0.0","5","993.36","1","41.231637","16.30298"],
    [32,"2024-01-02 07:00:00","11","andria","9.89","1","72.82","1","0.0","1","null","6","null","6","0.0","5","993.69","1","41.231637","16.30298"],
    [33,"2024-01-02 08:00:00","11","andria","9.55","1","72.18","1","0.0","1","null","6","null","6","0.0","5","993.99","1","41.231637","16.30298"],
    [34,"2024-01-02 09:00:00","11","andria","10.45","1","67.16","1","0.0","1","null","6","null","6","61.3","1","994.67","1","41.231637","16.30298"],
    [35,"2024-01-02 10:00:00","11","andria","12.57","1","57.67","1","0.0","1","null","6","null","6","115.42","1","994.86","1","41.231637","16.30298"],
    [36,"2024-01-02 11:00:00","11","andria","14.52","1","51.37","1","0.0","1","null","6","null","6","302.18","1","994.79","1","41.231637","16.30298"],
    [37,"2024-01-02 12:00:00","11","andria","15.87","1","45.91","1","0.0","1","null","6","null","6","381.44","1","994.54","1","41.231637","16.30298"],
    [38,"2024-01-02 13:00:00","11","andria","15.89","1","43.36","1","0.0","1","null","6","null","6","365.01","1","993.84","1","41.231637","16.30298"],
    [39,"2024-01-02 14:00:00","11","andria","15.8","1","41.5","1","0.0","1","null","6","null","6","300.16","1","993.2","1","41.231637","16.30298"],
    [40,"2024-01-02 15:00:00","11","andria","16.89","1","40.1","1","0.0","1","null","6","null","6","213.42","1","993.13","1","41.231637","16.30298"],
    [41,"2024-01-02 16:00:00","11","andria","16.2","1","44.47","1","0.0","1","null","6","null","6","66.18","1","993.19","1","41.231637","16.30298"],
    [42,"2024-01-02 17:00:00","11","andria","13.21","1","62.39","1","0.0","1","null","6","null","6","6.63","1","993.5","1","41.231637","16.30298"],
    [43,"2024-01-02 18:00:00","11","andria","11.72","1","65.84","1","0.0","1","null","6","null","6","0.0","5","993.83","1","41.231637","16.30298"],
    [44,"2024-01-02 19:00:00","11","andria","11.08","1","58.81","1","0.0","1","null","6","null","6","0.0","1","993.95","1","41.231637","16.30298"],
    [45,"2024-01-02 20:00:00","11","andria","11.2","1","55.33","1","0.0","1","null","6","null","6","0.0","5","994.24","1","41.231637","16.30298"],
    [46,"2024-01-02 21:00:00","11","andria","10.75","1","58.5","1","0.0","1","null","6","null","6","0.0","1","994.13","1","41.231637","16.30298"],
    [47,"2024-01-02 22:00:00","11","andria","9.91","1","62.6","1","0.0","1","null","6","null","6","0.0","5","993.94","1","41.231637","16.30298"],
    [48,"2024-01-02 23:00:00","11","andria","10.33","1","61.17","1","0.0","1","null","6","null","6","0.0","1","993.83","1","41.231637","16.30298"],
    [49,"2024-01-03 00:00:00","11","andria","9.74","1","64.08","1","0.0","1","null","6","null","6","0.0","5","993.22","1","41.231637","16.30298"],
    [50,"2024-01-03 01:00:00","11","andria","9.5","1","65.29","1","0.0","1","null","6","null","6","0.0","5","992.78","1","41.231637","16.30298"],
    [51,"2024-01-03 02:00:00","11","andria","10.08","1","61.22","1","0.0","1","null","6","null","6","0.0","1","992.62","1","41.231637","16.30298"],
    [52,"2024-01-03 03:00:00","11","andria","11.39","1","54.82","1","0.0","1","null","6","null","6","0.0","5","992.21","1","41.231637","16.30298"],
    [53,"2024-01-03 04:00:00","11","andria","12.03","1","52.05","1","0.0","1","null","6","null","6","0.0","1","991.18","1","41.231637","16.30298"],
    [54,"2024-01-03 05:00:00","11","andria","12.4","1","54.41","1","0.0","1","null","6","null","6","0.0","1","990.65","1","41.231637","16.30298"],
    [55,"2024-01-03 06:00:00","11","andria","12.68","1","54.31","1","0.0","1","null","6","null","6","0.0","1","990.55","1","41.231637","16.30298"],
    [56,"2024-01-03 07:00:00","11","andria","13.23","1","47.94","1","0.0","1","null","6","null","6","0.0","1","989.91","1","41.231637","16.30298"],
    [57,"2024-01-03 08:00:00","11","andria","13.1","1","51.03","1","0.0","1","null","6","null","6","0.0","5","989.87","1","41.231637","16.30298"],
    [58,"2024-01-03 09:00:00","11","andria","13.29","1","52.49","1","0.0","1","null","6","null","6","21.76","1","990.11","1","41.231637","16.30298"],
    [59,"2024-01-03 10:00:00","11","andria","14.1","1","52.0","1","0.0","1","null","6","null","6","94.37","1","990.35","1","41.231637","16.30298"],
    [60,"2024-01-03 11:00:00","11","andria","14.92","1","51.82","1","0.0","1","null","6","null","6","148.17","1","990.32","1","41.231637","16.30298"],
    [61,"2024-01-03 12:00:00","11","andria","17.52","1","42.56","1","0.0","1","null","6","null","6","352.33","1","989.42","1","41.231637","16.30298"],
    [62,"2024-01-03 13:00:00","11","andria","17.49","1","39.06","1","0.0","1","null","6","null","6","278.12","1","988.59","1","41.231637","16.30298"],
    [63,"2024-01-03 14:00:00","11","andria","17.57","1","38.89","1","0.0","1","null","6","null","6","298.57","1","988.22","1","41.231637","16.30298"],
    [64,"2024-01-03 15:00:00","11","andria","17.77","1","40.23","1","0.0","1","null","6","null","6","176.12","1","988.11","1","41.231637","16.30298"],
    [65,"2024-01-03 16:00:00","11","andria","17.19","1","42.76","1","0.0","1","null","6","null","6","81.78","1","988.06","1","41.231637","16.30298"],
    [66,"2024-01-03 17:00:00","11","andria","15.89","1","46.34","1","0.0","1","null","6","null","6","10.26","1","988.28","1","41.231637","16.30298"],
    [67,"2024-01-03 18:00:00","11","andria","14.23","1","52.53","1","0.0","1","null","6","null","6","0.0","5","988.77","1","41.231637","16.30298"],
    [68,"2024-01-03 19:00:00","11","andria","13.86","1","55.59","1","0.0","1","null","6","null","6","0.0","5","989.1","1","41.231637","16.30298"],
    [69,"2024-01-03 20:00:00","11","andria","13.8","1","57.23","1","0.0","1","null","6","null","6","0.0","5","988.79","1","41.231637","16.30298"],
    [70,"2024-01-03 21:00:00","11","andria","12.59","1","59.95","1","0.0","1","null","6","null","6","0.0","5","988.76","1","41.231637","16.30298"],
    [71,"2024-01-03 22:00:00","11","andria","12.34","1","61.25","1","0.0","1","null","6","null","6","0.0","1","988.3","1","41.231637","16.30298"],
    [72,"2024-01-03 23:00:00","11","andria","12.88","1","61.08","1","0.0","1","null","6","null","6","0.0","5","988.02","1","41.231637","16.30298"],
    [73,"2024-01-04 00:00:00","11","andria","13.74","1","56.28","1","0.0","1","null","6","null","6","0.0","5","987.5","1","41.231637","16.30298"],
    [74,"2024-01-04 01:00:00","11","andria","13.15","1","57.78","1","0.0","1","null","6","null","6","0.0","5","987.8","1","41.231637","16.30298"],
    [75,"2024-01-04 02:00:00","11","andria","13.7","1","56.08","1","0.0","1","null","6","null","6","0.0","1","987.31","1","41.231637","16.30298"],
    [76,"2024-01-04 03:00:00","11","andria","13.52","1","56.09","1","0.0","1","null","6","null","6","0.0","5","987.31","1","41.231637","16.30298"],
    [77,"2024-01-04 04:00:00","11","andria","13.38","1","55.38","1","0.0","1","null","6","null","6","0.0","1","987.18","1","41.231637","16.30298"],
    [78,"2024-01-04 05:00:00","11","andria","13.25","1","56.61","1","0.0","1","null","6","null","6","0.0","5","986.83","1","41.231637","16.30298"],
    [79,"2024-01-04 06:00:00","11","andria","12.96","1","57.6","1","0.0","1","null","6","null","6","0.0","5","986.66","1","41.231637","16.30298"],
    [80,"2024-01-04 07:00:00","11","andria","12.88","1","57.94","1","0.0","1","null","6","null","6","0.0","5","987.04","1","41.231637","16.30298"],
    [81,"2024-01-04 08:00:00","11","andria","11.44","1","64.32","1","0.0","1","null","6","null","6","0.0","5","987.15","1","41.231637","16.30298"],
    [82,"2024-01-04 09:00:00","11","andria","12.43","1","61.65","1","0.0","1","null","6","null","6","61.97","1","987.43","1","41.231637","16.30298"],
    [83,"2024-01-04 10:00:00","11","andria","15.42","1","54.57","1","0.0","1","null","6","null","6","118.99","1","987.95","1","41.231637","16.30298"],
    [84,"2024-01-04 11:00:00","11","andria","17.53","1","47.53","1","0.0","1","null","6","null","6","309.18","1","988.3","1","41.231637","16.30298"],
    [85,"2024-01-04 12:00:00","11","andria","18.68","1","43.21","1","0.0","1","null","6","null","6","371.91","1","988.33","1","41.231637","16.30298"],
    [86,"2024-01-04 13:00:00","11","andria","18.9","1","40.44","1","0.0","1","null","6","null","6","375.63","1","987.65","1","41.231637","16.30298"],
    [87,"2024-01-04 14:00:00","11","andria","18.5","1","40.16","1","0.0","1","null","6","null","6","312.34","1","987.18","1","41.231637","16.30298"],
    [88,"2024-01-04 15:00:00","11","andria","19.14","1","38.11","1","0.0","1","null","6","null","6","238.32","1","987.37","1","41.231637","16.30298"],
    [89,"2024-01-04 16:00:00","11","andria","18.24","1","40.24","1","0.0","1","null","6","null","6","70.8","1","987.87","1","41.231637","16.30298"],
    [90,"2024-01-04 17:00:00","11","andria","16.58","1","45.54","1","0.0","1","null","6","null","6","6.93","1","988.66","1","41.231637","16.30298"],
    [91,"2024-01-04 18:00:00","11","andria","15.32","1","49.35","1","0.0","1","null","6","null","6","0.0","5","989.32","1","41.231637","16.30298"],
    [92,"2024-01-04 19:00:00","11","andria","14.37","1","52.86","1","0.0","1","null","6","null","6","0.0","1","990.05","1","41.231637","16.30298"],
    [93,"2024-01-04 20:00:00","11","andria","13.86","1","51.62","1","0.0","1","null","6","null","6","0.0","1","990.41","1","41.231637","16.30298"],
    [94,"2024-01-04 21:00:00","11","andria","12.97","1","53.21","1","0.0","1","null","6","null","6","0.0","5","991.03","1","41.231637","16.30298"],
    [95,"2024-01-04 22:00:00","11","andria","11.49","1","58.33","1","0.0","1","null","6","null","6","0.0","5","991.6","1","41.231637","16.30298"],
    [96,"2024-01-04 23:00:00","11","andria","11.4","1","57.2","1","0.0","1","null","6","null","6","0.0","5","991.74","1","41.231637","16.30298"],
    [97,"2024-01-05 00:00:00","11","andria","11.08","1","57.91","1","0.0","1","null","6","null","6","0.0","1","991.93","1","41.231637","16.30298"],
    [98,"2024-01-05 01:00:00","11","andria","10.58","1","62.06","1","0.0","1","null","6","null","6","0.0","5","991.6","1","41.231637","16.30298"],
    [99,"2024-01-05 02:00:00","11","andria","10.45","1","64.73","1","0.0","1","null","6","null","6","0.0","1","991.63","1","41.231637","16.30298"],
    [100,"2024-01-05 03:00:00","11","andria","10.31","1","65.21","1","0.0","1","null","6","null","6","0.0","5","991.74","1","41.231637","16.30298"],
    [101,"2024-01-05 04:00:00","11","andria","10.88","1","59.3","1","0.0","1","null","6","null","6","0.0","1","991.07","1","41.231637","16.30298"],
    [102,"2024-01-05 05:00:00","11","andria","10.01","1","61.5","1","0.0","1","null","6","null","6","0.0","5","990.47","1","41.231637","16.30298"],
    [103,"2024-01-05 06:00:00","11","andria","9.19","1","64.57","1","0.0","1","null","6","null","6","0.0","1","990.28","1","41.231637","16.30298"],
    [104,"2024-01-05 07:00:00","11","andria","9.59","1","60.8","1","0.0","1","null","6","null","6","0.0","1","990.37","1","41.231637","16.30298"],
    [105,"2024-01-05 08:00:00","11","andria","10.06","1","58.49","1","0.0","1","null","6","null","6","5.46","1","990.31","1","41.231637","16.30298"],
    [106,"2024-01-05 09:00:00","11","andria","11.47","1","54.59","1","0.0","1","null","6","null","6","49.55","1","990.07","1","41.231637","16.30298"],
    [107,"2024-01-05 10:00:00","11","andria","12.81","1","57.3","1","0.0","1","null","6","null","6","118.05","1","989.85","1","41.231637","16.30298"],
    [108,"2024-01-05 11:00:00","11","andria","14.79","1","53.01","1","0.0","1","null","6","null","6","201.79","1","989.64","1","41.231637","16.30298"],
    [109,"2024-01-05 12:00:00","11","andria","15.04","1","51.5","1","0.0","1","null","6","null","6","163.72","1","988.92","1","41.231637","16.30298"],
    [110,"2024-01-05 13:00:00","11","andria","15.25","1","50.02","1","0.0","1","null","6","null","6","157.49","1","987.96","1","41.231637","16.30298"],
    [111,"2024-01-05 14:00:00","11","andria","14.78","1","52.45","1","0.0","1","null","6","null","6","78.22","1","987.29","1","41.231637","16.30298"],
    [112,"2024-01-05 15:00:00","11","andria","14.29","1","56.72","1","0.0","1","null","6","null","6","46.21","1","986.86","1","41.231637","16.30298"],
    [113,"2024-01-05 16:00:00","11","andria","13.74","1","60.0","1","0.0","1","null","6","null","6","10.12","1","986.69","1","41.231637","16.30298"],
    [114,"2024-01-05 17:00:00","11","andria","13.21","1","62.41","1","0.0","1","null","6","null","6","0.0","5","986.51","1","41.231637","16.30298"],
    [115,"2024-01-05 18:00:00","11","andria","13.3","1","72.76","1","0.0","1","null","6","null","6","0.0","1","986.07","1","41.231637","16.30298"],
    [116,"2024-01-05 19:00:00","11","andria","13.67","1","73.36","1","0.0","1","null","6","null","6","0.0","1","985.93","1","41.231637","16.30298"],
    [117,"2024-01-05 20:00:00","11","andria","13.85","1","72.12","1","0.0","1","null","6","null","6","0.0","5","986.07","1","41.231637","16.30298"],
    [118,"2024-01-05 21:00:00","11","andria","13.84","1","71.72","1","0.0","1","null","6","null","6","0.0","5","985.65","1","41.231637","16.30298"],
    [119,"2024-01-05 22:00:00","11","andria","13.73","1","72.63","1","0.0","1","null","6","null","6","0.0","5","985.1","1","41.231637","16.30298"],
    [120,"2024-01-05 23:00:00","11","andria","13.65","1","73.56","1","0.0","1","null","6","null","6","0.0","5","984.4","1","41.231637","16.30298"],
    [121,"2024-01-06 00:00:00","11","andria","13.22","1","75.96","1","0.0","1","null","6","null","6","0.0","5","984.08","1","41.231637","16.30298"],
    [122,"2024-01-06 01:00:00","11","andria","12.7","1","78.03","1","0.0","1","null","6","null","6","0.0","5","983.56","1","41.231637","16.30298"],
    [123,"2024-01-06 02:00:00","11","andria","12.6","1","75.43","1","0.0","1","null","6","null","6","0.0","5","983.45","1","41.231637","16.30298"],
    [124,"2024-01-06 03:00:00","11","andria","12.43","1","70.91","1","0.0","1","null","6","null","6","0.0","5","982.64","1","41.231637","16.30298"],
    [125,"2024-01-06 04:00:00","11","andria","12.44","1","65.96","1","0.0","1","null","6","null","6","0.0","5","982.34","1","41.231637","16.30298"],
    [126,"2024-01-06 05:00:00","11","andria","13.19","1","60.14","1","0.0","1","null","6","null","6","0.0","5","981.83","1","41.231637","16.30298"],
    [127,"2024-01-06 06:00:00","11","andria","12.73","1","61.55","1","0.0","1","null","6","null","6","0.0","1","981.5","1","41.231637","16.30298"],
    [128,"2024-01-06 07:00:00","11","andria","12.63","1","60.7","1","0.0","1","null","6","null","6","0.0","1","981.19","1","41.231637","16.30298"],
    [129,"2024-01-06 08:00:00","11","andria","12.88","1","62.37","1","0.0","1","null","6","null","6","0.0","5","980.95","1","41.231637","16.30298"],
    [130,"2024-01-06 09:00:00","11","andria","13.53","5","null","6","0.0","5","null","6","null","6","null","6","980.49","5","41.231637","16.30298"],
    [131,"2024-01-06 10:00:00","11","andria","14.17","1","69.29","1","0.0","1","null","6","null","6","27.93","1","980.03","1","41.231637","16.30298"],
    [132,"2024-01-06 11:00:00","11","andria","14.83","1","67.58","1","0.0","1","null","6","null","6","42.34","1","979.78","1","41.231637","16.30298"],
    [133,"2024-01-06 12:00:00","11","andria","14.5","1","72.27","1","0.0","1","null","6","null","6","32.2","1","978.95","1","41.231637","16.30298"],
    [134,"2024-01-06 13:00:00","11","andria","14.15","1","77.52","1","3.0","1","null","6","null","6","110.97","1","976.81","1","41.231637","16.30298"],
    [135,"2024-01-06 14:00:00","11","andria","12.47","1","83.02","1","6.0","1","null","6","null","6","8.23","1","975.07","1","41.231637","16.30298"],
    [136,"2024-01-06 15:00:00","11","andria","11.09","1","84.82","1","5.4","1","null","6","null","6","0.0","5","973.73","1","41.231637","16.30298"],
    [137,"2024-01-06 16:00:00","11","andria","11.02","1","84.31","1","0.2","1","null","6","null","6","22.77","1","972.89","1","41.231637","16.30298"],
    [138,"2024-01-06 17:00:00","11","andria","11.59","1","83.07","1","0.0","1","null","6","null","6","19.35","1","971.94","1","41.231637","16.30298"],
    [139,"2024-01-06 18:00:00","11","andria","11.06","1","86.86","1","0.0","1","null","6","null","6","0.0","5","971.4","1","41.231637","16.30298"],
    [140,"2024-01-06 19:00:00","11","andria","11.03","1","88.02","1","0.0","1","null","6","null","6","0.0","5","971.35","1","41.231637","16.30298"],
    [141,"2024-01-06 20:00:00","11","andria","10.92","1","86.91","1","0.0","1","null","6","null","6","0.0","1","971.5","1","41.231637","16.30298"],
    [142,"2024-01-06 21:00:00","11","andria","10.78","1","81.99","1","0.0","1","null","6","null","6","0.0","5","971.2","1","41.231637","16.30298"],
    [143,"2024-01-06 22:00:00","11","andria","10.02","1","83.22","1","0.0","1","null","6","null","6","0.0","1","970.61","1","41.231637","16.30298"],
    [144,"2024-01-06 23:00:00","11","andria","9.6","1","85.31","1","0.0","1","null","6","null","6","0.0","5","970.88","1","41.231637","16.30298"],
    [145,"2024-01-07 00:00:00","11","andria","9.67","1","84.06","1","0.0","1","null","6","null","6","0.0","5","970.51","1","41.231637","16.30298"],
    [146,"2024-01-07 01:00:00","11","andria","9.74","1","83.35","1","0.0","1","null","6","null","6","0.0","1","970.34","1","41.231637","16.30298"],
    [147,"2024-01-07 02:00:00","11","andria","9.89","1","81.46","1","0.0","1","null","6","null","6","0.0","5","970.48","1","41.231637","16.30298"],
    [148,"2024-01-07 03:00:00","11","andria","9.97","1","80.24","1","0.0","1","null","6","null","6","0.0","5","970.29","1","41.231637","16.30298"],
    [149,"2024-01-07 04:00:00","11","andria","9.88","1","78.66","1","0.0","1","null","6","null","6","0.0","5","969.95","1","41.231637","16.30298"],
    [150,"2024-01-07 05:00:00","11","andria","9.33","1","82.79","1","0.0","1","null","6","null","6","0.0","5","969.73","1","41.231637","16.30298"],
    [151,"2024-01-07 06:00:00","11","andria","9.52","1","86.75","1","0.0","1","null","6","null","6","0.0","5","970.17","1","41.231637","16.30298"],
    [152,"2024-01-07 07:00:00","11","andria","9.76","1","88.23","1","0.0","1","null","6","null","6","0.0","5","970.78","1","41.231637","16.30298"],
    [153,"2024-01-07 08:00:00","11","andria","9.84","1","88.45","1","0.0","1","null","6","null","6","0.0","5","971.43","1","41.231637","16.30298"],
    [154,"2024-01-07 09:00:00","11","andria","9.96","1","87.69","1","0.0","1","null","6","null","6","38.04","1","971.78","1","41.231637","16.30298"],
    [155,"2024-01-07 10:00:00","11","andria","10.41","1","85.48","1","0.0","1","null","6","null","6","97.0","1","972.36","1","41.231637","16.30298"],
    [156,"2024-01-07 11:00:00","11","andria","11.69","1","79.88","1","0.0","1","null","6","null","6","184.03","1","972.6","1","41.231637","16.30298"],
    [157,"2024-01-07 12:00:00","11","andria","11.5","1","78.91","1","0.0","1","null","6","null","6","125.93","1","972.49","1","41.231637","16.30298"],
    [158,"2024-01-07 13:00:00","11","andria","11.81","1","75.62","1","0.0","1","null","6","null","6","127.39","1","972.23","1","41.231637","16.30298"],
    [159,"2024-01-07 14:00:00","11","andria","12.59","1","70.32","1","0.0","1","null","6","null","6","114.6","1","972.29","1","41.231637","16.30298"],
    [160,"2024-01-07 15:00:00","11","andria","12.41","1","66.46","1","0.0","1","null","6","null","6","77.17","1","972.56","1","41.231637","16.30298"],
    [161,"2024-01-07 16:00:00","11","andria","11.01","1","67.88","1","0.0","1","null","6","null","6","52.28","1","972.99","1","41.231637","16.30298"],
    [162,"2024-01-07 17:00:00","11","andria","10.63","1","63.73","1","0.0","1","null","6","null","6","7.31","1","973.5","1","41.231637","16.30298"],
    [163,"2024-01-07 18:00:00","11","andria","10.26","1","63.18","1","0.0","1","null","6","null","6","0.0","1","974.2","1","41.231637","16.30298"],
    [164,"2024-01-07 19:00:00","11","andria","9.47","1","71.62","1","0.0","1","null","6","null","6","0.0","5","975.37","1","41.231637","16.30298"],
    [165,"2024-01-07 20:00:00","11","andria","9.08","1","73.8","1","0.4","1","null","6","null","6","0.0","5","976.15","1","41.231637","16.30298"],
    [166,"2024-01-07 21:00:00","11","andria","8.37","1","80.25","1","2.4","1","null","6","null","6","0.0","5","976.71","1","41.231637","16.30298"],
    [167,"2024-01-07 22:00:00","11","andria","7.9","1","82.81","1","0.6","1","null","6","null","6","0.0","5","977.18","1","41.231637","16.30298"],
    [168,"2024-01-07 23:00:00","11","andria","7.75","1","84.42","1","0.4","1","null","6","null","6","0.0","1","977.36","1","41.231637","16.30298"],
    [169,"2024-01-08 00:00:00","11","andria","7.75","1","84.58","1","0.8","1","null","6","null","6","0.0","1","977.68","1","41.231637","16.30298"],
    [170,"2024-01-08 01:00:00","11","andria","7.95","1","84.75","1","0.4","1","null","6","null","6","0.0","5","977.51","1","41.231637","16.30298"],
    [171,"2024-01-08 02:00:00","11","andria","8.06","1","85.55","1","0.4","1","null","6","null","6","0.0","5","977.79","1","41.231637","16.30298"],
    [172,"2024-01-08 03:00:00","11","andria","8.04","1","85.25","1","0.4","1","null","6","null","6","0.0","5","978.12","1","41.231637","16.30298"],
    [173,"2024-01-08 04:00:00","11","andria","8.2","1","84.01","1","0.2","1","null","6","null","6","0.0","5","978.13","1","41.231637","16.30298"],
    [174,"2024-01-08 05:00:00","11","andria","8.04","1","82.3","1","0.0","1","null","6","null","6","0.0","1","978.16","1","41.231637","16.30298"],
    [175,"2024-01-08 06:00:00","11","andria","8.22","1","78.18","1","0.0","1","null","6","null","6","0.0","1","978.56","1","41.231637","16.30298"],
    [176,"2024-01-08 07:00:00","11","andria","8.4","1","77.14","1","0.2","1","null","6","null","6","0.0","5","978.9","1","41.231637","16.30298"],
    [177,"2024-01-08 08:00:00","11","andria","8.17","1","80.0","1","0.0","1","null","6","null","6","11.15","1","979.37","1","41.231637","16.30298"],
    [178,"2024-01-08 09:00:00","11","andria","8.54","1","78.13","1","0.0","1","null","6","null","6","49.14","1","979.9","1","41.231637","16.30298"],
    [179,"2024-01-08 10:00:00","11","andria","9.59","1","74.21","1","0.0","1","null","6","null","6","87.67","1","980.52","1","41.231637","16.30298"],
    [180,"2024-01-08 11:00:00","11","andria","10.91","1","68.09","1","0.0","1","null","6","null","6","157.11","1","980.92","1","41.231637","16.30298"],
    [181,"2024-01-08 12:00:00","11","andria","11.7","1","65.6","1","0.0","1","null","6","null","6","191.55","1","980.71","1","41.231637","16.30298"],
    [182,"2024-01-08 13:00:00","11","andria","12.37","1","62.51","1","0.0","1","null","6","null","6","163.28","1","980.43","1","41.231637","16.30298"],
    [183,"2024-01-08 14:00:00","11","andria","11.99","1","68.18","1","0.0","1","null","6","null","6","165.87","1","980.51","1","41.231637","16.30298"],
    [184,"2024-01-08 15:00:00","11","andria","11.51","1","69.1","1","0.0","1","null","6","null","6","77.32","1","980.71","1","41.231637","16.30298"],
    [185,"2024-01-08 16:00:00","11","andria","10.54","1","73.68","1","0.0","1","null","6","null","6","48.63","1","981.34","1","41.231637","16.30298"],
    [186,"2024-01-08 17:00:00","11","andria","10.08","1","75.49","1","0.0","1","null","6","null","6","10.49","1","981.96","1","41.231637","16.30298"],
    [187,"2024-01-08 18:00:00","11","andria","9.48","1","78.55","1","0.0","1","null","6","null","6","0.0","1","982.65","1","41.231637","16.30298"],
    [188,"2024-01-08 19:00:00","11","andria","9.08","1","80.83","1","0.0","1","null","6","null","6","0.0","5","983.24","1","41.231637","16.30298"],
    [189,"2024-01-08 20:00:00","11","andria","8.9","1","82.6","1","1.6","1","null","6","null","6","0.0","5","983.98","1","41.231637","16.30298"],
    [190,"2024-01-08 21:00:00","11","andria","8.53","1","88.11","1","0.8","1","null","6","null","6","0.0","1","984.78","1","41.231637","16.30298"],
    [191,"2024-01-08 22:00:00","11","andria","8.16","1","91.15","1","0.2","1","null","6","null","6","0.0","5","985.61","1","41.231637","16.30298"],
    [192,"2024-01-08 23:00:00","11","andria","7.89","1","92.85","1","2.4","1","null","6","null","6","0.0","1","986.24","1","41.231637","16.30298"],
    [193,"2024-01-09 00:00:00","11","andria","7.78","1","93.88","1","2.6","1","null","6","null","6","0.0","5","986.65","1","41.231637","16.30298"],
    [194,"2024-01-09 01:00:00","11","andria","7.7","1","94.56","1","0.8","1","null","6","null","6","0.0","5","987.11","1","41.231637","16.30298"],
    [195,"2024-01-09 02:00:00","11","andria","7.66","1","94.96","1","1.0","1","null","6","null","6","0.0","5","987.48","1","41.231637","16.30298"],
    [196,"2024-01-09 03:00:00","11","andria","7.33","1","95.32","1","0.6","1","null","6","null","6","0.0","5","988.11","1","41.231637","16.30298"],
    [197,"2024-01-09 04:00:00","11","andria","7.55","1","95.82","1","0.0","1","null","6","null","6","0.0","1","988.5","1","41.231637","16.30298"],
    [198,"2024-01-09 05:00:00","11","andria","7.64","1","95.91","1","0.0","1","null","6","null","6","0.0","5","989.03","1","41.231637","16.30298"],
    [199,"2024-01-09 06:00:00","11","andria","7.29","1","95.86","1","3.0","1","null","6","null","6","0.0","1","989.62","1","41.231637","16.30298"],
    [200,"2024-01-09 07:00:00","11","andria","7.11","1","95.95","1","0.2","1","null","6","null","6","0.0","1","990.45","1","41.231637","16.30298"],
    [201,"2024-01-09 08:00:00","11","andria","6.87","1","95.83","1","0.0","1","null","6","null","6","0.0","1","991.43","1","41.231637","16.30298"],
    [202,"2024-01-09 09:00:00","11","andria","6.78","1","95.67","1","1.4","1","null","6","null","6","5.6","1","992.5","1","41.231637","16.30298"],
    [203,"2024-01-09 10:00:00","11","andria","6.41","1","95.39","1","0.4","1","null","6","null","6","18.2","1","993.41","1","41.231637","16.30298"],
    [204,"2024-01-09 11:00:00","11","andria","6.32","1","94.81","1","0.2","1","null","6","null","6","18.99","1","994.2","1","41.231637","16.30298"],
    [205,"2024-01-09 12:00:00","11","andria","6.75","1","93.09","1","0.0","1","null","6","null","6","45.97","1","994.42","1","41.231637","16.30298"],
    [206,"2024-01-09 13:00:00","11","andria","7.1","1","89.82","1","0.0","1","null","6","null","6","53.45","1","994.59","1","41.231637","16.30298"],
    [207,"2024-01-09 14:00:00","11","andria","7.99","1","81.88","1","0.0","1","null","6","null","6","84.65","1","994.76","1","41.231637","16.30298"],
    [208,"2024-01-09 15:00:00","11","andria","8.3","1","77.37","1","0.0","1","null","6","null","6","70.24","1","995.14","1","41.231637","16.30298"],
    [209,"2024-01-09 16:00:00","11","andria","8.08","1","75.3","1","0.0","1","null","6","null","6","35.25","1","995.84","1","41.231637","16.30298"],
    [210,"2024-01-09 17:00:00","11","andria","7.65","1","76.14","1","0.0","1","null","6","null","6","0.0","5","996.32","1","41.231637","16.30298"],
    [211,"2024-01-09 18:00:00","11","andria","7.32","1","76.21","1","0.0","1","null","6","null","6","0.0","5","996.9","1","41.231637","16.30298"],
    [212,"2024-01-09 19:00:00","11","andria","7.18","1","75.32","1","0.0","1","null","6","null","6","0.0","1","997.38","1","41.231637","16.30298"],
    [213,"2024-01-09 20:00:00","11","andria","7.06","1","75.57","1","0.0","1","null","6","null","6","0.0","5","997.99","1","41.231637","16.30298"],
    [214,"2024-01-09 21:00:00","11","andria","6.92","1","78.15","1","0.0","1","null","6","null","6","0.0","1","998.58","1","41.231637","16.30298"],
    [215,"2024-01-09 22:00:00","11","andria","6.67","1","80.12","1","0.0","1","null","6","null","6","0.0","1","998.83","1","41.231637","16.30298"],
    [216,"2024-01-09 23:00:00","11","andria","6.08","1","81.91","1","0.0","1","null","6","null","6","0.0","5","999.47","1","41.231637","16.30298"],
    [217,"2024-01-10 00:00:00","11","andria","5.63","1","83.71","1","0.0","1","null","6","null","6","0.0","5","999.5","1","41.231637","16.30298"],
    [218,"2024-01-10 01:00:00","11","andria","5.44","1","84.72","1","0.0","1","null","6","null","6","0.0","1","999.45","1","41.231637","16.30298"],
    [219,"2024-01-10 02:00:00","11","andria","5.4","1","85.58","1","0.0","1","null","6","null","6","0.0","5","999.82","1","41.231637","16.30298"],
    [220,"2024-01-10 03:00:00","11","andria","5.81","1","85.14","1","0.0","1","null","6","null","6","0.0","5","1000.29","1","41.231637","16.30298"],
    [221,"2024-01-10 04:00:00","11","andria","5.9","1","84.46","1","0.0","1","null","6","null","6","0.0","5","1000.35","1","41.231637","16.30298"],
    [222,"2024-01-10 05:00:00","11","andria","5.82","1","85.44","1","0.0","1","null","6","null","6","0.0","5","1000.27","1","41.231637","16.30298"],
    [223,"2024-01-10 06:00:00","11","andria","5.86","1","85.58","1","0.0","1","null","6","null","6","0.0","5","1000.62","1","41.231637","16.30298"],
    [224,"2024-01-10 07:00:00","11","andria","5.95","1","84.32","1","0.0","1","null","6","null","6","0.0","5","1001.21","1","41.231637","16.30298"],
    [225,"2024-01-10 08:00:00","11","andria","6.09","1","82.13","1","0.0","1","null","6","null","6","0.0","5","1001.46","1","41.231637","16.30298"],
    [226,"2024-01-10 09:00:00","11","andria","6.18","1","77.1","1","0.0","1","null","6","null","6","23.2","1","1001.91","1","41.231637","16.30298"],
    [227,"2024-01-10 10:00:00","11","andria","6.41","1","74.85","1","0.0","1","null","6","null","6","58.06","1","1002.51","1","41.231637","16.30298"],
    [228,"2024-01-10 11:00:00","11","andria","7.22","1","71.55","1","0.0","1","null","6","null","6","148.51","1","1002.42","1","41.231637","16.30298"],
    [229,"2024-01-10 12:00:00","11","andria","8.05","1","69.29","1","0.0","1","null","6","null","6","155.03","1","1002.17","1","41.231637","16.30298"],
    [230,"2024-01-10 13:00:00","11","andria","8.93","1","67.85","1","0.0","1","null","6","null","6","194.48","1","1001.73","1","41.231637","16.30298"],
    [231,"2024-01-10 14:00:00","11","andria","9.63","1","65.55","1","0.0","1","null","6","null","6","217.5","1","1001.36","1","41.231637","16.30298"],
    [232,"2024-01-10 15:00:00","11","andria","9.6","1","65.12","1","0.0","1","null","6","null","6","102.91","1","1001.27","1","41.231637","16.30298"],
    [233,"2024-01-10 16:00:00","11","andria","8.96","1","69.72","1","0.0","1","null","6","null","6","35.58","1","1001.61","1","41.231637","16.30298"],
    [234,"2024-01-10 17:00:00","11","andria","8.41","1","74.23","1","0.0","1","null","6","null","6","8.42","1","1001.97","1","41.231637","16.30298"],
    [235,"2024-01-10 18:00:00","11","andria","7.93","1","77.64","1","0.0","1","null","6","null","6","0.0","5","1001.58","1","41.231637","16.30298"],
    [236,"2024-01-10 19:00:00","11","andria","7.7","1","79.47","1","0.0","1","null","6","null","6","0.0","1","1001.58","1","41.231637","16.30298"],
    [237,"2024-01-10 20:00:00","11","andria","7.42","1","82.43","1","0.0","1","null","6","null","6","0.0","1","1001.86","1","41.231637","16.30298"],
    [238,"2024-01-10 21:00:00","11","andria","7.19","1","84.87","1","0.0","1","null","6","null","6","0.0","1","1001.8","1","41.231637","16.30298"],
    [239,"2024-01-10 22:00:00","11","andria","6.93","1","87.13","1","0.0","1","null","6","null","6","0.0","5","1001.79","1","41.231637","16.30298"],
    [240,"2024-01-10 23:00:00","11","andria","6.8","1","86.7","1","0.0","1","null","6","null","6","0.0","1","1001.52","1","41.231637","16.30298"],
    [241,"2024-01-11 00:00:00","11","andria","6.84","1","85.11","1","0.0","1","null","6","null","6","0.0","5","1001.23","1","41.231637","16.30298"],
    [242,"2024-01-11 01:00:00","11","andria","6.95","1","83.37","1","0.0","1","null","6","null","6","0.0","5","1000.82","1","41.231637","16.30298"],
    [243,"2024-01-11 02:00:00","11","andria","6.99","1","82.6","1","0.0","1","null","6","null","6","0.0","1","1000.48","1","41.231637","16.30298"],
    [244,"2024-01-11 03:00:00","11","andria","7.12","1","81.72","1","0.0","1","null","6","null","6","0.0","5","1000.28","1","41.231637","16.30298"],
    [245,"2024-01-11 04:00:00","11","andria","6.77","1","83.34","1","0.0","1","null","6","null","6","0.0","5","1000.08","1","41.231637","16.30298"],
    [246,"2024-01-11 05:00:00","11","andria","6.84","1","83.23","1","0.0","1","null","6","null","6","0.0","5","999.63","1","41.231637","16.30298"],
    [247,"2024-01-11 06:00:00","11","andria","6.78","1","82.47","1","0.0","1","null","6","null","6","0.0","1","999.24","1","41.231637","16.30298"],
    [248,"2024-01-11 07:00:00","11","andria","6.62","1","83.83","1","0.0","1","null","6","null","6","0.0","1","999.38","1","41.231637","16.30298"],
    [249,"2024-01-11 08:00:00","11","andria","6.58","1","84.75","1","0.0","1","null","6","null","6","0.0","5","999.53","1","41.231637","16.30298"],
    [250,"2024-01-11 09:00:00","11","andria","6.86","1","83.86","1","0.0","1","null","6","null","6","42.94","1","999.36","1","41.231637","16.30298"],
    [251,"2024-01-11 10:00:00","11","andria","7.62","1","81.2","1","0.0","1","null","6","null","6","97.4","1","999.18","1","41.231637","16.30298"],
    [252,"2024-01-11 11:00:00","11","andria","8.18","1","78.37","1","0.0","1","null","6","null","6","80.8","1","998.99","1","41.231637","16.30298"],
    [253,"2024-01-11 12:00:00","11","andria","8.18","1","78.43","1","0.0","1","null","6","null","6","48.26","1","998.44","1","41.231637","16.30298"],
    [254,"2024-01-11 13:00:00","11","andria","7.92","1","80.94","1","0.0","1","null","6","null","6","35.1","1","997.83","1","41.231637","16.30298"],
    [255,"2024-01-11 14:00:00","11","andria","7.67","1","82.19","1","0.2","1","null","6","null","6","56.69","1","997.2","1","41.231637","16.30298"],
    [256,"2024-01-11 15:00:00","11","andria","7.9","1","81.28","1","0.0","1","null","6","null","6","100.16","1","996.48","1","41.231637","16.30298"],
    [257,"2024-01-11 16:00:00","11","andria","8.13","1","78.23","1","0.0","1","null","6","null","6","40.82","1","996.38","1","41.231637","16.30298"],
    [258,"2024-01-11 17:00:00","11","andria","8.12","1","77.34","1","0.0","1","null","6","null","6","6.37","1","996.37","1","41.231637","16.30298"],
    [259,"2024-01-11 18:00:00","11","andria","7.85","1","79.52","1","0.0","1","null","6","null","6","0.0","1","996.25","1","41.231637","16.30298"],
    [260,"2024-01-11 19:00:00","11","andria","7.53","1","82.9","1","0.0","1","null","6","null","6","0.0","1","996.18","1","41.231637","16.30298"],
    [261,"2024-01-11 20:00:00","11","andria","7.45","1","84.7","1","0.0","1","null","6","null","6","0.0","1","995.72","1","41.231637","16.30298"],
    [262,"2024-01-11 21:00:00","11","andria","7.42","1","86.26","1","0.0","1","null","6","null","6","0.0","1","995.75","1","41.231637","16.30298"],
    [263,"2024-01-11 22:00:00","11","andria","7.25","1","87.01","1","0.0","1","null","6","null","6","0.0","1","995.81","1","41.231637","16.30298"],
    [264,"2024-01-11 23:00:00","11","andria","6.99","1","87.39","1","0.0","1","null","6","null","6","0.0","5","995.74","1","41.231637","16.30298"],
    [265,"2024-01-12 00:00:00","11","andria","6.76","1","85.81","1","0.0","1","null","6","null","6","0.0","5","995.52","1","41.231637","16.30298"],
    [266,"2024-01-12 01:00:00","11","andria","6.48","1","85.3","1","0.0","1","null","6","null","6","0.0","5","995.12","1","41.231637","16.30298"],
    [267,"2024-01-12 02:00:00","11","andria","6.34","1","86.5","1","0.0","1","null","6","null","6","0.0","5","994.97","1","41.231637","16.30298"],
    [268,"2024-01-12 03:00:00","11","andria","6.15","1","87.44","1","0.0","1","null","6","null","6","0.0","5","994.75","1","41.231637","16.30298"],
    [269,"2024-01-12 04:00:00","11","andria","5.94","1","88.72","1","0.0","1","null","6","null","6","0.0","1","994.44","1","41.231637","16.30298"],
    [270,"2024-01-12 05:00:00","11","andria","5.82","1","89.59","1","0.0","1","null","6","null","6","0.0","1","994.11","1","41.231637","16.30298"],
    [271,"2024-01-12 06:00:00","11","andria","5.71","1","89.45","1","0.0","1","null","6","null","6","0.0","1","994.04","1","41.231637","16.30298"],
    [272,"2024-01-12 07:00:00","11","andria","5.5","1","89.2","1","0.0","1","null","6","null","6","0.0","1","994.29","1","41.231637","16.30298"],
    [273,"2024-01-12 08:00:00","11","andria","4.99","1","89.23","1","0.0","1","null","6","null","6","6.02","1","994.21","1","41.231637","16.30298"],
    [274,"2024-01-12 09:00:00","11","andria","5.47","1","87.31","1","0.0","1","null","6","null","6","68.96","1","994.76","1","41.231637","16.30298"],
    [275,"2024-01-12 10:00:00","11","andria","6.51","1","80.8","1","0.0","1","null","6","null","6","125.95","1","995.2","1","41.231637","16.30298"],
    [276,"2024-01-12 11:00:00","11","andria","8.69","1","68.75","1","0.0","1","null","6","null","6","266.5","1","995.34","1","41.231637","16.30298"],
    [277,"2024-01-12 12:00:00","11","andria","9.16","1","63.69","1","0.0","1","null","6","null","6","184.56","1","995.32","1","41.231637","16.30298"],
    [278,"2024-01-12 13:00:00","11","andria","9.96","1","53.32","1","0.0","1","null","6","null","6","262.84","1","994.73","1","41.231637","16.30298"],
    [279,"2024-01-12 14:00:00","11","andria","10.24","1","48.39","1","0.0","1","null","6","null","6","201.79","1","994.5","1","41.231637","16.30298"],
    [280,"2024-01-12 15:00:00","11","andria","11.01","1","44.02","1","0.0","1","null","6","null","6","224.9","1","994.24","1","41.231637","16.30298"],
    [281,"2024-01-12 16:00:00","11","andria","9.94","1","51.75","1","0.0","1","null","6","null","6","60.14","1","994.55","1","41.231637","16.30298"],
    [282,"2024-01-12 17:00:00","11","andria","8.93","1","57.38","1","0.0","1","null","6","null","6","0.0","5","994.98","1","41.231637","16.30298"],
    [283,"2024-01-12 18:00:00","11","andria","7.9","1","58.28","1","0.0","1","null","6","null","6","0.0","1","995.46","1","41.231637","16.30298"],
    [284,"2024-01-12 19:00:00","11","andria","6.76","1","58.86","1","0.0","1","null","6","null","6","0.0","1","995.97","1","41.231637","16.30298"],
    [285,"2024-01-12 20:00:00","11","andria","5.67","1","63.41","1","0.0","1","null","6","null","6","0.0","1","996.2","1","41.231637","16.30298"],
    [286,"2024-01-12 21:00:00","11","andria","5.03","1","65.2","1","0.0","1","null","6","null","6","0.0","5","996.5","1","41.231637","16.30298"],
    [287,"2024-01-12 22:00:00","11","andria","4.66","1","66.01","1","0.0","1","null","6","null","6","0.0","5","996.85","1","41.231637","16.30298"],
    [288,"2024-01-12 23:00:00","11","andria","4.29","1","67.82","1","0.0","1","null","6","null","6","0.0","1","997.41","1","41.231637","16.30298"],
    [289,"2024-01-13 00:00:00","11","andria","4.14","1","64.76","1","0.0","1","null","6","null","6","0.0","5","997.51","1","41.231637","16.30298"],
    [290,"2024-01-13 01:00:00","11","andria","3.62","1","64.96","1","0.0","1","null","6","null","6","0.0","1","997.38","1","41.231637","16.30298"],
    [291,"2024-01-13 02:00:00","11","andria","3.43","1","67.5","1","0.0","1","null","6","null","6","0.0","5","997.61","1","41.231637","16.30298"],
    [292,"2024-01-13 03:00:00","11","andria","3.56","1","67.32","1","0.0","1","null","6","null","6","0.0","1","997.62","1","41.231637","16.30298"],
    [293,"2024-01-13 04:00:00","11","andria","3.12","1","68.86","1","0.0","1","null","6","null","6","0.0","1","997.48","1","41.231637","16.30298"],
    [294,"2024-01-13 05:00:00","11","andria","3.37","1","66.61","1","0.0","1","null","6","null","6","0.0","1","997.36","1","41.231637","16.30298"],
    [295,"2024-01-13 06:00:00","11","andria","2.95","1","65.69","1","0.0","1","null","6","null","6","0.0","1","997.7","1","41.231637","16.30298"],
    [296,"2024-01-13 07:00:00","11","andria","2.55","1","67.92","1","0.0","1","null","6","null","6","0.0","1","998.0","1","41.231637","16.30298"],
    [297,"2024-01-13 08:00:00","11","andria","2.17","1","72.38","1","0.0","1","null","6","null","6","0.0","5","998.53","1","41.231637","16.30298"],
    [298,"2024-01-13 09:00:00","11","andria","3.18","1","74.99","1","0.0","1","null","6","null","6","69.19","1","999.01","1","41.231637","16.30298"],
    [299,"2024-01-13 10:00:00","11","andria","5.4","1","68.18","1","0.0","1","null","6","null","6","127.52","1","999.24","1","41.231637","16.30298"],
    [300,"2024-01-13 11:00:00","11","andria","7.31","1","62.33","1","0.0","1","null","6","null","6","320.94","1","999.08","1","41.231637","16.30298"],
    [301,"2024-01-13 12:00:00","11","andria","8.77","1","57.91","1","0.0","1","null","6","null","6","414.58","1","998.79","1","41.231637","16.30298"],
    [302,"2024-01-13 13:00:00","11","andria","8.98","1","56.61","1","0.0","1","null","6","null","6","329.36","1","998.04","1","41.231637","16.30298"],
    [303,"2024-01-13 14:00:00","11","andria","9.01","1","54.85","1","0.0","1","null","6","null","6","329.3","1","997.41","1","41.231637","16.30298"],
    [304,"2024-01-13 15:00:00","11","andria","9.58","1","54.87","1","0.0","1","null","6","null","6","202.85","1","997.22","1","41.231637","16.30298"],
    [305,"2024-01-13 16:00:00","11","andria","9.2","1","58.59","1","0.0","1","null","6","null","6","77.65","1","997.01","1","41.231637","16.30298"],
    [306,"2024-01-13 17:00:00","11","andria","8.07","1","66.42","1","0.0","1","null","6","null","6","11.1","1","997.29","1","41.231637","16.30298"],
    [307,"2024-01-13 18:00:00","11","andria","6.68","1","72.65","1","0.0","1","null","6","null","6","0.0","5","997.68","1","41.231637","16.30298"],
    [308,"2024-01-13 19:00:00","11","andria","6.1","1","72.99","1","0.0","1","null","6","null","6","0.0","1","997.46","1","41.231637","16.30298"],
    [309,"2024-01-13 20:00:00","11","andria","5.57","1","73.25","1","0.0","1","null","6","null","6","0.0","1","997.43","1","41.231637","16.30298"],
    [310,"2024-01-13 21:00:00","11","andria","5.17","1","73.37","1","0.0","1","null","6","null","6","0.0","1","997.49","1","41.231637","16.30298"],
    [311,"2024-01-13 22:00:00","11","andria","5.07","1","72.36","1","0.0","1","null","6","null","6","0.0","1","997.22","1","41.231637","16.30298"],
    [312,"2024-01-13 23:00:00","11","andria","4.99","1","69.56","1","0.0","1","null","6","null","6","0.0","5","996.93","1","41.231637","16.30298"],
    [313,"2024-01-14 00:00:00","11","andria","5.01","1","68.02","1","0.0","1","null","6","null","6","0.0","1","996.45","1","41.231637","16.30298"],
    [314,"2024-01-14 01:00:00","11","andria","4.65","1","65.71","1","0.0","1","null","6","null","6","0.0","1","995.87","1","41.231637","16.30298"],
    [315,"2024-01-14 02:00:00","11","andria","4.86","1","58.99","1","0.0","1","null","6","null","6","0.0","1","995.61","1","41.231637","16.30298"],
    [316,"2024-01-14 03:00:00","11","andria","4.47","1","57.86","1","0.0","1","null","6","null","6","0.0","5","995.22","1","41.231637","16.30298"],
    [317,"2024-01-14 04:00:00","11","andria","4.67","1","55.44","1","0.0","1","null","6","null","6","0.0","5","994.52","1","41.231637","16.30298"],
    [318,"2024-01-14 05:00:00","11","andria","4.78","1","52.22","1","0.0","1","null","6","null","6","0.0","1","994.15","1","41.231637","16.30298"],
    [319,"2024-01-14 06:00:00","11","andria","4.97","1","50.3","1","0.0","1","null","6","null","6","0.0","1","994.13","1","41.231637","16.30298"],
    [320,"2024-01-14 07:00:00","11","andria","4.96","1","51.26","1","0.0","1","null","6","null","6","0.0","5","994.12","1","41.231637","16.30298"],
    [321,"2024-01-14 08:00:00","11","andria","4.97","1","52.96","1","0.0","1","null","6","null","6","0.0","5","994.05","1","41.231637","16.30298"],
    [322,"2024-01-14 09:00:00","11","andria","6.19","1","52.35","1","0.0","1","null","6","null","6","79.64","1","994.08","1","41.231637","16.30298"],
    [323,"2024-01-14 10:00:00","11","andria","8.06","1","50.27","1","0.0","1","null","6","null","6","104.98","1","994.18","1","41.231637","16.30298"],
    [324,"2024-01-14 11:00:00","11","andria","9.29","1","56.55","1","0.2","1","null","6","null","6","220.65","1","993.84","1","41.231637","16.30298"],
    [325,"2024-01-14 12:00:00","11","andria","12.25","1","49.84","1","0.0","1","null","6","null","6","290.19","1","992.72","1","41.231637","16.30298"],
    [326,"2024-01-14 13:00:00","11","andria","11.52","1","53.77","1","0.0","1","null","6","null","6","93.99","1","992.14","1","41.231637","16.30298"],
    [327,"2024-01-14 14:00:00","11","andria","11.33","1","55.83","1","0.0","1","null","6","null","6","108.06","1","991.28","1","41.231637","16.30298"],
    [328,"2024-01-14 15:00:00","11","andria","12.76","1","52.94","1","0.0","1","null","6","null","6","221.01","1","990.59","1","41.231637","16.30298"],
    [329,"2024-01-14 16:00:00","11","andria","12.15","1","53.22","1","0.0","1","null","6","null","6","71.05","1","990.49","1","41.231637","16.30298"],
    [330,"2024-01-14 17:00:00","11","andria","11.67","1","54.94","1","0.0","1","null","6","null","6","8.75","1","990.11","1","41.231637","16.30298"],
    [331,"2024-01-14 18:00:00","11","andria","10.43","1","60.03","1","0.0","1","null","6","null","6","0.0","1","989.8","1","41.231637","16.30298"],
    [332,"2024-01-14 19:00:00","11","andria","8.57","1","65.77","1","0.0","1","null","6","null","6","0.0","5","989.71","1","41.231637","16.30298"],
    [333,"2024-01-14 20:00:00","11","andria","8.03","1","67.4","1","0.0","1","null","6","null","6","0.0","1","989.42","1","41.231637","16.30298"],
    [334,"2024-01-14 21:00:00","11","andria","8.11","1","68.35","1","0.0","1","null","6","null","6","0.0","1","989.35","1","41.231637","16.30298"],
    [335,"2024-01-14 22:00:00","11","andria","7.8","1","70.31","1","0.0","1","null","6","null","6","0.0","5","988.77","1","41.231637","16.30298"],
    [336,"2024-01-14 23:00:00","11","andria","7.84","1","70.35","1","0.0","1","null","6","null","6","0.0","1","988.26","1","41.231637","16.30298"],
    [337,"2024-01-15 00:00:00","11","andria","9.05","1","64.11","1","0.0","1","null","6","null","6","0.0","5","987.55","1","41.231637","16.30298"],
    [338,"2024-01-15 01:00:00","11","andria","9.62","1","60.85","1","0.0","1","null","6","null","6","0.0","5","986.86","1","41.231637","16.30298"],
    [339,"2024-01-15 02:00:00","11","andria","9.68","1","59.73","1","0.0","1","null","6","null","6","0.0","5","986.23","1","41.231637","16.30298"],
    [340,"2024-01-15 03:00:00","11","andria","9.92","1","57.63","1","0.0","1","null","6","null","6","0.0","5","985.67","1","41.231637","16.30298"],
    [341,"2024-01-15 04:00:00","11","andria","10.29","1","56.59","1","0.0","1","null","6","null","6","0.0","5","984.66","1","41.231637","16.30298"],
    [342,"2024-01-15 05:00:00","11","andria","9.22","1","67.36","1","0.2","1","null","6","null","6","0.0","1","983.83","1","41.231637","16.30298"],
    [343,"2024-01-15 06:00:00","11","andria","8.43","1","76.19","1","0.0","1","null","6","null","6","0.0","5","982.76","1","41.231637","16.30298"],
    [344,"2024-01-15 07:00:00","11","andria","9.24","1","71.65","1","0.0","1","null","6","null","6","0.0","1","982.15","1","41.231637","16.30298"],
    [345,"2024-01-15 08:00:00","11","andria","9.66","1","71.1","1","0.0","1","null","6","null","6","0.0","5","981.57","1","41.231637","16.30298"],
    [346,"2024-01-15 09:00:00","11","andria","9.97","1","70.92","1","0.0","1","null","6","null","6","21.9","1","981.12","1","41.231637","16.30298"],
    [347,"2024-01-15 10:00:00","11","andria","10.67","1","69.3","1","0.0","1","null","6","null","6","44.3","1","980.93","1","41.231637","16.30298"],
    [348,"2024-01-15 11:00:00","11","andria","11.72","1","64.63","1","0.0","1","null","6","null","6","94.63","1","980.87","1","41.231637","16.30298"],
    [349,"2024-01-15 12:00:00","11","andria","13.18","1","61.02","1","0.0","1","null","6","null","6","194.01","1","979.94","1","41.231637","16.30298"],
    [350,"2024-01-15 13:00:00","11","andria","14.48","1","59.04","1","0.0","1","null","6","null","6","193.98","1","979.09","1","41.231637","16.30298"],
    [351,"2024-01-15 14:00:00","11","andria","15.21","1","57.21","1","0.0","1","null","6","null","6","195.48","1","978.56","1","41.231637","16.30298"],
    [352,"2024-01-15 15:00:00","11","andria","15.66","1","53.69","1","0.0","1","null","6","null","6","164.12","1","978.25","1","41.231637","16.30298"],
    [353,"2024-01-15 16:00:00","11","andria","15.11","1","54.61","1","0.0","1","null","6","null","6","77.44","1","978.0","1","41.231637","16.30298"],
    [354,"2024-01-15 17:00:00","11","andria","14.12","1","57.12","1","0.0","1","null","6","null","6","16.93","1","978.32","1","41.231637","16.30298"],
    [355,"2024-01-15 18:00:00","11","andria","12.99","1","62.67","1","0.0","1","null","6","null","6","0.0","1","978.86","1","41.231637","16.30298"],
    [356,"2024-01-15 19:00:00","11","andria","12.49","1","64.28","1","0.0","1","null","6","null","6","0.0","1","979.07","1","41.231637","16.30298"],
    [357,"2024-01-15 20:00:00","11","andria","12.09","1","64.65","1","0.0","1","null","6","null","6","0.0","1","979.26","1","41.231637","16.30298"],
    [358,"2024-01-15 21:00:00","11","andria","11.6","1","64.35","1","0.0","1","null","6","null","6","0.0","1","979.34","1","41.231637","16.30298"],
    [359,"2024-01-15 22:00:00","11","andria","11.35","1","63.58","1","0.0","1","null","6","null","6","0.0","1","979.22","1","41.231637","16.30298"],
    [360,"2024-01-15 23:00:00","11","andria","11.51","1","60.24","1","0.0","1","null","6","null","6","0.0","1","979.6","1","41.231637","16.30298"],
    [361,"2024-01-16 00:00:00","11","andria","11.31","1","60.75","1","0.0","1","null","6","null","6","0.0","1","980.14","1","41.231637","16.30298"],
    [362,"2024-01-16 01:00:00","11","andria","10.9","1","63.2","1","0.0","1","null","6","null","6","0.0","5","980.62","1","41.231637","16.30298"],
    [363,"2024-01-16 02:00:00","11","andria","10.29","1","66.2","1","0.0","1","null","6","null","6","0.0","1","981.07","1","41.231637","16.30298"],
    [364,"2024-01-16 03:00:00","11","andria","10.3","1","65.43","1","0.0","1","null","6","null","6","0.0","1","981.68","1","41.231637","16.30298"],
    [365,"2024-01-16 04:00:00","11","andria","9.87","1","68.49","1","0.0","1","null","6","null","6","0.0","1","981.81","1","41.231637","16.30298"],
    [366,"2024-01-16 05:00:00","11","andria","9.79","1","70.58","1","0.0","1","null","6","null","6","0.0","1","982.34","1","41.231637","16.30298"],
    [367,"2024-01-16 06:00:00","11","andria","10.16","1","69.22","1","0.0","1","null","6","null","6","0.0","5","982.79","1","41.231637","16.30298"],
    [368,"2024-01-16 07:00:00","11","andria","9.86","1","70.42","1","0.0","1","null","6","null","6","0.0","1","983.6","1","41.231637","16.30298"],
    [369,"2024-01-16 08:00:00","11","andria","9.67","1","70.74","1","0.0","1","null","6","null","6","5.24","1","984.51","1","41.231637","16.30298"],
    [370,"2024-01-16 09:00:00","11","andria","11.01","1","65.8","1","0.0","1","null","6","null","6","68.1","1","985.66","1","41.231637","16.30298"],
    [371,"2024-01-16 10:00:00","11","andria","13.62","1","58.14","1","0.0","1","null","6","null","6","139.22","1","986.44","1","41.231637","16.30298"],
    [372,"2024-01-16 11:00:00","11","andria","15.63","5","null","6","0.0","5","null","6","null","6","null","6","986.61","5","41.231637","16.30298"],
    [373,"2024-01-16 12:00:00","11","andria","17.63","1","44.07","1","0.0","1","null","6","null","6","392.57","1","986.77","1","41.231637","16.30298"],
    [374,"2024-01-16 13:00:00","11","andria","17.94","1","42.38","1","0.0","1","null","6","null","6","357.71","1","986.31","1","41.231637","16.30298"],
    [375,"2024-01-16 14:00:00","11","andria","16.1","1","47.35","1","0.0","1","null","6","null","6","221.59","1","986.04","1","41.231637","16.30298"],
    [376,"2024-01-16 15:00:00","11","andria","14.47","1","53.61","1","0.0","1","null","6","null","6","80.18","1","986.49","1","41.231637","16.30298"],
    [377,"2024-01-16 16:00:00","11","andria","13.9","1","57.03","1","0.0","1","null","6","null","6","57.06","1","987.12","1","41.231637","16.30298"],
    [378,"2024-01-16 17:00:00","11","andria","12.65","1","65.62","1","0.0","1","null","6","null","6","9.75","1","987.25","1","41.231637","16.30298"],
    [379,"2024-01-16 18:00:00","11","andria","12.03","1","71.31","1","0.4","1","null","6","null","6","0.0","5","987.86","1","41.231637","16.30298"],
    [380,"2024-01-16 19:00:00","11","andria","10.82","1","79.57","1","0.0","1","null","6","null","6","0.0","5","988.25","1","41.231637","16.30298"],
    [381,"2024-01-16 20:00:00","11","andria","10.26","1","78.66","1","0.0","1","null","6","null","6","0.0","1","988.55","1","41.231637","16.30298"],
    [382,"2024-01-16 21:00:00","11","andria","10.1","1","74.7","1","0.0","1","null","6","null","6","0.0","5","988.67","1","41.231637","16.30298"],
    [383,"2024-01-16 22:00:00","11","andria","10.1","1","72.79","1","0.0","1","null","6","null","6","0.0","1","988.88","1","41.231637","16.30298"],
    [384,"2024-01-16 23:00:00","11","andria","9.71","1","73.18","1","0.0","1","null","6","null","6","0.0","5","989.18","1","41.231637","16.30298"],
    [385,"2024-01-17 00:00:00","11","andria","9.29","1","73.79","1","0.0","1","null","6","null","6","0.0","5","989.35","1","41.231637","16.30298"],
    [386,"2024-01-17 01:00:00","11","andria","9.36","1","72.58","1","0.0","1","null","6","null","6","0.0","1","988.78","1","41.231637","16.30298"],
    [387,"2024-01-17 02:00:00","11","andria","9.75","1","70.16","1","0.0","1","null","6","null","6","0.0","5","988.82","1","41.231637","16.30298"],
    [388,"2024-01-17 03:00:00","11","andria","9.83","1","69.97","1","0.0","1","null","6","null","6","0.0","5","988.98","1","41.231637","16.30298"],
    [389,"2024-01-17 04:00:00","11","andria","11.06","1","66.82","1","0.0","1","null","6","null","6","0.0","1","988.72","1","41.231637","16.30298"],
    [390,"2024-01-17 05:00:00","11","andria","11.59","1","65.11","1","0.0","1","null","6","null","6","0.0","5","988.3","1","41.231637","16.30298"],
    [391,"2024-01-17 06:00:00","11","andria","11.67","1","64.91","1","0.0","1","null","6","null","6","0.0","5","988.05","1","41.231637","16.30298"],
    [392,"2024-01-17 07:00:00","11","andria","12.21","1","64.24","1","0.0","1","null","6","null","6","0.0","5","988.33","1","41.231637","16.30298"],
    [393,"2024-01-17 08:00:00","11","andria","12.78","1","62.84","1","0.0","1","null","6","null","6","7.9","1","988.7","1","41.231637","16.30298"],
    [394,"2024-01-17 09:00:00","11","andria","13.49","1","60.99","1","0.0","1","null","6","null","6","72.37","1","988.61","1","41.231637","16.30298"],
    [395,"2024-01-17 10:00:00","11","andria","14.59","1","57.12","1","0.0","1","null","6","null","6","149.7","1","988.6","1","41.231637","16.30298"],
    [396,"2024-01-17 11:00:00","11","andria","16.46","1","50.38","1","0.0","1","null","6","null","6","280.14","1","987.96","1","41.231637","16.30298"],
    [397,"2024-01-17 12:00:00","11","andria","17.36","1","50.22","1","0.0","1","null","6","null","6","249.1","1","987.71","1","41.231637","16.30298"],
    [398,"2024-01-17 13:00:00","11","andria","17.33","1","52.19","1","0.0","1","null","6","null","6","162.7","1","986.96","1","41.231637","16.30298"],
    [399,"2024-01-17 14:00:00","11","andria","17.75","1","52.9","1","0.0","1","null","6","null","6","160.77","1","986.03","1","41.231637","16.30298"],
    [400,"2024-01-17 15:00:00","11","andria","17.18","1","56.04","1","0.0","1","null","6","null","6","64.05","1","985.98","1","41.231637","16.30298"],
    [401,"2024-01-17 16:00:00","11","andria","16.32","1","59.04","1","0.0","1","null","6","null","6","17.64","1","985.74","1","41.231637","16.30298"],
    [402,"2024-01-17 17:00:00","11","andria","15.21","1","66.26","1","0.0","1","null","6","null","6","0.0","5","985.48","1","41.231637","16.30298"],
    [403,"2024-01-17 18:00:00","11","andria","15.18","1","61.93","1","0.0","1","null","6","null","6","0.0","5","986.38","1","41.231637","16.30298"],
    [404,"2024-01-17 19:00:00","11","andria","15.83","1","51.63","1","0.0","1","null","6","null","6","0.0","5","986.31","1","41.231637","16.30298"],
    [405,"2024-01-17 20:00:00","11","andria","16.06","1","47.31","1","0.0","1","null","6","null","6","0.0","5","985.81","1","41.231637","16.30298"],
    [406,"2024-01-17 21:00:00","11","andria","16.08","1","46.7","1","0.0","1","null","6","null","6","0.0","5","985.19","1","41.231637","16.30298"],
    [407,"2024-01-17 22:00:00","11","andria","16.67","1","41.66","1","0.0","1","null","6","null","6","0.0","5","984.59","1","41.231637","16.30298"],
    [408,"2024-01-17 23:00:00","11","andria","16.97","1","39.29","1","0.0","1","null","6","null","6","0.0","5","984.53","1","41.231637","16.30298"],
    [409,"2024-01-18 00:00:00","11","andria","16.04","1","45.63","1","0.0","1","null","6","null","6","0.0","5","984.25","1","41.231637","16.30298"],
    [410,"2024-01-18 01:00:00","11","andria","15.47","1","49.31","1","0.0","1","null","6","null","6","0.0","5","984.07","1","41.231637","16.30298"],
    [411,"2024-01-18 02:00:00","11","andria","16.34","1","45.15","1","0.0","1","null","6","null","6","0.0","5","983.83","1","41.231637","16.30298"],
    [412,"2024-01-18 03:00:00","11","andria","17.37","1","40.82","1","0.0","1","null","6","null","6","0.0","5","982.94","1","41.231637","16.30298"],
    [413,"2024-01-18 04:00:00","11","andria","16.46","1","45.81","1","0.0","1","null","6","null","6","0.0","5","981.7","1","41.231637","16.30298"],
    [414,"2024-01-18 05:00:00","11","andria","15.35","1","50.92","1","0.0","1","null","6","null","6","0.0","5","980.82","1","41.231637","16.30298"],
    [415,"2024-01-18 06:00:00","11","andria","14.98","1","51.32","1","0.0","1","null","6","null","6","0.0","5","980.58","1","41.231637","16.30298"],
    [416,"2024-01-18 07:00:00","11","andria","14.87","1","49.29","1","0.0","1","null","6","null","6","0.0","5","981.17","1","41.231637","16.30298"],
    [417,"2024-01-18 08:00:00","11","andria","15.21","1","50.51","1","0.0","1","null","6","null","6","6.97","1","980.71","1","41.231637","16.30298"],
    [418,"2024-01-18 09:00:00","11","andria","16.0","1","53.5","1","0.0","1","null","6","null","6","69.78","1","980.43","1","41.231637","16.30298"],
    [419,"2024-01-18 10:00:00","11","andria","17.88","1","49.88","1","0.0","1","null","6","null","6","152.09","1","980.27","1","41.231637","16.30298"],
    [420,"2024-01-18 11:00:00","11","andria","19.02","1","46.39","1","0.0","1","null","6","null","6","280.72","1","980.28","1","41.231637","16.30298"],
    [421,"2024-01-18 12:00:00","11","andria","19.84","1","43.68","1","0.0","1","null","6","null","6","373.38","1","980.31","1","41.231637","16.30298"],
    [422,"2024-01-18 13:00:00","11","andria","19.67","1","44.04","1","0.0","1","null","6","null","6","279.72","1","979.74","1","41.231637","16.30298"],
    [423,"2024-01-18 14:00:00","11","andria","19.93","1","42.94","1","0.0","1","null","6","null","6","358.62","1","979.66","1","41.231637","16.30298"],
    [424,"2024-01-18 15:00:00","11","andria","20.01","1","38.06","1","0.0","1","null","6","null","6","266.95","1","979.21","1","41.231637","16.30298"],
    [425,"2024-01-18 16:00:00","11","andria","18.99","1","35.11","1","0.0","1","null","6","null","6","88.21","1","979.51","1","41.231637","16.30298"],
    [426,"2024-01-18 17:00:00","11","andria","17.3","1","41.73","1","0.0","1","null","6","null","6","7.92","1","980.47","1","41.231637","16.30298"],
    [427,"2024-01-18 18:00:00","11","andria","16.57","1","43.5","1","0.0","1","null","6","null","6","0.0","5","980.85","1","41.231637","16.30298"],
    [428,"2024-01-18 19:00:00","11","andria","15.63","1","46.06","1","0.0","1","null","6","null","6","0.0","5","981.36","1","41.231637","16.30298"],
    [429,"2024-01-18 20:00:00","11","andria","15.22","1","48.23","1","0.0","1","null","6","null","6","0.0","5","981.43","1","41.231637","16.30298"],
    [430,"2024-01-18 21:00:00","11","andria","15.75","1","43.3","1","0.0","1","null","6","null","6","0.0","5","981.8","1","41.231637","16.30298"],
    [431,"2024-01-18 22:00:00","11","andria","15.88","1","44.49","1","0.0","1","null","6","null","6","0.0","5","981.88","1","41.231637","16.30298"],
    [432,"2024-01-18 23:00:00","11","andria","15.38","1","50.31","1","0.0","1","null","6","null","6","0.0","5","982.09","1","41.231637","16.30298"],
    [433,"2024-01-19 00:00:00","11","andria","15.12","1","49.96","1","0.0","1","null","6","null","6","0.0","5","982.33","1","41.231637","16.30298"],
    [434,"2024-01-19 01:00:00","11","andria","14.87","1","50.45","1","0.0","1","null","6","null","6","0.0","5","982.65","1","41.231637","16.30298"],
    [435,"2024-01-19 02:00:00","11","andria","14.98","1","49.14","1","0.0","1","null","6","null","6","0.0","5","982.74","1","41.231637","16.30298"],
    [436,"2024-01-19 03:00:00","11","andria","15.09","1","47.43","1","0.0","1","null","6","null","6","0.0","5","983.1","1","41.231637","16.30298"],
    [437,"2024-01-19 04:00:00","11","andria","15.14","1","46.82","1","0.0","1","null","6","null","6","0.0","1","983.18","1","41.231637","16.30298"],
    [438,"2024-01-19 05:00:00","11","andria","14.68","1","49.11","1","0.0","1","null","6","null","6","0.0","1","983.17","1","41.231637","16.30298"],
    [439,"2024-01-19 06:00:00","11","andria","14.62","1","48.8","1","0.0","1","null","6","null","6","0.0","5","983.16","1","41.231637","16.30298"],
    [440,"2024-01-19 07:00:00","11","andria","15.09","1","46.54","1","0.0","1","null","6","null","6","0.0","5","983.76","1","41.231637","16.30298"],
    [441,"2024-01-19 08:00:00","11","andria","15.07","1","47.31","1","0.0","1","null","6","null","6","6.57","1","984.17","1","41.231637","16.30298"],
    [442,"2024-01-19 09:00:00","11","andria","15.82","1","45.73","1","0.0","1","null","6","null","6","68.92","1","984.24","1","41.231637","16.30298"],
    [443,"2024-01-19 10:00:00","11","andria","17.27","1","42.08","1","0.0","1","null","6","null","6","147.19","1","983.79","1","41.231637","16.30298"],
    [444,"2024-01-19 11:00:00","11","andria","18.48","1","40.47","1","0.0","1","null","6","null","6","271.24","1","984.4","1","41.231637","16.30298"],
    [445,"2024-01-19 12:00:00","11","andria","19.14","1","39.05","1","0.0","1","null","6","null","6","358.13","1","984.45","1","41.231637","16.30298"],
    [446,"2024-01-19 13:00:00","11","andria","19.53","1","38.69","1","0.0","1","null","6","null","6","395.62","1","984.41","1","41.231637","16.30298"],
    [447,"2024-01-19 14:00:00","11","andria","19.76","1","37.57","1","0.0","1","null","6","null","6","314.56","1","984.16","1","41.231637","16.30298"],
    [448,"2024-01-19 15:00:00","11","andria","18.95","1","40.4","1","0.0","1","null","6","null","6","134.56","1","984.48","1","41.231637","16.30298"],
    [449,"2024-01-19 16:00:00","11","andria","18.06","1","44.73","1","0.0","1","null","6","null","6","66.03","1","984.49","1","41.231637","16.30298"],
    [450,"2024-01-19 17:00:00","11","andria","17.28","1","46.98","1","0.0","1","null","6","null","6","15.62","1","984.72","1","41.231637","16.30298"],
    [451,"2024-01-19 18:00:00","11","andria","16.55","1","48.93","1","0.0","1","null","6","null","6","0.0","5","984.79","1","41.231637","16.30298"],
    [452,"2024-01-19 19:00:00","11","andria","15.95","1","50.63","1","0.0","1","null","6","null","6","0.0","5","985.12","1","41.231637","16.30298"],
    [453,"2024-01-19 20:00:00","11","andria","15.98","1","48.01","1","0.0","1","null","6","null","6","0.0","5","985.4","1","41.231637","16.30298"],
    [454,"2024-01-19 21:00:00","11","andria","15.86","1","47.84","1","0.0","1","null","6","null","6","0.0","5","985.81","1","41.231637","16.30298"],
    [455,"2024-01-19 22:00:00","11","andria","15.33","1","53.91","1","0.0","1","null","6","null","6","0.0","5","986.66","1","41.231637","16.30298"],
    [456,"2024-01-19 23:00:00","11","andria","12.9","1","73.95","1","0.0","1","null","6","null","6","0.0","5","987.56","1","41.231637","16.30298"],
    [457,"2024-01-20 00:00:00","11","andria","11.75","1","78.5","1","0.4","1","null","6","null","6","0.0","5","988.58","1","41.231637","16.30298"],
    [458,"2024-01-20 01:00:00","11","andria","10.1","1","87.78","1","1.8","1","null","6","null","6","0.0","1","989.41","1","41.231637","16.30298"],
    [459,"2024-01-20 02:00:00","11","andria","9.51","1","90.96","1","1.0","1","null","6","null","6","0.0","5","989.94","1","41.231637","16.30298"],
    [460,"2024-01-20 03:00:00","11","andria","9.3","1","92.17","1","1.6","1","null","6","null","6","0.0","5","990.37","1","41.231637","16.30298"],
    [461,"2024-01-20 04:00:00","11","andria","8.5","1","93.19","1","4.0","1","null","6","null","6","0.0","1","990.93","1","41.231637","16.30298"],
    [462,"2024-01-20 05:00:00","11","andria","7.02","1","92.15","1","1.2","1","null","6","null","6","0.0","5","991.84","1","41.231637","16.30298"],
    [463,"2024-01-20 06:00:00","11","andria","6.51","1","88.25","1","0.4","1","null","6","null","6","0.0","1","992.57","1","41.231637","16.30298"],
    [464,"2024-01-20 07:00:00","11","andria","5.59","1","90.55","1","0.8","1","null","6","null","6","0.0","1","993.34","1","41.231637","16.30298"],
    [465,"2024-01-20 08:00:00","11","andria","5.11","1","91.71","1","1.0","1","null","6","null","6","0.0","5","994.07","1","41.231637","16.30298"],
    [466,"2024-01-20 09:00:00","11","andria","4.73","1","92.19","1","1.8","1","null","6","null","6","5.61","1","994.96","1","41.231637","16.30298"],
    [467,"2024-01-20 10:00:00","11","andria","4.4","1","92.51","1","2.0","1","null","6","null","6","10.85","1","995.68","1","41.231637","16.30298"],
    [468,"2024-01-20 11:00:00","11","andria","4.25","1","92.74","1","1.0","1","null","6","null","6","29.41","1","996.24","1","41.231637","16.30298"],
    [469,"2024-01-20 12:00:00","11","andria","4.42","1","92.51","1","0.4","1","null","6","null","6","70.02","1","995.95","1","41.231637","16.30298"],
    [470,"2024-01-20 13:00:00","11","andria","4.53","1","89.75","1","1.0","1","null","6","null","6","50.66","1","996.15","1","41.231637","16.30298"],
    [471,"2024-01-20 14:00:00","11","andria","4.99","1","87.05","1","0.2","1","null","6","null","6","65.13","1","996.03","1","41.231637","16.30298"],
    [472,"2024-01-20 15:00:00","11","andria","5.55","1","86.98","1","0.2","1","null","6","null","6","44.87","1","996.1","1","41.231637","16.30298"],
    [473,"2024-01-20 16:00:00","11","andria","5.67","1","80.49","1","0.0","1","null","6","null","6","20.47","1","996.59","1","41.231637","16.30298"],
    [474,"2024-01-20 17:00:00","11","andria","5.67","1","72.28","1","0.0","1","null","6","null","6","0.0","5","997.04","1","41.231637","16.30298"],
    [475,"2024-01-20 18:00:00","11","andria","6.22","1","58.4","1","0.0","1","null","6","null","6","0.0","1","997.7","1","41.231637","16.30298"],
    [476,"2024-01-20 19:00:00","11","andria","6.45","1","52.84","1","0.0","1","null","6","null","6","0.0","1","998.24","1","41.231637","16.30298"],
    [477,"2024-01-20 20:00:00","11","andria","6.09","1","53.82","1","0.0","1","null","6","null","6","0.0","5","998.9","1","41.231637","16.30298"],
    [478,"2024-01-20 21:00:00","11","andria","5.19","1","56.07","1","0.0","1","null","6","null","6","0.0","1","999.33","1","41.231637","16.30298"],
    [479,"2024-01-20 22:00:00","11","andria","4.44","1","61.1","1","0.0","1","null","6","null","6","0.0","1","999.7","1","41.231637","16.30298"],
    [480,"2024-01-20 23:00:00","11","andria","4.0","1","63.13","1","0.0","1","null","6","null","6","0.0","1","999.88","1","41.231637","16.30298"],
    [481,"2024-01-21 00:00:00","11","andria","3.79","1","58.74","1","0.0","1","null","6","null","6","0.0","1","1000.32","1","41.231637","16.30298"],
    [482,"2024-01-21 01:00:00","11","andria","3.44","1","60.77","1","0.0","1","null","6","null","6","0.0","5","1000.64","1","41.231637","16.30298"],
    [483,"2024-01-21 02:00:00","11","andria","3.03","1","62.99","1","0.0","1","null","6","null","6","0.0","1","1000.7","1","41.231637","16.30298"],
    [484,"2024-01-21 03:00:00","11","andria","2.7","1","64.2","1","0.0","1","null","6","null","6","0.0","5","1000.91","1","41.231637","16.30298"],
    [485,"2024-01-21 04:00:00","11","andria","2.25","1","66.21","1","0.0","1","null","6","null","6","0.0","1","1000.9","1","41.231637","16.30298"],
    [486,"2024-01-21 05:00:00","11","andria","1.94","1","67.56","1","0.0","1","null","6","null","6","0.0","5","1001.18","1","41.231637","16.30298"],
    [487,"2024-01-21 06:00:00","11","andria","2.04","1","67.53","1","0.0","1","null","6","null","6","0.0","5","1001.89","1","41.231637","16.30298"],
    [488,"2024-01-21 07:00:00","11","andria","2.1","1","65.32","1","0.0","1","null","6","null","6","0.0","5","1002.11","1","41.231637","16.30298"],
    [489,"2024-01-21 08:00:00","11","andria","2.09","1","65.76","1","0.0","1","null","6","null","6","8.3","1","1002.98","1","41.231637","16.30298"],
    [490,"2024-01-21 09:00:00","11","andria","3.59","1","59.8","1","0.0","1","null","6","null","6","91.04","1","1003.66","1","41.231637","16.30298"],
    [491,"2024-01-21 10:00:00","11","andria","5.58","1","51.96","1","0.0","1","null","6","null","6","164.6","1","1004.16","1","41.231637","16.30298"],
    [492,"2024-01-21 11:00:00","11","andria","7.68","1","46.88","1","0.0","1","null","6","null","6","296.99","1","1004.3","1","41.231637","16.30298"],
    [493,"2024-01-21 12:00:00","11","andria","9.47","1","38.82","1","0.0","1","null","6","null","6","447.81","1","1004.21","1","41.231637","16.30298"],
    [494,"2024-01-21 13:00:00","11","andria","9.97","1","35.08","1","0.0","1","null","6","null","6","455.72","1","1004.2","1","41.231637","16.30298"],
    [495,"2024-01-21 14:00:00","11","andria","9.63","1","35.38","1","0.0","1","null","6","null","6","390.7","1","1003.87","1","41.231637","16.30298"],
    [496,"2024-01-21 15:00:00","11","andria","9.92","1","35.35","1","0.0","1","null","6","null","6","294.49","1","1004.31","1","41.231637","16.30298"],
    [497,"2024-01-21 16:00:00","11","andria","9.74","1","34.98","1","0.0","1","null","6","null","6","116.96","1","1004.62","1","41.231637","16.30298"],
    [498,"2024-01-21 17:00:00","11","andria","8.55","1","39.19","1","0.0","1","null","6","null","6","18.09","1","1005.18","1","41.231637","16.30298"],
    [499,"2024-01-21 18:00:00","11","andria","8.0","1","40.29","1","0.0","1","null","6","null","6","0.0","1","1005.73","1","41.231637","16.30298"],
    [500,"2024-01-21 19:00:00","11","andria","7.6","1","41.55","1","0.0","1","null","6","null","6","0.0","1","1006.46","1","41.231637","16.30298"],
    [501,"2024-01-21 20:00:00","11","andria","6.12","1","51.9","1","0.0","1","null","6","null","6","0.0","1","1007.01","1","41.231637","16.30298"],
    [502,"2024-01-21 21:00:00","11","andria","4.86","1","60.86","1","0.0","1","null","6","null","6","0.0","1","1007.46","1","41.231637","16.30298"],
    [503,"2024-01-21 22:00:00","11","andria","4.38","1","70.07","1","0.0","1","null","6","null","6","0.0","1","1007.72","1","41.231637","16.30298"],
    [504,"2024-01-21 23:00:00","11","andria","4.16","1","75.27","1","0.0","1","null","6","null","6","0.0","5","1008.13","1","41.231637","16.30298"],
    [505,"2024-01-22 00:00:00","11","andria","3.9","1","78.63","1","0.0","1","null","6","null","6","0.0","1","1008.31","1","41.231637","16.30298"],
    [506,"2024-01-22 01:00:00","11","andria","3.71","1","80.67","1","0.0","1","null","6","null","6","0.0","5","1008.29","1","41.231637","16.30298"],
    [507,"2024-01-22 02:00:00","11","andria","3.63","1","81.3","1","0.0","1","null","6","null","6","0.0","1","1008.47","1","41.231637","16.30298"],
    [508,"2024-01-22 03:00:00","11","andria","3.64","1","80.25","1","0.0","1","null","6","null","6","0.0","1","1008.54","1","41.231637","16.30298"],
    [509,"2024-01-22 04:00:00","11","andria","3.42","1","79.73","1","0.0","1","null","6","null","6","0.0","1","1008.53","1","41.231637","16.30298"],
    [510,"2024-01-22 05:00:00","11","andria","3.43","1","76.18","1","0.0","1","null","6","null","6","0.0","5","1008.57","1","41.231637","16.30298"],
    [511,"2024-01-22 06:00:00","11","andria","3.46","1","74.04","1","0.0","1","null","6","null","6","0.0","1","1008.4","1","41.231637","16.30298"],
    [512,"2024-01-22 07:00:00","11","andria","3.43","1","73.35","1","0.0","1","null","6","null","6","0.0","5","1008.57","1","41.231637","16.30298"],
    [513,"2024-01-22 08:00:00","11","andria","3.64","1","70.65","1","0.0","1","null","6","null","6","7.24","1","1008.69","1","41.231637","16.30298"],
    [514,"2024-01-22 09:00:00","11","andria","5.04","1","64.26","1","0.0","1","null","6","null","6","81.19","1","1009.04","1","41.231637","16.30298"],
    [515,"2024-01-22 10:00:00","11","andria","7.51","1","56.21","1","0.0","1","null","6","null","6","164.1","1","1009.35","1","41.231637","16.30298"],
    [516,"2024-01-22 11:00:00","11","andria","9.6","1","51.87","1","0.0","1","null","6","null","6","299.71","1","1009.59","1","41.231637","16.30298"],
    [517,"2024-01-22 12:00:00","11","andria","11.23","1","50.41","1","0.0","1","null","6","null","6","448.58","1","1008.89","1","41.231637","16.30298"],
    [518,"2024-01-22 13:00:00","11","andria","11.35","1","51.19","1","0.0","1","null","6","null","6","451.63","1","1008.22","1","41.231637","16.30298"],
    [519,"2024-01-22 14:00:00","11","andria","11.17","1","49.43","1","0.0","1","null","6","null","6","383.1","1","1007.51","1","41.231637","16.30298"],
    [520,"2024-01-22 15:00:00","11","andria","12.27","1","44.66","1","0.0","1","null","6","null","6","288.54","1","1007.06","1","41.231637","16.30298"],
    [521,"2024-01-22 16:00:00","11","andria","12.72","1","40.34","1","0.0","1","null","6","null","6","115.53","1","1006.25","1","41.231637","16.30298"],
    [522,"2024-01-22 17:00:00","11","andria","10.28","1","47.14","1","0.0","1","null","6","null","6","17.37","1","1005.76","1","41.231637","16.30298"],
    [523,"2024-01-22 18:00:00","11","andria","7.99","1","58.56","1","0.0","1","null","6","null","6","0.0","5","1005.91","1","41.231637","16.30298"],
    [524,"2024-01-22 19:00:00","11","andria","7.56","1","64.61","1","0.0","1","null","6","null","6","0.0","1","1006.06","1","41.231637","16.30298"],
    [525,"2024-01-22 20:00:00","11","andria","6.68","1","65.64","1","0.0","1","null","6","null","6","0.0","1","1005.71","1","41.231637","16.30298"],
    [526,"2024-01-22 21:00:00","11","andria","5.98","1","67.99","1","0.0","1","null","6","null","6","0.0","5","1005.41","1","41.231637","16.30298"],
    [527,"2024-01-22 22:00:00","11","andria","5.27","1","62.61","1","0.0","1","null","6","null","6","0.0","5","1004.97","1","41.231637","16.30298"],
    [528,"2024-01-22 23:00:00","11","andria","5.36","1","57.97","1","0.0","1","null","6","null","6","0.0","1","1004.76","1","41.231637","16.30298"],
    [529,"2024-01-23 00:00:00","11","andria","5.0","1","57.68","1","0.0","1","null","6","null","6","0.0","5","1004.21","1","41.231637","16.30298"],
    [530,"2024-01-23 01:00:00","11","andria","4.5","1","56.04","1","0.0","1","null","6","null","6","0.0","5","1003.23","1","41.231637","16.30298"],
    [531,"2024-01-23 02:00:00","11","andria","4.82","1","52.93","1","0.0","1","null","6","null","6","0.0","1","1002.76","1","41.231637","16.30298"],
    [532,"2024-01-23 03:00:00","11","andria","4.77","1","52.98","1","0.0","1","null","6","null","6","0.0","1","1002.67","1","41.231637","16.30298"],
    [533,"2024-01-23 04:00:00","11","andria","4.87","1","53.76","1","0.0","1","null","6","null","6","0.0","5","1002.46","1","41.231637","16.30298"],
    [534,"2024-01-23 05:00:00","11","andria","5.79","1","52.5","1","0.0","1","null","6","null","6","0.0","5","1002.72","1","41.231637","16.30298"],
    [535,"2024-01-23 06:00:00","11","andria","7.36","1","62.79","1","0.0","1","null","6","null","6","0.0","1","1002.62","1","41.231637","16.30298"],
    [536,"2024-01-23 07:00:00","11","andria","7.35","1","64.01","1","0.0","1","null","6","null","6","0.0","1","1002.76","1","41.231637","16.30298"],
    [537,"2024-01-23 08:00:00","11","andria","6.82","1","66.49","1","0.0","1","null","6","null","6","0.0","5","1002.95","1","41.231637","16.30298"],
    [538,"2024-01-23 09:00:00","11","andria","7.1","1","61.65","1","0.0","1","null","6","null","6","64.99","1","1003.38","1","41.231637","16.30298"],
    [539,"2024-01-23 10:00:00","11","andria","8.12","1","57.05","1","0.0","1","null","6","null","6","75.19","1","1003.59","1","41.231637","16.30298"],
    [540,"2024-01-23 11:00:00","11","andria","9.42","1","54.48","1","0.0","1","null","6","null","6","176.37","1","1003.71","1","41.231637","16.30298"],
    [541,"2024-01-23 12:00:00","11","andria","9.73","1","53.7","1","0.0","1","null","6","null","6","125.62","1","1003.66","1","41.231637","16.30298"],
    [542,"2024-01-23 13:00:00","11","andria","9.58","1","55.73","1","0.0","1","null","6","null","6","101.9","1","1003.4","1","41.231637","16.30298"],
    [543,"2024-01-23 14:00:00","11","andria","9.51","1","57.57","1","0.0","1","null","6","null","6","45.23","1","1003.36","1","41.231637","16.30298"],
    [544,"2024-01-23 15:00:00","11","andria","9.05","1","62.5","1","0.0","1","null","6","null","6","29.49","1","1003.48","1","41.231637","16.30298"],
    [545,"2024-01-23 16:00:00","11","andria","8.8","1","68.59","1","0.0","1","null","6","null","6","35.42","1","1003.66","1","41.231637","16.30298"],
    [546,"2024-01-23 17:00:00","11","andria","8.69","1","72.66","1","0.0","1","null","6","null","6","17.45","1","1004.16","1","41.231637","16.30298"],
    [547,"2024-01-23 18:00:00","11","andria","8.31","1","77.74","1","0.0","1","null","6","null","6","0.0","1","1004.91","1","41.231637","16.30298"],
    [548,"2024-01-23 19:00:00","11","andria","7.3","1","81.54","1","0.0","1","null","6","null","6","0.0","1","1005.62","1","41.231637","16.30298"],
    [549,"2024-01-23 20:00:00","11","andria","6.59","1","83.93","1","0.0","1","null","6","null","6","0.0","1","1006.13","1","41.231637","16.30298"],
    [550,"2024-01-23 21:00:00","11","andria","6.35","1","86.06","1","0.0","1","null","6","null","6","0.0","1","1006.63","1","41.231637","16.30298"],
    [551,"2024-01-23 22:00:00","11","andria","6.05","1","86.74","1","0.0","1","null","6","null","6","0.0","1","1006.82","1","41.231637","16.30298"],
    [552,"2024-01-23 23:00:00","11","andria","6.03","1","86.97","1","0.0","1","null","6","null","6","0.0","5","1006.88","1","41.231637","16.30298"],
    [553,"2024-01-24 00:00:00","11","andria","5.81","1","87.55","1","0.0","1","null","6","null","6","0.0","1","1007.24","1","41.231637","16.30298"],
    [554,"2024-01-24 01:00:00","11","andria","5.92","1","85.81","1","0.0","1","null","6","null","6","0.0","1","1007.06","1","41.231637","16.30298"],
    [555,"2024-01-24 02:00:00","11","andria","5.7","1","85.94","1","0.0","1","null","6","null","6","0.0","1","1007.13","1","41.231637","16.30298"],
    [556,"2024-01-24 03:00:00","11","andria","5.62","1","86.73","1","0.0","1","null","6","null","6","0.0","1","1007.06","1","41.231637","16.30298"],
    [557,"2024-01-24 04:00:00","11","andria","5.54","1","86.67","1","0.0","1","null","6","null","6","0.0","5","1007.11","1","41.231637","16.30298"],
    [558,"2024-01-24 05:00:00","11","andria","5.43","1","85.85","1","0.0","1","null","6","null","6","0.0","1","1007.12","1","41.231637","16.30298"],
    [559,"2024-01-24 06:00:00","11","andria","5.24","1","84.74","1","0.0","1","null","6","null","6","0.0","5","1007.33","1","41.231637","16.30298"],
    [560,"2024-01-24 07:00:00","11","andria","4.99","1","84.72","1","0.0","1","null","6","null","6","0.0","5","1007.55","1","41.231637","16.30298"],
    [561,"2024-01-24 08:00:00","11","andria","5.23","1","80.99","1","0.0","1","null","6","null","6","8.59","1","1007.68","1","41.231637","16.30298"],
    [562,"2024-01-24 09:00:00","11","andria","6.56","1","76.45","1","0.0","1","null","6","null","6","80.38","1","1008.02","1","41.231637","16.30298"],
    [563,"2024-01-24 10:00:00","11","andria","9.16","1","68.03","1","0.0","1","null","6","null","6","161.89","1","1007.99","1","41.231637","16.30298"],
    [564,"2024-01-24 11:00:00","11","andria","11.78","1","57.41","1","0.0","1","null","6","null","6","299.24","1","1008.39","1","41.231637","16.30298"],
    [565,"2024-01-24 12:00:00","11","andria","13.29","1","47.31","1","0.0","1","null","6","null","6","435.7","1","1007.62","1","41.231637","16.30298"],
    [566,"2024-01-24 13:00:00","11","andria","14.12","1","42.48","1","0.0","1","null","6","null","6","432.89","1","1006.25","1","41.231637","16.30298"],
    [567,"2024-01-24 14:00:00","11","andria","13.75","1","40.57","1","0.0","1","null","6","null","6","381.65","1","1005.28","1","41.231637","16.30298"],
    [568,"2024-01-24 15:00:00","11","andria","14.77","1","42.08","1","0.0","1","null","6","null","6","287.43","1","1004.85","1","41.231637","16.30298"],
    [569,"2024-01-24 16:00:00","11","andria","15.2","1","38.24","1","0.0","1","null","6","null","6","134.47","1","1004.22","1","41.231637","16.30298"],
    [570,"2024-01-24 17:00:00","11","andria","13.84","1","35.78","1","0.0","1","null","6","null","6","15.6","1","1003.31","1","41.231637","16.30298"],
    [571,"2024-01-24 18:00:00","11","andria","12.54","1","39.48","1","0.0","1","null","6","null","6","0.0","1","1003.26","1","41.231637","16.30298"],
    [572,"2024-01-24 19:00:00","11","andria","11.52","1","43.78","1","0.0","1","null","6","null","6","0.0","5","1002.91","1","41.231637","16.30298"],
    [573,"2024-01-24 20:00:00","11","andria","11.11","1","43.76","1","0.0","1","null","6","null","6","0.0","1","1002.82","1","41.231637","16.30298"],
    [574,"2024-01-24 21:00:00","11","andria","10.42","1","44.76","1","0.0","1","null","6","null","6","0.0","5","1002.87","1","41.231637","16.30298"],
    [575,"2024-01-24 22:00:00","11","andria","10.62","1","41.29","1","0.0","1","null","6","null","6","0.0","1","1002.34","1","41.231637","16.30298"],
    [576,"2024-01-24 23:00:00","11","andria","10.7","1","41.53","1","0.0","1","null","6","null","6","0.0","5","1001.94","1","41.231637","16.30298"],
    [577,"2024-01-25 00:00:00","11","andria","11.11","1","41.61","1","0.0","1","null","6","null","6","0.0","1","1001.49","1","41.231637","16.30298"],
    [578,"2024-01-25 01:00:00","11","andria","10.77","1","44.38","1","0.0","1","null","6","null","6","0.0","5","1000.88","1","41.231637","16.30298"],
    [579,"2024-01-25 02:00:00","11","andria","10.52","1","49.5","1","0.0","1","null","6","null","6","0.0","5","1000.71","1","41.231637","16.30298"],
    [580,"2024-01-25 03:00:00","11","andria","9.78","1","53.4","1","0.0","1","null","6","null","6","0.0","5","1000.39","1","41.231637","16.30298"],
    [581,"2024-01-25 04:00:00","11","andria","9.77","1","52.14","1","0.0","1","null","6","null","6","0.0","5","1000.09","1","41.231637","16.30298"],
    [582,"2024-01-25 05:00:00","11","andria","9.89","1","50.89","1","0.0","1","null","6","null","6","0.0","1","999.99","1","41.231637","16.30298"],
    [583,"2024-01-25 06:00:00","11","andria","9.46","1","52.79","1","0.0","1","null","6","null","6","0.0","1","1000.19","1","41.231637","16.30298"],
    [584,"2024-01-25 07:00:00","11","andria","9.08","1","53.66","1","0.0","1","null","6","null","6","0.0","5","1000.45","1","41.231637","16.30298"],
    [585,"2024-01-25 08:00:00","11","andria","9.17","1","53.04","1","0.0","1","null","6","null","6","14.03","1","1000.59","1","41.231637","16.30298"],
    [586,"2024-01-25 09:00:00","11","andria","10.65","1","49.4","1","0.0","1","null","6","null","6","89.19","1","1000.42","1","41.231637","16.30298"],
    [587,"2024-01-25 10:00:00","11","andria","12.55","1","48.29","1","0.0","1","null","6","null","6","163.58","1","1000.2","1","41.231637","16.30298"],
    [588,"2024-01-25 11:00:00","11","andria","14.45","1","44.91","1","0.0","1","null","6","null","6","302.09","1","1000.35","1","41.231637","16.30298"],
    [589,"2024-01-25 12:00:00","11","andria","15.25","1","45.98","1","0.0","1","null","6","null","6","438.14","1","1000.31","1","41.231637","16.30298"],
    [590,"2024-01-25 13:00:00","11","andria","15.45","1","46.37","1","0.0","1","null","6","null","6","435.64","1","1000.03","1","41.231637","16.30298"],
    [591,"2024-01-25 14:00:00","11","andria","14.48","1","50.39","1","0.0","1","null","6","null","6","378.2","1","999.83","1","41.231637","16.30298"],
    [592,"2024-01-25 15:00:00","11","andria","13.7","1","63.14","1","0.0","1","null","6","null","6","284.86","1","1000.53","1","41.231637","16.30298"],
    [593,"2024-01-25 16:00:00","11","andria","13.05","1","71.97","1","0.0","1","null","6","null","6","117.96","1","1001.1","1","41.231637","16.30298"],
    [594,"2024-01-25 17:00:00","11","andria","11.86","1","75.67","1","0.0","1","null","6","null","6","31.1","1","1001.32","1","41.231637","16.30298"],
    [595,"2024-01-25 18:00:00","11","andria","10.72","1","78.77","1","0.0","1","null","6","null","6","0.0","5","1001.61","1","41.231637","16.30298"],
    [596,"2024-01-25 19:00:00","11","andria","10.23","1","80.67","1","0.0","1","null","6","null","6","0.0","5","1001.7","1","41.231637","16.30298"],
    [597,"2024-01-25 20:00:00","11","andria","9.81","1","74.41","1","0.0","1","null","6","null","6","0.0","1","1001.97","1","41.231637","16.30298"],
    [598,"2024-01-25 21:00:00","11","andria","9.37","1","76.22","1","0.0","1","null","6","null","6","0.0","5","1002.0","1","41.231637","16.30298"],
    [599,"2024-01-25 22:00:00","11","andria","8.87","1","81.42","1","0.0","1","null","6","null","6","0.0","1","1001.95","1","41.231637","16.30298"],
    [600,"2024-01-25 23:00:00","11","andria","8.73","1","81.45","1","0.0","1","null","6","null","6","0.0","5","1002.06","1","41.231637","16.30298"],
    [601,"2024-01-26 00:00:00","11","andria","8.62","1","79.26","1","0.0","1","null","6","null","6","0.0","5","1002.05","1","41.231637","16.30298"],
    [602,"2024-01-26 01:00:00","11","andria","8.54","1","72.36","1","0.0","1","null","6","null","6","0.0","5","1001.6","1","41.231637","16.30298"],
    [603,"2024-01-26 02:00:00","11","andria","8.2","1","68.91","1","0.0","1","null","6","null","6","0.0","5","1001.89","1","41.231637","16.30298"],
    [604,"2024-01-26 03:00:00","11","andria","8.14","1","67.7","1","0.0","1","null","6","null","6","0.0","5","1002.16","1","41.231637","16.30298"],
    [605,"2024-01-26 04:00:00","11","andria","7.99","1","65.05","1","0.0","1","null","6","null","6","0.0","5","1002.11","1","41.231637","16.30298"],
    [606,"2024-01-26 05:00:00","11","andria","7.63","1","62.67","1","0.0","1","null","6","null","6","0.0","5","1002.05","1","41.231637","16.30298"],
    [607,"2024-01-26 06:00:00","11","andria","7.46","1","62.68","1","0.0","1","null","6","null","6","0.0","5","1001.85","1","41.231637","16.30298"],
    [608,"2024-01-26 07:00:00","11","andria","6.4","1","66.55","1","0.0","1","null","6","null","6","0.0","1","1002.11","1","41.231637","16.30298"],
    [609,"2024-01-26 08:00:00","11","andria","6.17","1","65.27","1","0.0","1","null","6","null","6","9.52","1","1002.83","1","41.231637","16.30298"],
    [610,"2024-01-26 09:00:00","11","andria","7.75","1","58.82","1","0.0","1","null","6","null","6","91.56","1","1002.93","1","41.231637","16.30298"],
    [611,"2024-01-26 10:00:00","11","andria","11.69","1","49.55","1","0.0","1","null","6","null","6","172.93","1","1002.93","1","41.231637","16.30298"],
    [612,"2024-01-26 11:00:00","11","andria","16.51","1","34.8","1","0.0","1","null","6","null","6","313.01","1","1002.81","1","41.231637","16.30298"],
    [613,"2024-01-26 12:00:00","11","andria","20.05","1","25.31","1","0.0","1","null","6","null","6","454.22","1","1002.01","1","41.231637","16.30298"],
    [614,"2024-01-26 13:00:00","11","andria","20.11","1","26.42","1","0.0","1","null","6","null","6","451.17","1","1001.13","1","41.231637","16.30298"],
    [615,"2024-01-26 14:00:00","11","andria","18.07","1","36.34","1","0.0","1","null","6","null","6","391.44","1","1000.78","1","41.231637","16.30298"],
    [616,"2024-01-26 15:00:00","11","andria","18.14","1","41.35","1","0.0","1","null","6","null","6","292.03","1","1000.58","1","41.231637","16.30298"],
    [617,"2024-01-26 16:00:00","11","andria","18.73","1","39.32","1","0.0","1","null","6","null","6","153.56","1","1000.71","1","41.231637","16.30298"],
    [618,"2024-01-26 17:00:00","11","andria","15.75","1","45.36","1","0.0","1","null","6","null","6","18.46","1","1000.83","1","41.231637","16.30298"],
    [619,"2024-01-26 18:00:00","11","andria","12.45","1","55.16","1","0.0","1","null","6","null","6","0.0","5","1001.44","1","41.231637","16.30298"],
    [620,"2024-01-26 19:00:00","11","andria","10.36","1","61.39","1","0.0","1","null","6","null","6","0.0","1","1001.78","1","41.231637","16.30298"],
    [621,"2024-01-26 20:00:00","11","andria","10.08","1","57.85","1","0.0","1","null","6","null","6","0.0","5","1001.9","1","41.231637","16.30298"],
    [622,"2024-01-26 21:00:00","11","andria","8.71","1","61.15","1","0.0","1","null","6","null","6","0.0","5","1002.27","1","41.231637","16.30298"],
    [623,"2024-01-26 22:00:00","11","andria","8.38","1","66.37","1","0.0","1","null","6","null","6","0.0","5","1002.29","1","41.231637","16.30298"],
    [624,"2024-01-26 23:00:00","11","andria","8.06","1","78.68","1","0.0","1","null","6","null","6","0.0","1","1002.29","1","41.231637","16.30298"],
    [625,"2024-01-27 00:00:00","11","andria","8.0","1","83.46","1","0.0","1","null","6","null","6","0.0","1","1002.4","1","41.231637","16.30298"],
    [626,"2024-01-27 01:00:00","11","andria","7.65","1","87.93","1","0.0","1","null","6","null","6","0.0","5","1002.12","1","41.231637","16.30298"],
    [627,"2024-01-27 02:00:00","11","andria","7.52","1","91.12","1","0.0","1","null","6","null","6","0.0","1","1001.68","1","41.231637","16.30298"],
    [628,"2024-01-27 03:00:00","11","andria","7.64","1","89.82","1","0.0","1","null","6","null","6","0.0","5","1002.02","1","41.231637","16.30298"],
    [629,"2024-01-27 04:00:00","11","andria","7.47","1","86.8","1","0.0","1","null","6","null","6","0.0","5","1002.18","1","41.231637","16.30298"],
    [630,"2024-01-27 05:00:00","11","andria","7.43","1","84.98","1","0.0","1","null","6","null","6","0.0","5","1002.22","1","41.231637","16.30298"],
    [631,"2024-01-27 06:00:00","11","andria","7.48","1","83.03","1","0.0","1","null","6","null","6","0.0","1","1002.63","1","41.231637","16.30298"],
    [632,"2024-01-27 07:00:00","11","andria","7.39","1","84.53","1","0.0","1","null","6","null","6","0.0","5","1003.48","1","41.231637","16.30298"],
    [633,"2024-01-27 08:00:00","11","andria","7.53","1","87.26","1","0.0","1","null","6","null","6","0.0","5","1003.97","1","41.231637","16.30298"],
    [634,"2024-01-27 09:00:00","11","andria","8.47","1","87.94","1","0.0","1","null","6","null","6","56.56","1","1003.48","1","41.231637","16.30298"],
    [635,"2024-01-27 10:00:00","11","andria","9.61","1","84.23","1","0.0","1","null","6","null","6","99.33","1","1004.01","1","41.231637","16.30298"],
    [636,"2024-01-27 11:00:00","11","andria","10.46","1","77.84","1","0.0","1","null","6","null","6","173.03","1","1004.76","1","41.231637","16.30298"],
    [637,"2024-01-27 12:00:00","11","andria","12.44","1","70.06","1","0.0","1","null","6","null","6","372.72","1","1004.97","1","41.231637","16.30298"],
    [638,"2024-01-27 13:00:00","11","andria","13.82","1","63.65","1","0.0","1","null","6","null","6","293.5","1","1004.54","1","41.231637","16.30298"],
    [639,"2024-01-27 14:00:00","11","andria","13.71","1","63.37","1","0.0","1","null","6","null","6","286.93","1","1004.28","1","41.231637","16.30298"],
    [640,"2024-01-27 15:00:00","11","andria","13.59","1","64.34","1","0.0","1","null","6","null","6","160.83","1","1004.2","1","41.231637","16.30298"],
    [641,"2024-01-27 16:00:00","11","andria","12.58","1","69.19","1","0.0","1","null","6","null","6","84.52","1","1004.69","1","41.231637","16.30298"],
    [642,"2024-01-27 17:00:00","11","andria","11.87","1","72.94","1","0.0","1","null","6","null","6","16.51","1","1005.12","1","41.231637","16.30298"],
    [643,"2024-01-27 18:00:00","11","andria","11.08","1","74.26","1","0.0","1","null","6","null","6","0.0","5","1005.69","1","41.231637","16.30298"],
    [644,"2024-01-27 19:00:00","11","andria","9.78","1","77.64","1","0.0","1","null","6","null","6","0.0","1","1006.01","1","41.231637","16.30298"],
    [645,"2024-01-27 20:00:00","11","andria","8.71","1","81.89","1","0.0","1","null","6","null","6","0.0","5","1006.3","1","41.231637","16.30298"],
    [646,"2024-01-27 21:00:00","11","andria","8.03","1","84.45","1","0.0","1","null","6","null","6","0.0","1","1006.98","1","41.231637","16.30298"],
    [647,"2024-01-27 22:00:00","11","andria","7.77","1","86.94","1","0.0","1","null","6","null","6","0.0","5","1007.37","1","41.231637","16.30298"],
    [648,"2024-01-27 23:00:00","11","andria","7.42","1","88.84","1","0.0","1","null","6","null","6","0.0","5","1007.74","1","41.231637","16.30298"],
    [649,"2024-01-28 00:00:00","11","andria","6.91","1","89.46","1","0.0","1","null","6","null","6","0.0","5","1007.92","1","41.231637","16.30298"],
    [650,"2024-01-28 01:00:00","11","andria","6.73","1","89.44","1","0.0","1","null","6","null","6","0.0","5","1008.18","1","41.231637","16.30298"],
    [651,"2024-01-28 02:00:00","11","andria","6.82","1","89.75","1","0.0","1","null","6","null","6","0.0","5","1007.91","1","41.231637","16.30298"],
    [652,"2024-01-28 03:00:00","11","andria","6.93","1","87.1","1","0.0","1","null","6","null","6","0.0","5","1008.34","1","41.231637","16.30298"],
    [653,"2024-01-28 04:00:00","11","andria","7.23","1","70.76","1","0.0","1","null","6","null","6","0.0","5","1008.58","1","41.231637","16.30298"],
    [654,"2024-01-28 05:00:00","11","andria","6.29","1","78.2","1","0.0","1","null","6","null","6","0.0","5","1008.85","1","41.231637","16.30298"],
    [655,"2024-01-28 06:00:00","11","andria","6.17","1","72.14","1","0.0","1","null","6","null","6","0.0","5","1009.14","1","41.231637","16.30298"],
    [656,"2024-01-28 07:00:00","11","andria","5.55","1","70.15","1","0.0","1","null","6","null","6","0.0","1","1009.45","1","41.231637","16.30298"],
    [657,"2024-01-28 08:00:00","11","andria","5.31","1","68.3","1","0.0","1","null","6","null","6","11.73","1","1010.12","1","41.231637","16.30298"],
    [658,"2024-01-28 09:00:00","11","andria","6.98","1","61.37","1","0.0","1","null","6","null","6","83.85","1","1010.44","1","41.231637","16.30298"],
    [659,"2024-01-28 10:00:00","11","andria","8.21","1","55.74","1","0.0","1","null","6","null","6","154.86","1","1010.57","1","41.231637","16.30298"],
    [660,"2024-01-28 11:00:00","11","andria","10.78","1","42.79","1","0.0","1","null","6","null","6","325.6","1","1010.9","1","41.231637","16.30298"],
    [661,"2024-01-28 12:00:00","11","andria","11.04","1","41.84","1","0.0","1","null","6","null","6","335.43","1","1010.9","1","41.231637","16.30298"],
    [662,"2024-01-28 13:00:00","11","andria","10.98","1","42.18","1","0.0","1","null","6","null","6","415.07","1","1010.68","1","41.231637","16.30298"],
    [663,"2024-01-28 14:00:00","11","andria","10.74","1","40.44","1","0.0","1","null","6","null","6","413.52","1","1010.04","1","41.231637","16.30298"],
    [664,"2024-01-28 15:00:00","11","andria","11.09","1","41.23","1","0.0","1","null","6","null","6","311.93","1","1010.06","1","41.231637","16.30298"],
    [665,"2024-01-28 16:00:00","11","andria","10.77","1","41.07","1","0.0","1","null","6","null","6","177.88","1","1010.03","1","41.231637","16.30298"],
    [666,"2024-01-28 17:00:00","11","andria","9.2","1","46.75","1","0.0","1","null","6","null","6","28.12","1","1010.17","1","41.231637","16.30298"],
    [667,"2024-01-28 18:00:00","11","andria","8.14","1","51.26","1","0.0","1","null","6","null","6","0.0","5","1010.62","1","41.231637","16.30298"],
    [668,"2024-01-28 19:00:00","11","andria","7.91","1","51.91","1","0.0","1","null","6","null","6","0.0","1","1010.93","1","41.231637","16.30298"],
    [669,"2024-01-28 20:00:00","11","andria","7.01","1","57.11","1","0.0","1","null","6","null","6","0.0","1","1011.03","1","41.231637","16.30298"],
    [670,"2024-01-28 21:00:00","11","andria","6.61","1","58.56","1","0.0","1","null","6","null","6","0.0","1","1011.17","1","41.231637","16.30298"],
    [671,"2024-01-28 22:00:00","11","andria","6.52","1","58.11","1","0.0","1","null","6","null","6","0.0","1","1011.03","1","41.231637","16.30298"],
    [672,"2024-01-28 23:00:00","11","andria","6.66","1","60.92","1","0.0","1","null","6","null","6","0.0","5","1010.98","1","41.231637","16.30298"],
    [673,"2024-01-29 00:00:00","11","andria","6.24","1","67.08","1","0.0","1","null","6","null","6","0.0","5","1010.9","1","41.231637","16.30298"],
    [674,"2024-01-29 01:00:00","11","andria","5.74","1","73.91","1","0.0","1","null","6","null","6","0.0","5","1011.02","1","41.231637","16.30298"],
    [675,"2024-01-29 02:00:00","11","andria","5.26","1","78.39","1","0.0","1","null","6","null","6","0.0","1","1011.16","1","41.231637","16.30298"],
    [676,"2024-01-29 03:00:00","11","andria","4.98","1","80.47","1","0.0","1","null","6","null","6","0.0","5","1011.13","1","41.231637","16.30298"],
    [677,"2024-01-29 04:00:00","11","andria","4.83","1","81.22","1","0.0","1","null","6","null","6","0.0","5","1011.03","1","41.231637","16.30298"],
    [678,"2024-01-29 05:00:00","11","andria","4.59","1","81.59","1","0.0","1","null","6","null","6","0.0","1","1011.08","1","41.231637","16.30298"],
    [679,"2024-01-29 06:00:00","11","andria","4.42","1","82.16","1","0.0","1","null","6","null","6","0.0","1","1011.03","1","41.231637","16.30298"],
    [680,"2024-01-29 07:00:00","11","andria","4.42","1","82.68","1","0.0","1","null","6","null","6","0.0","1","1011.26","1","41.231637","16.30298"],
    [681,"2024-01-29 08:00:00","11","andria","4.75","1","81.74","1","0.0","1","null","6","null","6","19.59","1","1011.46","1","41.231637","16.30298"],
    [682,"2024-01-29 09:00:00","11","andria","6.4","1","76.03","1","0.0","1","null","6","null","6","118.53","1","1011.64","1","41.231637","16.30298"],
    [683,"2024-01-29 10:00:00","11","andria","8.1","1","69.76","1","0.0","1","null","6","null","6","181.91","1","1011.8","1","41.231637","16.30298"],
    [684,"2024-01-29 11:00:00","11","andria","9.83","1","62.05","1","0.0","1","null","6","null","6","326.8","1","1011.93","1","41.231637","16.30298"],
    [685,"2024-01-29 12:00:00","11","andria","11.65","1","52.1","1","0.0","1","null","6","null","6","470.59","1","1011.55","1","41.231637","16.30298"],
    [686,"2024-01-29 13:00:00","11","andria","11.95","1","44.42","1","0.0","1","null","6","null","6","449.17","1","1011.05","1","41.231637","16.30298"],
    [687,"2024-01-29 14:00:00","11","andria","11.28","1","44.04","1","0.0","1","null","6","null","6","415.37","1","1009.95","1","41.231637","16.30298"],
    [688,"2024-01-29 15:00:00","11","andria","11.66","1","45.57","1","0.0","1","null","6","null","6","314.4","1","1010.47","1","41.231637","16.30298"],
    [689,"2024-01-29 16:00:00","11","andria","11.36","1","46.3","1","0.0","1","null","6","null","6","174.19","1","1010.36","1","41.231637","16.30298"],
    [690,"2024-01-29 17:00:00","11","andria","9.68","1","50.83","1","0.0","1","null","6","null","6","29.63","1","1010.37","1","41.231637","16.30298"],
    [691,"2024-01-29 18:00:00","11","andria","8.15","1","58.18","1","0.0","1","null","6","null","6","0.0","5","1010.44","1","41.231637","16.30298"],
    [692,"2024-01-29 19:00:00","11","andria","6.89","1","63.82","1","0.0","1","null","6","null","6","0.0","1","1010.89","1","41.231637","16.30298"],
    [693,"2024-01-29 20:00:00","11","andria","6.68","1","66.31","1","0.0","1","null","6","null","6","0.0","5","1011.2","1","41.231637","16.30298"],
    [694,"2024-01-29 21:00:00","11","andria","6.29","1","66.8","1","0.0","1","null","6","null","6","0.0","1","1011.49","1","41.231637","16.30298"],
    [695,"2024-01-29 22:00:00","11","andria","5.97","1","68.43","1","0.0","1","null","6","null","6","0.0","5","1011.58","1","41.231637","16.30298"],
    [696,"2024-01-29 23:00:00","11","andria","5.92","1","67.88","1","0.0","1","null","6","null","6","0.0","1","1011.7","1","41.231637","16.30298"],
    [697,"2024-01-30 00:00:00","11","andria","5.77","1","70.14","1","0.0","1","null","6","null","6","0.0","1","1011.97","1","41.231637","16.30298"],
    [698,"2024-01-30 01:00:00","11","andria","5.37","1","79.48","1","0.0","1","null","6","null","6","0.0","5","1011.83","1","41.231637","16.30298"],
    [699,"2024-01-30 02:00:00","11","andria","5.09","1","83.99","1","0.0","1","null","6","null","6","0.0","5","1011.82","1","41.231637","16.30298"],
    [700,"2024-01-30 03:00:00","11","andria","5.03","1","86.49","1","0.0","1","null","6","null","6","0.0","1","1011.71","1","41.231637","16.30298"],
    [701,"2024-01-30 04:00:00","11","andria","5.15","1","87.57","1","0.0","1","null","6","null","6","0.0","5","1011.24","1","41.231637","16.30298"],
    [702,"2024-01-30 05:00:00","11","andria","5.39","1","87.37","1","0.0","1","null","6","null","6","0.0","5","1011.01","1","41.231637","16.30298"],
    [703,"2024-01-30 06:00:00","11","andria","5.43","1","86.29","1","0.0","1","null","6","null","6","0.0","5","1010.87","1","41.231637","16.30298"],
    [704,"2024-01-30 07:00:00","11","andria","5.47","1","84.3","1","0.0","1","null","6","null","6","0.0","5","1011.22","1","41.231637","16.30298"],
    [705,"2024-01-30 08:00:00","11","andria","5.38","1","83.56","1","0.0","1","null","6","null","6","6.69","1","1011.63","1","41.231637","16.30298"],
    [706,"2024-01-30 09:00:00","11","andria","5.79","1","79.84","1","0.0","1","null","6","null","6","57.05","1","1012.01","1","41.231637","16.30298"],
    [707,"2024-01-30 10:00:00","11","andria","6.71","1","73.53","1","0.0","1","null","6","null","6","121.92","1","1012.22","1","41.231637","16.30298"],
    [708,"2024-01-30 11:00:00","11","andria","8.42","1","67.86","1","0.0","1","null","6","null","6","204.68","1","1012.34","1","41.231637","16.30298"],
    [709,"2024-01-30 12:00:00","11","andria","10.24","1","62.36","1","0.0","1","null","6","null","6","330.56","1","1012.07","1","41.231637","16.30298"],
    [710,"2024-01-30 13:00:00","11","andria","13.06","1","55.16","1","0.0","1","null","6","null","6","453.37","1","1011.37","1","41.231637","16.30298"],
    [711,"2024-01-30 14:00:00","11","andria","12.34","1","56.16","1","0.0","1","null","6","null","6","330.7","1","1010.68","1","41.231637","16.30298"],
    [712,"2024-01-30 15:00:00","11","andria","12.34","1","55.56","1","0.0","1","null","6","null","6","294.5","1","1010.18","1","41.231637","16.30298"],
    [713,"2024-01-30 16:00:00","11","andria","13.4","1","51.69","1","0.0","1","null","6","null","6","169.32","1","1010.68","1","41.231637","16.30298"],
    [714,"2024-01-30 17:00:00","11","andria","10.99","1","57.11","1","0.0","1","null","6","null","6","28.4","1","1010.88","1","41.231637","16.30298"],
    [715,"2024-01-30 18:00:00","11","andria","8.47","1","64.66","1","0.0","1","null","6","null","6","0.0","5","1011.32","1","41.231637","16.30298"],
    [716,"2024-01-30 19:00:00","11","andria","7.56","1","66.16","1","0.0","1","null","6","null","6","0.0","1","1011.44","1","41.231637","16.30298"],
    [717,"2024-01-30 20:00:00","11","andria","6.93","1","68.33","1","0.0","1","null","6","null","6","0.0","5","1011.66","1","41.231637","16.30298"],
    [718,"2024-01-30 21:00:00","11","andria","6.42","1","70.96","1","0.0","1","null","6","null","6","0.0","5","1011.57","1","41.231637","16.30298"],
    [719,"2024-01-30 22:00:00","11","andria","5.97","1","72.67","1","0.0","1","null","6","null","6","0.0","5","1011.48","1","41.231637","16.30298"],
    [720,"2024-01-30 23:00:00","11","andria","5.49","1","74.19","1","0.0","1","null","6","null","6","0.0","1","1011.46","1","41.231637","16.30298"],
    [721,"2024-01-31 00:00:00","11","andria","5.27","1","75.73","1","0.0","1","null","6","null","6","0.0","1","1011.64","1","41.231637","16.30298"],
    [722,"2024-01-31 01:00:00","11","andria","5.27","1","76.25","1","0.0","1","null","6","null","6","0.0","5","1011.4","1","41.231637","16.30298"],
    [723,"2024-01-31 02:00:00","11","andria","5.08","5","null","6","0.0","5","null","6","null","6","null","6","1011.33","5","41.231637","16.30298"],
    [724,"2024-01-31 03:00:00","11","andria","4.89","1","82.89","1","0.0","1","null","6","null","6","0.0","1","1011.26","1","41.231637","16.30298"],
    [725,"2024-01-31 04:00:00","11","andria","4.7","1","84.7","1","0.0","1","null","6","null","6","0.0","5","1010.94","1","41.231637","16.30298"],
    [726,"2024-01-31 05:00:00","11","andria","4.43","1","84.64","1","0.0","1","null","6","null","6","0.0","5","1010.62","1","41.231637","16.30298"],
    [727,"2024-01-31 06:00:00","11","andria","4.53","1","84.98","1","0.0","1","null","6","null","6","0.0","5","1010.51","1","41.231637","16.30298"],
    [728,"2024-01-31 07:00:00","11","andria","4.54","1","84.65","1","0.0","1","null","6","null","6","0.0","5","1010.54","1","41.231637","16.30298"],
    [729,"2024-01-31 08:00:00","11","andria","4.96","1","84.33","1","0.0","1","null","6","null","6","13.95","1","1010.7","1","41.231637","16.30298"],
    [730,"2024-01-31 09:00:00","11","andria","6.33","1","80.22","1","0.0","1","null","6","null","6","96.63","1","1010.71","1","41.231637","16.30298"],
    [731,"2024-01-31 10:00:00","11","andria","8.74","1","73.88","1","0.0","1","null","6","null","6","205.46","1","1010.59","1","41.231637","16.30298"],
    [732,"2024-01-31 11:00:00","11","andria","10.43","1","64.79","1","0.0","1","null","6","null","6","338.87","1","1010.45","1","41.231637","16.30298"],
    [733,"2024-01-31 12:00:00","11","andria","null","6","null","6","0.0","5","null","6","null","6","null","6","null","6","41.231637","16.30298"],
    [734,"2024-01-31 13:00:00","11","andria","null","6","null","6","0.0","5","null","6","null","6","null","6","null","6","41.231637","16.30298"],
    [735,"2024-01-31 14:00:00","11","andria","null","6","null","6","0.0","5","null","6","null","6","null","6","null","6","41.231637","16.30298"],
    [736,"2024-01-31 15:00:00","11","andria","null","6","null","6","0.0","5","null","6","null","6","null","6","null","6","41.231637","16.30298"],
    [737,"2024-01-31 16:00:00","11","andria","null","6","null","6","0.0","5","null","6","null","6","null","6","null","6","41.231637","16.30298"],
    [738,"2024-01-31 17:00:00","11","andria","10.7","1","60.0","1","0.0","1","null","6","null","6","18.64","1","1008.47","1","41.231637","16.30298"],
    [739,"2024-01-31 18:00:00","11","andria","8.93","1","68.12","1","0.0","1","null","6","null","6","0.0","5","1008.45","1","41.231637","16.30298"],
    [740,"2024-01-31 19:00:00","11","andria","8.02","1","72.32","1","0.0","1","null","6","null","6","0.0","5","1008.5","1","41.231637","16.30298"],
    [741,"2024-01-31 20:00:00","11","andria","7.28","1","74.37","1","0.0","1","null","6","null","6","0.0","1","1008.43","1","41.231637","16.30298"],
    [742,"2024-01-31 21:00:00","11","andria","6.45","1","74.3","1","0.0","1","null","6","null","6","0.0","1","1008.18","1","41.231637","16.30298"],
    [743,"2024-01-31 22:00:00","11","andria","6.23","1","75.33","1","0.0","1","null","6","null","6","0.0","5","1008.15","1","41.231637","16.30298"],
    [744,"2024-01-31 23:00:00","11","andria","6.1","1","81.78","1","0.0","1","null","6","null","6","0.0","5","1007.83","1","41.231637","16.30298"],
    [745,"2024-02-01 00:00:00","11","andria","6.06","1","82.72","1","0.0","1","null","6","null","6","0.0","5","1007.72","1","41.231637","16.30298"],
    [746,"2024-02-01 01:00:00","11","andria","5.8","1","83.21","1","0.0","1","null","6","null","6","0.0","5","1007.48","1","41.231637","16.30298"],
    [747,"2024-02-01 02:00:00","11","andria","5.63","1","83.91","1","0.0","1","null","6","null","6","0.0","5","1007.06","1","41.231637","16.30298"],
    [748,"2024-02-01 03:00:00","11","andria","5.5","1","84.22","1","0.0","1","null","6","null","6","0.0","5","1006.82","1","41.231637","16.30298"],
    [749,"2024-02-01 04:00:00","11","andria","5.29","1","84.48","1","0.0","1","null","6","null","6","0.0","1","1006.36","1","41.231637","16.30298"],
    [750,"2024-02-01 05:00:00","11","andria","5.33","1","83.89","1","0.0","1","null","6","null","6","0.0","5","1006.0","1","41.231637","16.30298"],
    [751,"2024-02-01 06:00:00","11","andria","5.36","1","82.31","1","0.0","1","null","6","null","6","0.0","1","1005.39","1","41.231637","16.30298"],
    [752,"2024-02-01 07:00:00","11","andria","5.04","1","81.28","1","0.0","1","null","6","null","6","0.0","5","1005.33","1","41.231637","16.30298"],
    [753,"2024-02-01 08:00:00","11","andria","5.56","1","66.44","1","0.0","1","null","6","null","6","11.96","1","1005.54","1","41.231637","16.30298"],
    [754,"2024-02-01 09:00:00","11","andria","6.44","1","60.92","1","0.0","1","null","6","null","6","82.87","1","1005.89","1","41.231637","16.30298"],
    [755,"2024-02-01 10:00:00","11","andria","8.42","1","59.02","1","0.0","1","null","6","null","6","216.26","1","1005.86","1","41.231637","16.30298"],
    [756,"2024-02-01 11:00:00","11","andria","10.17","1","53.53","1","0.0","1","null","6","null","6","334.32","1","1005.62","1","41.231637","16.30298"],
    [757,"2024-02-01 12:00:00","11","andria","12.32","1","43.55","1","0.0","1","null","6","null","6","468.44","1","1004.9","1","41.231637","16.30298"],
    [758,"2024-02-01 13:00:00","11","andria","13.07","1","43.58","1","0.0","1","null","6","null","6","466.35","1","1003.96","1","41.231637","16.30298"],
    [759,"2024-02-01 14:00:00","11","andria","12.97","1","42.24","1","0.0","1","null","6","null","6","408.1","1","1003.02","1","41.231637","16.30298"],
    [760,"2024-02-01 15:00:00","11","andria","13.75","1","35.29","1","0.0","1","null","6","null","6","317.09","1","1002.32","1","41.231637","16.30298"],
    [761,"2024-02-01 16:00:00","11","andria","13.17","1","46.55","1","0.0","1","null","6","null","6","175.14","1","1002.05","1","41.231637","16.30298"],
    [762,"2024-02-01 17:00:00","11","andria","11.11","1","51.3","1","0.0","1","null","6","null","6","28.93","1","1002.11","1","41.231637","16.30298"],
    [763,"2024-02-01 18:00:00","11","andria","9.06","1","57.23","1","0.0","1","null","6","null","6","0.0","5","1002.51","1","41.231637","16.30298"],
    [764,"2024-02-01 19:00:00","11","andria","8.51","1","59.45","1","0.0","1","null","6","null","6","0.0","5","1002.66","1","41.231637","16.30298"],
    [765,"2024-02-01 20:00:00","11","andria","7.78","1","66.78","1","0.0","1","null","6","null","6","0.0","1","1002.69","1","41.231637","16.30298"],
    [766,"2024-02-01 21:00:00","11","andria","7.01","1","66.53","1","0.0","1","null","6","null","6","0.0","5","1002.3","1","41.231637","16.30298"],
    [767,"2024-02-01 22:00:00","11","andria","7.31","1","64.49","1","0.0","1","null","6","null","6","0.0","5","1002.28","1","41.231637","16.30298"],
    [768,"2024-02-01 23:00:00","11","andria","6.73","1","70.12","1","0.0","1","null","6","null","6","0.0","5","1002.36","1","41.231637","16.30298"],
    [769,"2024-02-02 00:00:00","11","andria","6.3","1","71.33","1","0.0","1","null","6","null","6","0.0","1","1002.38","1","41.231637","16.30298"],
    [770,"2024-02-02 01:00:00","11","andria","6.03","1","73.54","1","0.0","1","null","6","null","6","0.0","5","1002.39","1","41.231637","16.30298"],
    [771,"2024-02-02 02:00:00","11","andria","5.73","1","71.85","1","0.0","1","null","6","null","6","0.0","5","1002.26","1","41.231637","16.30298"],
    [772,"2024-02-02 03:00:00","11","andria","5.78","1","61.91","1","0.0","1","null","6","null","6","0.0","1","1002.16","1","41.231637","16.30298"],
    [773,"2024-02-02 04:00:00","11","andria","5.51","1","59.57","1","0.0","1","null","6","null","6","0.0","1","1002.16","1","41.231637","16.30298"],
    [774,"2024-02-02 05:00:00","11","andria","5.35","1","66.8","1","0.0","1","null","6","null","6","0.0","1","1002.26","1","41.231637","16.30298"],
    [775,"2024-02-02 06:00:00","11","andria","5.42","1","66.85","1","0.0","1","null","6","null","6","0.0","5","1002.36","1","41.231637","16.30298"],
    [776,"2024-02-02 07:00:00","11","andria","4.7","1","64.39","1","0.0","1","null","6","null","6","0.0","5","1002.64","1","41.231637","16.30298"],
    [777,"2024-02-02 08:00:00","11","andria","4.73","1","62.54","1","0.0","1","null","6","null","6","12.06","1","1003.47","1","41.231637","16.30298"],
    [778,"2024-02-02 09:00:00","11","andria","5.97","1","63.03","1","0.0","1","null","6","null","6","97.33","1","1003.88","1","41.231637","16.30298"],
    [779,"2024-02-02 10:00:00","11","andria","8.23","1","60.42","1","0.0","1","null","6","null","6","205.01","1","1003.85","1","41.231637","16.30298"],
    [780,"2024-02-02 11:00:00","11","andria","9.71","1","60.86","1","0.0","1","null","6","null","6","259.13","1","1004.19","1","41.231637","16.30298"],
    [781,"2024-02-02 12:00:00","11","andria","11.85","1","59.14","1","0.0","1","null","6","null","6","401.82","1","1004.0","1","41.231637","16.30298"],
    [782,"2024-02-02 13:00:00","11","andria","12.88","1","53.54","1","0.0","1","null","6","null","6","438.05","1","1003.54","1","41.231637","16.30298"],
    [783,"2024-02-02 14:00:00","11","andria","12.77","1","47.38","1","0.0","1","null","6","null","6","419.73","1","1002.93","1","41.231637","16.30298"],
    [784,"2024-02-02 15:00:00","11","andria","13.28","1","45.87","1","0.0","1","null","6","null","6","325.65","1","1002.9","1","41.231637","16.30298"],
    [785,"2024-02-02 16:00:00","11","andria","12.96","1","46.7","1","0.0","1","null","6","null","6","193.09","1","1002.9","1","41.231637","16.30298"],
    [786,"2024-02-02 17:00:00","11","andria","11.34","1","50.97","1","0.0","1","null","6","null","6","39.89","1","1002.85","1","41.231637","16.30298"],
    [787,"2024-02-02 18:00:00","11","andria","10.45","1","56.76","1","0.0","1","null","6","null","6","0.0","5","1003.47","1","41.231637","16.30298"],
    [788,"2024-02-02 19:00:00","11","andria","9.51","1","61.84","1","0.0","1","null","6","null","6","0.0","5","1003.76","1","41.231637","16.30298"],
    [789,"2024-02-02 20:00:00","11","andria","8.71","1","63.76","1","0.0","1","null","6","null","6","0.0","5","1004.36","1","41.231637","16.30298"],
    [790,"2024-02-02 21:00:00","11","andria","7.92","1","65.35","1","0.0","1","null","6","null","6","0.0","5","1004.42","1","41.231637","16.30298"],
    [791,"2024-02-02 22:00:00","11","andria","7.49","1","73.54","1","0.0","1","null","6","null","6","0.0","1","1004.25","1","41.231637","16.30298"],
    [792,"2024-02-02 23:00:00","11","andria","6.86","1","79.75","1","0.0","1","null","6","null","6","0.0","1","1004.28","1","41.231637","16.30298"],
    [793,"2024-02-03 00:00:00","11","andria","6.5","1","81.36","1","0.0","1","null","6","null","6","0.0","1","1004.26","1","41.231637","16.30298"],
    [794,"2024-02-03 01:00:00","11","andria","6.46","1","80.37","1","0.0","1","null","6","null","6","0.0","1","1004.38","1","41.231637","16.30298"],
    [795,"2024-02-03 02:00:00","11","andria","6.01","1","82.32","1","0.0","1","null","6","null","6","0.0","1","1004.43","1","41.231637","16.30298"],
    [796,"2024-02-03 03:00:00","11","andria","6.3","1","82.83","1","0.0","1","null","6","null","6","0.0","1","1004.42","1","41.231637","16.30298"],
    [797,"2024-02-03 04:00:00","11","andria","6.31","1","84.29","1","0.0","1","null","6","null","6","0.0","1","1003.95","1","41.231637","16.30298"],
    [798,"2024-02-03 05:00:00","11","andria","6.3","1","83.53","1","0.0","1","null","6","null","6","0.0","1","1004.26","1","41.231637","16.30298"],
    [799,"2024-02-03 06:00:00","11","andria","6.21","1","84.4","1","0.0","1","null","6","null","6","0.0","1","1004.19","1","41.231637","16.30298"],
    [800,"2024-02-03 07:00:00","11","andria","6.29","1","85.18","1","0.0","1","null","6","null","6","0.0","5","1003.97","1","41.231637","16.30298"],
    [801,"2024-02-03 08:00:00","11","andria","6.79","1","83.83","1","0.0","1","null","6","null","6","18.36","1","1004.04","1","41.231637","16.30298"],
    [802,"2024-02-03 09:00:00","11","andria","8.49","1","77.57","1","0.0","1","null","6","null","6","101.65","1","1004.23","1","41.231637","16.30298"],
    [803,"2024-02-03 10:00:00","11","andria","10.93","1","66.41","1","0.0","1","null","6","null","6","226.54","1","1004.44","1","41.231637","16.30298"],
    [804,"2024-02-03 11:00:00","11","andria","13.19","1","53.57","1","0.0","1","null","6","null","6","346.56","1","1004.15","1","41.231637","16.30298"],
    [805,"2024-02-03 12:00:00","11","andria","15.5","1","38.74","1","0.0","1","null","6","null","6","460.69","1","1003.96","1","41.231637","16.30298"],
    [806,"2024-02-03 13:00:00","11","andria","17.07","1","29.24","1","0.0","1","null","6","null","6","485.95","1","1003.26","1","41.231637","16.30298"],
    [807,"2024-02-03 14:00:00","11","andria","16.71","1","28.13","1","0.0","1","null","6","null","6","408.49","1","1002.25","1","41.231637","16.30298"],
    [808,"2024-02-03 15:00:00","11","andria","18.36","1","24.55","1","0.0","1","null","6","null","6","324.93","1","1001.68","1","41.231637","16.30298"],
    [809,"2024-02-03 16:00:00","11","andria","19.27","1","24.92","1","0.0","1","null","6","null","6","187.91","1","1001.35","1","41.231637","16.30298"],
    [810,"2024-02-03 17:00:00","11","andria","16.7","1","29.06","1","0.0","1","null","6","null","6","31.17","1","1001.08","1","41.231637","16.30298"],
    [811,"2024-02-03 18:00:00","11","andria","14.9","1","34.43","1","0.0","1","null","6","null","6","0.0","5","1001.48","1","41.231637","16.30298"],
    [812,"2024-02-03 19:00:00","11","andria","13.4","1","36.31","1","0.0","1","null","6","null","6","0.0","5","1001.7","1","41.231637","16.30298"],
    [813,"2024-02-03 20:00:00","11","andria","12.67","1","36.74","1","0.0","1","null","6","null","6","0.0","1","1001.81","1","41.231637","16.30298"],
    [814,"2024-02-03 21:00:00","11","andria","12.0","1","40.04","1","0.0","1","null","6","null","6","0.0","5","1002.0","1","41.231637","16.30298"],
    [815,"2024-02-03 22:00:00","11","andria","11.84","1","42.73","1","0.0","1","null","6","null","6","0.0","5","1002.18","1","41.231637","16.30298"],
    [816,"2024-02-03 23:00:00","11","andria","11.71","1","44.43","1","0.0","1","null","6","null","6","0.0","1","1001.98","1","41.231637","16.30298"],
    [817,"2024-02-04 00:00:00","11","andria","11.63","1","45.0","1","0.0","1","null","6","null","6","0.0","1","1001.97","1","41.231637","16.30298"],
    [818,"2024-02-04 01:00:00","11","andria","11.83","1","43.84","1","0.0","1","null","6","null","6","0.0","5","1001.66","1","41.231637","16.30298"],
    [819,"2024-02-04 02:00:00","11","andria","11.63","1","43.44","1","0.0","1","null","6","null","6","0.0","5","1001.41","1","41.231637","16.30298"],
    [820,"2024-02-04 03:00:00","11","andria","11.4","1","42.96","1","0.0","1","null","6","null","6","0.0","1","1001.35","1","41.231637","16.30298"],
    [821,"2024-02-04 04:00:00","11","andria","10.98","1","45.41","1","0.0","1","null","6","null","6","0.0","5","1001.28","1","41.231637","16.30298"],
    [822,"2024-02-04 05:00:00","11","andria","10.72","1","48.56","1","0.0","1","null","6","null","6","0.0","1","1000.84","1","41.231637","16.30298"],
    [823,"2024-02-04 06:00:00","11","andria","10.72","1","50.64","1","0.0","1","null","6","null","6","0.0","5","1000.57","1","41.231637","16.30298"],
    [824,"2024-02-04 07:00:00","11","andria","10.56","1","52.3","1","0.0","1","null","6","null","6","0.0","5","1000.73","1","41.231637","16.30298"],
    [825,"2024-02-04 08:00:00","11","andria","10.82","1","52.7","1","0.0","1","null","6","null","6","19.52","1","1000.89","1","41.231637","16.30298"],
    [826,"2024-02-04 09:00:00","11","andria","11.58","1","51.28","1","0.0","1","null","6","null","6","73.98","1","1000.86","1","41.231637","16.30298"],
    [827,"2024-02-04 10:00:00","11","andria","13.62","1","45.62","1","0.0","1","null","6","null","6","181.56","1","1001.01","1","41.231637","16.30298"],
    [828,"2024-02-04 11:00:00","11","andria","15.55","1","41.83","1","0.0","1","null","6","null","6","317.36","1","1001.37","1","41.231637","16.30298"],
    [829,"2024-02-04 12:00:00","11","andria","17.48","1","40.28","1","0.0","1","null","6","null","6","467.74","1","1001.71","1","41.231637","16.30298"],
    [830,"2024-02-04 13:00:00","11","andria","17.93","1","40.28","1","0.0","1","null","6","null","6","485.6","1","1000.97","1","41.231637","16.30298"],
    [831,"2024-02-04 14:00:00","11","andria","17.88","1","40.48","1","0.0","1","null","6","null","6","428.6","1","1000.23","1","41.231637","16.30298"],
    [832,"2024-02-04 15:00:00","11","andria","18.55","1","37.83","1","0.0","1","null","6","null","6","330.59","1","999.71","1","41.231637","16.30298"],
    [833,"2024-02-04 16:00:00","11","andria","18.63","1","37.84","1","0.0","1","null","6","null","6","198.22","1","999.64","1","41.231637","16.30298"],
    [834,"2024-02-04 17:00:00","11","andria","16.52","1","44.99","1","0.0","1","null","6","null","6","31.34","1","999.77","1","41.231637","16.30298"],
    [835,"2024-02-04 18:00:00","11","andria","13.52","1","59.82","1","0.0","1","null","6","null","6","0.0","5","1000.62","1","41.231637","16.30298"],
    [836,"2024-02-04 19:00:00","11","andria","12.82","1","61.06","1","0.0","1","null","6","null","6","0.0","1","1001.18","1","41.231637","16.30298"],
    [837,"2024-02-04 20:00:00","11","andria","12.25","1","63.09","1","0.0","1","null","6","null","6","0.0","1","1001.4","1","41.231637","16.30298"],
    [838,"2024-02-04 21:00:00","11","andria","11.12","1","67.87","1","0.0","1","null","6","null","6","0.0","5","1001.56","1","41.231637","16.30298"],
    [839,"2024-02-04 22:00:00","11","andria","10.86","1","67.48","1","0.0","1","null","6","null","6","0.0","1","1001.62","1","41.231637","16.30298"],
    [840,"2024-02-04 23:00:00","11","andria","10.57","1","67.64","1","0.0","1","null","6","null","6","0.0","5","1001.63","1","41.231637","16.30298"],
    [841,"2024-02-05 00:00:00","11","andria","10.58","1","66.71","1","0.0","1","null","6","null","6","0.0","5","1001.62","1","41.231637","16.30298"],
    [842,"2024-02-05 01:00:00","11","andria","10.62","1","65.92","1","0.0","1","null","6","null","6","0.0","5","1001.59","1","41.231637","16.30298"],
    [843,"2024-02-05 02:00:00","11","andria","10.21","1","66.31","1","0.0","1","null","6","null","6","0.0","1","1001.23","1","41.231637","16.30298"],
    [844,"2024-02-05 03:00:00","11","andria","9.23","1","66.78","1","0.0","1","null","6","null","6","0.0","1","1001.37","1","41.231637","16.30298"],
    [845,"2024-02-05 04:00:00","11","andria","8.97","1","65.41","1","0.0","1","null","6","null","6","0.0","5","1001.07","1","41.231637","16.30298"],
    [846,"2024-02-05 05:00:00","11","andria","9.18","1","63.09","1","0.0","1","null","6","null","6","0.0","1","1001.07","1","41.231637","16.30298"],
    [847,"2024-02-05 06:00:00","11","andria","8.92","1","63.99","1","0.0","1","null","6","null","6","0.0","5","1001.0","1","41.231637","16.30298"],
    [848,"2024-02-05 07:00:00","11","andria","8.93","1","64.66","1","0.0","1","null","6","null","6","0.0","5","1001.02","1","41.231637","16.30298"],
    [849,"2024-02-05 08:00:00","11","andria","9.15","1","62.72","1","0.0","1","null","6","null","6","24.86","1","1001.08","1","41.231637","16.30298"],
    [850,"2024-02-05 09:00:00","11","andria","10.86","1","57.05","1","0.0","1","null","6","null","6","88.05","1","1001.08","1","41.231637","16.30298"],
    [851,"2024-02-05 10:00:00","11","andria","14.01","1","50.96","1","0.0","1","null","6","null","6","212.92","1","1001.34","1","41.231637","16.30298"],
    [852,"2024-02-05 11:00:00","11","andria","15.64","1","47.74","1","0.0","1","null","6","null","6","305.78","1","1001.71","1","41.231637","16.30298"],
    [853,"2024-02-05 12:00:00","11","andria","16.92","1","45.45","1","0.0","1","null","6","null","6","428.87","1","1001.45","1","41.231637","16.30298"],
    [854,"2024-02-05 13:00:00","11","andria","18.16","1","42.08","1","0.0","1","null","6","null","6","404.47","1","1000.87","1","41.231637","16.30298"],
    [855,"2024-02-05 14:00:00","11","andria","18.21","1","41.75","1","0.0","1","null","6","null","6","441.94","1","1000.12","1","41.231637","16.30298"],
    [856,"2024-02-05 15:00:00","11","andria","19.42","1","39.0","1","0.0","1","null","6","null","6","337.26","1","999.47","1","41.231637","16.30298"],
    [857,"2024-02-05 16:00:00","11","andria","19.12","1","42.67","1","0.0","1","null","6","null","6","205.06","1","999.46","1","41.231637","16.30298"],
    [858,"2024-02-05 17:00:00","11","andria","16.74","1","49.5","1","0.0","1","null","6","null","6","30.3","1","999.63","1","41.231637","16.30298"],
    [859,"2024-02-05 18:00:00","11","andria","14.55","1","57.74","1","0.0","1","null","6","null","6","0.0","5","1000.26","1","41.231637","16.30298"],
    [860,"2024-02-05 19:00:00","11","andria","13.5","1","60.8","1","0.0","1","null","6","null","6","0.0","5","1001.16","1","41.231637","16.30298"],
    [861,"2024-02-05 20:00:00","11","andria","12.94","1","61.09","1","0.0","1","null","6","null","6","0.0","5","1001.41","1","41.231637","16.30298"],
    [862,"2024-02-05 21:00:00","11","andria","12.09","1","62.12","1","0.0","1","null","6","null","6","0.0","5","1001.47","1","41.231637","16.30298"],
    [863,"2024-02-05 22:00:00","11","andria","11.32","1","64.42","1","0.0","1","null","6","null","6","0.0","5","1001.55","1","41.231637","16.30298"],
    [864,"2024-02-05 23:00:00","11","andria","10.45","1","67.53","1","0.0","1","null","6","null","6","0.0","5","1001.52","1","41.231637","16.30298"],
    [865,"2024-02-06 00:00:00","11","andria","10.42","1","67.39","1","0.0","1","null","6","null","6","0.0","1","1001.75","1","41.231637","16.30298"],
    [866,"2024-02-06 01:00:00","11","andria","9.97","1","69.7","1","0.0","1","null","6","null","6","0.0","5","1001.86","1","41.231637","16.30298"],
    [867,"2024-02-06 02:00:00","11","andria","10.19","1","67.77","1","0.0","1","null","6","null","6","0.0","1","1001.54","1","41.231637","16.30298"],
    [868,"2024-02-06 03:00:00","11","andria","9.91","1","68.37","1","0.0","1","null","6","null","6","0.0","1","1001.41","1","41.231637","16.30298"],
    [869,"2024-02-06 04:00:00","11","andria","9.89","1","67.45","1","0.0","1","null","6","null","6","0.0","1","1000.9","1","41.231637","16.30298"],
    [870,"2024-02-06 05:00:00","11","andria","9.92","1","66.1","1","0.0","1","null","6","null","6","0.0","1","1000.75","1","41.231637","16.30298"],
    [871,"2024-02-06 06:00:00","11","andria","9.66","1","66.48","1","0.0","1","null","6","null","6","0.0","5","1000.53","1","41.231637","16.30298"],
    [872,"2024-02-06 07:00:00","11","andria","9.84","1","66.69","1","0.0","1","null","6","null","6","0.0","5","1000.46","1","41.231637","16.30298"],
    [873,"2024-02-06 08:00:00","11","andria","10.36","1","66.16","1","0.0","1","null","6","null","6","26.38","1","1000.59","1","41.231637","16.30298"],
    [874,"2024-02-06 09:00:00","11","andria","12.09","1","61.4","1","0.0","1","null","6","null","6","103.91","1","1000.59","1","41.231637","16.30298"],
    [875,"2024-02-06 10:00:00","11","andria","13.85","1","57.44","1","0.0","1","null","6","null","6","217.79","1","1000.64","1","41.231637","16.30298"],
    [876,"2024-02-06 11:00:00","11","andria","14.85","1","54.54","1","0.0","1","null","6","null","6","357.87","1","1000.79","1","41.231637","16.30298"],
    [877,"2024-02-06 12:00:00","11","andria","16.18","1","51.01","1","0.0","1","null","6","null","6","477.7","1","1000.35","1","41.231637","16.30298"],
    [878,"2024-02-06 13:00:00","11","andria","16.51","1","49.52","1","0.0","1","null","6","null","6","474.1","1","999.55","1","41.231637","16.30298"],
    [879,"2024-02-06 14:00:00","11","andria","16.93","1","46.95","1","0.0","1","null","6","null","6","438.68","1","998.61","1","41.231637","16.30298"],
    [880,"2024-02-06 15:00:00","11","andria","17.32","1","47.25","1","0.0","1","null","6","null","6","285.96","1","998.19","1","41.231637","16.30298"],
    [881,"2024-02-06 16:00:00","11","andria","17.0","1","51.14","1","0.0","1","null","6","null","6","152.66","1","998.34","1","41.231637","16.30298"],
    [882,"2024-02-06 17:00:00","11","andria","14.7","1","59.24","1","0.0","1","null","6","null","6","41.62","1","998.34","1","41.231637","16.30298"],
    [883,"2024-02-06 18:00:00","11","andria","12.34","1","69.05","1","0.0","1","null","6","null","6","0.0","5","998.58","1","41.231637","16.30298"],
    [884,"2024-02-06 19:00:00","11","andria","11.05","1","72.9","1","0.0","1","null","6","null","6","0.0","5","998.87","1","41.231637","16.30298"],
    [885,"2024-02-06 20:00:00","11","andria","10.88","1","72.91","1","0.0","1","null","6","null","6","0.0","1","998.84","1","41.231637","16.30298"],
    [886,"2024-02-06 21:00:00","11","andria","10.44","1","74.02","1","0.0","1","null","6","null","6","0.0","5","998.62","1","41.231637","16.30298"],
    [887,"2024-02-06 22:00:00","11","andria","10.69","1","69.82","1","0.0","1","null","6","null","6","0.0","5","998.39","1","41.231637","16.30298"],
    [888,"2024-02-06 23:00:00","11","andria","9.79","1","71.44","1","0.0","1","null","6","null","6","0.0","5","998.15","1","41.231637","16.30298"],
    [889,"2024-02-07 00:00:00","11","andria","9.21","1","69.91","1","0.0","1","null","6","null","6","0.0","1","997.66","1","41.231637","16.30298"],
    [890,"2024-02-07 01:00:00","11","andria","9.04","1","67.98","1","0.0","1","null","6","null","6","0.0","1","997.4","1","41.231637","16.30298"],
    [891,"2024-02-07 02:00:00","11","andria","8.63","1","69.28","1","0.0","1","null","6","null","6","0.0","1","996.82","1","41.231637","16.30298"],
    [892,"2024-02-07 03:00:00","11","andria","8.45","1","67.75","1","0.0","1","null","6","null","6","0.0","1","995.95","1","41.231637","16.30298"],
    [893,"2024-02-07 04:00:00","11","andria","7.98","1","66.82","1","0.0","1","null","6","null","6","0.0","5","995.47","1","41.231637","16.30298"],
    [894,"2024-02-07 05:00:00","11","andria","8.24","1","61.22","1","0.0","1","null","6","null","6","0.0","5","994.99","1","41.231637","16.30298"],
    [895,"2024-02-07 06:00:00","11","andria","7.69","1","64.32","1","0.0","1","null","6","null","6","0.0","1","994.71","1","41.231637","16.30298"],
    [896,"2024-02-07 07:00:00","11","andria","8.05","1","62.95","1","0.0","1","null","6","null","6","0.0","5","994.36","1","41.231637","16.30298"],
    [897,"2024-02-07 08:00:00","11","andria","8.43","1","59.65","1","0.0","1","null","6","null","6","27.92","1","994.31","1","41.231637","16.30298"],
    [898,"2024-02-07 09:00:00","11","andria","10.32","1","55.78","1","0.0","1","null","6","null","6","97.27","1","994.22","1","41.231637","16.30298"],
    [899,"2024-02-07 10:00:00","11","andria","13.0","1","48.77","1","0.0","1","null","6","null","6","186.41","1","994.08","1","41.231637","16.30298"],
    [900,"2024-02-07 11:00:00","11","andria","14.07","1","49.58","1","0.0","1","null","6","null","6","193.93","1","993.94","1","41.231637","16.30298"],
    [901,"2024-02-07 12:00:00","11","andria","14.95","1","47.29","1","0.0","1","null","6","null","6","256.49","1","993.25","1","41.231637","16.30298"],
    [902,"2024-02-07 13:00:00","11","andria","16.77","1","45.13","1","0.0","1","null","6","null","6","374.7","1","992.34","1","41.231637","16.30298"],
    [903,"2024-02-07 14:00:00","11","andria","16.92","1","43.92","1","0.0","1","null","6","null","6","264.22","1","991.45","1","41.231637","16.30298"],
    [904,"2024-02-07 15:00:00","11","andria","17.12","1","42.36","1","0.0","1","null","6","null","6","163.58","1","990.76","1","41.231637","16.30298"],
    [905,"2024-02-07 16:00:00","11","andria","15.28","1","47.7","1","0.0","1","null","6","null","6","84.55","1","990.72","1","41.231637","16.30298"],
    [906,"2024-02-07 17:00:00","11","andria","14.28","1","49.84","1","0.0","1","null","6","null","6","44.74","1","990.7","1","41.231637","16.30298"],
    [907,"2024-02-07 18:00:00","11","andria","13.27","1","55.14","1","0.0","1","null","6","null","6","0.0","5","990.63","1","41.231637","16.30298"],
    [908,"2024-02-07 19:00:00","11","andria","12.51","1","60.8","1","0.0","1","null","6","null","6","0.0","1","990.57","1","41.231637","16.30298"],
    [909,"2024-02-07 20:00:00","11","andria","12.07","1","62.85","1","0.0","1","null","6","null","6","0.0","1","990.45","1","41.231637","16.30298"],
    [910,"2024-02-07 21:00:00","11","andria","12.15","1","60.95","1","0.0","1","null","6","null","6","0.0","1","990.32","1","41.231637","16.30298"],
    [911,"2024-02-07 22:00:00","11","andria","10.94","1","60.96","1","0.0","1","null","6","null","6","0.0","1","990.25","1","41.231637","16.30298"],
    [912,"2024-02-07 23:00:00","11","andria","10.16","1","57.05","1","0.0","1","null","6","null","6","0.0","5","990.08","1","41.231637","16.30298"],
    [913,"2024-02-08 00:00:00","11","andria","10.27","1","59.47","1","0.0","1","null","6","null","6","0.0","5","990.05","1","41.231637","16.30298"],
    [914,"2024-02-08 01:00:00","11","andria","9.6","1","63.52","1","0.0","1","null","6","null","6","0.0","1","989.97","1","41.231637","16.30298"],
    [915,"2024-02-08 02:00:00","11","andria","8.53","1","67.36","1","0.0","1","null","6","null","6","0.0","1","989.92","1","41.231637","16.30298"],
    [916,"2024-02-08 03:00:00","11","andria","9.25","1","65.92","1","0.0","1","null","6","null","6","0.0","1","989.55","1","41.231637","16.30298"],
    [917,"2024-02-08 04:00:00","11","andria","9.48","1","65.72","1","0.0","1","null","6","null","6","0.0","5","989.05","1","41.231637","16.30298"],
    [918,"2024-02-08 05:00:00","11","andria","9.45","1","66.28","1","0.0","1","null","6","null","6","0.0","1","988.79","1","41.231637","16.30298"],
    [919,"2024-02-08 06:00:00","11","andria","9.16","1","67.76","1","0.0","1","null","6","null","6","0.0","5","988.76","1","41.231637","16.30298"],
    [920,"2024-02-08 07:00:00","11","andria","9.24","1","67.97","1","0.0","1","null","6","null","6","0.0","1","988.92","1","41.231637","16.30298"],
    [921,"2024-02-08 08:00:00","11","andria","9.75","1","67.05","1","0.0","1","null","6","null","6","32.78","1","989.4","1","41.231637","16.30298"],
    [922,"2024-02-08 09:00:00","11","andria","11.87","1","60.8","1","0.0","1","null","6","null","6","118.94","1","989.85","1","41.231637","16.30298"],
    [923,"2024-02-08 10:00:00","11","andria","13.74","1","55.61","1","0.0","1","null","6","null","6","221.58","1","989.75","1","41.231637","16.30298"],
    [924,"2024-02-08 11:00:00","11","andria","15.34","1","46.27","1","0.0","1","null","6","null","6","333.57","1","990.01","1","41.231637","16.30298"],
    [925,"2024-02-08 12:00:00","11","andria","16.85","1","39.83","1","0.0","1","null","6","null","6","500.5","1","990.07","1","41.231637","16.30298"],
    [926,"2024-02-08 13:00:00","11","andria","17.39","1","37.72","1","0.0","1","null","6","null","6","491.41","1","989.29","1","41.231637","16.30298"],
    [927,"2024-02-08 14:00:00","11","andria","17.18","1","37.63","1","0.0","1","null","6","null","6","448.57","1","988.79","1","41.231637","16.30298"],
    [928,"2024-02-08 15:00:00","11","andria","17.87","1","36.24","1","0.0","1","null","6","null","6","338.78","1","988.61","1","41.231637","16.30298"],
    [929,"2024-02-08 16:00:00","11","andria","17.38","1","37.8","1","0.0","1","null","6","null","6","181.01","1","988.82","1","41.231637","16.30298"],
    [930,"2024-02-08 17:00:00","11","andria","16.0","1","41.79","1","0.0","1","null","6","null","6","27.47","1","988.75","1","41.231637","16.30298"],
    [931,"2024-02-08 18:00:00","11","andria","14.82","1","48.07","1","0.0","1","null","6","null","6","0.0","5","988.96","1","41.231637","16.30298"],
    [932,"2024-02-08 19:00:00","11","andria","13.48","1","53.14","1","0.0","1","null","6","null","6","0.0","5","989.33","1","41.231637","16.30298"],
    [933,"2024-02-08 20:00:00","11","andria","12.74","1","54.62","1","0.0","1","null","6","null","6","0.0","1","989.57","1","41.231637","16.30298"],
    [934,"2024-02-08 21:00:00","11","andria","12.3","1","54.69","1","0.0","1","null","6","null","6","0.0","5","989.58","1","41.231637","16.30298"],
    [935,"2024-02-08 22:00:00","11","andria","11.56","1","56.02","1","0.0","1","null","6","null","6","0.0","5","989.56","1","41.231637","16.30298"],
    [936,"2024-02-08 23:00:00","11","andria","11.26","1","54.56","1","0.0","1","null","6","null","6","0.0","1","989.53","1","41.231637","16.30298"],
    [937,"2024-02-09 00:00:00","11","andria","10.97","1","54.13","1","0.0","1","null","6","null","6","0.0","5","989.63","1","41.231637","16.30298"],
    [938,"2024-02-09 01:00:00","11","andria","10.23","1","56.69","1","0.0","1","null","6","null","6","0.0","5","989.32","1","41.231637","16.30298"],
    [939,"2024-02-09 02:00:00","11","andria","9.97","1","58.03","1","0.0","1","null","6","null","6","0.0","1","988.83","1","41.231637","16.30298"],
    [940,"2024-02-09 03:00:00","11","andria","10.0","1","58.82","1","0.0","1","null","6","null","6","0.0","5","988.61","1","41.231637","16.30298"],
    [941,"2024-02-09 04:00:00","11","andria","10.23","1","58.45","1","0.0","1","null","6","null","6","0.0","5","988.17","1","41.231637","16.30298"],
    [942,"2024-02-09 05:00:00","11","andria","9.64","1","59.9","1","0.0","1","null","6","null","6","0.0","1","987.81","1","41.231637","16.30298"],
    [943,"2024-02-09 06:00:00","11","andria","9.05","1","60.53","1","0.0","1","null","6","null","6","0.0","5","987.85","1","41.231637","16.30298"],
    [944,"2024-02-09 07:00:00","11","andria","9.5","1","54.78","1","0.0","1","null","6","null","6","0.0","1","987.86","1","41.231637","16.30298"],
    [945,"2024-02-09 08:00:00","11","andria","8.88","1","56.67","1","0.0","1","null","6","null","6","27.97","1","987.9","1","41.231637","16.30298"],
    [946,"2024-02-09 09:00:00","11","andria","11.57","1","49.23","1","0.0","1","null","6","null","6","129.47","1","987.75","1","41.231637","16.30298"],
    [947,"2024-02-09 10:00:00","11","andria","13.24","1","50.3","1","0.0","1","null","6","null","6","153.15","1","987.81","1","41.231637","16.30298"],
    [948,"2024-02-09 11:00:00","11","andria","16.12","1","39.99","1","0.0","1","null","6","null","6","311.3","1","987.85","1","41.231637","16.30298"],
    [949,"2024-02-09 12:00:00","11","andria","17.3","1","37.18","1","0.0","1","null","6","null","6","360.33","1","987.37","1","41.231637","16.30298"],
    [950,"2024-02-09 13:00:00","11","andria","17.53","1","37.29","1","0.0","1","null","6","null","6","241.55","1","986.4","1","41.231637","16.30298"],
    [951,"2024-02-09 14:00:00","11","andria","17.15","1","37.62","1","0.0","1","null","6","null","6","177.99","1","985.6","1","41.231637","16.30298"],
    [952,"2024-02-09 15:00:00","11","andria","18.19","1","36.66","1","0.0","1","null","6","null","6","237.96","1","984.97","1","41.231637","16.30298"],
    [953,"2024-02-09 16:00:00","11","andria","19.54","1","25.27","1","0.0","1","null","6","null","6","171.27","1","984.37","1","41.231637","16.30298"],
    [954,"2024-02-09 17:00:00","11","andria","17.92","1","34.82","1","0.0","1","null","6","null","6","46.07","1","984.01","1","41.231637","16.30298"],
    [955,"2024-02-09 18:00:00","11","andria","14.82","1","49.31","1","0.0","1","null","6","null","6","0.0","5","983.85","1","41.231637","16.30298"],
    [956,"2024-02-09 19:00:00","11","andria","13.09","1","58.16","1","0.0","1","null","6","null","6","0.0","1","984.04","1","41.231637","16.30298"],
    [957,"2024-02-09 20:00:00","11","andria","12.87","1","61.3","1","0.0","1","null","6","null","6","0.0","5","983.94","1","41.231637","16.30298"],
    [958,"2024-02-09 21:00:00","11","andria","12.88","1","59.69","1","0.0","1","null","6","null","6","0.0","5","983.72","1","41.231637","16.30298"],
    [959,"2024-02-09 22:00:00","11","andria","12.57","1","62.93","1","0.0","1","null","6","null","6","0.0","1","983.86","1","41.231637","16.30298"],
    [960,"2024-02-09 23:00:00","11","andria","12.73","1","60.44","1","0.0","1","null","6","null","6","0.0","5","983.6","1","41.231637","16.30298"],
    [961,"2024-02-10 00:00:00","11","andria","12.92","1","58.73","1","0.0","1","null","6","null","6","0.0","5","983.0","1","41.231637","16.30298"],
    [962,"2024-02-10 01:00:00","11","andria","12.45","1","62.41","1","0.0","1","null","6","null","6","0.0","5","982.58","1","41.231637","16.30298"],
    [963,"2024-02-10 02:00:00","11","andria","12.31","1","65.71","1","0.0","1","null","6","null","6","0.0","5","982.12","1","41.231637","16.30298"],
    [964,"2024-02-10 03:00:00","11","andria","12.18","1","71.31","1","0.0","1","null","6","null","6","0.0","1","981.52","1","41.231637","16.30298"],
    [965,"2024-02-10 04:00:00","11","andria","12.06","1","70.81","1","0.0","1","null","6","null","6","0.0","1","980.89","1","41.231637","16.30298"],
    [966,"2024-02-10 05:00:00","11","andria","13.17","1","55.93","1","0.0","1","null","6","null","6","0.0","5","980.64","1","41.231637","16.30298"],
    [967,"2024-02-10 06:00:00","11","andria","14.75","1","47.57","1","0.0","1","null","6","null","6","0.0","5","980.24","1","41.231637","16.30298"],
    [968,"2024-02-10 07:00:00","11","andria","14.91","1","47.36","1","0.0","1","null","6","null","6","0.0","5","979.98","1","41.231637","16.30298"],
    [969,"2024-02-10 08:00:00","11","andria","14.75","1","47.87","1","0.0","1","null","6","null","6","0.0","5","980.16","1","41.231637","16.30298"],
    [970,"2024-02-10 09:00:00","11","andria","14.9","1","46.73","1","0.0","1","null","6","null","6","12.4","1","980.3","1","41.231637","16.30298"],
    [971,"2024-02-10 10:00:00","11","andria","13.95","1","57.55","1","0.0","1","null","6","null","6","49.88","1","980.55","1","41.231637","16.30298"],
    [972,"2024-02-10 11:00:00","11","andria","14.74","1","56.65","1","0.0","1","null","6","null","6","117.25","1","980.72","1","41.231637","16.30298"],
    [973,"2024-02-10 12:00:00","11","andria","15.56","1","49.95","1","0.0","1","null","6","null","6","74.4","1","980.13","1","41.231637","16.30298"],
    [974,"2024-02-10 13:00:00","11","andria","15.85","1","46.04","1","0.0","1","null","6","null","6","36.66","1","978.79","1","41.231637","16.30298"],
    [975,"2024-02-10 14:00:00","11","andria","16.15","1","41.3","1","0.0","1","null","6","null","6","26.4","1","978.21","1","41.231637","16.30298"],
    [976,"2024-02-10 15:00:00","11","andria","15.7","1","43.79","1","0.0","1","null","6","null","6","31.85","1","977.27","1","41.231637","16.30298"],
    [977,"2024-02-10 16:00:00","11","andria","15.56","1","43.49","1","0.0","1","null","6","null","6","20.48","1","976.6","1","41.231637","16.30298"],
    [978,"2024-02-10 17:00:00","11","andria","15.44","1","44.75","1","0.0","1","null","6","null","6","7.28","1","976.09","1","41.231637","16.30298"],
    [979,"2024-02-10 18:00:00","11","andria","15.25","1","45.65","1","0.0","1","null","6","null","6","0.0","5","975.48","1","41.231637","16.30298"],
    [980,"2024-02-10 19:00:00","11","andria","14.83","1","47.35","1","0.0","1","null","6","null","6","0.0","5","975.38","1","41.231637","16.30298"],
    [981,"2024-02-10 20:00:00","11","andria","13.92","1","62.29","1","0.0","1","null","6","null","6","0.0","5","974.88","1","41.231637","16.30298"],
    [982,"2024-02-10 21:00:00","11","andria","13.84","1","64.53","1","0.0","1","null","6","null","6","0.0","5","974.47","1","41.231637","16.30298"],
    [983,"2024-02-10 22:00:00","11","andria","14.09","1","58.72","1","0.0","1","null","6","null","6","0.0","5","974.34","1","41.231637","16.30298"],
    [984,"2024-02-10 23:00:00","11","andria","13.94","1","55.92","1","0.0","1","null","6","null","6","0.0","5","974.65","1","41.231637","16.30298"],
    [985,"2024-02-11 00:00:00","11","andria","13.7","1","56.25","1","0.0","1","null","6","null","6","0.0","1","974.47","1","41.231637","16.30298"],
    [986,"2024-02-11 01:00:00","11","andria","13.59","1","55.96","1","0.0","1","null","6","null","6","0.0","5","974.18","1","41.231637","16.30298"],
    [987,"2024-02-11 02:00:00","11","andria","13.43","1","55.66","1","0.0","1","null","6","null","6","0.0","5","973.55","1","41.231637","16.30298"],
    [988,"2024-02-11 03:00:00","11","andria","13.27","1","56.48","1","0.0","1","null","6","null","6","0.0","1","973.61","1","41.231637","16.30298"],
    [989,"2024-02-11 04:00:00","11","andria","12.43","1","59.41","1","0.0","1","null","6","null","6","0.0","1","973.92","1","41.231637","16.30298"],
    [990,"2024-02-11 05:00:00","11","andria","12.71","1","59.55","1","0.0","1","null","6","null","6","0.0","5","973.66","1","41.231637","16.30298"],
    [991,"2024-02-11 06:00:00","11","andria","12.82","1","57.94","1","0.0","1","null","6","null","6","0.0","5","973.62","1","41.231637","16.30298"],
    [992,"2024-02-11 07:00:00","11","andria","12.83","1","57.55","1","0.0","1","null","6","null","6","0.0","5","973.38","1","41.231637","16.30298"],
    [993,"2024-02-11 08:00:00","11","andria","12.4","1","60.29","1","0.0","1","null","6","null","6","16.56","1","973.48","1","41.231637","16.30298"],
    [994,"2024-02-11 09:00:00","11","andria","12.38","1","60.87","1","0.0","1","null","6","null","6","51.75","1","974.36","1","41.231637","16.30298"],
    [995,"2024-02-11 10:00:00","11","andria","13.24","1","58.73","1","0.0","1","null","6","null","6","100.65","1","974.82","1","41.231637","16.30298"],
    [996,"2024-02-11 11:00:00","11","andria","13.57","1","55.18","1","0.0","1","null","6","null","6","89.02","1","975.31","1","41.231637","16.30298"],
    [997,"2024-02-11 12:00:00","11","andria","10.76","1","69.8","1","0.8","1","null","6","null","6","83.89","1","975.5","1","41.231637","16.30298"],
    [998,"2024-02-11 13:00:00","11","andria","11.9","1","61.08","1","0.4","1","null","6","null","6","88.67","1","975.52","1","41.231637","16.30298"],
    [999,"2024-02-11 14:00:00","11","andria","12.05","1","62.73","1","0.0","1","null","6","null","6","166.88","1","975.49","1","41.231637","16.30298"],
    [1000,"2024-02-11 15:00:00","11","andria","12.69","1","55.08","1","0.0","1","null","6","null","6","114.86","1","975.34","1","41.231637","16.30298"],
    [1001,"2024-02-11 16:00:00","11","andria","12.91","1","53.27","1","0.0","1","null","6","null","6","115.7","1","975.6","1","41.231637","16.30298"],
    [1002,"2024-02-11 17:00:00","11","andria","12.68","1","53.99","1","0.0","1","null","6","null","6","38.43","1","975.7","1","41.231637","16.30298"],
    [1003,"2024-02-11 18:00:00","11","andria","11.72","1","56.59","1","0.0","1","null","6","null","6","0.0","5","976.09","1","41.231637","16.30298"],
    [1004,"2024-02-11 19:00:00","11","andria","11.06","1","56.77","1","0.0","1","null","6","null","6","0.0","5","976.24","1","41.231637","16.30298"],
    [1005,"2024-02-11 20:00:00","11","andria","10.68","1","56.46","1","0.0","1","null","6","null","6","0.0","5","976.51","1","41.231637","16.30298"],
    [1006,"2024-02-11 21:00:00","11","andria","10.29","1","57.74","1","0.0","1","null","6","null","6","0.0","5","976.95","1","41.231637","16.30298"],
    [1007,"2024-02-11 22:00:00","11","andria","10.06","1","60.15","1","0.0","1","null","6","null","6","0.0","1","977.69","1","41.231637","16.30298"],
    [1008,"2024-02-11 23:00:00","11","andria","9.45","1","62.59","1","0.0","1","null","6","null","6","0.0","5","977.87","1","41.231637","16.30298"],
    [1009,"2024-02-12 00:00:00","11","andria","9.03","1","62.67","1","0.0","1","null","6","null","6","0.0","1","977.97","1","41.231637","16.30298"],
    [1010,"2024-02-12 01:00:00","11","andria","8.87","1","62.27","1","0.0","1","null","6","null","6","0.0","1","978.24","1","41.231637","16.30298"],
    [1011,"2024-02-12 02:00:00","11","andria","8.83","1","61.85","1","0.0","1","null","6","null","6","0.0","1","978.43","1","41.231637","16.30298"],
    [1012,"2024-02-12 03:00:00","11","andria","8.98","1","61.48","1","0.0","1","null","6","null","6","0.0","5","978.18","1","41.231637","16.30298"],
    [1013,"2024-02-12 04:00:00","11","andria","9.07","1","61.85","1","0.0","1","null","6","null","6","0.0","1","978.03","1","41.231637","16.30298"],
    [1014,"2024-02-12 05:00:00","11","andria","8.61","1","63.42","1","0.0","1","null","6","null","6","0.0","1","978.61","1","41.231637","16.30298"],
    [1015,"2024-02-12 06:00:00","11","andria","7.9","1","68.36","1","0.0","1","null","6","null","6","0.0","1","978.9","1","41.231637","16.30298"],
    [1016,"2024-02-12 07:00:00","11","andria","8.81","1","65.89","1","0.0","1","null","6","null","6","0.0","1","979.22","1","41.231637","16.30298"],
    [1017,"2024-02-12 08:00:00","11","andria","9.08","1","66.05","1","0.0","1","null","6","null","6","20.58","1","979.76","1","41.231637","16.30298"],
    [1018,"2024-02-12 09:00:00","11","andria","10.31","1","62.65","1","0.0","1","null","6","null","6","124.34","1","980.38","1","41.231637","16.30298"],
    [1019,"2024-02-12 10:00:00","11","andria","12.13","1","57.05","1","0.0","1","null","6","null","6","169.24","1","980.91","1","41.231637","16.30298"],
    [1020,"2024-02-12 11:00:00","11","andria","11.8","1","59.47","1","0.0","1","null","6","null","6","178.0","1","981.5","1","41.231637","16.30298"],
    [1021,"2024-02-12 12:00:00","11","andria","14.71","1","51.87","1","0.0","1","null","6","null","6","521.19","1","981.31","1","41.231637","16.30298"],
    [1022,"2024-02-12 13:00:00","11","andria","14.3","1","51.27","1","0.0","1","null","6","null","6","294.58","1","981.04","1","41.231637","16.30298"],
    [1023,"2024-02-12 14:00:00","11","andria","15.63","1","44.49","1","0.0","1","null","6","null","6","518.93","1","980.73","1","41.231637","16.30298"],
    [1024,"2024-02-12 15:00:00","11","andria","15.09","1","46.4","1","0.0","1","null","6","null","6","176.04","1","980.82","1","41.231637","16.30298"],
    [1025,"2024-02-12 16:00:00","11","andria","13.55","1","54.14","1","0.0","1","null","6","null","6","61.15","1","981.44","1","41.231637","16.30298"],
    [1026,"2024-02-12 17:00:00","11","andria","13.1","1","58.73","1","0.0","1","null","6","null","6","23.51","1","981.97","1","41.231637","16.30298"],
    [1027,"2024-02-12 18:00:00","11","andria","11.89","1","65.78","1","0.0","1","null","6","null","6","0.0","5","983.09","1","41.231637","16.30298"],
    [1028,"2024-02-12 19:00:00","11","andria","10.95","1","71.38","1","0.0","1","null","6","null","6","0.0","5","983.84","1","41.231637","16.30298"],
    [1029,"2024-02-12 20:00:00","11","andria","10.55","1","71.12","1","0.0","1","null","6","null","6","0.0","1","984.53","1","41.231637","16.30298"],
    [1030,"2024-02-12 21:00:00","11","andria","10.39","1","69.54","1","0.0","1","null","6","null","6","0.0","5","985.3","1","41.231637","16.30298"],
    [1031,"2024-02-12 22:00:00","11","andria","10.51","1","68.01","1","0.0","1","null","6","null","6","0.0","5","985.73","1","41.231637","16.30298"],
    [1032,"2024-02-12 23:00:00","11","andria","10.21","1","68.68","1","0.0","1","null","6","null","6","0.0","5","986.05","1","41.231637","16.30298"],
    [1033,"2024-02-13 00:00:00","11","andria","10.03","1","68.49","1","0.0","1","null","6","null","6","0.0","1","986.41","1","41.231637","16.30298"],
    [1034,"2024-02-13 01:00:00","11","andria","9.68","1","71.08","1","0.0","1","null","6","null","6","0.0","5","986.56","1","41.231637","16.30298"],
    [1035,"2024-02-13 02:00:00","11","andria","9.18","1","72.29","1","0.0","1","null","6","null","6","0.0","5","986.75","1","41.231637","16.30298"],
    [1036,"2024-02-13 03:00:00","11","andria","8.68","1","74.18","1","0.0","1","null","6","null","6","0.0","5","987.13","1","41.231637","16.30298"],
    [1037,"2024-02-13 04:00:00","11","andria","8.67","1","74.28","1","0.0","1","null","6","null","6","0.0","5","987.33","1","41.231637","16.30298"],
    [1038,"2024-02-13 05:00:00","11","andria","8.35","1","75.27","1","0.0","1","null","6","null","6","0.0","1","987.83","1","41.231637","16.30298"],
    [1039,"2024-02-13 06:00:00","11","andria","8.46","1","75.88","1","0.0","1","null","6","null","6","0.0","5","988.36","1","41.231637","16.30298"],
    [1040,"2024-02-13 07:00:00","11","andria","8.44","1","75.6","1","0.0","1","null","6","null","6","0.0","5","988.74","1","41.231637","16.30298"],
    [1041,"2024-02-13 08:00:00","11","andria","8.68","1","75.16","1","0.0","1","null","6","null","6","26.26","1","989.69","1","41.231637","16.30298"],
    [1042,"2024-02-13 09:00:00","11","andria","9.04","1","76.65","1","0.4","1","null","6","null","6","40.0","1","990.51","1","41.231637","16.30298"],
    [1043,"2024-02-13 10:00:00","11","andria","8.57","1","85.56","1","0.4","1","null","6","null","6","95.63","1","990.92","1","41.231637","16.30298"],
    [1044,"2024-02-13 11:00:00","11","andria","10.26","1","82.8","1","0.0","1","null","6","null","6","219.77","1","991.14","1","41.231637","16.30298"],
    [1045,"2024-02-13 12:00:00","11","andria","10.88","1","78.23","1","0.0","1","null","6","null","6","210.38","1","991.14","1","41.231637","16.30298"],
    [1046,"2024-02-13 13:00:00","11","andria","11.6","1","71.03","1","0.0","1","null","6","null","6","207.38","1","990.91","1","41.231637","16.30298"],
    [1047,"2024-02-13 14:00:00","11","andria","11.29","1","71.6","1","0.0","1","null","6","null","6","240.92","1","990.68","1","41.231637","16.30298"],
    [1048,"2024-02-13 15:00:00","11","andria","11.56","1","70.33","1","0.0","1","null","6","null","6","119.64","1","991.0","1","41.231637","16.30298"],
    [1049,"2024-02-13 16:00:00","11","andria","10.99","1","75.55","1","0.0","1","null","6","null","6","50.9","1","991.35","1","41.231637","16.30298"],
    [1050,"2024-02-13 17:00:00","11","andria","8.97","1","84.49","1","2.0","1","null","6","null","6","6.63","1","992.37","1","41.231637","16.30298"],
    [1051,"2024-02-13 18:00:00","11","andria","8.05","1","88.55","1","0.4","1","null","6","null","6","0.0","5","993.12","1","41.231637","16.30298"],
    [1052,"2024-02-13 19:00:00","11","andria","7.99","1","87.12","1","0.2","1","null","6","null","6","0.0","1","993.76","1","41.231637","16.30298"],
    [1053,"2024-02-13 20:00:00","11","andria","8.24","1","86.73","1","0.0","1","null","6","null","6","0.0","1","994.33","1","41.231637","16.30298"],
    [1054,"2024-02-13 21:00:00","11","andria","8.15","1","88.98","1","0.0","1","null","6","null","6","0.0","1","994.72","1","41.231637","16.30298"],
    [1055,"2024-02-13 22:00:00","11","andria","7.89","1","90.26","1","0.0","1","null","6","null","6","0.0","1","994.98","1","41.231637","16.30298"],
    [1056,"2024-02-13 23:00:00","11","andria","7.73","1","91.09","1","0.0","1","null","6","null","6","0.0","1","995.25","1","41.231637","16.30298"],
    [1057,"2024-02-14 00:00:00","11","andria","7.59","1","92.04","1","0.0","1","null","6","null","6","0.0","1","995.52","1","41.231637","16.30298"],
    [1058,"2024-02-14 01:00:00","11","andria","7.37","1","92.43","1","0.0","1","null","6","null","6","0.0","5","995.89","1","41.231637","16.30298"],
    [1059,"2024-02-14 02:00:00","11","andria","6.98","1","91.31","1","0.0","1","null","6","null","6","0.0","1","996.18","1","41.231637","16.30298"],
    [1060,"2024-02-14 03:00:00","11","andria","6.4","1","88.23","1","0.0","1","null","6","null","6","0.0","1","996.23","1","41.231637","16.30298"],
    [1061,"2024-02-14 04:00:00","11","andria","6.31","1","86.21","1","0.0","1","null","6","null","6","0.0","1","996.3","1","41.231637","16.30298"],
    [1062,"2024-02-14 05:00:00","11","andria","6.41","1","80.6","1","0.0","1","null","6","null","6","0.0","5","996.85","1","41.231637","16.30298"],
    [1063,"2024-02-14 06:00:00","11","andria","6.65","1","74.97","1","0.0","1","null","6","null","6","0.0","5","997.4","1","41.231637","16.30298"],
    [1064,"2024-02-14 07:00:00","11","andria","5.84","1","77.64","1","0.0","1","null","6","null","6","0.0","1","997.91","1","41.231637","16.30298"],
    [1065,"2024-02-14 08:00:00","11","andria","6.41","1","70.63","1","0.0","1","null","6","null","6","53.04","1","998.35","1","41.231637","16.30298"],
    [1066,"2024-02-14 09:00:00","11","andria","8.31","1","62.84","1","0.0","1","null","6","null","6","182.71","1","998.56","1","41.231637","16.30298"],
    [1067,"2024-02-14 10:00:00","11","andria","10.24","1","55.05","1","0.0","1","null","6","null","6","257.71","1","998.71","1","41.231637","16.30298"],
    [1068,"2024-02-14 11:00:00","11","andria","11.38","1","49.45","1","0.0","1","null","6","null","6","369.28","1","998.78","1","41.231637","16.30298"],
    [1069,"2024-02-14 12:00:00","11","andria","12.33","1","44.2","1","0.0","1","null","6","null","6","555.99","1","998.9","1","41.231637","16.30298"],
    [1070,"2024-02-14 13:00:00","11","andria","12.4","1","45.27","1","0.0","1","null","6","null","6","557.46","1","998.66","1","41.231637","16.30298"],
    [1071,"2024-02-14 14:00:00","11","andria","12.21","1","45.61","1","0.0","1","null","6","null","6","501.73","1","998.4","1","41.231637","16.30298"],
    [1072,"2024-02-14 15:00:00","11","andria","13.28","1","44.71","1","0.0","1","null","6","null","6","395.66","1","998.23","1","41.231637","16.30298"],
    [1073,"2024-02-14 16:00:00","11","andria","13.57","1","37.81","1","0.0","1","null","6","null","6","244.94","1","998.39","1","41.231637","16.30298"],
    [1074,"2024-02-14 17:00:00","11","andria","11.89","1","42.8","1","0.0","1","null","6","null","6","41.8","1","998.84","1","41.231637","16.30298"],
    [1075,"2024-02-14 18:00:00","11","andria","10.68","1","46.7","1","0.0","1","null","6","null","6","0.0","5","999.33","1","41.231637","16.30298"],
    [1076,"2024-02-14 19:00:00","11","andria","9.47","1","49.58","1","0.0","1","null","6","null","6","0.0","1","999.71","1","41.231637","16.30298"],
    [1077,"2024-02-14 20:00:00","11","andria","8.34","1","55.6","1","0.0","1","null","6","null","6","0.0","5","1000.04","1","41.231637","16.30298"],
    [1078,"2024-02-14 21:00:00","11","andria","7.45","1","62.84","1","0.0","1","null","6","null","6","0.0","1","1000.52","1","41.231637","16.30298"],
    [1079,"2024-02-14 22:00:00","11","andria","7.31","1","70.41","1","0.0","1","null","6","null","6","0.0","5","1000.52","1","41.231637","16.30298"],
    [1080,"2024-02-14 23:00:00","11","andria","7.12","1","75.89","1","0.0","1","null","6","null","6","0.0","5","1000.3","1","41.231637","16.30298"],
    [1081,"2024-02-15 00:00:00","11","andria","6.83","1","78.7","1","0.0","1","null","6","null","6","0.0","1","1000.19","1","41.231637","16.30298"],
    [1082,"2024-02-15 01:00:00","11","andria","6.64","1","78.72","1","0.0","1","null","6","null","6","0.0","1","1000.07","1","41.231637","16.30298"],
    [1083,"2024-02-15 02:00:00","11","andria","6.48","1","77.86","1","0.0","1","null","6","null","6","0.0","1","999.99","1","41.231637","16.30298"],
    [1084,"2024-02-15 03:00:00","11","andria","6.56","1","74.38","1","0.0","1","null","6","null","6","0.0","1","999.73","1","41.231637","16.30298"],
    [1085,"2024-02-15 04:00:00","11","andria","6.61","1","69.59","1","0.0","1","null","6","null","6","0.0","1","999.68","1","41.231637","16.30298"],
    [1086,"2024-02-15 05:00:00","11","andria","6.65","1","67.1","1","0.0","1","null","6","null","6","0.0","1","999.59","1","41.231637","16.30298"],
    [1087,"2024-02-15 06:00:00","11","andria","6.62","1","64.43","1","0.0","1","null","6","null","6","0.0","1","999.88","1","41.231637","16.30298"],
    [1088,"2024-02-15 07:00:00","11","andria","6.58","1","63.27","1","0.0","1","null","6","null","6","0.0","1","999.93","1","41.231637","16.30298"],
    [1089,"2024-02-15 08:00:00","11","andria","7.27","1","63.16","1","0.0","1","null","6","null","6","61.6","1","1000.21","1","41.231637","16.30298"],
    [1090,"2024-02-15 09:00:00","11","andria","9.76","1","57.11","1","0.0","1","null","6","null","6","191.64","1","1000.33","1","41.231637","16.30298"],
    [1091,"2024-02-15 10:00:00","11","andria","11.75","1","52.21","1","0.0","1","null","6","null","6","259.59","1","1000.18","1","41.231637","16.30298"],
    [1092,"2024-02-15 11:00:00","11","andria","13.32","1","47.42","1","0.0","1","null","6","null","6","374.1","1","1000.49","1","41.231637","16.30298"],
    [1093,"2024-02-15 12:00:00","11","andria","15.14","1","41.53","1","0.0","1","null","6","null","6","548.8","1","1000.16","1","41.231637","16.30298"],
    [1094,"2024-02-15 13:00:00","11","andria","16.04","1","40.41","1","0.0","1","null","6","null","6","543.33","1","999.62","1","41.231637","16.30298"],
    [1095,"2024-02-15 14:00:00","11","andria","15.76","1","38.95","1","0.0","1","null","6","null","6","494.24","1","998.88","1","41.231637","16.30298"],
    [1096,"2024-02-15 15:00:00","11","andria","17.22","1","37.86","1","0.0","1","null","6","null","6","388.63","1","998.2","1","41.231637","16.30298"],
    [1097,"2024-02-15 16:00:00","11","andria","17.12","1","44.31","1","0.0","1","null","6","null","6","236.8","1","998.05","1","41.231637","16.30298"],
    [1098,"2024-02-15 17:00:00","11","andria","13.86","1","60.17","1","0.0","1","null","6","null","6","42.69","1","998.14","1","41.231637","16.30298"],
    [1099,"2024-02-15 18:00:00","11","andria","11.74","1","73.88","1","0.0","1","null","6","null","6","0.0","5","998.57","1","41.231637","16.30298"],
    [1100,"2024-02-15 19:00:00","11","andria","10.74","1","78.81","1","0.0","1","null","6","null","6","0.0","1","999.06","1","41.231637","16.30298"],
    [1101,"2024-02-15 20:00:00","11","andria","9.98","1","78.88","1","0.0","1","null","6","null","6","0.0","5","999.38","1","41.231637","16.30298"],
    [1102,"2024-02-15 21:00:00","11","andria","9.38","1","75.76","1","0.0","1","null","6","null","6","0.0","1","999.36","1","41.231637","16.30298"],
    [1103,"2024-02-15 22:00:00","11","andria","9.47","1","63.35","1","0.0","1","null","6","null","6","0.0","1","999.42","1","41.231637","16.30298"],
    [1104,"2024-02-15 23:00:00","11","andria","9.32","1","56.18","1","0.0","1","null","6","null","6","0.0","1","999.27","1","41.231637","16.30298"],
    [1105,"2024-02-16 00:00:00","11","andria","8.96","1","55.77","1","0.0","1","null","6","null","6","0.0","1","999.15","1","41.231637","16.30298"],
    [1106,"2024-02-16 01:00:00","11","andria","9.06","1","52.41","1","0.0","1","null","6","null","6","0.0","1","998.83","1","41.231637","16.30298"],
    [1107,"2024-02-16 02:00:00","11","andria","8.62","1","56.45","1","0.0","1","null","6","null","6","0.0","5","998.67","1","41.231637","16.30298"],
    [1108,"2024-02-16 03:00:00","11","andria","9.02","1","53.7","1","0.0","1","null","6","null","6","0.0","1","998.38","1","41.231637","16.30298"],
    [1109,"2024-02-16 04:00:00","11","andria","8.93","1","50.81","1","0.0","1","null","6","null","6","0.0","1","998.11","1","41.231637","16.30298"],
    [1110,"2024-02-16 05:00:00","11","andria","8.41","1","52.24","1","0.0","1","null","6","null","6","0.0","1","998.0","1","41.231637","16.30298"],
    [1111,"2024-02-16 06:00:00","11","andria","8.26","1","52.49","1","0.0","1","null","6","null","6","0.0","1","998.0","1","41.231637","16.30298"],
    [1112,"2024-02-16 07:00:00","11","andria","8.53","1","52.48","1","0.0","1","null","6","null","6","0.0","5","997.98","1","41.231637","16.30298"],
    [1113,"2024-02-16 08:00:00","11","andria","9.2","1","54.1","1","0.0","1","null","6","null","6","65.71","1","998.33","1","41.231637","16.30298"],
    [1114,"2024-02-16 09:00:00","11","andria","12.72","1","44.43","1","0.0","1","null","6","null","6","202.1","1","998.52","1","41.231637","16.30298"],
    [1115,"2024-02-16 10:00:00","11","andria","15.27","1","34.99","1","0.0","1","null","6","null","6","262.78","1","998.4","1","41.231637","16.30298"],
    [1116,"2024-02-16 11:00:00","11","andria","17.09","1","33.53","1","0.0","1","null","6","null","6","381.75","1","998.46","1","41.231637","16.30298"],
    [1117,"2024-02-16 12:00:00","11","andria","19.41","1","31.27","1","0.0","1","null","6","null","6","548.58","1","997.99","1","41.231637","16.30298"],
    [1118,"2024-02-16 13:00:00","11","andria","18.97","1","32.77","1","0.0","1","null","6","null","6","549.46","1","997.31","1","41.231637","16.30298"],
    [1119,"2024-02-16 14:00:00","11","andria","16.87","1","37.55","1","0.0","1","null","6","null","6","497.58","1","996.88","1","41.231637","16.30298"],
    [1120,"2024-02-16 15:00:00","11","andria","17.22","1","38.57","1","0.0","1","null","6","null","6","393.44","1","996.83","1","41.231637","16.30298"],
    [1121,"2024-02-16 16:00:00","11","andria","17.76","1","36.49","1","0.0","1","null","6","null","6","239.12","1","996.8","1","41.231637","16.30298"],
    [1122,"2024-02-16 17:00:00","11","andria","15.23","1","46.68","1","0.0","1","null","6","null","6","41.18","1","996.93","1","41.231637","16.30298"],
    [1123,"2024-02-16 18:00:00","11","andria","12.89","1","61.21","1","0.0","1","null","6","null","6","0.0","5","997.62","1","41.231637","16.30298"],
    [1124,"2024-02-16 19:00:00","11","andria","11.82","1","65.03","1","0.0","1","null","6","null","6","0.0","5","998.39","1","41.231637","16.30298"],
    [1125,"2024-02-16 20:00:00","11","andria","11.16","1","59.94","1","0.0","1","null","6","null","6","0.0","5","998.54","1","41.231637","16.30298"],
    [1126,"2024-02-16 21:00:00","11","andria","10.2","1","59.07","1","0.0","1","null","6","null","6","0.0","5","998.89","1","41.231637","16.30298"],
    [1127,"2024-02-16 22:00:00","11","andria","9.42","1","59.57","1","0.0","1","null","6","null","6","0.0","1","999.31","1","41.231637","16.30298"],
    [1128,"2024-02-16 23:00:00","11","andria","9.27","1","59.31","1","0.0","1","null","6","null","6","0.0","5","999.56","1","41.231637","16.30298"],
    [1129,"2024-02-17 00:00:00","11","andria","9.21","1","58.03","1","0.0","1","null","6","null","6","0.0","1","999.68","1","41.231637","16.30298"],
    [1130,"2024-02-17 01:00:00","11","andria","8.48","1","61.61","1","0.0","1","null","6","null","6","0.0","5","999.93","1","41.231637","16.30298"],
    [1131,"2024-02-17 02:00:00","11","andria","8.4","1","62.81","1","0.0","1","null","6","null","6","0.0","1","1000.07","1","41.231637","16.30298"],
    [1132,"2024-02-17 03:00:00","11","andria","8.17","1","64.44","1","0.0","1","null","6","null","6","0.0","1","1000.13","1","41.231637","16.30298"],
    [1133,"2024-02-17 04:00:00","11","andria","7.57","1","67.01","1","0.0","1","null","6","null","6","0.0","1","1000.13","1","41.231637","16.30298"],
    [1134,"2024-02-17 05:00:00","11","andria","6.86","1","71.84","1","0.0","1","null","6","null","6","0.0","1","1000.42","1","41.231637","16.30298"],
    [1135,"2024-02-17 06:00:00","11","andria","6.67","1","70.39","1","0.0","1","null","6","null","6","0.0","5","1000.75","1","41.231637","16.30298"],
    [1136,"2024-02-17 07:00:00","11","andria","6.84","1","68.21","1","0.0","1","null","6","null","6","0.0","5","1001.1","1","41.231637","16.30298"],
    [1137,"2024-02-17 08:00:00","11","andria","7.96","1","65.73","1","0.0","1","null","6","null","6","54.77","1","1001.66","1","41.231637","16.30298"],
    [1138,"2024-02-17 09:00:00","11","andria","10.02","1","63.55","1","0.0","1","null","6","null","6","148.05","1","1002.23","1","41.231637","16.30298"],
    [1139,"2024-02-17 10:00:00","11","andria","13.59","1","67.48","1","0.0","1","null","6","null","6","278.93","1","1002.51","1","41.231637","16.30298"],
    [1140,"2024-02-17 11:00:00","11","andria","14.07","1","68.2","1","0.0","1","null","6","null","6","328.51","1","1002.66","1","41.231637","16.30298"],
    [1141,"2024-02-17 12:00:00","11","andria","14.8","1","64.9","1","0.0","1","null","6","null","6","480.86","1","1003.09","1","41.231637","16.30298"],
    [1142,"2024-02-17 13:00:00","11","andria","15.79","1","59.28","1","0.0","1","null","6","null","6","545.39","1","1002.73","1","41.231637","16.30298"],
    [1143,"2024-02-17 14:00:00","11","andria","15.32","1","60.93","1","0.0","1","null","6","null","6","484.55","1","1002.34","1","41.231637","16.30298"],
    [1144,"2024-02-17 15:00:00","11","andria","15.71","1","60.1","1","0.0","1","null","6","null","6","394.56","1","1002.33","1","41.231637","16.30298"],
    [1145,"2024-02-17 16:00:00","11","andria","15.7","1","62.67","1","0.0","1","null","6","null","6","241.61","1","1002.79","1","41.231637","16.30298"],
    [1146,"2024-02-17 17:00:00","11","andria","12.98","1","74.03","1","0.0","1","null","6","null","6","53.21","1","1003.5","1","41.231637","16.30298"],
    [1147,"2024-02-17 18:00:00","11","andria","11.66","1","83.71","1","0.0","1","null","6","null","6","5.75","1","1004.29","1","41.231637","16.30298"],
    [1148,"2024-02-17 19:00:00","11","andria","11.4","1","86.2","1","0.0","1","null","6","null","6","0.0","5","1004.96","1","41.231637","16.30298"],
    [1149,"2024-02-17 20:00:00","11","andria","11.16","1","87.11","1","0.0","1","null","6","null","6","0.0","5","1005.22","1","41.231637","16.30298"],
    [1150,"2024-02-17 21:00:00","11","andria","10.54","1","85.04","1","0.0","1","null","6","null","6","0.0","5","1005.86","1","41.231637","16.30298"],
    [1151,"2024-02-17 22:00:00","11","andria","9.86","1","83.85","1","0.0","1","null","6","null","6","0.0","1","1006.31","1","41.231637","16.30298"],
    [1152,"2024-02-17 23:00:00","11","andria","9.61","1","82.14","1","0.0","1","null","6","null","6","0.0","1","1006.8","1","41.231637","16.30298"],
    [1153,"2024-02-18 00:00:00","11","andria","9.65","1","84.78","1","0.0","1","null","6","null","6","0.0","1","1006.92","1","41.231637","16.30298"],
    [1154,"2024-02-18 01:00:00","11","andria","9.02","1","85.46","1","0.0","1","null","6","null","6","0.0","5","1006.85","1","41.231637","16.30298"],
    [1155,"2024-02-18 02:00:00","11","andria","8.44","1","85.13","1","0.0","1","null","6","null","6","0.0","5","1006.76","1","41.231637","16.30298"],
    [1156,"2024-02-18 03:00:00","11","andria","8.54","1","82.03","1","0.0","1","null","6","null","6","0.0","1","1006.53","1","41.231637","16.30298"],
    [1157,"2024-02-18 04:00:00","11","andria","8.56","1","80.59","1","0.0","1","null","6","null","6","0.0","1","1006.51","1","41.231637","16.30298"],
    [1158,"2024-02-18 05:00:00","11","andria","8.62","1","76.98","1","0.0","1","null","6","null","6","0.0","1","1006.39","1","41.231637","16.30298"],
    [1159,"2024-02-18 06:00:00","11","andria","8.42","1","73.04","1","0.0","1","null","6","null","6","0.0","1","1006.69","1","41.231637","16.30298"],
    [1160,"2024-02-18 07:00:00","11","andria","8.34","1","70.28","1","0.0","1","null","6","null","6","0.0","5","1006.88","1","41.231637","16.30298"],
    [1161,"2024-02-18 08:00:00","11","andria","8.83","1","66.92","1","0.0","1","null","6","null","6","62.72","1","1007.29","1","41.231637","16.30298"],
    [1162,"2024-02-18 09:00:00","11","andria","10.64","1","60.87","1","0.0","1","null","6","null","6","196.65","1","1007.62","1","41.231637","16.30298"],
    [1163,"2024-02-18 10:00:00","11","andria","11.46","1","63.14","1","0.0","1","null","6","null","6","268.6","1","1007.46","1","41.231637","16.30298"],
    [1164,"2024-02-18 11:00:00","11","andria","12.43","1","62.07","1","0.0","1","null","6","null","6","407.37","1","1007.44","1","41.231637","16.30298"],
    [1165,"2024-02-18 12:00:00","11","andria","14.85","1","56.29","1","0.0","1","null","6","null","6","541.25","1","1007.37","1","41.231637","16.30298"],
    [1166,"2024-02-18 13:00:00","11","andria","16.31","1","51.64","1","0.0","1","null","6","null","6","537.76","1","1006.52","1","41.231637","16.30298"],
    [1167,"2024-02-18 14:00:00","11","andria","15.84","1","51.8","1","0.0","1","null","6","null","6","492.14","1","1005.5","1","41.231637","16.30298"],
    [1168,"2024-02-18 15:00:00","11","andria","16.77","1","51.34","1","0.0","1","null","6","null","6","388.44","1","1004.97","1","41.231637","16.30298"],
    [1169,"2024-02-18 16:00:00","11","andria","16.5","1","52.37","1","0.0","1","null","6","null","6","256.34","1","1004.64","1","41.231637","16.30298"],
    [1170,"2024-02-18 17:00:00","11","andria","14.16","1","58.39","1","0.0","1","null","6","null","6","42.67","1","1004.64","1","41.231637","16.30298"],
    [1171,"2024-02-18 18:00:00","11","andria","12.52","1","63.58","1","0.0","1","null","6","null","6","7.78","1","1004.8","1","41.231637","16.30298"],
    [1172,"2024-02-18 19:00:00","11","andria","11.6","1","66.74","1","0.0","1","null","6","null","6","0.0","5","1005.02","1","41.231637","16.30298"],
    [1173,"2024-02-18 20:00:00","11","andria","11.37","1","67.99","1","0.0","1","null","6","null","6","0.0","5","1004.57","1","41.231637","16.30298"],
    [1174,"2024-02-18 21:00:00","11","andria","11.46","1","70.31","1","0.0","1","null","6","null","6","0.0","1","1004.05","1","41.231637","16.30298"],
    [1175,"2024-02-18 22:00:00","11","andria","11.94","1","63.6","1","0.0","1","null","6","null","6","0.0","5","1003.82","1","41.231637","16.30298"],
    [1176,"2024-02-18 23:00:00","11","andria","11.72","1","62.47","1","0.0","1","null","6","null","6","0.0","5","1003.47","1","41.231637","16.30298"],
    [1177,"2024-02-19 00:00:00","11","andria","10.54","1","67.22","1","0.0","1","null","6","null","6","0.0","1","1003.5","1","41.231637","16.30298"],
    [1178,"2024-02-19 01:00:00","11","andria","10.16","1","65.31","1","0.0","1","null","6","null","6","0.0","1","1003.28","1","41.231637","16.30298"],
    [1179,"2024-02-19 02:00:00","11","andria","10.11","1","62.65","1","0.0","1","null","6","null","6","0.0","5","1002.7","1","41.231637","16.30298"],
    [1180,"2024-02-19 03:00:00","11","andria","10.25","1","59.98","1","0.0","1","null","6","null","6","0.0","1","1002.12","1","41.231637","16.30298"],
    [1181,"2024-02-19 04:00:00","11","andria","9.55","1","62.55","1","0.0","1","null","6","null","6","0.0","5","1001.57","1","41.231637","16.30298"],
    [1182,"2024-02-19 05:00:00","11","andria","9.08","1","65.91","1","0.0","1","null","6","null","6","0.0","5","1001.38","1","41.231637","16.30298"],
    [1183,"2024-02-19 06:00:00","11","andria","8.33","1","68.63","1","0.0","1","null","6","null","6","0.0","5","1001.1","1","41.231637","16.30298"],
    [1184,"2024-02-19 07:00:00","11","andria","8.95","1","66.04","1","0.0","1","null","6","null","6","0.0","5","1000.86","1","41.231637","16.30298"],
    [1185,"2024-02-19 08:00:00","11","andria","9.8","1","64.29","1","0.0","1","null","6","null","6","70.0","1","1000.92","1","41.231637","16.30298"],
    [1186,"2024-02-19 09:00:00","11","andria","12.63","1","56.26","1","0.0","1","null","6","null","6","191.52","1","1000.8","1","41.231637","16.30298"],
    [1187,"2024-02-19 10:00:00","11","andria","14.24","1","52.75","1","0.0","1","null","6","null","6","256.62","1","1000.43","1","41.231637","16.30298"],
    [1188,"2024-02-19 11:00:00","11","andria","15.53","1","50.2","1","0.0","1","null","6","null","6","414.89","1","999.9","1","41.231637","16.30298"],
    [1189,"2024-02-19 12:00:00","11","andria","17.15","1","47.36","1","0.0","1","null","6","null","6","525.35","1","999.79","1","41.231637","16.30298"],
    [1190,"2024-02-19 13:00:00","11","andria","18.49","1","44.63","1","0.0","1","null","6","null","6","538.19","1","998.66","1","41.231637","16.30298"],
    [1191,"2024-02-19 14:00:00","11","andria","17.89","1","47.48","1","0.0","1","null","6","null","6","451.27","1","997.51","1","41.231637","16.30298"],
    [1192,"2024-02-19 15:00:00","11","andria","16.13","1","49.14","1","0.0","1","null","6","null","6","272.36","1","997.5","1","41.231637","16.30298"],
    [1193,"2024-02-19 16:00:00","11","andria","14.39","1","56.58","1","0.0","1","null","6","null","6","131.97","1","997.97","1","41.231637","16.30298"],
    [1194,"2024-02-19 17:00:00","11","andria","12.19","1","72.52","1","0.0","1","null","6","null","6","53.31","1","998.62","1","41.231637","16.30298"],
    [1195,"2024-02-19 18:00:00","11","andria","11.74","1","77.92","1","0.0","1","null","6","null","6","6.15","1","999.0","1","41.231637","16.30298"],
    [1196,"2024-02-19 19:00:00","11","andria","11.36","1","81.29","1","0.0","1","null","6","null","6","0.0","5","999.23","1","41.231637","16.30298"],
    [1197,"2024-02-19 20:00:00","11","andria","11.12","1","82.57","1","0.0","1","null","6","null","6","0.0","1","999.19","1","41.231637","16.30298"],
    [1198,"2024-02-19 21:00:00","11","andria","10.84","1","81.55","1","0.0","1","null","6","null","6","0.0","1","999.37","1","41.231637","16.30298"],
    [1199,"2024-02-19 22:00:00","11","andria","10.61","1","80.96","1","0.0","1","null","6","null","6","0.0","5","999.61","1","41.231637","16.30298"],
    [1200,"2024-02-19 23:00:00","11","andria","10.2","1","79.9","1","0.0","1","null","6","null","6","0.0","5","999.6","1","41.231637","16.30298"],
    [1201,"2024-02-20 00:00:00","11","andria","10.16","1","82.39","1","0.0","1","null","6","null","6","0.0","5","999.38","1","41.231637","16.30298"],
    [1202,"2024-02-20 01:00:00","11","andria","9.75","1","85.57","1","0.0","1","null","6","null","6","0.0","5","999.31","1","41.231637","16.30298"],
    [1203,"2024-02-20 02:00:00","11","andria","9.7","1","86.92","1","0.0","1","null","6","null","6","0.0","5","999.0","1","41.231637","16.30298"],
    [1204,"2024-02-20 03:00:00","11","andria","9.46","1","86.54","1","0.0","1","null","6","null","6","0.0","5","998.61","1","41.231637","16.30298"],
    [1205,"2024-02-20 04:00:00","11","andria","9.1","1","84.81","1","0.0","1","null","6","null","6","0.0","5","998.14","1","41.231637","16.30298"],
    [1206,"2024-02-20 05:00:00","11","andria","8.96","1","82.7","1","0.0","1","null","6","null","6","0.0","1","998.11","1","41.231637","16.30298"],
    [1207,"2024-02-20 06:00:00","11","andria","8.9","1","82.82","1","0.0","1","null","6","null","6","0.0","5","998.3","1","41.231637","16.30298"],
    [1208,"2024-02-20 07:00:00","11","andria","8.84","1","82.39","1","0.0","1","null","6","null","6","0.0","5","998.16","1","41.231637","16.30298"],
    [1209,"2024-02-20 08:00:00","11","andria","8.98","1","80.78","1","0.0","1","null","6","null","6","35.89","1","998.63","1","41.231637","16.30298"],
    [1210,"2024-02-20 09:00:00","11","andria","10.16","1","76.78","1","0.0","1","null","6","null","6","130.65","1","998.8","1","41.231637","16.30298"],
    [1211,"2024-02-20 10:00:00","11","andria","11.63","1","72.08","1","0.0","1","null","6","null","6","294.68","1","998.92","1","41.231637","16.30298"],
    [1212,"2024-02-20 11:00:00","11","andria","12.72","1","68.44","1","0.0","1","null","6","null","6","230.36","1","999.08","1","41.231637","16.30298"],
    [1213,"2024-02-20 12:00:00","11","andria","14.57","1","59.77","1","0.0","1","null","6","null","6","371.54","1","998.63","1","41.231637","16.30298"],
    [1214,"2024-02-20 13:00:00","11","andria","16.06","1","52.09","1","0.0","1","null","6","null","6","539.44","1","997.84","1","41.231637","16.30298"],
    [1215,"2024-02-20 14:00:00","11","andria","15.28","1","51.15","1","0.0","1","null","6","null","6","510.27","1","997.26","1","41.231637","16.30298"],
    [1216,"2024-02-20 15:00:00","11","andria","15.38","1","53.42","1","0.0","1","null","6","null","6","370.28","1","997.23","1","41.231637","16.30298"],
    [1217,"2024-02-20 16:00:00","11","andria","14.23","1","57.81","1","0.0","1","null","6","null","6","225.73","1","997.47","1","41.231637","16.30298"],
    [1218,"2024-02-20 17:00:00","11","andria","13.0","1","66.89","1","0.0","1","null","6","null","6","59.87","1","997.6","1","41.231637","16.30298"],
    [1219,"2024-02-20 18:00:00","11","andria","11.77","1","74.06","1","0.0","1","null","6","null","6","0.0","5","998.37","1","41.231637","16.30298"],
    [1220,"2024-02-20 19:00:00","11","andria","11.13","1","75.56","1","0.0","1","null","6","null","6","0.0","5","999.07","1","41.231637","16.30298"],
    [1221,"2024-02-20 20:00:00","11","andria","10.87","1","76.59","1","0.0","1","null","6","null","6","0.0","5","999.29","1","41.231637","16.30298"],
    [1222,"2024-02-20 21:00:00","11","andria","10.81","1","75.2","1","0.0","1","null","6","null","6","0.0","5","999.86","1","41.231637","16.30298"],
    [1223,"2024-02-20 22:00:00","11","andria","10.38","1","75.31","1","0.0","1","null","6","null","6","0.0","5","1000.28","1","41.231637","16.30298"],
    [1224,"2024-02-20 23:00:00","11","andria","9.29","1","79.51","1","0.0","1","null","6","null","6","0.0","1","1000.47","1","41.231637","16.30298"],
    [1225,"2024-02-21 00:00:00","11","andria","9.11","1","79.19","1","0.0","1","null","6","null","6","0.0","5","1000.74","1","41.231637","16.30298"],
    [1226,"2024-02-21 01:00:00","11","andria","8.31","1","79.75","1","0.0","1","null","6","null","6","0.0","5","1000.83","1","41.231637","16.30298"],
    [1227,"2024-02-21 02:00:00","11","andria","8.02","1","82.09","1","0.0","1","null","6","null","6","0.0","5","1000.63","1","41.231637","16.30298"],
    [1228,"2024-02-21 03:00:00","11","andria","7.67","1","84.82","1","0.0","1","null","6","null","6","0.0","5","1000.15","1","41.231637","16.30298"],
    [1229,"2024-02-21 04:00:00","11","andria","7.39","1","87.29","1","0.0","1","null","6","null","6","0.0","1","999.54","1","41.231637","16.30298"],
    [1230,"2024-02-21 05:00:00","11","andria","7.37","1","86.55","1","0.0","1","null","6","null","6","0.0","5","999.69","1","41.231637","16.30298"],
    [1231,"2024-02-21 06:00:00","11","andria","7.14","1","86.03","1","0.0","1","null","6","null","6","0.0","5","999.95","1","41.231637","16.30298"],
    [1232,"2024-02-21 07:00:00","11","andria","7.01","1","85.78","1","0.0","1","null","6","null","6","0.0","5","1000.27","1","41.231637","16.30298"],
    [1233,"2024-02-21 08:00:00","11","andria","7.81","1","79.54","1","0.0","1","null","6","null","6","69.79","1","1000.86","1","41.231637","16.30298"],
    [1234,"2024-02-21 09:00:00","11","andria","9.47","1","71.86","1","0.0","1","null","6","null","6","158.59","1","1001.29","1","41.231637","16.30298"],
    [1235,"2024-02-21 10:00:00","11","andria","11.01","1","65.56","1","0.0","1","null","6","null","6","200.04","1","1001.64","1","41.231637","16.30298"],
    [1236,"2024-02-21 11:00:00","11","andria","12.13","1","61.17","1","0.0","1","null","6","null","6","258.73","1","1001.74","1","41.231637","16.30298"],
    [1237,"2024-02-21 12:00:00","11","andria","14.21","1","58.92","1","0.0","1","null","6","null","6","469.91","1","1001.6","1","41.231637","16.30298"],
    [1238,"2024-02-21 13:00:00","11","andria","14.66","1","58.12","1","0.0","1","null","6","null","6","464.36","1","1000.63","1","41.231637","16.30298"],
    [1239,"2024-02-21 14:00:00","11","andria","15.06","1","53.16","1","0.0","1","null","6","null","6","536.55","1","1000.24","1","41.231637","16.30298"],
    [1240,"2024-02-21 15:00:00","11","andria","15.81","1","43.45","1","0.0","1","null","6","null","6","409.28","1","999.63","1","41.231637","16.30298"],
    [1241,"2024-02-21 16:00:00","11","andria","15.06","1","54.42","1","0.0","1","null","6","null","6","259.12","1","999.52","1","41.231637","16.30298"],
    [1242,"2024-02-21 17:00:00","11","andria","12.93","1","61.01","1","0.0","1","null","6","null","6","47.37","1","999.39","1","41.231637","16.30298"],
    [1243,"2024-02-21 18:00:00","11","andria","11.41","1","59.54","1","0.0","1","null","6","null","6","6.64","1","999.9","1","41.231637","16.30298"],
    [1244,"2024-02-21 19:00:00","11","andria","10.93","1","60.6","1","0.0","1","null","6","null","6","0.0","5","1000.38","1","41.231637","16.30298"],
    [1245,"2024-02-21 20:00:00","11","andria","10.38","1","62.9","1","0.0","1","null","6","null","6","0.0","5","1000.53","1","41.231637","16.30298"],
    [1246,"2024-02-21 21:00:00","11","andria","9.48","1","65.64","1","0.0","1","null","6","null","6","0.0","5","1000.38","1","41.231637","16.30298"],
    [1247,"2024-02-21 22:00:00","11","andria","8.29","1","68.59","1","0.0","1","null","6","null","6","0.0","5","1000.54","1","41.231637","16.30298"],
    [1248,"2024-02-21 23:00:00","11","andria","7.57","1","69.91","1","0.0","1","null","6","null","6","0.0","5","1000.28","1","41.231637","16.30298"],
    [1249,"2024-02-22 00:00:00","11","andria","7.04","1","66.26","1","0.0","1","null","6","null","6","0.0","5","999.89","1","41.231637","16.30298"],
    [1250,"2024-02-22 01:00:00","11","andria","6.67","1","63.37","1","0.0","1","null","6","null","6","0.0","5","999.57","1","41.231637","16.30298"],
    [1251,"2024-02-22 02:00:00","11","andria","6.95","1","63.92","1","0.0","1","null","6","null","6","0.0","5","999.36","1","41.231637","16.30298"],
    [1252,"2024-02-22 03:00:00","11","andria","6.86","1","62.73","1","0.0","1","null","6","null","6","0.0","5","998.54","1","41.231637","16.30298"],
    [1253,"2024-02-22 04:00:00","11","andria","6.8","1","62.32","1","0.0","1","null","6","null","6","0.0","1","997.88","1","41.231637","16.30298"],
    [1254,"2024-02-22 05:00:00","11","andria","6.74","1","63.29","1","0.0","1","null","6","null","6","0.0","5","997.49","1","41.231637","16.30298"],
    [1255,"2024-02-22 06:00:00","11","andria","7.09","1","64.73","1","0.0","1","null","6","null","6","0.0","1","997.29","1","41.231637","16.30298"],
    [1256,"2024-02-22 07:00:00","11","andria","6.73","1","66.37","1","0.0","1","null","6","null","6","0.0","5","997.17","1","41.231637","16.30298"],
    [1257,"2024-02-22 08:00:00","11","andria","8.01","1","61.33","1","0.0","1","null","6","null","6","99.91","1","996.8","1","41.231637","16.30298"],
    [1258,"2024-02-22 09:00:00","11","andria","11.59","1","50.85","1","0.0","1","null","6","null","6","234.59","1","996.62","1","41.231637","16.30298"],
    [1259,"2024-02-22 10:00:00","11","andria","15.22","1","38.26","1","0.0","1","null","6","null","6","280.7","1","995.79","1","41.231637","16.30298"],
    [1260,"2024-02-22 11:00:00","11","andria","16.85","1","31.15","1","0.0","1","null","6","null","6","425.86","1","995.85","1","41.231637","16.30298"],
    [1261,"2024-02-22 12:00:00","11","andria","16.83","1","32.38","1","0.0","1","null","6","null","6","460.17","1","995.46","1","41.231637","16.30298"],
    [1262,"2024-02-22 13:00:00","11","andria","17.8","1","30.63","1","0.0","1","null","6","null","6","488.27","1","994.52","1","41.231637","16.30298"],
    [1263,"2024-02-22 14:00:00","11","andria","17.61","1","30.94","1","0.0","1","null","6","null","6","410.23","1","993.63","1","41.231637","16.30298"],
    [1264,"2024-02-22 15:00:00","11","andria","18.2","1","28.06","1","0.0","1","null","6","null","6","405.53","1","992.81","1","41.231637","16.30298"],
    [1265,"2024-02-22 16:00:00","11","andria","17.75","1","28.81","1","0.0","1","null","6","null","6","230.85","1","992.02","1","41.231637","16.30298"],
    [1266,"2024-02-22 17:00:00","11","andria","16.46","1","30.87","1","0.0","1","null","6","null","6","56.62","1","992.02","1","41.231637","16.30298"],
    [1267,"2024-02-22 18:00:00","11","andria","14.88","1","35.49","1","0.0","1","null","6","null","6","9.5","1","992.18","1","41.231637","16.30298"],
    [1268,"2024-02-22 19:00:00","11","andria","13.37","1","38.59","1","0.0","1","null","6","null","6","0.0","5","992.38","1","41.231637","16.30298"],
    [1269,"2024-02-22 20:00:00","11","andria","11.47","1","48.3","1","0.0","1","null","6","null","6","0.0","5","992.36","1","41.231637","16.30298"],
    [1270,"2024-02-22 21:00:00","11","andria","11.33","1","47.53","1","0.0","1","null","6","null","6","0.0","5","991.86","1","41.231637","16.30298"],
    [1271,"2024-02-22 22:00:00","11","andria","11.63","1","44.33","1","0.0","1","null","6","null","6","0.0","1","991.47","1","41.231637","16.30298"],
    [1272,"2024-02-22 23:00:00","11","andria","10.75","1","45.94","1","0.0","1","null","6","null","6","0.0","5","990.88","1","41.231637","16.30298"],
    [1273,"2024-02-23 00:00:00","11","andria","10.29","1","46.42","1","0.0","1","null","6","null","6","0.0","5","990.48","1","41.231637","16.30298"],
    [1274,"2024-02-23 01:00:00","11","andria","10.48","1","47.08","1","0.0","1","null","6","null","6","0.0","5","990.15","1","41.231637","16.30298"],
    [1275,"2024-02-23 02:00:00","11","andria","10.44","1","47.24","1","0.0","1","null","6","null","6","0.0","5","989.54","1","41.231637","16.30298"],
    [1276,"2024-02-23 03:00:00","11","andria","10.38","1","45.86","1","0.0","1","null","6","null","6","0.0","5","989.06","1","41.231637","16.30298"],
    [1277,"2024-02-23 04:00:00","11","andria","10.16","1","46.61","1","0.0","1","null","6","null","6","0.0","5","988.73","1","41.231637","16.30298"],
    [1278,"2024-02-23 05:00:00","11","andria","10.04","1","48.68","1","0.0","1","null","6","null","6","0.0","5","988.34","1","41.231637","16.30298"],
    [1279,"2024-02-23 06:00:00","11","andria","10.08","1","48.71","1","0.0","1","null","6","null","6","0.0","1","988.15","1","41.231637","16.30298"],
    [1280,"2024-02-23 07:00:00","11","andria","9.93","1","51.93","1","0.0","1","null","6","null","6","0.0","5","987.76","1","41.231637","16.30298"],
    [1281,"2024-02-23 08:00:00","11","andria","9.89","1","55.37","1","0.0","1","null","6","null","6","15.19","1","988.07","1","41.231637","16.30298"],
    [1282,"2024-02-23 09:00:00","11","andria","10.76","1","56.56","1","0.0","1","null","6","null","6","30.08","1","988.23","1","41.231637","16.30298"],
    [1283,"2024-02-23 10:00:00","11","andria","11.69","1","55.88","1","0.0","1","null","6","null","6","135.95","1","988.34","1","41.231637","16.30298"],
    [1284,"2024-02-23 11:00:00","11","andria","14.17","1","50.19","1","0.0","1","null","6","null","6","337.21","1","987.48","1","41.231637","16.30298"],
    [1285,"2024-02-23 12:00:00","11","andria","15.52","1","44.03","1","0.0","1","null","6","null","6","306.41","1","986.83","1","41.231637","16.30298"],
    [1286,"2024-02-23 13:00:00","11","andria","15.64","1","42.81","1","0.0","1","null","6","null","6","197.71","1","986.7","1","41.231637","16.30298"],
    [1287,"2024-02-23 14:00:00","11","andria","15.56","1","39.86","1","0.0","1","null","6","null","6","107.77","1","986.44","1","41.231637","16.30298"],
    [1288,"2024-02-23 15:00:00","11","andria","15.64","1","36.07","1","0.0","1","null","6","null","6","70.05","1","986.01","1","41.231637","16.30298"],
    [1289,"2024-02-23 16:00:00","11","andria","14.73","1","42.21","1","0.0","1","null","6","null","6","26.38","1","985.66","1","41.231637","16.30298"],
    [1290,"2024-02-23 17:00:00","11","andria","14.18","1","47.08","1","0.0","1","null","6","null","6","15.92","1","985.59","1","41.231637","16.30298"],
    [1291,"2024-02-23 18:00:00","11","andria","13.59","1","48.24","1","0.0","1","null","6","null","6","0.0","5","985.45","1","41.231637","16.30298"],
    [1292,"2024-02-23 19:00:00","11","andria","13.22","1","51.05","1","0.0","1","null","6","null","6","0.0","5","985.46","1","41.231637","16.30298"],
    [1293,"2024-02-23 20:00:00","11","andria","13.42","1","48.31","1","0.0","1","null","6","null","6","0.0","5","985.44","1","41.231637","16.30298"],
    [1294,"2024-02-23 21:00:00","11","andria","13.7","1","46.51","1","0.0","1","null","6","null","6","0.0","5","985.31","1","41.231637","16.30298"],
    [1295,"2024-02-23 22:00:00","11","andria","13.9","1","42.77","1","0.0","1","null","6","null","6","0.0","5","985.35","1","41.231637","16.30298"],
    [1296,"2024-02-23 23:00:00","11","andria","14.21","1","42.05","1","0.0","1","null","6","null","6","0.0","5","985.02","1","41.231637","16.30298"],
    [1297,"2024-02-24 00:00:00","11","andria","13.87","1","47.3","1","0.0","1","null","6","null","6","0.0","5","985.45","1","41.231637","16.30298"],
    [1298,"2024-02-24 01:00:00","11","andria","13.64","1","50.57","1","0.0","1","null","6","null","6","0.0","5","985.77","1","41.231637","16.30298"],
    [1299,"2024-02-24 02:00:00","11","andria","13.48","1","53.91","1","0.0","1","null","6","null","6","0.0","5","985.42","1","41.231637","16.30298"],
    [1300,"2024-02-24 03:00:00","11","andria","13.16","1","55.68","1","0.0","1","null","6","null","6","0.0","5","985.61","1","41.231637","16.30298"],
    [1301,"2024-02-24 04:00:00","11","andria","13.47","1","56.06","1","0.0","1","null","6","null","6","0.0","5","986.15","1","41.231637","16.30298"],
    [1302,"2024-02-24 05:00:00","11","andria","12.14","1","69.1","1","0.0","1","null","6","null","6","0.0","5","986.51","1","41.231637","16.30298"],
    [1303,"2024-02-24 06:00:00","11","andria","11.58","1","71.49","1","0.0","1","null","6","null","6","0.0","5","986.8","1","41.231637","16.30298"],
    [1304,"2024-02-24 07:00:00","11","andria","12.04","1","64.6","1","0.0","1","null","6","null","6","0.0","5","987.12","1","41.231637","16.30298"],
    [1305,"2024-02-24 08:00:00","11","andria","12.24","1","61.82","1","0.0","1","null","6","null","6","7.51","1","987.72","1","41.231637","16.30298"],
    [1306,"2024-02-24 09:00:00","11","andria","12.83","1","56.11","1","0.0","1","null","6","null","6","37.1","1","988.32","1","41.231637","16.30298"],
    [1307,"2024-02-24 10:00:00","11","andria","12.73","1","57.91","1","0.2","1","null","6","null","6","49.77","1","989.17","1","41.231637","16.30298"],
    [1308,"2024-02-24 11:00:00","11","andria","11.42","1","65.86","1","1.0","1","null","6","null","6","93.5","1","989.7","1","41.231637","16.30298"],
    [1309,"2024-02-24 12:00:00","11","andria","10.96","1","74.54","1","0.4","1","null","6","null","6","92.72","1","989.79","1","41.231637","16.30298"],
    [1310,"2024-02-24 13:00:00","11","andria","11.06","1","74.15","1","0.2","1","null","6","null","6","178.18","1","989.14","1","41.231637","16.30298"],
    [1311,"2024-02-24 14:00:00","11","andria","12.38","1","66.42","1","0.0","1","null","6","null","6","250.21","1","988.04","1","41.231637","16.30298"],
    [1312,"2024-02-24 15:00:00","11","andria","12.63","1","66.06","1","0.0","1","null","6","null","6","111.4","1","988.34","1","41.231637","16.30298"],
    [1313,"2024-02-24 16:00:00","11","andria","11.99","1","71.96","1","0.6","1","null","6","null","6","92.65","1","988.08","1","41.231637","16.30298"],
    [1314,"2024-02-24 17:00:00","11","andria","10.4","1","84.85","1","0.2","1","null","6","null","6","31.56","1","988.33","1","41.231637","16.30298"],
    [1315,"2024-02-24 18:00:00","11","andria","10.24","1","87.77","1","0.0","1","null","6","null","6","0.0","5","988.67","1","41.231637","16.30298"],
    [1316,"2024-02-24 19:00:00","11","andria","9.87","1","88.13","1","0.0","1","null","6","null","6","0.0","5","988.9","1","41.231637","16.30298"],
    [1317,"2024-02-24 20:00:00","11","andria","9.82","1","82.76","1","0.0","1","null","6","null","6","0.0","5","989.19","1","41.231637","16.30298"],
    [1318,"2024-02-24 21:00:00","11","andria","9.67","1","79.38","1","0.0","1","null","6","null","6","0.0","5","989.56","1","41.231637","16.30298"],
    [1319,"2024-02-24 22:00:00","11","andria","10.1","1","75.22","1","0.0","1","null","6","null","6","0.0","5","989.46","1","41.231637","16.30298"],
    [1320,"2024-02-24 23:00:00","11","andria","10.06","1","73.88","1","0.0","1","null","6","null","6","0.0","5","989.56","1","41.231637","16.30298"],
    [1321,"2024-02-25 00:00:00","11","andria","10.09","1","71.94","1","0.0","1","null","6","null","6","0.0","1","989.25","1","41.231637","16.30298"],
    [1322,"2024-02-25 01:00:00","11","andria","10.21","1","71.28","1","0.0","1","null","6","null","6","0.0","5","989.23","1","41.231637","16.30298"],
    [1323,"2024-02-25 02:00:00","11","andria","10.08","1","73.97","1","2.0","1","null","6","null","6","0.0","5","989.85","1","41.231637","16.30298"],
    [1324,"2024-02-25 03:00:00","11","andria","9.13","1","84.48","1","3.6","1","null","6","null","6","0.0","5","989.26","1","41.231637","16.30298"],
    [1325,"2024-02-25 04:00:00","11","andria","8.81","1","88.57","1","0.2","1","null","6","null","6","0.0","5","987.98","1","41.231637","16.30298"],
    [1326,"2024-02-25 05:00:00","11","andria","8.59","1","88.8","1","0.0","1","null","6","null","6","0.0","1","987.71","1","41.231637","16.30298"],
    [1327,"2024-02-25 06:00:00","11","andria","8.74","1","86.51","1","0.0","1","null","6","null","6","0.0","5","987.76","1","41.231637","16.30298"],
    [1328,"2024-02-25 07:00:00","11","andria","8.69","1","88.11","1","0.8","1","null","6","null","6","0.0","5","987.96","1","41.231637","16.30298"],
    [1329,"2024-02-25 08:00:00","11","andria","8.39","1","89.77","1","0.2","1","null","6","null","6","23.75","1","987.91","1","41.231637","16.30298"],
    [1330,"2024-02-25 09:00:00","11","andria","8.83","1","89.12","1","0.2","1","null","6","null","6","82.96","1","987.65","1","41.231637","16.30298"],
    [1331,"2024-02-25 10:00:00","11","andria","9.43","1","87.0","1","0.0","1","null","6","null","6","106.27","1","987.65","1","41.231637","16.30298"],
    [1332,"2024-02-25 11:00:00","11","andria","9.59","1","84.13","1","0.2","1","null","6","null","6","133.1","1","987.85","1","41.231637","16.30298"],
    [1333,"2024-02-25 12:00:00","11","andria","9.55","1","85.03","1","0.0","1","null","6","null","6","103.49","1","987.23","1","41.231637","16.30298"],
    [1334,"2024-02-25 13:00:00","11","andria","9.46","1","86.56","1","0.0","1","null","6","null","6","83.08","1","986.48","1","41.231637","16.30298"],
    [1335,"2024-02-25 14:00:00","11","andria","9.24","1","87.13","1","1.4","1","null","6","null","6","23.11","1","986.37","1","41.231637","16.30298"],
    [1336,"2024-02-25 15:00:00","11","andria","9.41","1","89.35","1","1.2","1","null","6","null","6","79.1","1","986.05","1","41.231637","16.30298"],
    [1337,"2024-02-25 16:00:00","11","andria","9.2","1","90.38","1","1.6","1","null","6","null","6","22.46","1","985.71","1","41.231637","16.30298"],
    [1338,"2024-02-25 17:00:00","11","andria","9.12","1","92.28","1","0.6","1","null","6","null","6","22.53","1","985.26","1","41.231637","16.30298"],
    [1339,"2024-02-25 18:00:00","11","andria","9.16","1","93.68","1","0.2","1","null","6","null","6","0.0","5","985.83","1","41.231637","16.30298"],
    [1340,"2024-02-25 19:00:00","11","andria","9.21","1","94.55","1","0.2","1","null","6","null","6","0.0","5","985.99","1","41.231637","16.30298"],
    [1341,"2024-02-25 20:00:00","11","andria","9.13","1","95.31","1","0.0","1","null","6","null","6","0.0","1","986.26","1","41.231637","16.30298"],
    [1342,"2024-02-25 21:00:00","11","andria","8.98","1","95.86","1","0.2","1","null","6","null","6","0.0","1","986.22","1","41.231637","16.30298"],
    [1343,"2024-02-25 22:00:00","11","andria","8.87","1","96.34","1","0.4","1","null","6","null","6","0.0","5","986.04","1","41.231637","16.30298"],
    [1344,"2024-02-25 23:00:00","11","andria","8.8","1","96.47","1","0.8","1","null","6","null","6","0.0","5","986.05","1","41.231637","16.30298"],
    [1345,"2024-02-26 00:00:00","11","andria","8.71","1","96.38","1","0.0","1","null","6","null","6","0.0","5","986.04","1","41.231637","16.30298"],
    [1346,"2024-02-26 01:00:00","11","andria","8.62","1","96.09","1","0.0","1","null","6","null","6","0.0","5","986.25","1","41.231637","16.30298"],
    [1347,"2024-02-26 02:00:00","11","andria","8.36","1","95.37","1","0.0","1","null","6","null","6","0.0","1","986.35","1","41.231637","16.30298"],
    [1348,"2024-02-26 03:00:00","11","andria","8.21","1","93.55","1","0.0","1","null","6","null","6","0.0","5","985.9","1","41.231637","16.30298"],
    [1349,"2024-02-26 04:00:00","11","andria","8.16","1","90.33","1","0.0","1","null","6","null","6","0.0","5","985.63","1","41.231637","16.30298"],
    [1350,"2024-02-26 05:00:00","11","andria","8.24","1","85.46","1","0.0","1","null","6","null","6","0.0","5","985.61","1","41.231637","16.30298"],
    [1351,"2024-02-26 06:00:00","11","andria","8.35","1","80.87","1","0.0","1","null","6","null","6","0.0","5","985.5","1","41.231637","16.30298"],
    [1352,"2024-02-26 07:00:00","11","andria","8.13","1","80.04","1","0.0","1","null","6","null","6","0.0","5","985.57","1","41.231637","16.30298"],
    [1353,"2024-02-26 08:00:00","11","andria","9.37","1","75.88","1","0.0","1","null","6","null","6","120.64","1","985.96","1","41.231637","16.30298"],
    [1354,"2024-02-26 09:00:00","11","andria","11.5","1","69.48","1","0.0","1","null","6","null","6","213.92","1","986.1","1","41.231637","16.30298"],
    [1355,"2024-02-26 10:00:00","11","andria","12.59","1","69.02","1","0.0","1","null","6","null","6","311.93","1","985.79","1","41.231637","16.30298"],
    [1356,"2024-02-26 11:00:00","11","andria","15.08","1","57.93","1","0.0","1","null","6","null","6","450.41","1","985.55","1","41.231637","16.30298"],
    [1357,"2024-02-26 12:00:00","11","andria","17.56","1","53.03","1","0.0","1","null","6","null","6","561.24","1","985.28","1","41.231637","16.30298"],
    [1358,"2024-02-26 13:00:00","11","andria","16.31","1","61.47","1","0.0","1","null","6","null","6","583.46","1","984.69","1","41.231637","16.30298"],
    [1359,"2024-02-26 14:00:00","11","andria","15.78","1","61.76","1","0.2","1","null","6","null","6","488.5","1","984.31","1","41.231637","16.30298"],
    [1360,"2024-02-26 15:00:00","11","andria","16.75","1","59.58","1","0.0","1","null","6","null","6","358.35","1","984.29","1","41.231637","16.30298"],
    [1361,"2024-02-26 16:00:00","11","andria","16.4","1","60.52","1","0.0","1","null","6","null","6","270.06","1","984.02","1","41.231637","16.30298"],
    [1362,"2024-02-26 17:00:00","11","andria","14.64","1","66.35","1","0.0","1","null","6","null","6","48.51","1","984.41","1","41.231637","16.30298"],
    [1363,"2024-02-26 18:00:00","11","andria","13.24","1","72.47","1","0.0","1","null","6","null","6","8.04","1","984.66","1","41.231637","16.30298"],
    [1364,"2024-02-26 19:00:00","11","andria","12.75","1","76.71","1","0.0","1","null","6","null","6","0.0","5","985.53","1","41.231637","16.30298"],
    [1365,"2024-02-26 20:00:00","11","andria","12.7","1","77.69","1","0.0","1","null","6","null","6","0.0","5","985.5","1","41.231637","16.30298"],
    [1366,"2024-02-26 21:00:00","11","andria","12.82","1","63.93","1","0.0","1","null","6","null","6","0.0","5","986.28","1","41.231637","16.30298"],
    [1367,"2024-02-26 22:00:00","11","andria","12.24","1","61.91","1","0.0","1","null","6","null","6","0.0","5","986.52","1","41.231637","16.30298"],
    [1368,"2024-02-26 23:00:00","11","andria","12.06","1","60.21","1","0.0","1","null","6","null","6","0.0","5","986.49","1","41.231637","16.30298"],
    [1369,"2024-02-27 00:00:00","11","andria","11.43","1","65.48","1","0.0","1","null","6","null","6","0.0","5","986.35","1","41.231637","16.30298"],
    [1370,"2024-02-27 01:00:00","11","andria","11.11","1","68.25","1","0.0","1","null","6","null","6","0.0","5","986.44","1","41.231637","16.30298"],
    [1371,"2024-02-27 02:00:00","11","andria","10.63","1","70.87","1","0.0","1","null","6","null","6","0.0","5","986.49","1","41.231637","16.30298"],
    [1372,"2024-02-27 03:00:00","11","andria","9.85","1","74.94","1","0.0","1","null","6","null","6","0.0","5","986.56","1","41.231637","16.30298"],
    [1373,"2024-02-27 04:00:00","11","andria","10.01","1","69.86","1","0.0","1","null","6","null","6","0.0","1","986.36","1","41.231637","16.30298"],
    [1374,"2024-02-27 05:00:00","11","andria","10.62","1","60.42","1","0.0","1","null","6","null","6","0.0","1","986.48","1","41.231637","16.30298"],
    [1375,"2024-02-27 06:00:00","11","andria","10.07","1","63.99","1","0.0","1","null","6","null","6","0.0","5","986.53","1","41.231637","16.30298"],
    [1376,"2024-02-27 07:00:00","11","andria","9.87","1","68.78","1","0.0","1","null","6","null","6","0.0","5","986.45","1","41.231637","16.30298"],
    [1377,"2024-02-27 08:00:00","11","andria","10.46","1","75.8","1","0.0","1","null","6","null","6","116.8","1","986.68","1","41.231637","16.30298"],
    [1378,"2024-02-27 09:00:00","11","andria","13.39","1","65.9","1","0.0","1","null","6","null","6","246.36","1","986.85","1","41.231637","16.30298"],
    [1379,"2024-02-27 10:00:00","11","andria","14.84","1","58.14","1","0.0","1","null","6","null","6","310.01","1","986.93","1","41.231637","16.30298"],
    [1380,"2024-02-27 11:00:00","11","andria","15.7","1","56.15","1","0.0","1","null","6","null","6","477.24","1","987.06","1","41.231637","16.30298"],
    [1381,"2024-02-27 12:00:00","11","andria","16.14","1","54.64","1","0.0","1","null","6","null","6","615.11","1","986.7","1","41.231637","16.30298"],
    [1382,"2024-02-27 13:00:00","11","andria","17.09","1","51.86","1","0.0","1","null","6","null","6","622.21","1","986.27","1","41.231637","16.30298"],
    [1383,"2024-02-27 14:00:00","11","andria","17.2","1","51.34","1","0.0","1","null","6","null","6","557.84","1","985.63","1","41.231637","16.30298"],
    [1384,"2024-02-27 15:00:00","11","andria","17.48","1","50.9","1","0.0","1","null","6","null","6","388.58","1","985.37","1","41.231637","16.30298"],
    [1385,"2024-02-27 16:00:00","11","andria","16.44","1","54.84","1","0.0","1","null","6","null","6","199.75","1","985.4","1","41.231637","16.30298"],
    [1386,"2024-02-27 17:00:00","11","andria","15.31","1","62.37","1","0.0","1","null","6","null","6","79.7","1","985.42","1","41.231637","16.30298"],
    [1387,"2024-02-27 18:00:00","11","andria","14.47","1","67.49","1","0.0","1","null","6","null","6","14.6","1","986.22","1","41.231637","16.30298"],
    [1388,"2024-02-27 19:00:00","11","andria","13.97","1","71.74","1","0.0","1","null","6","null","6","0.0","5","986.75","1","41.231637","16.30298"],
    [1389,"2024-02-27 20:00:00","11","andria","13.92","1","72.84","1","0.0","1","null","6","null","6","0.0","5","987.3","1","41.231637","16.30298"],
    [1390,"2024-02-27 21:00:00","11","andria","13.99","1","72.37","1","0.0","1","null","6","null","6","0.0","5","987.95","1","41.231637","16.30298"],
    [1391,"2024-02-27 22:00:00","11","andria","13.96","1","72.42","1","0.0","1","null","6","null","6","0.0","5","988.39","1","41.231637","16.30298"],
    [1392,"2024-02-27 23:00:00","11","andria","13.92","1","72.81","1","0.0","1","null","6","null","6","0.0","5","988.34","1","41.231637","16.30298"],
    [1393,"2024-02-28 00:00:00","11","andria","13.7","1","73.18","1","0.0","1","null","6","null","6","0.0","5","988.83","1","41.231637","16.30298"],
    [1394,"2024-02-28 01:00:00","11","andria","13.57","1","74.15","1","0.0","1","null","6","null","6","0.0","5","988.66","1","41.231637","16.30298"],
    [1395,"2024-02-28 02:00:00","11","andria","13.59","1","73.56","1","0.0","1","null","6","null","6","0.0","5","988.61","1","41.231637","16.30298"],
    [1396,"2024-02-28 03:00:00","11","andria","13.71","1","70.68","1","0.0","1","null","6","null","6","0.0","5","988.48","1","41.231637","16.30298"],
    [1397,"2024-02-28 04:00:00","11","andria","13.5","1","68.33","1","0.0","1","null","6","null","6","0.0","5","988.44","1","41.231637","16.30298"],
    [1398,"2024-02-28 05:00:00","11","andria","13.44","1","66.7","1","0.0","1","null","6","null","6","0.0","5","988.86","1","41.231637","16.30298"],
    [1399,"2024-02-28 06:00:00","11","andria","13.31","1","69.36","1","0.0","1","null","6","null","6","0.0","5","988.77","1","41.231637","16.30298"],
    [1400,"2024-02-28 07:00:00","11","andria","13.12","1","70.2","1","0.0","1","null","6","null","6","0.0","5","989.18","1","41.231637","16.30298"],
    [1401,"2024-02-28 08:00:00","11","andria","13.43","1","68.34","1","0.0","1","null","6","null","6","77.35","1","989.73","1","41.231637","16.30298"],
    [1402,"2024-02-28 09:00:00","11","andria","14.59","1","61.46","1","0.0","1","null","6","null","6","228.94","1","990.04","1","41.231637","16.30298"],
    [1403,"2024-02-28 10:00:00","11","andria","15.2","1","57.31","1","0.0","1","null","6","null","6","199.29","1","989.84","1","41.231637","16.30298"],
    [1404,"2024-02-28 11:00:00","11","andria","15.55","1","56.8","1","0.0","1","null","6","null","6","258.46","1","989.86","1","41.231637","16.30298"],
    [1405,"2024-02-28 12:00:00","11","andria","16.08","1","56.88","1","0.0","1","null","6","null","6","269.3","1","990.08","1","41.231637","16.30298"],
    [1406,"2024-02-28 13:00:00","11","andria","16.41","1","53.38","1","0.0","1","null","6","null","6","219.01","1","989.37","1","41.231637","16.30298"],
    [1407,"2024-02-28 14:00:00","11","andria","15.82","1","57.59","1","0.0","1","null","6","null","6","153.71","1","989.51","1","41.231637","16.30298"],
    [1408,"2024-02-28 15:00:00","11","andria","16.21","1","56.85","1","0.0","1","null","6","null","6","150.06","1","988.72","1","41.231637","16.30298"],
    [1409,"2024-02-28 16:00:00","11","andria","15.88","1","58.04","1","0.0","1","null","6","null","6","120.52","1","988.77","1","41.231637","16.30298"],
    [1410,"2024-02-28 17:00:00","11","andria","15.41","1","58.82","1","0.0","1","null","6","null","6","37.61","1","989.16","1","41.231637","16.30298"],
    [1411,"2024-02-28 18:00:00","11","andria","15.04","1","61.26","1","0.0","1","null","6","null","6","18.71","1","988.96","1","41.231637","16.30298"],
    [1412,"2024-02-28 19:00:00","11","andria","14.65","1","63.06","1","0.0","1","null","6","null","6","0.0","5","989.3","1","41.231637","16.30298"],
    [1413,"2024-02-28 20:00:00","11","andria","14.18","1","66.46","1","0.0","1","null","6","null","6","0.0","5","989.35","1","41.231637","16.30298"],
    [1414,"2024-02-28 21:00:00","11","andria","13.85","1","69.62","1","0.0","1","null","6","null","6","0.0","5","989.61","1","41.231637","16.30298"],
    [1415,"2024-02-28 22:00:00","11","andria","13.83","1","70.13","1","0.0","1","null","6","null","6","0.0","5","989.73","1","41.231637","16.30298"],
    [1416,"2024-02-28 23:00:00","11","andria","14.31","1","64.51","1","0.0","1","null","6","null","6","0.0","5","989.67","1","41.231637","16.30298"],
    [1417,"2024-02-29 00:00:00","11","andria","14.15","1","65.34","1","0.0","1","null","6","null","6","0.0","5","989.45","1","41.231637","16.30298"],
    [1418,"2024-02-29 01:00:00","11","andria","14.39","1","62.32","1","0.0","1","null","6","null","6","0.0","5","989.49","1","41.231637","16.30298"],
    [1419,"2024-02-29 02:00:00","11","andria","14.09","1","65.61","1","0.0","1","null","6","null","6","0.0","5","989.11","1","41.231637","16.30298"],
    [1420,"2024-02-29 03:00:00","11","andria","13.59","1","68.99","1","0.0","1","null","6","null","6","0.0","5","988.68","1","41.231637","16.30298"],
    [1421,"2024-02-29 04:00:00","11","andria","12.77","1","81.16","1","0.4","1","null","6","null","6","0.0","5","988.29","1","41.231637","16.30298"],
    [1422,"2024-02-29 05:00:00","11","andria","12.42","1","87.84","1","0.0","1","null","6","null","6","0.0","5","987.74","1","41.231637","16.30298"],
    [1423,"2024-02-29 06:00:00","11","andria","12.65","1","85.72","1","0.0","1","null","6","null","6","0.0","1","987.07","1","41.231637","16.30298"],
    [1424,"2024-02-29 07:00:00","11","andria","12.98","1","77.88","1","0.0","1","null","6","null","6","0.0","5","986.6","1","41.231637","16.30298"],
    [1425,"2024-02-29 08:00:00","11","andria","13.09","1","76.07","1","0.0","1","null","6","null","6","37.57","1","986.84","1","41.231637","16.30298"],
    [1426,"2024-02-29 09:00:00","11","andria","13.8","1","73.57","1","0.0","1","null","6","null","6","76.99","1","986.91","1","41.231637","16.30298"],
    [1427,"2024-02-29 10:00:00","11","andria","14.23","1","73.82","1","1.2","1","null","6","null","6","87.74","1","987.38","1","41.231637","16.30298"],
    [1428,"2024-02-29 11:00:00","11","andria","12.24","1","82.91","1","0.2","1","null","6","null","6","42.0","1","987.77","1","41.231637","16.30298"],
    [1429,"2024-02-29 12:00:00","11","andria","9.78","1","86.92","1","0.4","1","null","6","null","6","30.4","1","987.87","1","41.231637","16.30298"],
    [1430,"2024-02-29 13:00:00","11","andria","9.15","1","89.52","1","5.6","1","null","6","null","6","21.63","1","987.21","1","41.231637","16.30298"],
    [1431,"2024-02-29 14:00:00","11","andria","8.97","1","93.07","1","9.2","1","null","6","null","6","14.18","1","986.23","1","41.231637","16.30298"],
    [1432,"2024-02-29 15:00:00","11","andria","9.38","1","94.94","1","1.8","1","null","6","null","6","72.91","1","985.43","1","41.231637","16.30298"],
    [1433,"2024-02-29 16:00:00","11","andria","10.13","1","95.7","1","0.0","1","null","6","null","6","51.77","1","984.98","1","41.231637","16.30298"],
    [1434,"2024-02-29 17:00:00","11","andria","10.42","1","96.09","1","0.8","1","null","6","null","6","11.37","1","984.78","1","41.231637","16.30298"],
    [1435,"2024-02-29 18:00:00","11","andria","10.56","1","96.55","1","0.4","1","null","6","null","6","0.0","5","984.11","1","41.231637","16.30298"],
    [1436,"2024-02-29 19:00:00","11","andria","10.69","1","96.8","1","1.0","1","null","6","null","6","0.0","5","983.98","1","41.231637","16.30298"],
    [1437,"2024-02-29 20:00:00","11","andria","10.83","1","97.04","1","2.8","1","null","6","null","6","0.0","1","984.17","1","41.231637","16.30298"],
    [1438,"2024-02-29 21:00:00","11","andria","10.59","1","96.93","1","1.8","1","null","6","null","6","0.0","5","984.13","1","41.231637","16.30298"],
    [1439,"2024-02-29 22:00:00","11","andria","10.12","1","96.28","1","0.4","1","null","6","null","6","0.0","5","983.4","1","41.231637","16.30298"],
    [1440,"2024-02-29 23:00:00","11","andria","9.81","1","95.72","1","0.0","1","null","6","null","6","0.0","5","983.51","1","41.231637","16.30298"],
    [1441,"2024-03-01 00:00:00","11","andria","9.76","1","92.83","1","0.0","1","null","6","null","6","0.0","5","983.32","1","41.231637","16.30298"],
    [1442,"2024-03-01 01:00:00","11","andria","9.58","1","91.57","1","0.0","1","null","6","null","6","0.0","5","982.92","1","41.231637","16.30298"],
    [1443,"2024-03-01 02:00:00","11","andria","9.47","1","90.6","1","0.0","1","null","6","null","6","0.0","5","982.82","1","41.231637","16.30298"],
    [1444,"2024-03-01 03:00:00","11","andria","9.36","1","87.22","1","0.0","1","null","6","null","6","0.0","5","982.87","1","41.231637","16.30298"],
    [1445,"2024-03-01 04:00:00","11","andria","9.43","1","83.1","1","0.0","1","null","6","null","6","0.0","1","982.63","1","41.231637","16.30298"],
    [1446,"2024-03-01 05:00:00","11","andria","8.95","1","79.13","1","0.0","1","null","6","null","6","0.0","1","982.83","1","41.231637","16.30298"],
    [1447,"2024-03-01 06:00:00","11","andria","8.18","1","79.6","1","0.0","1","null","6","null","6","0.0","5","983.39","1","41.231637","16.30298"],
    [1448,"2024-03-01 07:00:00","11","andria","8.01","1","75.41","1","0.0","1","null","6","null","6","5.43","1","983.65","1","41.231637","16.30298"],
    [1449,"2024-03-01 08:00:00","11","andria","9.4","1","69.27","1","0.0","1","null","6","null","6","126.05","1","983.77","1","41.231637","16.30298"],
    [1450,"2024-03-01 09:00:00","11","andria","12.28","1","58.48","1","0.0","1","null","6","null","6","273.88","1","984.15","1","41.231637","16.30298"],
    [1451,"2024-03-01 10:00:00","11","andria","14.63","1","46.77","1","0.0","1","null","6","null","6","323.55","1","983.99","1","41.231637","16.30298"],
    [1452,"2024-03-01 11:00:00","11","andria","16.05","1","42.68","1","0.0","1","null","6","null","6","532.73","1","984.38","1","41.231637","16.30298"],
    [1453,"2024-03-01 12:00:00","11","andria","17.0","1","38.01","1","0.0","1","null","6","null","6","663.21","1","984.43","1","41.231637","16.30298"],
    [1454,"2024-03-01 13:00:00","11","andria","17.76","1","36.61","1","0.2","1","null","6","null","6","624.05","1","983.96","1","41.231637","16.30298"],
    [1455,"2024-03-01 14:00:00","11","andria","16.73","1","38.24","1","0.0","1","null","6","null","6","265.18","1","983.81","1","41.231637","16.30298"],
    [1456,"2024-03-01 15:00:00","11","andria","17.0","1","40.21","1","0.0","1","null","6","null","6","266.14","1","983.66","1","41.231637","16.30298"],
    [1457,"2024-03-01 16:00:00","11","andria","16.5","1","45.99","1","0.0","1","null","6","null","6","223.52","1","983.88","1","41.231637","16.30298"],
    [1458,"2024-03-01 17:00:00","11","andria","15.46","1","47.14","1","0.0","1","null","6","null","6","56.19","1","983.91","1","41.231637","16.30298"],
    [1459,"2024-03-01 18:00:00","11","andria","14.07","1","55.22","1","0.0","1","null","6","null","6","5.22","1","984.52","1","41.231637","16.30298"],
    [1460,"2024-03-01 19:00:00","11","andria","12.65","1","60.65","1","0.0","1","null","6","null","6","0.0","5","985.5","1","41.231637","16.30298"],
    [1461,"2024-03-01 20:00:00","11","andria","11.82","1","61.72","1","0.0","1","null","6","null","6","0.0","5","985.54","1","41.231637","16.30298"],
    [1462,"2024-03-01 21:00:00","11","andria","11.28","1","65.92","1","0.0","1","null","6","null","6","0.0","5","985.86","1","41.231637","16.30298"],
    [1463,"2024-03-01 22:00:00","11","andria","10.55","1","70.3","1","0.0","1","null","6","null","6","0.0","5","985.99","1","41.231637","16.30298"],
    [1464,"2024-03-01 23:00:00","11","andria","10.13","1","72.82","1","0.0","1","null","6","null","6","0.0","1","986.02","1","41.231637","16.30298"],
    [1465,"2024-03-02 00:00:00","11","andria","9.53","1","75.39","1","0.0","1","null","6","null","6","0.0","5","986.05","1","41.231637","16.30298"],
    [1466,"2024-03-02 01:00:00","11","andria","9.11","1","76.29","1","0.0","1","null","6","null","6","0.0","1","986.26","1","41.231637","16.30298"],
    [1467,"2024-03-02 02:00:00","11","andria","8.47","1","78.46","1","0.0","1","null","6","null","6","0.0","5","986.27","1","41.231637","16.30298"],
    [1468,"2024-03-02 03:00:00","11","andria","8.56","1","80.37","1","0.0","1","null","6","null","6","0.0","5","986.3","1","41.231637","16.30298"],
    [1469,"2024-03-02 04:00:00","11","andria","8.33","1","80.35","1","0.0","1","null","6","null","6","0.0","5","986.34","1","41.231637","16.30298"],
    [1470,"2024-03-02 05:00:00","11","andria","7.66","1","76.55","1","0.0","1","null","6","null","6","0.0","1","986.63","1","41.231637","16.30298"],
    [1471,"2024-03-02 06:00:00","11","andria","7.35","1","73.68","1","0.0","1","null","6","null","6","0.0","1","986.95","1","41.231637","16.30298"],
    [1472,"2024-03-02 07:00:00","11","andria","7.04","1","74.54","1","0.0","1","null","6","null","6","6.98","1","987.24","1","41.231637","16.30298"],
    [1473,"2024-03-02 08:00:00","11","andria","9.81","1","64.72","1","0.0","1","null","6","null","6","138.34","1","987.55","1","41.231637","16.30298"],
    [1474,"2024-03-02 09:00:00","11","andria","13.48","1","54.23","1","0.0","1","null","6","null","6","266.15","1","987.91","1","41.231637","16.30298"],
    [1475,"2024-03-02 10:00:00","11","andria","15.78","1","50.57","1","0.0","1","null","6","null","6","326.38","1","988.09","1","41.231637","16.30298"],
    [1476,"2024-03-02 11:00:00","11","andria","18.33","1","37.33","1","0.0","1","null","6","null","6","552.22","1","988.3","1","41.231637","16.30298"],
    [1477,"2024-03-02 12:00:00","11","andria","18.06","1","44.42","1","0.0","1","null","6","null","6","629.14","1","988.0","1","41.231637","16.30298"],
    [1478,"2024-03-02 13:00:00","11","andria","17.9","1","45.34","1","0.0","1","null","6","null","6","423.02","1","987.77","1","41.231637","16.30298"],
    [1479,"2024-03-02 14:00:00","11","andria","16.0","1","51.15","1","0.0","1","null","6","null","6","296.54","1","987.67","1","41.231637","16.30298"],
    [1480,"2024-03-02 15:00:00","11","andria","15.06","1","50.89","1","0.0","1","null","6","null","6","115.61","1","987.84","1","41.231637","16.30298"],
    [1481,"2024-03-02 16:00:00","11","andria","14.74","1","52.8","1","0.0","1","null","6","null","6","127.2","1","988.05","1","41.231637","16.30298"],
    [1482,"2024-03-02 17:00:00","11","andria","15.42","1","50.73","1","0.0","1","null","6","null","6","76.69","1","988.11","1","41.231637","16.30298"],
    [1483,"2024-03-02 18:00:00","11","andria","15.37","1","50.39","1","0.0","1","null","6","null","6","13.7","1","988.5","1","41.231637","16.30298"],
    [1484,"2024-03-02 19:00:00","11","andria","14.44","1","54.81","1","0.0","1","null","6","null","6","0.0","5","989.07","1","41.231637","16.30298"],
    [1485,"2024-03-02 20:00:00","11","andria","13.01","1","57.74","1","0.0","1","null","6","null","6","0.0","5","989.78","1","41.231637","16.30298"],
    [1486,"2024-03-02 21:00:00","11","andria","12.39","1","56.68","1","0.0","1","null","6","null","6","0.0","5","989.75","1","41.231637","16.30298"],
    [1487,"2024-03-02 22:00:00","11","andria","11.61","1","58.08","1","0.0","1","null","6","null","6","0.0","5","990.28","1","41.231637","16.30298"],
    [1488,"2024-03-02 23:00:00","11","andria","10.97","1","59.29","1","0.0","1","null","6","null","6","0.0","5","990.59","1","41.231637","16.30298"],
    [1489,"2024-03-03 00:00:00","11","andria","10.55","1","59.25","1","0.0","1","null","6","null","6","0.0","5","990.69","1","41.231637","16.30298"],
    [1490,"2024-03-03 01:00:00","11","andria","10.06","1","59.12","1","0.0","1","null","6","null","6","0.0","5","990.6","1","41.231637","16.30298"],
    [1491,"2024-03-03 02:00:00","11","andria","9.63","1","59.26","1","0.0","1","null","6","null","6","0.0","1","990.38","1","41.231637","16.30298"],
    [1492,"2024-03-03 03:00:00","11","andria","9.8","1","58.47","1","0.0","1","null","6","null","6","0.0","5","990.09","1","41.231637","16.30298"],
    [1493,"2024-03-03 04:00:00","11","andria","9.5","1","58.62","1","0.0","1","null","6","null","6","0.0","1","989.73","1","41.231637","16.30298"],
    [1494,"2024-03-03 05:00:00","11","andria","8.79","1","62.82","1","0.0","1","null","6","null","6","0.0","1","989.59","1","41.231637","16.30298"],
    [1495,"2024-03-03 06:00:00","11","andria","8.49","1","63.23","1","0.0","1","null","6","null","6","0.0","5","989.6","1","41.231637","16.30298"],
    [1496,"2024-03-03 07:00:00","11","andria","8.61","1","61.3","1","0.0","1","null","6","null","6","6.88","1","989.48","1","41.231637","16.30298"],
    [1497,"2024-03-03 08:00:00","11","andria","10.25","1","55.83","1","0.0","1","null","6","null","6","142.67","1","989.49","1","41.231637","16.30298"],
    [1498,"2024-03-03 09:00:00","11","andria","13.53","1","45.39","1","0.0","1","null","6","null","6","275.88","1","989.48","1","41.231637","16.30298"],
    [1499,"2024-03-03 10:00:00","11","andria","15.63","1","37.3","1","0.0","1","null","6","null","6","344.72","1","989.31","1","41.231637","16.30298"],
    [1500,"2024-03-03 11:00:00","11","andria","17.97","1","30.84","1","0.0","1","null","6","null","6","554.87","1","988.68","1","41.231637","16.30298"],
    [1501,"2024-03-03 12:00:00","11","andria","18.17","1","29.07","1","0.0","1","null","6","null","6","652.89","1","988.48","1","41.231637","16.30298"],
    [1502,"2024-03-03 13:00:00","11","andria","18.61","1","30.9","1","0.0","1","null","6","null","6","701.31","1","987.78","1","41.231637","16.30298"],
    [1503,"2024-03-03 14:00:00","11","andria","18.2","1","30.74","1","0.0","1","null","6","null","6","606.55","1","986.55","1","41.231637","16.30298"],
    [1504,"2024-03-03 15:00:00","11","andria","19.37","1","32.46","1","0.0","1","null","6","null","6","478.75","1","986.03","1","41.231637","16.30298"],
    [1505,"2024-03-03 16:00:00","11","andria","18.29","1","43.56","1","0.0","1","null","6","null","6","274.57","1","985.78","1","41.231637","16.30298"],
    [1506,"2024-03-03 17:00:00","11","andria","16.03","1","52.75","1","0.0","1","null","6","null","6","68.66","1","985.58","1","41.231637","16.30298"],
    [1507,"2024-03-03 18:00:00","11","andria","14.03","1","59.91","1","0.0","1","null","6","null","6","15.18","1","985.6","1","41.231637","16.30298"],
    [1508,"2024-03-03 19:00:00","11","andria","12.62","1","65.35","1","0.0","1","null","6","null","6","0.0","5","985.61","1","41.231637","16.30298"],
    [1509,"2024-03-03 20:00:00","11","andria","12.05","1","69.68","1","0.0","1","null","6","null","6","0.0","5","985.73","1","41.231637","16.30298"],
    [1510,"2024-03-03 21:00:00","11","andria","11.86","1","71.08","1","0.0","1","null","6","null","6","0.0","5","985.84","1","41.231637","16.30298"],
    [1511,"2024-03-03 22:00:00","11","andria","11.55","1","72.93","1","0.0","1","null","6","null","6","0.0","5","985.28","1","41.231637","16.30298"],
    [1512,"2024-03-03 23:00:00","11","andria","11.79","1","72.26","1","0.0","1","null","6","null","6","0.0","5","984.75","1","41.231637","16.30298"],
    [1513,"2024-03-04 00:00:00","11","andria","11.9","1","72.15","1","0.0","1","null","6","null","6","0.0","5","984.49","1","41.231637","16.30298"],
    [1514,"2024-03-04 01:00:00","11","andria","11.91","1","73.21","1","0.0","1","null","6","null","6","0.0","5","984.02","1","41.231637","16.30298"],
    [1515,"2024-03-04 02:00:00","11","andria","11.92","1","74.77","1","0.0","1","null","6","null","6","0.0","5","983.72","1","41.231637","16.30298"],
    [1516,"2024-03-04 03:00:00","11","andria","11.94","1","74.73","1","0.0","1","null","6","null","6","0.0","5","983.47","1","41.231637","16.30298"],
    [1517,"2024-03-04 04:00:00","11","andria","12.18","1","73.97","1","0.0","1","null","6","null","6","0.0","1","982.9","1","41.231637","16.30298"],
    [1518,"2024-03-04 05:00:00","11","andria","12.31","1","74.08","1","0.0","1","null","6","null","6","0.0","5","982.53","1","41.231637","16.30298"],
    [1519,"2024-03-04 06:00:00","11","andria","12.18","1","74.5","1","0.0","1","null","6","null","6","0.0","5","982.79","1","41.231637","16.30298"],
    [1520,"2024-03-04 07:00:00","11","andria","10.53","1","82.32","1","0.0","1","null","6","null","6","0.0","1","983.0","1","41.231637","16.30298"],
    [1521,"2024-03-04 08:00:00","11","andria","9.55","1","82.51","1","1.2","1","null","6","null","6","0.0","5","982.84","1","41.231637","16.30298"],
    [1522,"2024-03-04 09:00:00","11","andria","8.43","1","84.59","1","2.4","1","null","6","null","6","26.82","1","983.18","1","41.231637","16.30298"],
    [1523,"2024-03-04 10:00:00","11","andria","8.35","1","83.36","1","0.0","1","null","6","null","6","63.71","1","982.7","1","41.231637","16.30298"],
    [1524,"2024-03-04 11:00:00","11","andria","8.67","1","75.68","1","0.0","1","null","6","null","6","60.28","1","982.56","1","41.231637","16.30298"],
    [1525,"2024-03-04 12:00:00","11","andria","9.15","1","72.55","1","0.0","1","null","6","null","6","65.9","1","983.29","1","41.231637","16.30298"],
    [1526,"2024-03-04 13:00:00","11","andria","9.83","1","69.81","1","0.0","1","null","6","null","6","132.8","1","982.85","1","41.231637","16.30298"],
    [1527,"2024-03-04 14:00:00","11","andria","10.44","1","66.17","1","0.0","1","null","6","null","6","128.57","1","981.8","1","41.231637","16.30298"],
    [1528,"2024-03-04 15:00:00","11","andria","11.39","1","57.0","1","0.0","1","null","6","null","6","203.97","1","981.68","1","41.231637","16.30298"],
    [1529,"2024-03-04 16:00:00","11","andria","12.57","1","51.82","1","0.0","1","null","6","null","6","217.82","1","981.43","1","41.231637","16.30298"],
    [1530,"2024-03-04 17:00:00","11","andria","12.31","1","50.59","1","0.0","1","null","6","null","6","95.34","1","981.01","1","41.231637","16.30298"],
    [1531,"2024-03-04 18:00:00","11","andria","11.53","1","53.87","1","0.0","1","null","6","null","6","12.87","1","981.22","1","41.231637","16.30298"],
    [1532,"2024-03-04 19:00:00","11","andria","9.85","1","69.48","1","0.0","1","null","6","null","6","0.0","5","982.08","1","41.231637","16.30298"],
    [1533,"2024-03-04 20:00:00","11","andria","9.15","1","73.97","1","0.0","1","null","6","null","6","0.0","1","982.43","1","41.231637","16.30298"],
    [1534,"2024-03-04 21:00:00","11","andria","8.42","1","81.05","1","0.0","1","null","6","null","6","0.0","5","983.02","1","41.231637","16.30298"],
    [1535,"2024-03-04 22:00:00","11","andria","7.87","1","80.53","1","0.0","1","null","6","null","6","0.0","1","983.42","1","41.231637","16.30298"],
    [1536,"2024-03-04 23:00:00","11","andria","7.92","1","79.4","1","0.0","1","null","6","null","6","0.0","5","983.88","1","41.231637","16.30298"],
    [1537,"2024-03-05 00:00:00","11","andria","7.77","1","79.45","1","0.0","1","null","6","null","6","0.0","1","984.17","1","41.231637","16.30298"],
    [1538,"2024-03-05 01:00:00","11","andria","7.43","1","78.94","1","0.0","1","null","6","null","6","0.0","1","984.44","1","41.231637","16.30298"],
    [1539,"2024-03-05 02:00:00","11","andria","7.06","1","79.11","1","0.0","1","null","6","null","6","0.0","5","984.77","1","41.231637","16.30298"],
    [1540,"2024-03-05 03:00:00","11","andria","6.7","1","79.51","1","0.0","1","null","6","null","6","0.0","1","985.02","1","41.231637","16.30298"],
    [1541,"2024-03-05 04:00:00","11","andria","6.41","1","79.98","1","0.0","1","null","6","null","6","0.0","5","985.48","1","41.231637","16.30298"],
    [1542,"2024-03-05 05:00:00","11","andria","6.24","1","78.99","1","0.0","1","null","6","null","6","0.0","5","985.85","1","41.231637","16.30298"],
    [1543,"2024-03-05 06:00:00","11","andria","6.2","1","75.95","1","0.0","1","null","6","null","6","0.0","1","986.38","1","41.231637","16.30298"],
    [1544,"2024-03-05 07:00:00","11","andria","6.48","1","70.27","1","0.0","1","null","6","null","6","5.55","1","986.67","1","41.231637","16.30298"],
    [1545,"2024-03-05 08:00:00","11","andria","7.02","1","70.81","1","0.0","1","null","6","null","6","122.07","1","987.15","1","41.231637","16.30298"],
    [1546,"2024-03-05 09:00:00","11","andria","9.15","1","68.22","1","0.0","1","null","6","null","6","243.18","1","987.71","1","41.231637","16.30298"],
    [1547,"2024-03-05 10:00:00","11","andria","9.72","1","69.18","1","0.0","1","null","6","null","6","192.32","1","987.96","1","41.231637","16.30298"],
    [1548,"2024-03-05 11:00:00","11","andria","10.44","1","69.02","1","0.0","1","null","6","null","6","134.22","1","988.21","1","41.231637","16.30298"],
    [1549,"2024-03-05 12:00:00","11","andria","12.12","1","65.1","1","0.0","1","null","6","null","6","413.39","1","988.43","1","41.231637","16.30298"],
    [1550,"2024-03-05 13:00:00","11","andria","13.47","1","59.42","1","0.0","1","null","6","null","6","279.31","1","988.36","1","41.231637","16.30298"],
    [1551,"2024-03-05 14:00:00","11","andria","14.38","1","55.83","1","0.0","1","null","6","null","6","477.17","1","988.33","1","41.231637","16.30298"],
    [1552,"2024-03-05 15:00:00","11","andria","13.9","1","65.03","1","0.0","1","null","6","null","6","116.77","1","988.14","1","41.231637","16.30298"],
    [1553,"2024-03-05 16:00:00","11","andria","13.72","1","66.37","1","0.0","1","null","6","null","6","123.97","1","988.26","1","41.231637","16.30298"],
    [1554,"2024-03-05 17:00:00","11","andria","13.89","1","63.81","1","0.0","1","null","6","null","6","84.15","1","988.68","1","41.231637","16.30298"],
    [1555,"2024-03-05 18:00:00","11","andria","13.15","1","62.89","1","0.0","1","null","6","null","6","12.41","1","989.24","1","41.231637","16.30298"],
    [1556,"2024-03-05 19:00:00","11","andria","11.94","1","68.82","1","0.0","1","null","6","null","6","0.0","1","989.78","1","41.231637","16.30298"],
    [1557,"2024-03-05 20:00:00","11","andria","11.05","1","73.98","1","0.0","1","null","6","null","6","0.0","1","990.18","1","41.231637","16.30298"],
    [1558,"2024-03-05 21:00:00","11","andria","10.61","1","73.04","1","0.0","1","null","6","null","6","0.0","1","990.54","1","41.231637","16.30298"],
    [1559,"2024-03-05 22:00:00","11","andria","10.43","1","71.48","1","0.0","1","null","6","null","6","0.0","1","990.72","1","41.231637","16.30298"],
    [1560,"2024-03-05 23:00:00","11","andria","10.18","1","70.78","1","0.0","1","null","6","null","6","0.0","5","991.01","1","41.231637","16.30298"],
    [1561,"2024-03-06 00:00:00","11","andria","10.08","1","69.83","1","0.0","1","null","6","null","6","0.0","1","991.52","1","41.231637","16.30298"],
    [1562,"2024-03-06 01:00:00","11","andria","9.9","1","67.74","1","0.0","1","null","6","null","6","0.0","1","991.73","1","41.231637","16.30298"],
    [1563,"2024-03-06 02:00:00","11","andria","9.88","1","65.65","1","0.0","1","null","6","null","6","0.0","5","991.84","1","41.231637","16.30298"],
    [1564,"2024-03-06 03:00:00","11","andria","9.86","1","64.25","1","0.0","1","null","6","null","6","0.0","5","992.01","1","41.231637","16.30298"],
    [1565,"2024-03-06 04:00:00","11","andria","9.82","1","62.51","1","0.0","1","null","6","null","6","0.0","1","991.84","1","41.231637","16.30298"],
    [1566,"2024-03-06 05:00:00","11","andria","9.6","1","63.85","1","0.0","1","null","6","null","6","0.0","5","991.8","1","41.231637","16.30298"],
    [1567,"2024-03-06 06:00:00","11","andria","9.59","1","63.63","1","0.0","1","null","6","null","6","0.0","5","991.6","1","41.231637","16.30298"],
    [1568,"2024-03-06 07:00:00","11","andria","9.44","1","65.03","1","0.0","1","null","6","null","6","5.22","1","991.81","1","41.231637","16.30298"],
    [1569,"2024-03-06 08:00:00","11","andria","10.91","1","60.97","1","0.0","1","null","6","null","6","134.93","1","992.22","1","41.231637","16.30298"],
    [1570,"2024-03-06 09:00:00","11","andria","13.78","1","51.79","1","0.0","1","null","6","null","6","286.9","1","992.35","1","41.231637","16.30298"],
    [1571,"2024-03-06 10:00:00","11","andria","15.23","1","47.88","1","0.0","1","null","6","null","6","377.86","1","992.22","1","41.231637","16.30298"],
    [1572,"2024-03-06 11:00:00","11","andria","16.44","1","46.45","1","0.0","1","null","6","null","6","588.19","1","992.47","1","41.231637","16.30298"],
    [1573,"2024-03-06 12:00:00","11","andria","17.34","1","44.3","1","0.0","1","null","6","null","6","476.19","1","992.45","1","41.231637","16.30298"],
    [1574,"2024-03-06 13:00:00","11","andria","16.58","1","47.95","1","0.0","1","null","6","null","6","425.2","1","992.0","1","41.231637","16.30298"],
    [1575,"2024-03-06 14:00:00","11","andria","16.74","1","43.78","1","0.0","1","null","6","null","6","487.59","1","991.5","1","41.231637","16.30298"],
    [1576,"2024-03-06 15:00:00","11","andria","17.83","1","37.43","1","0.0","1","null","6","null","6","350.53","1","990.84","1","41.231637","16.30298"],
    [1577,"2024-03-06 16:00:00","11","andria","17.15","1","35.84","1","0.0","1","null","6","null","6","201.78","1","990.84","1","41.231637","16.30298"],
    [1578,"2024-03-06 17:00:00","11","andria","14.8","1","37.18","1","0.0","1","null","6","null","6","66.19","1","991.5","1","41.231637","16.30298"],
    [1579,"2024-03-06 18:00:00","11","andria","13.5","1","40.07","1","0.0","1","null","6","null","6","28.96","1","992.21","1","41.231637","16.30298"],
    [1580,"2024-03-06 19:00:00","11","andria","12.34","1","43.48","1","0.0","1","null","6","null","6","0.0","5","992.22","1","41.231637","16.30298"],
    [1581,"2024-03-06 20:00:00","11","andria","11.63","1","42.63","1","0.0","1","null","6","null","6","0.0","1","992.45","1","41.231637","16.30298"],
    [1582,"2024-03-06 21:00:00","11","andria","10.93","1","44.29","1","0.0","1","null","6","null","6","0.0","5","993.08","1","41.231637","16.30298"],
    [1583,"2024-03-06 22:00:00","11","andria","10.11","1","49.71","1","0.0","1","null","6","null","6","0.0","5","993.43","1","41.231637","16.30298"],
    [1584,"2024-03-06 23:00:00","11","andria","8.99","1","55.73","1","0.0","1","null","6","null","6","0.0","5","993.31","1","41.231637","16.30298"],
    [1585,"2024-03-07 00:00:00","11","andria","8.97","1","54.87","1","0.0","1","null","6","null","6","0.0","5","993.04","1","41.231637","16.30298"],
    [1586,"2024-03-07 01:00:00","11","andria","8.93","1","52.45","1","0.0","1","null","6","null","6","0.0","1","992.51","1","41.231637","16.30298"],
    [1587,"2024-03-07 02:00:00","11","andria","8.8","1","47.23","1","0.0","1","null","6","null","6","0.0","1","992.47","1","41.231637","16.30298"],
    [1588,"2024-03-07 03:00:00","11","andria","8.29","1","47.16","1","0.0","1","null","6","null","6","0.0","5","992.16","1","41.231637","16.30298"],
    [1589,"2024-03-07 04:00:00","11","andria","7.95","1","48.67","1","0.0","1","null","6","null","6","0.0","1","991.95","1","41.231637","16.30298"],
    [1590,"2024-03-07 05:00:00","11","andria","7.81","1","50.58","1","0.0","1","null","6","null","6","0.0","5","991.78","1","41.231637","16.30298"],
    [1591,"2024-03-07 06:00:00","11","andria","6.7","1","58.09","1","0.0","1","null","6","null","6","0.0","1","992.0","1","41.231637","16.30298"],
    [1592,"2024-03-07 07:00:00","11","andria","6.36","1","60.43","1","0.0","1","null","6","null","6","8.02","1","992.34","1","41.231637","16.30298"],
    [1593,"2024-03-07 08:00:00","11","andria","8.53","1","58.08","1","0.0","1","null","6","null","6","165.84","1","992.5","1","41.231637","16.30298"],
    [1594,"2024-03-07 09:00:00","11","andria","10.71","1","50.82","1","0.0","1","null","6","null","6","311.94","1","992.58","1","41.231637","16.30298"],
    [1595,"2024-03-07 10:00:00","11","andria","12.01","5","null","6","0.0","5","null","6","null","6","null","6","992.68","5","41.231637","16.30298"],
    [1596,"2024-03-07 11:00:00","11","andria","13.3","1","39.84","1","0.0","1","null","6","null","6","623.56","1","992.78","1","41.231637","16.30298"],
    [1597,"2024-03-07 12:00:00","11","andria","13.8","1","37.47","1","0.0","1","null","6","null","6","547.15","1","992.26","1","41.231637","16.30298"],
    [1598,"2024-03-07 13:00:00","11","andria","14.45","1","37.15","1","0.0","1","null","6","null","6","606.91","1","991.82","1","41.231637","16.30298"],
    [1599,"2024-03-07 14:00:00","11","andria","13.67","1","39.71","1","0.0","1","null","6","null","6","344.73","1","991.61","1","41.231637","16.30298"],
    [1600,"2024-03-07 15:00:00","11","andria","13.98","1","41.46","1","0.0","1","null","6","null","6","329.31","1","991.6","1","41.231637","16.30298"],
    [1601,"2024-03-07 16:00:00","11","andria","13.38","1","44.82","1","0.0","1","null","6","null","6","177.3","1","991.74","1","41.231637","16.30298"],
    [1602,"2024-03-07 17:00:00","11","andria","12.18","1","49.02","1","0.0","1","null","6","null","6","67.21","1","992.38","1","41.231637","16.30298"],
    [1603,"2024-03-07 18:00:00","11","andria","11.48","1","56.99","1","0.0","1","null","6","null","6","14.84","1","992.79","1","41.231637","16.30298"],
    [1604,"2024-03-07 19:00:00","11","andria","10.42","1","64.94","1","0.0","1","null","6","null","6","0.0","1","993.5","1","41.231637","16.30298"],
    [1605,"2024-03-07 20:00:00","11","andria","9.65","1","65.68","1","0.0","1","null","6","null","6","0.0","1","993.99","1","41.231637","16.30298"],
    [1606,"2024-03-07 21:00:00","11","andria","8.81","1","72.07","1","0.0","1","null","6","null","6","0.0","1","994.52","1","41.231637","16.30298"],
    [1607,"2024-03-07 22:00:00","11","andria","8.09","1","75.41","1","0.0","1","null","6","null","6","0.0","1","994.65","1","41.231637","16.30298"],
    [1608,"2024-03-07 23:00:00","11","andria","7.83","1","77.59","1","0.0","1","null","6","null","6","0.0","5","994.58","1","41.231637","16.30298"],
    [1609,"2024-03-08 00:00:00","11","andria","7.41","1","78.29","1","0.0","1","null","6","null","6","0.0","1","994.52","1","41.231637","16.30298"],
    [1610,"2024-03-08 01:00:00","11","andria","7.28","1","77.95","1","0.0","1","null","6","null","6","0.0","5","994.45","1","41.231637","16.30298"],
    [1611,"2024-03-08 02:00:00","11","andria","7.36","1","76.6","1","0.0","1","null","6","null","6","0.0","5","994.73","1","41.231637","16.30298"],
    [1612,"2024-03-08 03:00:00","11","andria","7.26","1","76.01","1","0.0","1","null","6","null","6","0.0","5","994.46","1","41.231637","16.30298"],
    [1613,"2024-03-08 04:00:00","11","andria","7.15","1","76.2","1","0.0","1","null","6","null","6","0.0","5","994.29","1","41.231637","16.30298"],
    [1614,"2024-03-08 05:00:00","11","andria","6.89","1","76.54","1","0.0","1","null","6","null","6","0.0","5","994.08","1","41.231637","16.30298"],
    [1615,"2024-03-08 06:00:00","11","andria","5.86","1","78.5","1","0.0","1","null","6","null","6","0.0","5","994.05","1","41.231637","16.30298"],
    [1616,"2024-03-08 07:00:00","11","andria","5.58","1","78.67","1","0.0","1","null","6","null","6","9.69","1","994.12","1","41.231637","16.30298"],
    [1617,"2024-03-08 08:00:00","11","andria","8.05","1","68.1","1","0.0","1","null","6","null","6","171.08","1","994.34","1","41.231637","16.30298"],
    [1618,"2024-03-08 09:00:00","11","andria","12.54","1","51.32","1","0.0","1","null","6","null","6","315.45","1","994.21","1","41.231637","16.30298"],
    [1619,"2024-03-08 10:00:00","11","andria","14.41","1","41.3","1","0.0","1","null","6","null","6","408.67","1","993.75","1","41.231637","16.30298"],
    [1620,"2024-03-08 11:00:00","11","andria","16.09","1","38.0","1","0.0","1","null","6","null","6","578.33","1","993.65","1","41.231637","16.30298"],
    [1621,"2024-03-08 12:00:00","11","andria","15.65","1","45.7","1","0.0","1","null","6","null","6","580.98","1","993.34","1","41.231637","16.30298"],
    [1622,"2024-03-08 13:00:00","11","andria","15.84","1","46.2","1","0.0","1","null","6","null","6","690.36","1","993.31","1","41.231637","16.30298"],
    [1623,"2024-03-08 14:00:00","11","andria","15.32","1","48.22","1","0.0","1","null","6","null","6","634.68","1","992.63","1","41.231637","16.30298"],
    [1624,"2024-03-08 15:00:00","11","andria","15.99","1","48.25","1","0.0","1","null","6","null","6","503.37","1","992.29","1","41.231637","16.30298"],
    [1625,"2024-03-08 16:00:00","11","andria","15.25","1","50.85","1","0.0","1","null","6","null","6","302.77","1","991.97","1","41.231637","16.30298"],
    [1626,"2024-03-08 17:00:00","11","andria","13.15","1","58.21","1","0.0","1","null","6","null","6","54.29","1","992.12","1","41.231637","16.30298"],
    [1627,"2024-03-08 18:00:00","11","andria","11.61","1","64.17","1","0.0","1","null","6","null","6","14.61","1","992.48","1","41.231637","16.30298"],
    [1628,"2024-03-08 19:00:00","11","andria","10.54","1","69.29","1","0.0","1","null","6","null","6","0.0","5","992.72","1","41.231637","16.30298"],
    [1629,"2024-03-08 20:00:00","11","andria","10.57","1","66.97","1","0.0","1","null","6","null","6","0.0","5","992.75","1","41.231637","16.30298"],
    [1630,"2024-03-08 21:00:00","11","andria","10.85","1","67.85","1","0.0","1","null","6","null","6","0.0","5","992.82","1","41.231637","16.30298"],
    [1631,"2024-03-08 22:00:00","11","andria","11.04","1","68.9","1","0.0","1","null","6","null","6","0.0","5","992.49","1","41.231637","16.30298"],
    [1632,"2024-03-08 23:00:00","11","andria","11.29","1","68.66","1","0.0","1","null","6","null","6","0.0","5","992.16","1","41.231637","16.30298"],
    [1633,"2024-03-09 00:00:00","11","andria","11.41","1","70.1","1","0.0","1","null","6","null","6","0.0","5","992.07","1","41.231637","16.30298"],
    [1634,"2024-03-09 01:00:00","11","andria","11.34","1","70.18","1","0.0","1","null","6","null","6","0.0","5","991.58","1","41.231637","16.30298"],
    [1635,"2024-03-09 02:00:00","11","andria","11.55","1","69.46","1","0.0","1","null","6","null","6","0.0","5","991.28","1","41.231637","16.30298"],
    [1636,"2024-03-09 03:00:00","11","andria","11.47","1","71.4","1","0.0","1","null","6","null","6","0.0","5","991.08","1","41.231637","16.30298"],
    [1637,"2024-03-09 04:00:00","11","andria","10.7","1","79.82","1","0.0","1","null","6","null","6","0.0","5","990.39","1","41.231637","16.30298"],
    [1638,"2024-03-09 05:00:00","11","andria","10.93","1","77.22","1","0.0","1","null","6","null","6","0.0","5","990.48","1","41.231637","16.30298"],
    [1639,"2024-03-09 06:00:00","11","andria","11.39","1","74.18","1","0.0","1","null","6","null","6","0.0","5","990.2","1","41.231637","16.30298"],
    [1640,"2024-03-09 07:00:00","11","andria","11.45","1","73.43","1","0.0","1","null","6","null","6","0.0","5","989.96","1","41.231637","16.30298"],
    [1641,"2024-03-09 08:00:00","11","andria","11.78","1","72.99","1","0.0","1","null","6","null","6","60.14","1","989.84","1","41.231637","16.30298"],
    [1642,"2024-03-09 09:00:00","11","andria","13.52","1","68.37","1","0.0","1","null","6","null","6","162.13","1","989.84","1","41.231637","16.30298"],
    [1643,"2024-03-09 10:00:00","11","andria","14.36","1","65.22","1","0.0","1","null","6","null","6","108.76","1","989.69","1","41.231637","16.30298"],
    [1644,"2024-03-09 11:00:00","11","andria","14.48","1","63.44","1","0.0","1","null","6","null","6","99.45","1","990.12","1","41.231637","16.30298"],
    [1645,"2024-03-09 12:00:00","11","andria","15.5","1","62.06","1","0.2","1","null","6","null","6","156.33","1","990.13","1","41.231637","16.30298"],
    [1646,"2024-03-09 13:00:00","11","andria","15.3","1","68.31","1","0.6","1","null","6","null","6","79.08","1","989.84","1","41.231637","16.30298"],
    [1647,"2024-03-09 14:00:00","11","andria","14.28","1","81.38","1","0.8","1","null","6","null","6","106.3","1","990.18","1","41.231637","16.30298"],
    [1648,"2024-03-09 15:00:00","11","andria","14.58","1","78.86","1","0.0","1","null","6","null","6","314.35","1","989.99","1","41.231637","16.30298"],
    [1649,"2024-03-09 16:00:00","11","andria","16.65","1","59.13","1","0.0","1","null","6","null","6","259.72","1","989.25","1","41.231637","16.30298"],
    [1650,"2024-03-09 17:00:00","11","andria","16.62","1","52.52","1","0.0","1","null","6","null","6","69.52","1","988.94","1","41.231637","16.30298"],
    [1651,"2024-03-09 18:00:00","11","andria","15.84","1","55.07","1","0.0","1","null","6","null","6","25.24","1","989.22","1","41.231637","16.30298"],
    [1652,"2024-03-09 19:00:00","11","andria","14.34","1","61.71","1","0.0","1","null","6","null","6","0.0","5","989.38","1","41.231637","16.30298"],
    [1653,"2024-03-09 20:00:00","11","andria","12.81","1","72.19","1","0.0","1","null","6","null","6","0.0","5","989.7","1","41.231637","16.30298"],
    [1654,"2024-03-09 21:00:00","11","andria","12.03","1","77.01","1","0.0","1","null","6","null","6","0.0","5","989.96","1","41.231637","16.30298"],
    [1655,"2024-03-09 22:00:00","11","andria","11.69","1","75.1","1","0.0","1","null","6","null","6","0.0","5","989.83","1","41.231637","16.30298"],
    [1656,"2024-03-09 23:00:00","11","andria","11.27","1","73.68","1","0.0","1","null","6","null","6","0.0","5","989.3","1","41.231637","16.30298"],
    [1657,"2024-03-10 00:00:00","11","andria","10.85","1","72.95","1","0.0","1","null","6","null","6","0.0","5","989.2","1","41.231637","16.30298"],
    [1658,"2024-03-10 01:00:00","11","andria","10.03","1","77.56","1","0.0","1","null","6","null","6","0.0","5","988.57","1","41.231637","16.30298"],
    [1659,"2024-03-10 02:00:00","11","andria","9.41","1","82.94","1","0.0","1","null","6","null","6","0.0","1","988.56","1","41.231637","16.30298"],
    [1660,"2024-03-10 03:00:00","11","andria","10.64","1","82.28","1","0.0","1","null","6","null","6","0.0","5","988.08","1","41.231637","16.30298"],
    [1661,"2024-03-10 04:00:00","11","andria","11.15","1","80.58","1","0.0","1","null","6","null","6","0.0","5","987.46","1","41.231637","16.30298"],
    [1662,"2024-03-10 05:00:00","11","andria","11.09","1","78.4","1","0.0","1","null","6","null","6","0.0","5","987.33","1","41.231637","16.30298"],
    [1663,"2024-03-10 06:00:00","11","andria","11.4","1","75.26","1","0.0","1","null","6","null","6","0.0","5","987.04","1","41.231637","16.30298"],
    [1664,"2024-03-10 07:00:00","11","andria","12.01","1","69.82","1","0.0","1","null","6","null","6","8.44","1","986.69","1","41.231637","16.30298"],
    [1665,"2024-03-10 08:00:00","11","andria","13.1","1","62.9","1","0.0","1","null","6","null","6","74.67","1","986.28","1","41.231637","16.30298"],
    [1666,"2024-03-10 09:00:00","11","andria","13.47","1","67.14","1","0.0","1","null","6","null","6","49.2","1","985.84","1","41.231637","16.30298"],
    [1667,"2024-03-10 10:00:00","11","andria","13.73","1","68.64","1","0.0","1","null","6","null","6","63.79","1","986.07","1","41.231637","16.30298"],
    [1668,"2024-03-10 11:00:00","11","andria","14.59","1","66.31","1","0.0","1","null","6","null","6","156.67","1","985.52","1","41.231637","16.30298"],
    [1669,"2024-03-10 12:00:00","11","andria","15.1","1","64.38","1","0.0","1","null","6","null","6","147.85","1","984.74","1","41.231637","16.30298"],
    [1670,"2024-03-10 13:00:00","11","andria","15.4","1","63.58","1","0.0","1","null","6","null","6","180.5","1","984.9","1","41.231637","16.30298"],
    [1671,"2024-03-10 14:00:00","11","andria","15.26","1","65.2","1","0.0","1","null","6","null","6","186.2","1","984.29","1","41.231637","16.30298"],
    [1672,"2024-03-10 15:00:00","11","andria","15.48","1","64.78","1","0.0","1","null","6","null","6","244.62","1","984.28","1","41.231637","16.30298"],
    [1673,"2024-03-10 16:00:00","11","andria","15.11","1","65.96","1","0.0","1","null","6","null","6","151.93","1","983.96","1","41.231637","16.30298"],
    [1674,"2024-03-10 17:00:00","11","andria","14.75","1","67.74","1","0.0","1","null","6","null","6","85.73","1","983.89","1","41.231637","16.30298"],
    [1675,"2024-03-10 18:00:00","11","andria","14.22","1","69.99","1","0.0","1","null","6","null","6","23.39","1","984.01","1","41.231637","16.30298"],
    [1676,"2024-03-10 19:00:00","11","andria","13.73","1","72.19","1","0.0","1","null","6","null","6","0.0","5","984.33","1","41.231637","16.30298"],
    [1677,"2024-03-10 20:00:00","11","andria","13.6","1","73.08","1","0.0","1","null","6","null","6","0.0","5","984.92","1","41.231637","16.30298"],
    [1678,"2024-03-10 21:00:00","11","andria","13.53","1","73.82","1","0.0","1","null","6","null","6","0.0","5","984.8","1","41.231637","16.30298"],
    [1679,"2024-03-10 22:00:00","11","andria","13.5","1","73.83","1","0.0","1","null","6","null","6","0.0","5","984.71","1","41.231637","16.30298"],
    [1680,"2024-03-10 23:00:00","11","andria","13.61","1","73.26","1","0.0","1","null","6","null","6","0.0","5","984.85","1","41.231637","16.30298"],
    [1681,"2024-03-11 00:00:00","11","andria","13.51","1","73.62","1","0.0","1","null","6","null","6","0.0","5","984.18","1","41.231637","16.30298"],
    [1682,"2024-03-11 01:00:00","11","andria","13.5","1","73.57","1","0.0","1","null","6","null","6","0.0","5","983.39","1","41.231637","16.30298"],
    [1683,"2024-03-11 02:00:00","11","andria","13.58","1","74.12","1","0.0","1","null","6","null","6","0.0","5","982.18","1","41.231637","16.30298"],
    [1684,"2024-03-11 03:00:00","11","andria","13.63","1","74.6","1","0.0","1","null","6","null","6","0.0","5","982.37","1","41.231637","16.30298"],
    [1685,"2024-03-11 04:00:00","11","andria","13.6","1","74.89","1","0.0","1","null","6","null","6","0.0","5","980.91","1","41.231637","16.30298"],
    [1686,"2024-03-11 05:00:00","11","andria","13.51","1","75.83","1","0.0","1","null","6","null","6","0.0","5","980.46","1","41.231637","16.30298"],
    [1687,"2024-03-11 06:00:00","11","andria","13.34","1","76.4","1","4.0","1","null","6","null","6","0.0","5","980.98","1","41.231637","16.30298"],
    [1688,"2024-03-11 07:00:00","11","andria","10.58","1","85.78","1","1.0","1","null","6","null","6","0.0","5","981.56","1","41.231637","16.30298"],
    [1689,"2024-03-11 08:00:00","11","andria","10.15","1","84.96","1","0.0","1","null","6","null","6","62.34","1","982.34","1","41.231637","16.30298"],
    [1690,"2024-03-11 09:00:00","11","andria","13.05","1","72.14","1","0.0","1","null","6","null","6","319.14","1","982.63","1","41.231637","16.30298"],
    [1691,"2024-03-11 10:00:00","11","andria","14.76","1","54.17","1","0.0","1","null","6","null","6","431.99","1","982.99","1","41.231637","16.30298"],
    [1692,"2024-03-11 11:00:00","11","andria","16.09","1","47.67","1","0.0","1","null","6","null","6","662.93","1","983.18","1","41.231637","16.30298"],
    [1693,"2024-03-11 12:00:00","11","andria","16.83","1","46.55","1","0.0","1","null","6","null","6","753.68","1","983.3","1","41.231637","16.30298"],
    [1694,"2024-03-11 13:00:00","11","andria","17.43","1","43.92","1","0.0","1","null","6","null","6","771.31","1","983.1","1","41.231637","16.30298"],
    [1695,"2024-03-11 14:00:00","11","andria","18.19","1","40.24","1","0.0","1","null","6","null","6","707.05","1","983.03","1","41.231637","16.30298"],
    [1696,"2024-03-11 15:00:00","11","andria","16.13","1","54.63","1","0.0","1","null","6","null","6","188.02","1","982.98","1","41.231637","16.30298"],
    [1697,"2024-03-11 16:00:00","11","andria","16.55","1","49.64","1","0.0","1","null","6","null","6","235.14","1","983.38","1","41.231637","16.30298"],
    [1698,"2024-03-11 17:00:00","11","andria","14.52","1","50.62","1","0.0","1","null","6","null","6","98.67","1","983.99","1","41.231637","16.30298"],
    [1699,"2024-03-11 18:00:00","11","andria","13.41","1","50.95","1","0.0","1","null","6","null","6","25.6","1","984.65","1","41.231637","16.30298"],
    [1700,"2024-03-11 19:00:00","11","andria","12.42","1","54.06","1","0.0","1","null","6","null","6","0.0","5","984.98","1","41.231637","16.30298"],
    [1701,"2024-03-11 20:00:00","11","andria","12.44","1","53.4","1","0.0","1","null","6","null","6","0.0","5","985.82","1","41.231637","16.30298"],
    [1702,"2024-03-11 21:00:00","11","andria","12.14","1","54.82","1","0.0","1","null","6","null","6","0.0","5","986.08","1","41.231637","16.30298"],
    [1703,"2024-03-11 22:00:00","11","andria","11.57","1","57.39","1","0.0","1","null","6","null","6","0.0","5","986.21","1","41.231637","16.30298"],
    [1704,"2024-03-11 23:00:00","11","andria","11.1","1","58.27","1","0.0","1","null","6","null","6","0.0","5","986.43","1","41.231637","16.30298"],
    [1705,"2024-03-12 00:00:00","11","andria","10.74","1","59.88","1","0.0","1","null","6","null","6","0.0","5","986.4","1","41.231637","16.30298"],
    [1706,"2024-03-12 01:00:00","11","andria","10.64","1","59.67","1","0.0","1","null","6","null","6","0.0","5","986.22","1","41.231637","16.30298"],
    [1707,"2024-03-12 02:00:00","11","andria","10.42","1","59.15","1","0.0","1","null","6","null","6","0.0","5","985.95","1","41.231637","16.30298"],
    [1708,"2024-03-12 03:00:00","11","andria","10.48","1","53.3","1","0.0","1","null","6","null","6","0.0","5","985.16","1","41.231637","16.30298"],
    [1709,"2024-03-12 04:00:00","11","andria","10.37","1","54.46","1","0.0","1","null","6","null","6","0.0","5","985.44","1","41.231637","16.30298"],
    [1710,"2024-03-12 05:00:00","11","andria","9.54","1","60.28","1","0.0","1","null","6","null","6","0.0","5","985.87","1","41.231637","16.30298"],
    [1711,"2024-03-12 06:00:00","11","andria","8.88","1","63.3","1","0.0","1","null","6","null","6","0.0","1","986.32","1","41.231637","16.30298"],
    [1712,"2024-03-12 07:00:00","11","andria","8.77","1","65.92","1","0.0","1","null","6","null","6","7.3","1","986.61","1","41.231637","16.30298"],
    [1713,"2024-03-12 08:00:00","11","andria","9.42","1","66.48","1","0.0","1","null","6","null","6","98.81","1","987.06","1","41.231637","16.30298"],
    [1714,"2024-03-12 09:00:00","11","andria","11.45","1","60.48","1","0.0","1","null","6","null","6","168.02","1","987.68","1","41.231637","16.30298"],
    [1715,"2024-03-12 10:00:00","11","andria","12.77","1","56.44","1","0.0","1","null","6","null","6","378.11","1","988.13","1","41.231637","16.30298"],
    [1716,"2024-03-12 11:00:00","11","andria","14.22","1","50.65","1","0.0","1","null","6","null","6","565.02","1","987.84","1","41.231637","16.30298"],
    [1717,"2024-03-12 12:00:00","11","andria","14.53","1","50.7","1","0.0","1","null","6","null","6","643.73","1","988.12","1","41.231637","16.30298"],
    [1718,"2024-03-12 13:00:00","11","andria","14.61","1","51.87","1","0.0","1","null","6","null","6","583.33","1","987.96","1","41.231637","16.30298"],
    [1719,"2024-03-12 14:00:00","11","andria","13.93","1","55.73","1","0.0","1","null","6","null","6","501.43","1","988.06","1","41.231637","16.30298"],
    [1720,"2024-03-12 15:00:00","11","andria","13.38","1","58.69","1","0.0","1","null","6","null","6","257.24","1","988.41","1","41.231637","16.30298"],
    [1721,"2024-03-12 16:00:00","11","andria","12.32","1","61.84","1","0.0","1","null","6","null","6","138.84","1","988.75","1","41.231637","16.30298"],
    [1722,"2024-03-12 17:00:00","11","andria","12.05","1","64.28","1","0.0","1","null","6","null","6","57.18","1","989.1","1","41.231637","16.30298"],
    [1723,"2024-03-12 18:00:00","11","andria","11.71","1","69.97","1","0.2","1","null","6","null","6","10.13","1","989.88","1","41.231637","16.30298"],
    [1724,"2024-03-12 19:00:00","11","andria","10.96","1","76.44","1","0.0","1","null","6","null","6","0.0","5","990.2","1","41.231637","16.30298"],
    [1725,"2024-03-12 20:00:00","11","andria","10.43","1","73.95","1","0.0","1","null","6","null","6","0.0","5","990.66","1","41.231637","16.30298"],
    [1726,"2024-03-12 21:00:00","11","andria","9.72","1","73.07","1","0.0","1","null","6","null","6","0.0","5","991.06","1","41.231637","16.30298"],
    [1727,"2024-03-12 22:00:00","11","andria","9.08","1","75.45","1","0.0","1","null","6","null","6","0.0","5","991.64","1","41.231637","16.30298"],
    [1728,"2024-03-12 23:00:00","11","andria","8.92","1","73.67","1","0.0","1","null","6","null","6","0.0","5","991.83","1","41.231637","16.30298"],
    [1729,"2024-03-13 00:00:00","11","andria","9.3","1","74.55","1","0.0","1","null","6","null","6","0.0","5","991.95","1","41.231637","16.30298"],
    [1730,"2024-03-13 01:00:00","11","andria","9.1","1","74.1","1","0.0","1","null","6","null","6","0.0","5","991.93","1","41.231637","16.30298"],
    [1731,"2024-03-13 02:00:00","11","andria","8.82","1","71.92","1","0.0","1","null","6","null","6","0.0","1","991.97","1","41.231637","16.30298"],
    [1732,"2024-03-13 03:00:00","11","andria","9.36","1","67.25","1","0.0","1","null","6","null","6","0.0","5","991.91","1","41.231637","16.30298"],
    [1733,"2024-03-13 04:00:00","11","andria","9.16","1","66.94","1","0.0","1","null","6","null","6","0.0","5","992.03","1","41.231637","16.30298"],
    [1734,"2024-03-13 05:00:00","11","andria","8.64","1","67.07","1","0.0","1","null","6","null","6","0.0","5","992.17","1","41.231637","16.30298"],
    [1735,"2024-03-13 06:00:00","11","andria","8.13","1","69.32","1","0.0","1","null","6","null","6","0.0","5","991.96","1","41.231637","16.30298"],
    [1736,"2024-03-13 07:00:00","11","andria","7.98","1","71.27","1","0.0","1","null","6","null","6","6.01","1","992.12","1","41.231637","16.30298"],
    [1737,"2024-03-13 08:00:00","11","andria","9.74","1","66.22","1","0.0","1","null","6","null","6","186.54","1","992.39","1","41.231637","16.30298"],
    [1738,"2024-03-13 09:00:00","11","andria","12.11","1","62.03","1","0.0","1","null","6","null","6","330.09","1","992.92","1","41.231637","16.30298"],
    [1739,"2024-03-13 10:00:00","11","andria","13.6","1","56.81","1","0.0","1","null","6","null","6","434.49","1","993.25","1","41.231637","16.30298"],
    [1740,"2024-03-13 11:00:00","11","andria","15.14","1","48.83","1","0.0","1","null","6","null","6","587.39","1","992.87","1","41.231637","16.30298"],
    [1741,"2024-03-13 12:00:00","11","andria","15.65","1","44.12","1","0.0","1","null","6","null","6","639.81","1","993.08","1","41.231637","16.30298"],
    [1742,"2024-03-13 13:00:00","11","andria","16.29","1","40.42","1","0.0","1","null","6","null","6","722.73","1","992.72","1","41.231637","16.30298"],
    [1743,"2024-03-13 14:00:00","11","andria","15.9","1","43.06","1","0.0","1","null","6","null","6","442.34","1","992.24","1","41.231637","16.30298"],
    [1744,"2024-03-13 15:00:00","11","andria","15.91","1","49.1","1","0.0","1","null","6","null","6","493.03","1","992.53","1","41.231637","16.30298"],
    [1745,"2024-03-13 16:00:00","11","andria","14.9","1","51.19","1","0.0","1","null","6","null","6","170.31","1","992.5","1","41.231637","16.30298"],
    [1746,"2024-03-13 17:00:00","11","andria","13.45","1","53.71","1","0.0","1","null","6","null","6","57.22","1","992.36","1","41.231637","16.30298"],
    [1747,"2024-03-13 18:00:00","11","andria","12.46","1","59.52","1","0.0","1","null","6","null","6","11.84","1","992.9","1","41.231637","16.30298"],
    [1748,"2024-03-13 19:00:00","11","andria","11.65","1","63.67","1","0.0","1","null","6","null","6","0.0","5","993.61","1","41.231637","16.30298"],
    [1749,"2024-03-13 20:00:00","11","andria","10.67","1","68.36","1","0.0","1","null","6","null","6","0.0","5","993.93","1","41.231637","16.30298"],
    [1750,"2024-03-13 21:00:00","11","andria","10.29","1","69.89","1","0.0","1","null","6","null","6","0.0","5","994.32","1","41.231637","16.30298"],
    [1751,"2024-03-13 22:00:00","11","andria","9.71","1","70.13","1","0.0","1","null","6","null","6","0.0","5","994.78","1","41.231637","16.30298"],
    [1752,"2024-03-13 23:00:00","11","andria","9.25","1","67.06","1","0.0","1","null","6","null","6","0.0","5","994.77","1","41.231637","16.30298"],
    [1753,"2024-03-14 00:00:00","11","andria","9.36","1","62.64","1","0.0","1","null","6","null","6","0.0","5","994.81","1","41.231637","16.30298"],
    [1754,"2024-03-14 01:00:00","11","andria","9.23","1","59.17","1","0.0","1","null","6","null","6","0.0","5","994.99","1","41.231637","16.30298"],
    [1755,"2024-03-14 02:00:00","11","andria","9.16","1","56.88","1","0.0","1","null","6","null","6","0.0","5","994.9","1","41.231637","16.30298"],
    [1756,"2024-03-14 03:00:00","11","andria","8.98","1","55.12","1","0.0","1","null","6","null","6","0.0","5","994.72","1","41.231637","16.30298"],
    [1757,"2024-03-14 04:00:00","11","andria","8.81","1","53.32","1","0.0","1","null","6","null","6","0.0","1","994.42","1","41.231637","16.30298"],
    [1758,"2024-03-14 05:00:00","11","andria","9.05","1","49.26","1","0.0","1","null","6","null","6","0.0","5","994.62","1","41.231637","16.30298"],
    [1759,"2024-03-14 06:00:00","11","andria","8.86","1","49.96","1","0.0","1","null","6","null","6","0.0","5","994.96","1","41.231637","16.30298"],
    [1760,"2024-03-14 07:00:00","11","andria","9.14","1","47.94","1","0.0","1","null","6","null","6","7.62","1","995.0","1","41.231637","16.30298"],
    [1761,"2024-03-14 08:00:00","11","andria","11.28","1","42.7","1","0.0","1","null","6","null","6","197.23","1","995.4","1","41.231637","16.30298"],
    [1762,"2024-03-14 09:00:00","11","andria","14.01","1","39.01","1","0.0","1","null","6","null","6","346.41","1","995.1","1","41.231637","16.30298"],
    [1763,"2024-03-14 10:00:00","11","andria","15.4","1","35.04","1","0.0","1","null","6","null","6","468.2","1","995.15","1","41.231637","16.30298"],
    [1764,"2024-03-14 11:00:00","11","andria","17.01","1","29.58","1","0.0","1","null","6","null","6","691.39","1","995.37","1","41.231637","16.30298"],
    [1765,"2024-03-14 12:00:00","11","andria","17.74","1","30.17","1","0.0","1","null","6","null","6","769.43","1","994.96","1","41.231637","16.30298"],
    [1766,"2024-03-14 13:00:00","11","andria","18.13","1","28.08","1","0.0","1","null","6","null","6","747.3","1","994.82","1","41.231637","16.30298"],
    [1767,"2024-03-14 14:00:00","11","andria","18.13","1","26.32","1","0.0","1","null","6","null","6","688.74","1","994.24","1","41.231637","16.30298"],
    [1768,"2024-03-14 15:00:00","11","andria","18.8","1","29.96","1","0.0","1","null","6","null","6","537.57","1","994.21","1","41.231637","16.30298"],
    [1769,"2024-03-14 16:00:00","11","andria","17.32","1","37.97","1","0.0","1","null","6","null","6","296.99","1","994.16","1","41.231637","16.30298"],
    [1770,"2024-03-14 17:00:00","11","andria","15.17","1","43.35","1","0.0","1","null","6","null","6","55.3","1","994.51","1","41.231637","16.30298"],
    [1771,"2024-03-14 18:00:00","11","andria","13.82","1","49.15","1","0.0","1","null","6","null","6","20.01","1","994.55","1","41.231637","16.30298"],
    [1772,"2024-03-14 19:00:00","11","andria","12.86","1","52.84","1","0.0","1","null","6","null","6","0.0","5","995.1","1","41.231637","16.30298"],
    [1773,"2024-03-14 20:00:00","11","andria","12.27","1","52.01","1","0.0","1","null","6","null","6","0.0","5","995.39","1","41.231637","16.30298"],
    [1774,"2024-03-14 21:00:00","11","andria","10.92","1","55.03","1","0.0","1","null","6","null","6","0.0","5","995.61","1","41.231637","16.30298"],
    [1775,"2024-03-14 22:00:00","11","andria","10.47","1","57.06","1","0.0","1","null","6","null","6","0.0","5","995.67","1","41.231637","16.30298"],
    [1776,"2024-03-14 23:00:00","11","andria","10.8","1","54.8","1","0.0","1","null","6","null","6","0.0","5","995.61","1","41.231637","16.30298"],
    [1777,"2024-03-15 00:00:00","11","andria","11.26","1","59.88","1","0.0","1","null","6","null","6","0.0","5","995.53","1","41.231637","16.30298"],
    [1778,"2024-03-15 01:00:00","11","andria","10.86","1","63.47","1","0.0","1","null","6","null","6","0.0","5","995.18","1","41.231637","16.30298"],
    [1779,"2024-03-15 02:00:00","11","andria","10.22","1","66.52","1","0.0","1","null","6","null","6","0.0","5","995.49","1","41.231637","16.30298"],
    [1780,"2024-03-15 03:00:00","11","andria","9.99","1","66.83","1","0.0","1","null","6","null","6","0.0","5","995.11","1","41.231637","16.30298"],
    [1781,"2024-03-15 04:00:00","11","andria","9.67","1","69.58","1","0.0","1","null","6","null","6","0.0","5","995.05","1","41.231637","16.30298"],
    [1782,"2024-03-15 05:00:00","11","andria","9.67","1","69.6","1","0.0","1","null","6","null","6","0.0","5","994.74","1","41.231637","16.30298"],
    [1783,"2024-03-15 06:00:00","11","andria","9.7","1","69.75","1","0.0","1","null","6","null","6","0.0","5","994.79","1","41.231637","16.30298"],
    [1784,"2024-03-15 07:00:00","11","andria","9.96","1","68.3","1","0.0","1","null","6","null","6","8.26","1","995.12","1","41.231637","16.30298"],
    [1785,"2024-03-15 08:00:00","11","andria","11.27","1","63.28","1","0.0","1","null","6","null","6","107.36","1","995.38","1","41.231637","16.30298"],
    [1786,"2024-03-15 09:00:00","11","andria","14.61","1","53.58","1","0.0","1","null","6","null","6","319.04","1","995.05","1","41.231637","16.30298"],
    [1787,"2024-03-15 10:00:00","11","andria","16.48","1","45.57","1","0.0","1","null","6","null","6","456.54","1","995.21","1","41.231637","16.30298"],
    [1788,"2024-03-15 11:00:00","11","andria","18.45","1","40.65","1","0.0","1","null","6","null","6","690.04","1","995.08","1","41.231637","16.30298"],
    [1789,"2024-03-15 12:00:00","11","andria","19.53","1","35.94","1","0.0","1","null","6","null","6","761.67","1","994.84","1","41.231637","16.30298"],
    [1790,"2024-03-15 13:00:00","11","andria","20.58","1","31.56","1","0.0","1","null","6","null","6","739.79","1","994.15","1","41.231637","16.30298"],
    [1791,"2024-03-15 14:00:00","11","andria","20.48","1","29.28","1","0.0","1","null","6","null","6","616.39","1","993.44","1","41.231637","16.30298"],
    [1792,"2024-03-15 15:00:00","11","andria","20.21","1","40.69","1","0.0","1","null","6","null","6","362.22","1","993.36","1","41.231637","16.30298"],
    [1793,"2024-03-15 16:00:00","11","andria","19.4","1","44.91","1","0.0","1","null","6","null","6","255.01","1","993.26","1","41.231637","16.30298"],
    [1794,"2024-03-15 17:00:00","11","andria","17.18","1","52.68","1","0.0","1","null","6","null","6","63.61","1","993.57","1","41.231637","16.30298"],
    [1795,"2024-03-15 18:00:00","11","andria","15.48","1","55.43","1","0.0","1","null","6","null","6","18.66","1","993.92","1","41.231637","16.30298"],
    [1796,"2024-03-15 19:00:00","11","andria","13.9","1","61.41","1","0.0","1","null","6","null","6","0.0","1","994.4","1","41.231637","16.30298"],
    [1797,"2024-03-15 20:00:00","11","andria","13.53","1","65.19","1","0.0","1","null","6","null","6","0.0","1","994.83","1","41.231637","16.30298"],
    [1798,"2024-03-15 21:00:00","11","andria","13.42","1","61.57","1","0.0","1","null","6","null","6","0.0","1","995.25","1","41.231637","16.30298"],
    [1799,"2024-03-15 22:00:00","11","andria","12.85","1","63.4","1","0.0","1","null","6","null","6","0.0","1","995.47","1","41.231637","16.30298"],
    [1800,"2024-03-15 23:00:00","11","andria","12.42","1","64.92","1","0.0","1","null","6","null","6","0.0","1","995.67","1","41.231637","16.30298"],
    [1801,"2024-03-16 00:00:00","11","andria","11.97","1","66.34","1","0.0","1","null","6","null","6","0.0","1","995.93","1","41.231637","16.30298"],
    [1802,"2024-03-16 01:00:00","11","andria","11.51","1","68.15","1","0.0","1","null","6","null","6","0.0","1","996.11","1","41.231637","16.30298"],
    [1803,"2024-03-16 02:00:00","11","andria","11.21","1","68.13","1","0.0","1","null","6","null","6","0.0","1","996.04","1","41.231637","16.30298"],
    [1804,"2024-03-16 03:00:00","11","andria","11.11","1","66.88","1","0.0","1","null","6","null","6","0.0","1","995.86","1","41.231637","16.30298"],
    [1805,"2024-03-16 04:00:00","11","andria","11.07","1","65.51","1","0.0","1","null","6","null","6","0.0","5","995.76","1","41.231637","16.30298"],
    [1806,"2024-03-16 05:00:00","11","andria","10.66","1","65.97","1","0.0","1","null","6","null","6","0.0","5","995.85","1","41.231637","16.30298"],
    [1807,"2024-03-16 06:00:00","11","andria","10.73","1","64.59","1","0.0","1","null","6","null","6","0.0","1","996.04","1","41.231637","16.30298"],
    [1808,"2024-03-16 07:00:00","11","andria","10.84","1","63.37","1","0.0","1","null","6","null","6","17.47","1","996.09","1","41.231637","16.30298"],
    [1809,"2024-03-16 08:00:00","11","andria","11.81","1","60.24","1","0.0","1","null","6","null","6","111.86","1","996.26","1","41.231637","16.30298"],
    [1810,"2024-03-16 09:00:00","11","andria","14.38","1","52.68","1","0.0","1","null","6","null","6","301.06","1","996.2","1","41.231637","16.30298"],
    [1811,"2024-03-16 10:00:00","11","andria","15.62","1","50.3","1","0.0","1","null","6","null","6","414.25","1","996.22","1","41.231637","16.30298"],
    [1812,"2024-03-16 11:00:00","11","andria","17.19","1","46.03","1","0.0","1","null","6","null","6","659.19","1","996.19","1","41.231637","16.30298"],
    [1813,"2024-03-16 12:00:00","11","andria","17.87","1","44.54","1","0.0","1","null","6","null","6","557.59","1","995.75","1","41.231637","16.30298"],
    [1814,"2024-03-16 13:00:00","11","andria","17.12","1","48.89","1","0.0","1","null","6","null","6","548.55","1","995.5","1","41.231637","16.30298"],
    [1815,"2024-03-16 14:00:00","11","andria","16.12","1","52.0","1","0.0","1","null","6","null","6","193.6","1","995.17","1","41.231637","16.30298"],
    [1816,"2024-03-16 15:00:00","11","andria","15.06","1","55.59","1","0.0","1","null","6","null","6","122.05","1","995.59","1","41.231637","16.30298"],
    [1817,"2024-03-16 16:00:00","11","andria","14.92","1","58.33","1","0.0","1","null","6","null","6","146.81","1","995.46","1","41.231637","16.30298"],
    [1818,"2024-03-16 17:00:00","11","andria","14.95","1","59.56","1","0.0","1","null","6","null","6","121.26","1","995.27","1","41.231637","16.30298"],
    [1819,"2024-03-16 18:00:00","11","andria","13.9","1","68.4","1","0.0","1","null","6","null","6","38.25","1","995.81","1","41.231637","16.30298"],
    [1820,"2024-03-16 19:00:00","11","andria","12.61","1","83.0","1","0.0","1","null","6","null","6","0.0","1","996.28","1","41.231637","16.30298"],
    [1821,"2024-03-16 20:00:00","11","andria","12.4","1","83.62","1","0.0","1","null","6","null","6","0.0","5","996.73","1","41.231637","16.30298"],
    [1822,"2024-03-16 21:00:00","11","andria","12.22","1","82.65","1","0.0","1","null","6","null","6","0.0","1","997.23","1","41.231637","16.30298"],
    [1823,"2024-03-16 22:00:00","11","andria","12.07","1","83.76","1","0.0","1","null","6","null","6","0.0","5","997.28","1","41.231637","16.30298"],
    [1824,"2024-03-16 23:00:00","11","andria","11.75","1","82.01","1","0.0","1","null","6","null","6","0.0","1","997.55","1","41.231637","16.30298"],
    [1825,"2024-03-17 00:00:00","11","andria","11.9","1","76.99","1","0.0","1","null","6","null","6","0.0","5","997.65","1","41.231637","16.30298"],
    [1826,"2024-03-17 01:00:00","11","andria","11.77","1","76.18","1","0.0","1","null","6","null","6","0.0","5","997.61","1","41.231637","16.30298"],
    [1827,"2024-03-17 02:00:00","11","andria","11.69","1","77.21","1","0.0","1","null","6","null","6","0.0","1","997.57","1","41.231637","16.30298"],
    [1828,"2024-03-17 03:00:00","11","andria","11.36","1","78.4","1","0.0","1","null","6","null","6","0.0","5","997.58","1","41.231637","16.30298"],
    [1829,"2024-03-17 04:00:00","11","andria","11.19","1","80.75","1","0.0","1","null","6","null","6","0.0","5","997.33","1","41.231637","16.30298"],
    [1830,"2024-03-17 05:00:00","11","andria","11.12","1","81.08","1","0.0","1","null","6","null","6","0.0","5","997.16","1","41.231637","16.30298"],
    [1831,"2024-03-17 06:00:00","11","andria","10.72","1","82.06","1","0.0","1","null","6","null","6","0.0","5","997.32","1","41.231637","16.30298"],
    [1832,"2024-03-17 07:00:00","11","andria","10.45","1","81.3","1","0.0","1","null","6","null","6","11.72","1","997.85","1","41.231637","16.30298"],
    [1833,"2024-03-17 08:00:00","11","andria","11.6","1","76.21","1","0.0","1","null","6","null","6","178.66","1","997.97","1","41.231637","16.30298"],
    [1834,"2024-03-17 09:00:00","11","andria","13.74","1","65.88","1","0.0","1","null","6","null","6","340.69","1","998.54","1","41.231637","16.30298"],
    [1835,"2024-03-17 10:00:00","11","andria","15.22","1","59.78","1","0.0","1","null","6","null","6","482.32","1","998.77","1","41.231637","16.30298"],
    [1836,"2024-03-17 11:00:00","11","andria","16.36","1","54.57","1","0.0","1","null","6","null","6","558.3","1","998.68","1","41.231637","16.30298"],
    [1837,"2024-03-17 12:00:00","11","andria","16.71","1","50.97","1","0.0","1","null","6","null","6","460.77","1","998.2","1","41.231637","16.30298"],
    [1838,"2024-03-17 13:00:00","11","andria","16.38","1","52.27","1","0.0","1","null","6","null","6","365.78","1","998.22","1","41.231637","16.30298"],
    [1839,"2024-03-17 14:00:00","11","andria","17.17","1","48.0","1","0.0","1","null","6","null","6","377.78","1","997.63","1","41.231637","16.30298"],
    [1840,"2024-03-17 15:00:00","11","andria","17.93","1","47.54","1","0.0","1","null","6","null","6","453.57","1","997.04","1","41.231637","16.30298"],
    [1841,"2024-03-17 16:00:00","11","andria","17.83","1","48.17","1","0.0","1","null","6","null","6","258.76","1","996.77","1","41.231637","16.30298"],
    [1842,"2024-03-17 17:00:00","11","andria","16.61","1","50.0","1","0.0","1","null","6","null","6","58.65","1","996.8","1","41.231637","16.30298"],
    [1843,"2024-03-17 18:00:00","11","andria","15.68","1","54.4","1","0.0","1","null","6","null","6","25.6","1","997.13","1","41.231637","16.30298"],
    [1844,"2024-03-17 19:00:00","11","andria","14.24","1","61.11","1","0.0","1","null","6","null","6","0.0","5","997.55","1","41.231637","16.30298"],
    [1845,"2024-03-17 20:00:00","11","andria","13.45","1","63.38","1","0.0","1","null","6","null","6","0.0","5","997.69","1","41.231637","16.30298"],
    [1846,"2024-03-17 21:00:00","11","andria","13.07","1","60.72","1","0.0","1","null","6","null","6","0.0","1","997.64","1","41.231637","16.30298"],
    [1847,"2024-03-17 22:00:00","11","andria","12.39","1","61.11","1","0.0","1","null","6","null","6","0.0","1","997.81","1","41.231637","16.30298"],
    [1848,"2024-03-17 23:00:00","11","andria","12.05","1","63.32","1","0.0","1","null","6","null","6","0.0","1","997.7","1","41.231637","16.30298"],
    [1849,"2024-03-18 00:00:00","11","andria","11.94","1","65.07","1","0.0","1","null","6","null","6","0.0","1","997.45","1","41.231637","16.30298"],
    [1850,"2024-03-18 01:00:00","11","andria","11.61","1","66.61","1","0.0","1","null","6","null","6","0.0","5","997.03","1","41.231637","16.30298"],
    [1851,"2024-03-18 02:00:00","11","andria","10.99","1","66.81","1","0.0","1","null","6","null","6","0.0","5","996.52","1","41.231637","16.30298"],
    [1852,"2024-03-18 03:00:00","11","andria","10.91","1","67.98","1","0.0","1","null","6","null","6","0.0","5","995.84","1","41.231637","16.30298"],
    [1853,"2024-03-18 04:00:00","11","andria","11.57","1","66.56","1","0.0","1","null","6","null","6","0.0","5","995.25","1","41.231637","16.30298"],
    [1854,"2024-03-18 05:00:00","11","andria","11.63","1","66.65","1","0.0","1","null","6","null","6","0.0","1","994.83","1","41.231637","16.30298"],
    [1855,"2024-03-18 06:00:00","11","andria","12.05","1","63.78","1","0.0","1","null","6","null","6","0.0","1","994.64","1","41.231637","16.30298"],
    [1856,"2024-03-18 07:00:00","11","andria","12.03","1","63.07","1","0.0","1","null","6","null","6","15.87","1","994.54","1","41.231637","16.30298"],
    [1857,"2024-03-18 08:00:00","11","andria","13.74","1","57.55","1","0.0","1","null","6","null","6","189.73","1","994.29","1","41.231637","16.30298"],
    [1858,"2024-03-18 09:00:00","11","andria","17.33","1","46.27","1","0.0","1","null","6","null","6","324.44","1","993.9","1","41.231637","16.30298"],
    [1859,"2024-03-18 10:00:00","11","andria","18.52","1","39.78","1","0.0","1","null","6","null","6","503.29","1","993.51","1","41.231637","16.30298"],
    [1860,"2024-03-18 11:00:00","11","andria","19.27","1","40.8","1","0.0","1","null","6","null","6","652.27","1","992.91","1","41.231637","16.30298"],
    [1861,"2024-03-18 12:00:00","11","andria","20.11","1","39.07","1","0.0","1","null","6","null","6","698.19","1","992.4","1","41.231637","16.30298"],
    [1862,"2024-03-18 13:00:00","11","andria","20.35","1","35.52","1","0.0","1","null","6","null","6","528.12","1","991.45","1","41.231637","16.30298"],
    [1863,"2024-03-18 14:00:00","11","andria","19.62","1","38.34","1","0.0","1","null","6","null","6","402.53","1","991.06","1","41.231637","16.30298"],
    [1864,"2024-03-18 15:00:00","11","andria","19.12","1","42.19","1","0.0","1","null","6","null","6","268.78","1","990.7","1","41.231637","16.30298"],
    [1865,"2024-03-18 16:00:00","11","andria","18.21","1","45.99","1","0.0","1","null","6","null","6","125.06","1","990.44","1","41.231637","16.30298"],
    [1866,"2024-03-18 17:00:00","11","andria","17.26","1","49.15","1","0.0","1","null","6","null","6","63.41","1","990.35","1","41.231637","16.30298"],
    [1867,"2024-03-18 18:00:00","11","andria","15.96","1","54.04","1","0.0","1","null","6","null","6","13.02","1","990.68","1","41.231637","16.30298"],
    [1868,"2024-03-18 19:00:00","11","andria","15.04","1","59.24","1","0.0","1","null","6","null","6","0.0","5","990.63","1","41.231637","16.30298"],
    [1869,"2024-03-18 20:00:00","11","andria","14.21","1","65.67","1","0.0","1","null","6","null","6","0.0","5","990.85","1","41.231637","16.30298"],
    [1870,"2024-03-18 21:00:00","11","andria","13.32","1","72.75","1","0.0","1","null","6","null","6","0.0","1","990.58","1","41.231637","16.30298"],
    [1871,"2024-03-18 22:00:00","11","andria","13.12","1","74.74","1","0.2","1","null","6","null","6","0.0","5","990.56","1","41.231637","16.30298"],
    [1872,"2024-03-18 23:00:00","11","andria","12.35","1","83.47","1","1.8","1","null","6","null","6","0.0","5","990.87","1","41.231637","16.30298"],
    [1873,"2024-03-19 00:00:00","11","andria","11.56","1","88.8","1","1.6","1","null","6","null","6","0.0","5","990.4","1","41.231637","16.30298"],
    [1874,"2024-03-19 01:00:00","11","andria","11.3","1","90.83","1","0.0","1","null","6","null","6","0.0","5","989.86","1","41.231637","16.30298"],
    [1875,"2024-03-19 02:00:00","11","andria","11.19","1","91.7","1","0.0","1","null","6","null","6","0.0","5","989.5","1","41.231637","16.30298"],
    [1876,"2024-03-19 03:00:00","11","andria","11.16","1","91.89","1","0.0","1","null","6","null","6","0.0","5","988.98","1","41.231637","16.30298"],
    [1877,"2024-03-19 04:00:00","11","andria","11.26","1","92.64","1","0.4","1","null","6","null","6","0.0","5","988.87","1","41.231637","16.30298"],
    [1878,"2024-03-19 05:00:00","11","andria","11.19","1","94.51","1","0.8","1","null","6","null","6","0.0","1","988.9","1","41.231637","16.30298"],
    [1879,"2024-03-19 06:00:00","11","andria","11.13","1","96.25","1","0.8","1","null","6","null","6","0.0","5","989.27","1","41.231637","16.30298"],
    [1880,"2024-03-19 07:00:00","11","andria","10.87","1","97.23","1","0.8","1","null","6","null","6","6.32","1","989.97","1","41.231637","16.30298"],
    [1881,"2024-03-19 08:00:00","11","andria","10.89","1","97.31","1","0.2","1","null","6","null","6","24.55","1","990.6","1","41.231637","16.30298"],
    [1882,"2024-03-19 09:00:00","11","andria","10.82","1","97.31","1","0.4","1","null","6","null","6","26.14","1","991.35","1","41.231637","16.30298"],
    [1883,"2024-03-19 10:00:00","11","andria","10.99","1","97.3","1","0.6","1","null","6","null","6","81.55","1","991.83","1","41.231637","16.30298"],
    [1884,"2024-03-19 11:00:00","11","andria","11.1","1","97.27","1","3.2","1","null","6","null","6","84.45","1","992.23","1","41.231637","16.30298"],
    [1885,"2024-03-19 12:00:00","11","andria","12.07","1","94.87","1","0.0","1","null","6","null","6","450.99","1","992.34","1","41.231637","16.30298"],
    [1886,"2024-03-19 13:00:00","11","andria","14.09","1","75.69","1","0.0","1","null","6","null","6","529.46","1","992.12","1","41.231637","16.30298"],
    [1887,"2024-03-19 14:00:00","11","andria","14.47","1","68.57","1","0.0","1","null","6","null","6","343.73","1","992.05","1","41.231637","16.30298"],
    [1888,"2024-03-19 15:00:00","11","andria","13.39","1","75.6","1","0.0","1","null","6","null","6","138.75","1","992.21","1","41.231637","16.30298"],
    [1889,"2024-03-19 16:00:00","11","andria","14.84","1","68.9","1","0.0","1","null","6","null","6","285.56","1","991.93","1","41.231637","16.30298"],
    [1890,"2024-03-19 17:00:00","11","andria","14.47","1","62.85","1","0.0","1","null","6","null","6","54.41","1","992.13","1","41.231637","16.30298"],
    [1891,"2024-03-19 18:00:00","11","andria","13.81","1","65.5","1","0.0","1","null","6","null","6","20.57","1","992.91","1","41.231637","16.30298"],
    [1892,"2024-03-19 19:00:00","11","andria","12.92","1","70.27","1","0.0","1","null","6","null","6","0.0","5","993.58","1","41.231637","16.30298"],
    [1893,"2024-03-19 20:00:00","11","andria","11.69","1","76.0","1","0.0","1","null","6","null","6","0.0","1","994.25","1","41.231637","16.30298"],
    [1894,"2024-03-19 21:00:00","11","andria","10.68","1","77.47","1","0.0","1","null","6","null","6","0.0","1","995.04","1","41.231637","16.30298"],
    [1895,"2024-03-19 22:00:00","11","andria","10.29","1","75.39","1","0.0","1","null","6","null","6","0.0","1","995.39","1","41.231637","16.30298"],
    [1896,"2024-03-19 23:00:00","11","andria","9.75","1","79.18","1","0.0","1","null","6","null","6","0.0","1","995.55","1","41.231637","16.30298"],
    [1897,"2024-03-20 00:00:00","11","andria","9.22","1","81.02","1","0.0","1","null","6","null","6","0.0","5","995.82","1","41.231637","16.30298"],
    [1898,"2024-03-20 01:00:00","11","andria","8.92","1","82.01","1","0.0","1","null","6","null","6","0.0","5","996.21","1","41.231637","16.30298"],
    [1899,"2024-03-20 02:00:00","11","andria","8.72","1","80.99","1","0.0","1","null","6","null","6","0.0","5","996.36","1","41.231637","16.30298"],
    [1900,"2024-03-20 03:00:00","11","andria","8.18","1","83.63","1","0.0","1","null","6","null","6","0.0","1","996.25","1","41.231637","16.30298"],
    [1901,"2024-03-20 04:00:00","11","andria","7.83","1","83.83","1","0.0","1","null","6","null","6","0.0","1","996.16","1","41.231637","16.30298"],
    [1902,"2024-03-20 05:00:00","11","andria","7.53","1","82.14","1","0.0","1","null","6","null","6","0.0","5","996.21","1","41.231637","16.30298"],
    [1903,"2024-03-20 06:00:00","11","andria","7.38","1","79.37","1","0.0","1","null","6","null","6","0.0","1","996.52","1","41.231637","16.30298"],
    [1904,"2024-03-20 07:00:00","11","andria","7.31","1","77.18","1","0.0","1","null","6","null","6","12.04","1","997.16","1","41.231637","16.30298"],
    [1905,"2024-03-20 08:00:00","11","andria","8.99","1","71.26","1","0.0","1","null","6","null","6","192.91","1","997.63","1","41.231637","16.30298"],
    [1906,"2024-03-20 09:00:00","11","andria","11.78","1","62.77","1","0.0","1","null","6","null","6","392.06","1","997.97","1","41.231637","16.30298"],
    [1907,"2024-03-20 10:00:00","11","andria","13.27","1","57.3","1","0.0","1","null","6","null","6","527.78","1","998.11","1","41.231637","16.30298"],
    [1908,"2024-03-20 11:00:00","11","andria","14.58","1","50.9","1","0.0","1","null","6","null","6","686.19","1","998.36","1","41.231637","16.30298"],
    [1909,"2024-03-20 12:00:00","11","andria","15.64","1","45.69","1","0.0","1","null","6","null","6","716.55","1","998.34","1","41.231637","16.30298"],
    [1910,"2024-03-20 13:00:00","11","andria","16.36","1","41.88","1","0.2","1","null","6","null","6","724.15","1","997.89","1","41.231637","16.30298"],
    [1911,"2024-03-20 14:00:00","11","andria","15.77","1","42.77","1","0.0","1","null","6","null","6","684.46","1","997.85","1","41.231637","16.30298"],
    [1912,"2024-03-20 15:00:00","11","andria","17.01","1","41.99","1","0.0","1","null","6","null","6","573.82","1","997.76","1","41.231637","16.30298"],
    [1913,"2024-03-20 16:00:00","11","andria","15.4","1","47.29","1","0.0","1","null","6","null","6","276.1","1","997.86","1","41.231637","16.30298"],
    [1914,"2024-03-20 17:00:00","11","andria","13.37","1","47.48","1","0.0","1","null","6","null","6","50.34","1","998.29","1","41.231637","16.30298"],
    [1915,"2024-03-20 18:00:00","11","andria","12.56","1","51.79","1","0.0","1","null","6","null","6","22.15","1","999.03","1","41.231637","16.30298"],
    [1916,"2024-03-20 19:00:00","11","andria","11.45","1","57.94","1","0.0","1","null","6","null","6","0.0","5","999.22","1","41.231637","16.30298"],
    [1917,"2024-03-20 20:00:00","11","andria","10.81","1","61.21","1","0.0","1","null","6","null","6","0.0","5","999.68","1","41.231637","16.30298"],
    [1918,"2024-03-20 21:00:00","11","andria","9.88","1","64.18","1","0.0","1","null","6","null","6","0.0","5","1000.11","1","41.231637","16.30298"],
    [1919,"2024-03-20 22:00:00","11","andria","8.97","1","60.29","1","0.0","1","null","6","null","6","0.0","1","1000.28","1","41.231637","16.30298"],
    [1920,"2024-03-20 23:00:00","11","andria","8.96","1","53.9","1","0.0","1","null","6","null","6","0.0","5","1000.34","1","41.231637","16.30298"],
    [1921,"2024-03-21 00:00:00","11","andria","8.73","1","55.69","1","0.0","1","null","6","null","6","0.0","5","1000.42","1","41.231637","16.30298"],
    [1922,"2024-03-21 01:00:00","11","andria","8.61","1","53.86","1","0.0","1","null","6","null","6","0.0","5","1000.29","1","41.231637","16.30298"],
    [1923,"2024-03-21 02:00:00","11","andria","8.78","1","45.22","1","0.0","1","null","6","null","6","0.0","1","1000.35","1","41.231637","16.30298"],
    [1924,"2024-03-21 03:00:00","11","andria","8.4","1","42.25","1","0.0","1","null","6","null","6","0.0","5","1000.11","1","41.231637","16.30298"],
    [1925,"2024-03-21 04:00:00","11","andria","8.0","1","45.64","1","0.0","1","null","6","null","6","0.0","1","999.94","1","41.231637","16.30298"],
    [1926,"2024-03-21 05:00:00","11","andria","8.18","1","46.24","1","0.0","1","null","6","null","6","0.0","1","999.79","1","41.231637","16.30298"],
    [1927,"2024-03-21 06:00:00","11","andria","8.6","1","45.67","1","0.0","1","null","6","null","6","0.0","5","999.92","1","41.231637","16.30298"],
    [1928,"2024-03-21 07:00:00","11","andria","8.93","1","46.12","1","0.0","1","null","6","null","6","10.91","1","1000.08","1","41.231637","16.30298"],
    [1929,"2024-03-21 08:00:00","11","andria","10.93","1","44.07","1","0.0","1","null","6","null","6","191.38","1","1000.27","1","41.231637","16.30298"],
    [1930,"2024-03-21 09:00:00","11","andria","14.26","1","41.41","1","0.0","1","null","6","null","6","400.46","1","999.97","1","41.231637","16.30298"],
    [1931,"2024-03-21 10:00:00","11","andria","16.16","1","38.88","1","0.0","1","null","6","null","6","539.06","1","1000.04","1","41.231637","16.30298"],
    [1932,"2024-03-21 11:00:00","11","andria","17.88","1","33.99","1","0.0","1","null","6","null","6","740.89","1","999.91","1","41.231637","16.30298"],
    [1933,"2024-03-21 12:00:00","11","andria","19.08","1","34.0","1","0.0","1","null","6","null","6","793.16","1","999.32","1","41.231637","16.30298"],
    [1934,"2024-03-21 13:00:00","11","andria","19.39","1","40.13","1","0.0","1","null","6","null","6","771.0","1","998.45","1","41.231637","16.30298"],
    [1935,"2024-03-21 14:00:00","11","andria","19.94","1","36.41","1","0.0","1","null","6","null","6","711.13","1","997.72","1","41.231637","16.30298"],
    [1936,"2024-03-21 15:00:00","11","andria","21.26","1","34.71","1","0.0","1","null","6","null","6","567.23","1","997.08","1","41.231637","16.30298"],
    [1937,"2024-03-21 16:00:00","11","andria","19.93","1","34.3","1","0.0","1","null","6","null","6","291.37","1","996.45","1","41.231637","16.30298"],
    [1938,"2024-03-21 17:00:00","11","andria","17.7","1","36.56","1","0.0","1","null","6","null","6","48.66","1","996.19","1","41.231637","16.30298"],
    [1939,"2024-03-21 18:00:00","11","andria","16.89","1","39.16","1","0.0","1","null","6","null","6","21.51","1","995.79","1","41.231637","16.30298"],
    [1940,"2024-03-21 19:00:00","11","andria","14.84","1","38.24","1","0.0","1","null","6","null","6","0.0","5","995.83","1","41.231637","16.30298"],
    [1941,"2024-03-21 20:00:00","11","andria","14.7","1","47.08","1","0.0","1","null","6","null","6","0.0","5","996.3","1","41.231637","16.30298"],
    [1942,"2024-03-21 21:00:00","11","andria","14.5","1","55.84","1","0.0","1","null","6","null","6","0.0","5","996.68","1","41.231637","16.30298"],
    [1943,"2024-03-21 22:00:00","11","andria","13.71","1","61.71","1","0.0","1","null","6","null","6","0.0","5","996.53","1","41.231637","16.30298"],
    [1944,"2024-03-21 23:00:00","11","andria","13.34","1","62.95","1","0.0","1","null","6","null","6","0.0","5","996.23","1","41.231637","16.30298"],
    [1945,"2024-03-22 00:00:00","11","andria","13.22","1","62.38","1","0.0","1","null","6","null","6","0.0","5","995.86","1","41.231637","16.30298"],
    [1946,"2024-03-22 01:00:00","11","andria","13.31","1","60.92","1","0.0","1","null","6","null","6","0.0","5","995.4","1","41.231637","16.30298"],
    [1947,"2024-03-22 02:00:00","11","andria","13.55","1","58.21","1","0.0","1","null","6","null","6","0.0","5","994.74","1","41.231637","16.30298"],
    [1948,"2024-03-22 03:00:00","11","andria","13.37","1","59.92","1","0.0","1","null","6","null","6","0.0","5","994.77","1","41.231637","16.30298"],
    [1949,"2024-03-22 04:00:00","11","andria","12.97","1","64.02","1","0.0","1","null","6","null","6","0.0","5","994.89","1","41.231637","16.30298"],
    [1950,"2024-03-22 05:00:00","11","andria","12.21","1","72.96","1","0.0","1","null","6","null","6","0.0","5","995.31","1","41.231637","16.30298"],
    [1951,"2024-03-22 06:00:00","11","andria","11.38","1","82.48","1","0.0","1","null","6","null","6","0.0","5","995.75","1","41.231637","16.30298"],
    [1952,"2024-03-22 07:00:00","11","andria","11.49","1","83.29","1","0.0","1","null","6","null","6","10.39","1","995.89","1","41.231637","16.30298"],
    [1953,"2024-03-22 08:00:00","11","andria","11.84","1","82.73","1","0.0","1","null","6","null","6","71.96","1","996.03","1","41.231637","16.30298"],
    [1954,"2024-03-22 09:00:00","11","andria","12.45","1","82.59","1","0.0","1","null","6","null","6","128.29","1","996.2","1","41.231637","16.30298"],
    [1955,"2024-03-22 10:00:00","11","andria","12.95","1","78.96","1","0.0","1","null","6","null","6","108.4","1","996.51","1","41.231637","16.30298"],
    [1956,"2024-03-22 11:00:00","11","andria","13.32","1","74.41","1","0.0","1","null","6","null","6","144.08","1","996.46","1","41.231637","16.30298"],
    [1957,"2024-03-22 12:00:00","11","andria","14.34","1","69.1","1","0.0","1","null","6","null","6","233.88","1","996.2","1","41.231637","16.30298"],
    [1958,"2024-03-22 13:00:00","11","andria","15.52","1","62.85","1","0.0","1","null","6","null","6","405.78","1","995.43","1","41.231637","16.30298"],
    [1959,"2024-03-22 14:00:00","11","andria","17.1","1","54.84","1","0.2","1","null","6","null","6","542.71","1","994.89","1","41.231637","16.30298"],
    [1960,"2024-03-22 15:00:00","11","andria","17.1","1","51.05","1","0.0","1","null","6","null","6","257.55","1","994.39","1","41.231637","16.30298"],
    [1961,"2024-03-22 16:00:00","11","andria","17.18","1","47.2","1","0.0","1","null","6","null","6","292.02","1","994.1","1","41.231637","16.30298"],
    [1962,"2024-03-22 17:00:00","11","andria","15.73","1","48.97","1","0.0","1","null","6","null","6","57.53","1","994.02","1","41.231637","16.30298"],
    [1963,"2024-03-22 18:00:00","11","andria","14.85","1","55.37","1","0.0","1","null","6","null","6","24.0","1","994.11","1","41.231637","16.30298"],
    [1964,"2024-03-22 19:00:00","11","andria","13.73","1","63.03","1","0.0","1","null","6","null","6","0.0","5","994.33","1","41.231637","16.30298"],
    [1965,"2024-03-22 20:00:00","11","andria","13.12","1","64.5","1","0.0","1","null","6","null","6","0.0","5","994.42","1","41.231637","16.30298"],
    [1966,"2024-03-22 21:00:00","11","andria","12.01","1","69.63","1","0.0","1","null","6","null","6","0.0","1","994.62","1","41.231637","16.30298"],
    [1967,"2024-03-22 22:00:00","11","andria","11.3","1","75.78","1","0.0","1","null","6","null","6","0.0","5","994.83","1","41.231637","16.30298"],
    [1968,"2024-03-22 23:00:00","11","andria","11.07","1","77.08","1","0.0","1","null","6","null","6","0.0","5","994.81","1","41.231637","16.30298"],
    [1969,"2024-03-23 00:00:00","11","andria","10.98","1","77.29","1","0.0","1","null","6","null","6","0.0","5","994.56","1","41.231637","16.30298"],
    [1970,"2024-03-23 01:00:00","11","andria","10.86","1","77.59","1","0.0","1","null","6","null","6","0.0","5","994.6","1","41.231637","16.30298"],
    [1971,"2024-03-23 02:00:00","11","andria","10.94","1","74.62","1","0.0","1","null","6","null","6","0.0","5","994.36","1","41.231637","16.30298"],
    [1972,"2024-03-23 03:00:00","11","andria","10.76","1","72.17","1","0.0","1","null","6","null","6","0.0","1","994.09","1","41.231637","16.30298"],
    [1973,"2024-03-23 04:00:00","11","andria","10.36","1","72.43","1","0.0","1","null","6","null","6","0.0","5","993.95","1","41.231637","16.30298"],
    [1974,"2024-03-23 05:00:00","11","andria","9.62","1","71.93","1","0.0","1","null","6","null","6","0.0","5","993.76","1","41.231637","16.30298"],
    [1975,"2024-03-23 06:00:00","11","andria","9.14","1","68.92","1","0.0","1","null","6","null","6","0.0","5","993.74","1","41.231637","16.30298"],
    [1976,"2024-03-23 07:00:00","11","andria","9.03","1","67.95","1","0.0","1","null","6","null","6","13.98","1","993.67","1","41.231637","16.30298"],
    [1977,"2024-03-23 08:00:00","11","andria","11.77","1","58.55","1","0.0","1","null","6","null","6","190.75","1","993.58","1","41.231637","16.30298"],
    [1978,"2024-03-23 09:00:00","11","andria","17.3","1","44.33","1","0.0","1","null","6","null","6","390.4","1","993.25","1","41.231637","16.30298"],
    [1979,"2024-03-23 10:00:00","11","andria","19.52","1","30.33","1","0.0","1","null","6","null","6","548.29","1","993.16","1","41.231637","16.30298"],
    [1980,"2024-03-23 11:00:00","11","andria","20.82","1","25.87","1","0.0","1","null","6","null","6","742.8","1","992.56","1","41.231637","16.30298"],
    [1981,"2024-03-23 12:00:00","11","andria","21.31","1","22.6","1","0.0","1","null","6","null","6","792.07","1","991.72","1","41.231637","16.30298"],
    [1982,"2024-03-23 13:00:00","11","andria","21.72","1","22.87","1","0.0","1","null","6","null","6","780.98","1","990.82","1","41.231637","16.30298"],
    [1983,"2024-03-23 14:00:00","11","andria","21.67","1","20.81","1","0.0","1","null","6","null","6","711.48","1","990.01","1","41.231637","16.30298"],
    [1984,"2024-03-23 15:00:00","11","andria","23.13","1","21.88","1","0.0","1","null","6","null","6","535.71","1","989.07","1","41.231637","16.30298"],
    [1985,"2024-03-23 16:00:00","11","andria","21.85","1","31.47","1","0.0","1","null","6","null","6","238.95","1","988.5","1","41.231637","16.30298"],
    [1986,"2024-03-23 17:00:00","11","andria","20.18","1","37.86","1","0.0","1","null","6","null","6","89.62","1","988.62","1","41.231637","16.30298"],
    [1987,"2024-03-23 18:00:00","11","andria","19.06","1","38.34","1","0.0","1","null","6","null","6","35.98","1","988.96","1","41.231637","16.30298"],
    [1988,"2024-03-23 19:00:00","11","andria","17.17","1","42.34","1","0.0","1","null","6","null","6","0.0","5","989.22","1","41.231637","16.30298"],
    [1989,"2024-03-23 20:00:00","11","andria","15.63","1","49.61","1","0.0","1","null","6","null","6","0.0","5","989.35","1","41.231637","16.30298"],
    [1990,"2024-03-23 21:00:00","11","andria","15.03","1","53.02","1","0.0","1","null","6","null","6","0.0","5","988.91","1","41.231637","16.30298"],
    [1991,"2024-03-23 22:00:00","11","andria","14.56","1","54.74","1","0.0","1","null","6","null","6","0.0","5","988.86","1","41.231637","16.30298"],
    [1992,"2024-03-23 23:00:00","11","andria","14.21","1","53.95","1","0.0","1","null","6","null","6","0.0","1","988.42","1","41.231637","16.30298"],
    [1993,"2024-03-24 00:00:00","11","andria","14.02","1","51.13","1","0.0","1","null","6","null","6","0.0","5","988.25","1","41.231637","16.30298"],
    [1994,"2024-03-24 01:00:00","11","andria","14.0","1","48.25","1","0.0","1","null","6","null","6","0.0","1","987.72","1","41.231637","16.30298"],
    [1995,"2024-03-24 02:00:00","11","andria","13.41","1","49.72","1","0.0","1","null","6","null","6","0.0","5","987.41","1","41.231637","16.30298"],
    [1996,"2024-03-24 03:00:00","11","andria","13.06","1","52.1","1","0.0","1","null","6","null","6","0.0","1","986.98","1","41.231637","16.30298"],
    [1997,"2024-03-24 04:00:00","11","andria","13.32","1","53.81","1","0.0","1","null","6","null","6","0.0","5","986.49","1","41.231637","16.30298"],
    [1998,"2024-03-24 05:00:00","11","andria","13.54","1","54.82","1","0.0","1","null","6","null","6","0.0","1","985.72","1","41.231637","16.30298"],
    [1999,"2024-03-24 06:00:00","11","andria","13.26","1","55.72","1","0.0","1","null","6","null","6","0.0","5","985.57","1","41.231637","16.30298"],
    [2000,"2024-03-24 07:00:00","11","andria","13.78","1","51.99","1","0.0","1","null","6","null","6","31.51","1","985.8","1","41.231637","16.30298"],
    [2001,"2024-03-24 08:00:00","11","andria","14.78","1","49.14","1","0.0","1","null","6","null","6","147.44","1","985.76","1","41.231637","16.30298"],
    [2002,"2024-03-24 09:00:00","11","andria","15.9","1","48.69","1","0.0","1","null","6","null","6","250.93","1","985.72","1","41.231637","16.30298"],
    [2003,"2024-03-24 10:00:00","11","andria","16.99","1","45.1","1","0.0","1","null","6","null","6","270.17","1","985.79","1","41.231637","16.30298"],
    [2004,"2024-03-24 11:00:00","11","andria","18.46","1","40.89","1","0.0","1","null","6","null","6","506.08","1","986.1","1","41.231637","16.30298"],
    [2005,"2024-03-24 12:00:00","11","andria","20.12","1","36.14","1","0.0","1","null","6","null","6","815.81","1","985.06","1","41.231637","16.30298"],
    [2006,"2024-03-24 13:00:00","11","andria","20.63","1","29.56","1","0.0","1","null","6","null","6","630.24","1","983.61","1","41.231637","16.30298"],
    [2007,"2024-03-24 14:00:00","11","andria","20.86","1","28.39","1","0.0","1","null","6","null","6","662.19","1","982.97","1","41.231637","16.30298"],
    [2008,"2024-03-24 15:00:00","11","andria","21.42","1","29.17","1","0.0","1","null","6","null","6","562.44","1","981.92","1","41.231637","16.30298"],
    [2009,"2024-03-24 16:00:00","11","andria","20.65","1","31.66","1","0.0","1","null","6","null","6","304.69","1","981.11","1","41.231637","16.30298"],
    [2010,"2024-03-24 17:00:00","11","andria","19.03","1","32.44","1","0.0","1","null","6","null","6","61.34","1","981.17","1","41.231637","16.30298"],
    [2011,"2024-03-24 18:00:00","11","andria","17.51","1","33.32","1","0.0","1","null","6","null","6","27.31","1","981.74","1","41.231637","16.30298"],
    [2012,"2024-03-24 19:00:00","11","andria","15.9","1","37.1","1","0.0","1","null","6","null","6","0.0","5","981.88","1","41.231637","16.30298"],
    [2013,"2024-03-24 20:00:00","11","andria","14.6","1","36.96","1","0.0","1","null","6","null","6","0.0","5","982.66","1","41.231637","16.30298"],
    [2014,"2024-03-24 21:00:00","11","andria","13.49","1","40.99","1","0.0","1","null","6","null","6","0.0","5","983.13","1","41.231637","16.30298"],
    [2015,"2024-03-24 22:00:00","11","andria","12.36","1","49.57","1","0.0","1","null","6","null","6","0.0","5","983.75","1","41.231637","16.30298"],
    [2016,"2024-03-24 23:00:00","11","andria","11.45","1","57.27","1","0.0","1","null","6","null","6","0.0","1","984.04","1","41.231637","16.30298"],
    [2017,"2024-03-25 00:00:00","11","andria","10.62","1","65.52","1","0.0","1","null","6","null","6","0.0","5","984.46","1","41.231637","16.30298"],
    [2018,"2024-03-25 01:00:00","11","andria","9.8","1","72.72","1","0.0","1","null","6","null","6","0.0","1","984.54","1","41.231637","16.30298"],
    [2019,"2024-03-25 02:00:00","11","andria","9.0","1","76.27","1","0.0","1","null","6","null","6","0.0","5","984.64","1","41.231637","16.30298"],
    [2020,"2024-03-25 03:00:00","11","andria","8.9","1","73.05","1","0.0","1","null","6","null","6","0.0","5","984.09","1","41.231637","16.30298"],
    [2021,"2024-03-25 04:00:00","11","andria","8.97","1","70.52","1","0.0","1","null","6","null","6","0.0","5","984.32","1","41.231637","16.30298"],
    [2022,"2024-03-25 05:00:00","11","andria","9.04","1","67.41","1","0.0","1","null","6","null","6","0.0","1","984.52","1","41.231637","16.30298"],
    [2023,"2024-03-25 06:00:00","11","andria","8.94","1","63.06","1","0.0","1","null","6","null","6","0.0","1","984.92","1","41.231637","16.30298"],
    [2024,"2024-03-25 07:00:00","11","andria","9.09","1","60.52","1","0.0","1","null","6","null","6","15.65","1","985.75","1","41.231637","16.30298"],
    [2025,"2024-03-25 08:00:00","11","andria","10.49","1","58.31","1","0.0","1","null","6","null","6","186.08","1","986.31","1","41.231637","16.30298"],
    [2026,"2024-03-25 09:00:00","11","andria","12.93","1","52.3","1","0.0","1","null","6","null","6","439.61","1","986.77","1","41.231637","16.30298"],
    [2027,"2024-03-25 10:00:00","11","andria","14.27","1","49.75","1","0.0","1","null","6","null","6","572.08","1","987.02","1","41.231637","16.30298"],
    [2028,"2024-03-25 11:00:00","11","andria","15.69","1","41.75","1","0.0","1","null","6","null","6","688.79","1","987.38","1","41.231637","16.30298"],
    [2029,"2024-03-25 12:00:00","11","andria","16.69","1","31.58","1","0.0","1","null","6","null","6","724.52","1","987.42","1","41.231637","16.30298"],
    [2030,"2024-03-25 13:00:00","11","andria","17.37","1","30.59","1","0.0","1","null","6","null","6","814.51","1","986.87","1","41.231637","16.30298"],
    [2031,"2024-03-25 14:00:00","11","andria","15.98","1","35.26","1","0.0","1","null","6","null","6","413.89","1","986.32","1","41.231637","16.30298"],
    [2032,"2024-03-25 15:00:00","11","andria","17.62","1","29.78","1","0.0","1","null","6","null","6","541.81","1","986.37","1","41.231637","16.30298"],
    [2033,"2024-03-25 16:00:00","11","andria","16.94","1","31.24","1","0.0","1","null","6","null","6","292.4","1","985.83","1","41.231637","16.30298"],
    [2034,"2024-03-25 17:00:00","11","andria","14.29","1","41.84","1","0.0","1","null","6","null","6","114.72","1","986.41","1","41.231637","16.30298"],
    [2035,"2024-03-25 18:00:00","11","andria","13.13","1","48.65","1","0.0","1","null","6","null","6","32.23","1","986.58","1","41.231637","16.30298"],
    [2036,"2024-03-25 19:00:00","11","andria","12.36","1","52.64","1","0.0","1","null","6","null","6","0.0","5","986.48","1","41.231637","16.30298"],
    [2037,"2024-03-25 20:00:00","11","andria","12.03","1","55.87","1","0.0","1","null","6","null","6","0.0","5","986.62","1","41.231637","16.30298"],
    [2038,"2024-03-25 21:00:00","11","andria","12.07","1","53.15","1","0.0","1","null","6","null","6","0.0","5","986.76","1","41.231637","16.30298"],
    [2039,"2024-03-25 22:00:00","11","andria","11.84","1","49.9","1","0.0","1","null","6","null","6","0.0","5","986.55","1","41.231637","16.30298"],
    [2040,"2024-03-25 23:00:00","11","andria","11.53","1","47.06","1","0.0","1","null","6","null","6","0.0","1","986.59","1","41.231637","16.30298"],
    [2041,"2024-03-26 00:00:00","11","andria","11.78","1","34.97","1","0.0","1","null","6","null","6","0.0","5","986.06","1","41.231637","16.30298"],
    [2042,"2024-03-26 01:00:00","11","andria","11.47","1","41.04","1","0.0","1","null","6","null","6","0.0","5","985.37","1","41.231637","16.30298"],
    [2043,"2024-03-26 02:00:00","11","andria","11.13","1","54.96","1","0.0","1","null","6","null","6","0.0","5","984.74","1","41.231637","16.30298"],
    [2044,"2024-03-26 03:00:00","11","andria","11.6","1","65.44","1","0.0","1","null","6","null","6","0.0","5","983.87","1","41.231637","16.30298"],
    [2045,"2024-03-26 04:00:00","11","andria","11.58","1","69.46","1","0.0","1","null","6","null","6","0.0","5","983.04","1","41.231637","16.30298"],
    [2046,"2024-03-26 05:00:00","11","andria","11.88","1","69.6","1","0.0","1","null","6","null","6","0.0","5","982.33","1","41.231637","16.30298"],
    [2047,"2024-03-26 06:00:00","11","andria","11.83","1","76.97","1","1.6","1","null","6","null","6","0.0","1","983.17","1","41.231637","16.30298"],
    [2048,"2024-03-26 07:00:00","11","andria","11.22","1","86.18","1","0.6","1","null","6","null","6","0.0","5","982.4","1","41.231637","16.30298"],
    [2049,"2024-03-26 08:00:00","11","andria","10.94","1","88.72","1","0.2","1","null","6","null","6","19.85","1","982.3","1","41.231637","16.30298"],
    [2050,"2024-03-26 09:00:00","11","andria","11.2","1","89.41","1","0.0","1","null","6","null","6","40.77","1","981.7","1","41.231637","16.30298"],
    [2051,"2024-03-26 10:00:00","11","andria","12.32","1","83.26","1","0.0","1","null","6","null","6","63.28","1","980.73","1","41.231637","16.30298"],
    [2052,"2024-03-26 11:00:00","11","andria","12.3","1","81.01","1","0.6","1","null","6","null","6","56.95","1","980.24","1","41.231637","16.30298"],
    [2053,"2024-03-26 12:00:00","11","andria","12.07","1","80.21","1","0.2","1","null","6","null","6","60.68","1","979.65","1","41.231637","16.30298"],
    [2054,"2024-03-26 13:00:00","11","andria","12.47","1","81.43","1","0.2","1","null","6","null","6","38.11","1","979.64","1","41.231637","16.30298"],
    [2055,"2024-03-26 14:00:00","11","andria","12.48","1","87.08","1","0.0","1","null","6","null","6","56.85","1","978.12","1","41.231637","16.30298"],
    [2056,"2024-03-26 15:00:00","11","andria","12.35","1","89.75","1","0.0","1","null","6","null","6","19.0","1","977.05","1","41.231637","16.30298"],
    [2057,"2024-03-26 16:00:00","11","andria","12.96","1","88.64","1","0.0","1","null","6","null","6","11.41","1","976.49","1","41.231637","16.30298"],
    [2058,"2024-03-26 17:00:00","11","andria","14.44","1","78.74","1","0.0","1","null","6","null","6","78.65","1","975.79","1","41.231637","16.30298"],
    [2059,"2024-03-26 18:00:00","11","andria","15.1","1","72.12","1","0.0","1","null","6","null","6","44.27","1","974.85","1","41.231637","16.30298"],
    [2060,"2024-03-26 19:00:00","11","andria","14.46","1","74.5","1","0.0","1","null","6","null","6","0.0","5","975.39","1","41.231637","16.30298"],
    [2061,"2024-03-26 20:00:00","11","andria","13.33","1","81.31","1","0.0","1","null","6","null","6","0.0","5","976.39","1","41.231637","16.30298"],
    [2062,"2024-03-26 21:00:00","11","andria","12.93","1","81.38","1","0.0","1","null","6","null","6","0.0","5","977.05","1","41.231637","16.30298"],
    [2063,"2024-03-26 22:00:00","11","andria","12.56","1","82.48","1","0.0","1","null","6","null","6","0.0","5","977.18","1","41.231637","16.30298"],
    [2064,"2024-03-26 23:00:00","11","andria","12.17","1","83.02","1","0.0","1","null","6","null","6","0.0","5","977.5","1","41.231637","16.30298"],
    [2065,"2024-03-27 00:00:00","11","andria","12.16","1","81.17","1","0.0","1","null","6","null","6","0.0","5","977.52","1","41.231637","16.30298"],
    [2066,"2024-03-27 01:00:00","11","andria","12.8","1","74.82","1","0.0","1","null","6","null","6","0.0","5","977.19","1","41.231637","16.30298"],
    [2067,"2024-03-27 02:00:00","11","andria","12.22","1","78.03","1","0.0","1","null","6","null","6","0.0","1","977.26","1","41.231637","16.30298"],
    [2068,"2024-03-27 03:00:00","11","andria","12.45","1","75.94","1","0.0","1","null","6","null","6","0.0","5","977.08","1","41.231637","16.30298"],
    [2069,"2024-03-27 04:00:00","11","andria","12.57","1","74.94","1","0.0","1","null","6","null","6","0.0","5","977.08","1","41.231637","16.30298"],
    [2070,"2024-03-27 05:00:00","11","andria","12.24","1","76.39","1","0.0","1","null","6","null","6","0.0","5","977.03","1","41.231637","16.30298"],
    [2071,"2024-03-27 06:00:00","11","andria","12.11","1","77.14","1","0.0","1","null","6","null","6","0.0","5","977.23","1","41.231637","16.30298"],
    [2072,"2024-03-27 07:00:00","11","andria","12.65","1","76.38","1","0.0","1","null","6","null","6","33.58","1","976.92","1","41.231637","16.30298"],
    [2073,"2024-03-27 08:00:00","11","andria","14.18","1","73.02","1","0.0","1","null","6","null","6","152.41","1","976.48","1","41.231637","16.30298"],
    [2074,"2024-03-27 09:00:00","11","andria","17.25","1","63.02","1","0.0","1","null","6","null","6","321.38","1","975.88","1","41.231637","16.30298"],
    [2075,"2024-03-27 10:00:00","11","andria","17.81","1","67.46","1","0.2","1","null","6","null","6","396.25","1","975.92","1","41.231637","16.30298"],
    [2076,"2024-03-27 11:00:00","11","andria","19.16","1","61.13","1","0.0","1","null","6","null","6","379.74","1","975.69","1","41.231637","16.30298"],
    [2077,"2024-03-27 12:00:00","11","andria","20.27","1","52.9","1","0.0","1","null","6","null","6","451.95","1","974.87","1","41.231637","16.30298"],
    [2078,"2024-03-27 13:00:00","11","andria","19.81","1","56.74","1","0.0","1","null","6","null","6","403.18","1","974.19","1","41.231637","16.30298"],
    [2079,"2024-03-27 14:00:00","11","andria","20.39","1","55.3","1","0.0","1","null","6","null","6","364.13","1","973.29","1","41.231637","16.30298"],
    [2080,"2024-03-27 15:00:00","11","andria","19.14","1","60.17","1","0.0","1","null","6","null","6","206.35","1","972.56","1","41.231637","16.30298"],
    [2081,"2024-03-27 16:00:00","11","andria","18.5","1","64.87","1","0.0","1","null","6","null","6","182.38","1","971.96","1","41.231637","16.30298"],
    [2082,"2024-03-27 17:00:00","11","andria","18.69","1","63.33","1","0.0","1","null","6","null","6","156.07","1","971.68","1","41.231637","16.30298"],
    [2083,"2024-03-27 18:00:00","11","andria","15.89","1","71.83","1","2.2","1","null","6","null","6","9.11","1","973.66","1","41.231637","16.30298"],
    [2084,"2024-03-27 19:00:00","11","andria","11.87","1","72.57","1","1.0","1","null","6","null","6","0.0","5","975.86","1","41.231637","16.30298"],
    [2085,"2024-03-27 20:00:00","11","andria","10.88","1","76.01","1","0.0","1","null","6","null","6","0.0","1","976.26","1","41.231637","16.30298"],
    [2086,"2024-03-27 21:00:00","11","andria","11.47","1","66.26","1","0.0","1","null","6","null","6","0.0","1","976.82","1","41.231637","16.30298"],
    [2087,"2024-03-27 22:00:00","11","andria","11.56","1","63.1","1","0.0","1","null","6","null","6","0.0","5","977.92","1","41.231637","16.30298"],
    [2088,"2024-03-27 23:00:00","11","andria","11.61","1","58.95","1","0.0","1","null","6","null","6","0.0","1","978.66","1","41.231637","16.30298"],
    [2089,"2024-03-28 00:00:00","11","andria","11.14","1","60.07","1","0.0","1","null","6","null","6","0.0","1","979.84","1","41.231637","16.30298"],
    [2090,"2024-03-28 01:00:00","11","andria","10.62","1","61.71","1","0.0","1","null","6","null","6","0.0","5","981.42","1","41.231637","16.30298"],
    [2091,"2024-03-28 02:00:00","11","andria","10.24","1","61.28","1","0.0","1","null","6","null","6","0.0","1","982.35","1","41.231637","16.30298"],
    [2092,"2024-03-28 03:00:00","11","andria","10.11","1","63.74","1","0.0","1","null","6","null","6","0.0","5","982.83","1","41.231637","16.30298"],
    [2093,"2024-03-28 04:00:00","11","andria","10.1","1","63.71","1","0.0","1","null","6","null","6","0.0","5","983.54","1","41.231637","16.30298"],
    [2094,"2024-03-28 05:00:00","11","andria","9.92","1","63.9","1","0.0","1","null","6","null","6","0.0","1","983.99","1","41.231637","16.30298"],
    [2095,"2024-03-28 06:00:00","11","andria","9.85","1","66.15","1","0.0","1","null","6","null","6","0.0","5","985.24","1","41.231637","16.30298"],
    [2096,"2024-03-28 07:00:00","11","andria","11.3","1","60.48","1","0.0","1","null","6","null","6","30.71","1","985.7","1","41.231637","16.30298"],
    [2097,"2024-03-28 08:00:00","11","andria","13.37","1","53.63","1","0.0","1","null","6","null","6","175.78","1","985.57","1","41.231637","16.30298"],
    [2098,"2024-03-28 09:00:00","11","andria","14.67","1","49.27","1","0.0","1","null","6","null","6","299.43","1","986.78","1","41.231637","16.30298"],
    [2099,"2024-03-28 10:00:00","11","andria","16.83","1","41.55","1","0.2","1","null","6","null","6","579.69","1","987.46","1","41.231637","16.30298"],
    [2100,"2024-03-28 11:00:00","11","andria","18.52","1","38.42","1","0.0","1","null","6","null","6","674.16","1","987.73","1","41.231637","16.30298"],
    [2101,"2024-03-28 12:00:00","11","andria","18.44","1","38.86","1","0.0","1","null","6","null","6","492.1","1","988.33","1","41.231637","16.30298"],
    [2102,"2024-03-28 13:00:00","11","andria","18.59","1","37.95","1","0.0","1","null","6","null","6","483.48","1","988.28","1","41.231637","16.30298"],
    [2103,"2024-03-28 14:00:00","11","andria","19.97","1","35.06","1","0.0","1","null","6","null","6","610.2","1","988.21","1","41.231637","16.30298"],
    [2104,"2024-03-28 15:00:00","11","andria","20.32","1","34.03","1","0.0","1","null","6","null","6","489.2","1","988.21","1","41.231637","16.30298"],
    [2105,"2024-03-28 16:00:00","11","andria","19.85","1","35.44","1","0.0","1","null","6","null","6","281.27","1","988.8","1","41.231637","16.30298"],
    [2106,"2024-03-28 17:00:00","11","andria","18.6","1","37.92","1","0.0","1","null","6","null","6","103.64","1","989.22","1","41.231637","16.30298"],
    [2107,"2024-03-28 18:00:00","11","andria","17.75","1","40.06","1","0.0","1","null","6","null","6","40.04","1","989.46","1","41.231637","16.30298"],
    [2108,"2024-03-28 19:00:00","11","andria","17.31","1","39.78","1","0.0","1","null","6","null","6","0.0","5","989.77","1","41.231637","16.30298"],
    [2109,"2024-03-28 20:00:00","11","andria","17.1","1","39.96","1","0.0","1","null","6","null","6","0.0","5","990.38","1","41.231637","16.30298"],
    [2110,"2024-03-28 21:00:00","11","andria","16.61","1","40.68","1","0.0","1","null","6","null","6","0.0","5","991.16","1","41.231637","16.30298"],
    [2111,"2024-03-28 22:00:00","11","andria","15.92","1","43.11","1","0.0","1","null","6","null","6","0.0","5","991.46","1","41.231637","16.30298"],
    [2112,"2024-03-28 23:00:00","11","andria","16.17","1","44.25","1","0.0","1","null","6","null","6","0.0","5","990.85","1","41.231637","16.30298"],
    [2113,"2024-03-29 00:00:00","11","andria","15.91","1","45.37","1","0.0","1","null","6","null","6","0.0","5","991.38","1","41.231637","16.30298"],
    [2114,"2024-03-29 01:00:00","11","andria","15.83","1","45.14","1","0.0","1","null","6","null","6","0.0","1","991.84","1","41.231637","16.30298"],
    [2115,"2024-03-29 02:00:00","11","andria","14.43","1","51.06","1","0.0","1","null","6","null","6","0.0","5","992.13","1","41.231637","16.30298"],
    [2116,"2024-03-29 03:00:00","11","andria","13.61","1","53.89","1","0.0","1","null","6","null","6","0.0","5","992.34","1","41.231637","16.30298"],
    [2117,"2024-03-29 04:00:00","11","andria","13.41","1","53.86","1","0.0","1","null","6","null","6","0.0","5","992.39","1","41.231637","16.30298"],
    [2118,"2024-03-29 05:00:00","11","andria","12.93","1","55.23","1","0.0","1","null","6","null","6","0.0","5","993.11","1","41.231637","16.30298"],
    [2119,"2024-03-29 06:00:00","11","andria","12.98","1","54.55","1","0.0","1","null","6","null","6","0.0","5","993.67","1","41.231637","16.30298"],
    [2120,"2024-03-29 07:00:00","11","andria","13.96","1","50.77","1","0.0","1","null","6","null","6","40.64","1","993.91","1","41.231637","16.30298"],
    [2121,"2024-03-29 08:00:00","11","andria","15.36","1","48.55","1","0.0","1","null","6","null","6","113.94","1","993.93","1","41.231637","16.30298"],
    [2122,"2024-03-29 09:00:00","11","andria","18.91","1","38.83","1","0.0","1","null","6","null","6","398.45","1","994.16","1","41.231637","16.30298"],
    [2123,"2024-03-29 10:00:00","11","andria","20.92","1","32.69","1","0.0","1","null","6","null","6","545.64","1","993.91","1","41.231637","16.30298"],
    [2124,"2024-03-29 11:00:00","11","andria","21.97","1","31.66","1","0.0","1","null","6","null","6","635.73","1","993.37","1","41.231637","16.30298"],
    [2125,"2024-03-29 12:00:00","11","andria","24.26","1","28.07","1","0.0","1","null","6","null","6","815.43","1","992.67","1","41.231637","16.30298"],
    [2126,"2024-03-29 13:00:00","11","andria","25.71","1","24.38","1","0.0","1","null","6","null","6","797.08","1","991.92","1","41.231637","16.30298"],
    [2127,"2024-03-29 14:00:00","11","andria","25.73","1","29.53","1","0.0","1","null","6","null","6","727.31","1","991.15","1","41.231637","16.30298"],
    [2128,"2024-03-29 15:00:00","11","andria","25.69","1","30.84","1","0.0","1","null","6","null","6","575.32","1","990.85","1","41.231637","16.30298"],
    [2129,"2024-03-29 16:00:00","11","andria","25.32","1","33.85","1","0.0","1","null","6","null","6","328.24","1","990.36","1","41.231637","16.30298"],
    [2130,"2024-03-29 17:00:00","11","andria","22.87","1","40.53","1","0.0","1","null","6","null","6","75.76","1","990.22","1","41.231637","16.30298"],
    [2131,"2024-03-29 18:00:00","11","andria","20.78","1","35.18","1","0.0","1","null","6","null","6","29.29","1","990.46","1","41.231637","16.30298"],
    [2132,"2024-03-29 19:00:00","11","andria","18.73","1","36.88","1","0.0","1","null","6","null","6","0.0","5","990.74","1","41.231637","16.30298"],
    [2133,"2024-03-29 20:00:00","11","andria","17.91","1","37.44","1","0.0","1","null","6","null","6","0.0","5","991.02","1","41.231637","16.30298"],
    [2134,"2024-03-29 21:00:00","11","andria","17.49","1","36.89","1","0.0","1","null","6","null","6","0.0","5","990.92","1","41.231637","16.30298"],
    [2135,"2024-03-29 22:00:00","11","andria","17.31","1","36.66","1","0.0","1","null","6","null","6","0.0","5","990.57","1","41.231637","16.30298"],
    [2136,"2024-03-29 23:00:00","11","andria","16.74","1","38.13","1","0.0","1","null","6","null","6","0.0","5","990.92","1","41.231637","16.30298"],
    [2137,"2024-03-30 00:00:00","11","andria","16.21","1","40.42","1","0.0","1","null","6","null","6","0.0","5","990.97","1","41.231637","16.30298"],
    [2138,"2024-03-30 01:00:00","11","andria","15.26","1","43.95","1","0.0","1","null","6","null","6","0.0","5","990.7","1","41.231637","16.30298"],
    [2139,"2024-03-30 02:00:00","11","andria","14.32","1","47.81","1","0.0","1","null","6","null","6","0.0","5","990.57","1","41.231637","16.30298"],
    [2140,"2024-03-30 03:00:00","11","andria","14.18","1","50.78","1","0.0","1","null","6","null","6","0.0","5","989.89","1","41.231637","16.30298"],
    [2141,"2024-03-30 04:00:00","11","andria","13.67","1","53.53","1","0.0","1","null","6","null","6","0.0","5","989.32","1","41.231637","16.30298"],
    [2142,"2024-03-30 05:00:00","11","andria","13.88","1","54.6","1","0.0","1","null","6","null","6","0.0","5","988.98","1","41.231637","16.30298"],
    [2143,"2024-03-30 06:00:00","11","andria","12.76","1","70.22","1","0.0","1","null","6","null","6","0.0","5","988.87","1","41.231637","16.30298"],
    [2144,"2024-03-30 07:00:00","11","andria","13.05","1","76.82","1","0.0","1","null","6","null","6","17.46","1","989.17","1","41.231637","16.30298"],
    [2145,"2024-03-30 08:00:00","11","andria","15.2","1","64.39","1","0.0","1","null","6","null","6","188.73","1","989.09","1","41.231637","16.30298"],
    [2146,"2024-03-30 09:00:00","11","andria","17.59","1","58.33","1","0.0","1","null","6","null","6","462.14","1","988.85","1","41.231637","16.30298"],
    [2147,"2024-03-30 10:00:00","11","andria","19.6","1","50.68","1","0.0","1","null","6","null","6","565.6","1","988.5","1","41.231637","16.30298"],
    [2148,"2024-03-30 11:00:00","11","andria","20.7","1","46.79","1","0.0","1","null","6","null","6","637.23","1","987.78","1","41.231637","16.30298"],
    [2149,"2024-03-30 12:00:00","11","andria","22.63","1","40.19","1","0.0","1","null","6","null","6","626.78","1","987.23","1","41.231637","16.30298"],
    [2150,"2024-03-30 13:00:00","11","andria","22.99","1","36.44","1","0.0","1","null","6","null","6","650.03","1","986.73","1","41.231637","16.30298"],
    [2151,"2024-03-30 14:00:00","11","andria","22.77","1","35.71","1","0.0","1","null","6","null","6","583.33","1","986.37","1","41.231637","16.30298"],
    [2152,"2024-03-30 15:00:00","11","andria","22.51","1","38.52","1","0.0","1","null","6","null","6","424.09","1","985.73","1","41.231637","16.30298"],
    [2153,"2024-03-30 16:00:00","11","andria","20.36","1","42.8","1","0.0","1","null","6","null","6","261.94","1","985.59","1","41.231637","16.30298"],
    [2154,"2024-03-30 17:00:00","11","andria","18.6","1","46.2","1","0.0","1","null","6","null","6","129.73","1","985.44","1","41.231637","16.30298"],
    [2155,"2024-03-30 18:00:00","11","andria","17.22","1","48.76","1","0.0","1","null","6","null","6","49.3","1","985.59","1","41.231637","16.30298"],
    [2156,"2024-03-30 19:00:00","11","andria","16.06","1","53.65","1","0.0","1","null","6","null","6","0.0","5","986.1","1","41.231637","16.30298"],
    [2157,"2024-03-30 20:00:00","11","andria","15.33","1","57.85","1","0.0","1","null","6","null","6","0.0","5","986.96","1","41.231637","16.30298"],
    [2158,"2024-03-30 21:00:00","11","andria","14.87","1","60.02","1","0.0","1","null","6","null","6","0.0","5","987.46","1","41.231637","16.30298"],
    [2159,"2024-03-30 22:00:00","11","andria","14.73","1","62.21","1","0.0","1","null","6","null","6","0.0","5","987.21","1","41.231637","16.30298"],
    [2160,"2024-03-30 23:00:00","11","andria","14.58","1","66.59","1","0.0","1","null","6","null","6","0.0","5","986.9","1","41.231637","16.30298"],
    [2161,"2024-03-31 00:00:00","11","andria","14.46","1","67.86","1","0.0","1","null","6","null","6","0.0","1","986.93","1","41.231637","16.30298"],
    [2162,"2024-03-31 01:00:00","11","andria","14.47","1","66.78","1","0.0","1","null","6","null","6","0.0","5","987.52","1","41.231637","16.30298"],
    [2163,"2024-03-31 03:00:00","11","andria","14.67","1","66.41","1","0.0","1","null","6","null","6","0.0","1","986.34","1","41.231637","16.30298"],
    [2164,"2024-03-31 03:00:00","11","andria","14.92","1","63.78","1","0.0","1","null","6","null","6","0.0","5","986.17","1","41.231637","16.30298"],
    [2165,"2024-03-31 04:00:00","11","andria","15.06","1","63.37","1","0.0","1","null","6","null","6","0.0","5","986.59","1","41.231637","16.30298"],
    [2166,"2024-03-31 05:00:00","11","andria","14.54","1","68.79","1","0.0","1","null","6","null","6","0.0","5","986.89","1","41.231637","16.30298"],
    [2167,"2024-03-31 06:00:00","11","andria","14.5","1","70.35","1","0.0","1","null","6","null","6","0.0","5","986.75","1","41.231637","16.30298"],
    [2168,"2024-03-31 07:00:00","11","andria","14.9","1","68.49","1","0.0","1","null","6","null","6","37.67","1","986.76","1","41.231637","16.30298"],
    [2169,"2024-03-31 08:00:00","11","andria","15.75","1","66.89","1","0.0","1","null","6","null","6","117.78","1","987.32","1","41.231637","16.30298"],
    [2170,"2024-03-31 09:00:00","11","andria","17.62","1","60.84","1","0.0","1","null","6","null","6","300.7","1","987.65","1","41.231637","16.30298"],
    [2171,"2024-03-31 10:00:00","11","andria","18.81","1","57.29","1","0.0","1","null","6","null","6","428.49","1","988.01","1","41.231637","16.30298"],
    [2172,"2024-03-31 11:00:00","11","andria","19.47","1","56.26","1","0.0","1","null","6","null","6","418.14","1","988.23","1","41.231637","16.30298"],
    [2173,"2024-03-31 12:00:00","11","andria","19.98","1","54.45","1","0.0","1","null","6","null","6","364.1","1","987.95","1","41.231637","16.30298"],
    [2174,"2024-03-31 13:00:00","11","andria","20.3","1","54.17","1","0.0","1","null","6","null","6","269.71","1","987.68","1","41.231637","16.30298"],
    [2175,"2024-03-31 14:00:00","11","andria","20.33","1","56.38","1","0.0","1","null","6","null","6","318.98","1","987.12","1","41.231637","16.30298"],
    [2176,"2024-03-31 15:00:00","11","andria","22.21","1","51.01","1","0.0","1","null","6","null","6","443.35","1","986.69","1","41.231637","16.30298"],
    [2177,"2024-03-31 16:00:00","11","andria","21.91","1","50.76","1","0.0","1","null","6","null","6","242.86","1","986.7","1","41.231637","16.30298"],
    [2178,"2024-03-31 17:00:00","11","andria","20.63","1","52.18","1","0.0","1","null","6","null","6","112.77","1","986.98","1","41.231637","16.30298"],
    [2179,"2024-03-31 18:00:00","11","andria","19.57","1","53.87","1","0.0","1","null","6","null","6","21.27","1","987.43","1","41.231637","16.30298"],
    [2180,"2024-03-31 19:00:00","11","andria","19.05","1","53.67","1","0.0","1","null","6","null","6","0.0","5","988.27","1","41.231637","16.30298"],
    [2181,"2024-03-31 20:00:00","11","andria","17.84","1","61.6","1","0.0","1","null","6","null","6","0.0","5","989.05","1","41.231637","16.30298"],
    [2182,"2024-03-31 21:00:00","11","andria","17.23","1","64.4","1","0.0","1","null","6","null","6","0.0","1","989.71","1","41.231637","16.30298"],
    [2183,"2024-03-31 22:00:00","11","andria","16.46","1","68.54","1","0.0","1","null","6","null","6","0.0","5","989.87","1","41.231637","16.30298"],
    [2184,"2024-03-31 23:00:00","11","andria","16.25","1","68.58","1","0.0","1","null","6","null","6","0.0","5","989.55","1","41.231637","16.30298"],
    [2185,"2024-04-01 00:00:00","11","andria","16.89","1","63.41","1","0.0","1","null","6","null","6","0.0","5","989.51","1","41.231637","16.30298"],
    [2186,"2024-04-01 01:00:00","11","andria","16.75","1","61.07","1","0.0","1","null","6","null","6","0.0","5","989.21","1","41.231637","16.30298"],
    [2187,"2024-04-01 02:00:00","11","andria","15.82","1","67.88","1","0.0","1","null","6","null","6","0.0","5","988.68","1","41.231637","16.30298"],
    [2188,"2024-04-01 03:00:00","11","andria","15.81","1","68.53","1","0.0","1","null","6","null","6","0.0","5","988.28","1","41.231637","16.30298"],
    [2189,"2024-04-01 04:00:00","11","andria","15.5","1","70.07","1","0.0","1","null","6","null","6","0.0","5","987.9","1","41.231637","16.30298"],
    [2190,"2024-04-01 05:00:00","11","andria","15.34","1","69.15","1","0.0","1","null","6","null","6","0.0","5","987.61","1","41.231637","16.30298"],
    [2191,"2024-04-01 06:00:00","11","andria","15.22","1","68.54","1","0.0","1","null","6","null","6","0.0","5","987.45","1","41.231637","16.30298"],
    [2192,"2024-04-01 07:00:00","11","andria","15.06","1","72.45","1","0.0","1","null","6","null","6","40.99","1","987.37","1","41.231637","16.30298"],
    [2193,"2024-04-01 08:00:00","11","andria","16.68","1","65.9","1","0.0","1","null","6","null","6","183.61","1","987.35","1","41.231637","16.30298"],
    [2194,"2024-04-01 09:00:00","11","andria","19.31","1","55.92","1","0.0","1","null","6","null","6","406.79","1","986.85","1","41.231637","16.30298"],
    [2195,"2024-04-01 10:00:00","11","andria","20.65","1","49.88","1","0.0","1","null","6","null","6","548.48","1","986.92","1","41.231637","16.30298"],
    [2196,"2024-04-01 11:00:00","11","andria","22.96","1","40.51","1","0.0","1","null","6","null","6","763.21","1","986.12","1","41.231637","16.30298"],
    [2197,"2024-04-01 12:00:00","11","andria","26.63","1","29.7","1","0.0","1","null","6","null","6","773.71","1","985.27","1","41.231637","16.30298"],
    [2198,"2024-04-01 13:00:00","11","andria","26.7","1","29.71","1","0.0","1","null","6","null","6","714.0","1","984.93","1","41.231637","16.30298"],
    [2199,"2024-04-01 14:00:00","11","andria","26.65","1","33.86","1","0.0","1","null","6","null","6","692.54","1","984.33","1","41.231637","16.30298"],
    [2200,"2024-04-01 15:00:00","11","andria","25.74","1","38.28","1","0.0","1","null","6","null","6","527.55","1","983.76","1","41.231637","16.30298"],
    [2201,"2024-04-01 16:00:00","11","andria","25.29","1","39.2","1","0.0","1","null","6","null","6","295.61","1","983.47","1","41.231637","16.30298"],
    [2202,"2024-04-01 17:00:00","11","andria","22.96","1","47.68","1","0.0","1","null","6","null","6","108.07","1","982.97","1","41.231637","16.30298"],
    [2203,"2024-04-01 18:00:00","11","andria","21.43","1","52.21","1","0.0","1","null","6","null","6","53.74","1","982.63","1","41.231637","16.30298"],
    [2204,"2024-04-01 19:00:00","11","andria","18.74","1","61.83","1","0.0","1","null","6","null","6","0.0","5","982.49","1","41.231637","16.30298"],
    [2205,"2024-04-01 20:00:00","11","andria","18.21","1","60.14","1","0.0","1","null","6","null","6","0.0","5","985.38","1","41.231637","16.30298"],
    [2206,"2024-04-01 21:00:00","11","andria","17.69","1","51.77","1","0.0","1","null","6","null","6","0.0","5","988.37","1","41.231637","16.30298"],
    [2207,"2024-04-01 22:00:00","11","andria","15.5","1","48.7","1","0.0","1","null","6","null","6","0.0","5","990.07","1","41.231637","16.30298"],
    [2208,"2024-04-01 23:00:00","11","andria","14.53","1","53.61","1","0.0","1","null","6","null","6","0.0","5","989.83","1","41.231637","16.30298"],
    [2209,"2024-04-02 00:00:00","11","andria","15.02","1","51.72","1","0.0","1","null","6","null","6","0.0","5","989.05","1","41.231637","16.30298"],
    [2210,"2024-04-02 01:00:00","11","andria","14.59","1","55.5","1","0.0","1","null","6","null","6","0.0","5","990.11","1","41.231637","16.30298"],
    [2211,"2024-04-02 02:00:00","11","andria","13.14","1","59.12","1","0.0","1","null","6","null","6","0.0","1","991.44","1","41.231637","16.30298"],
    [2212,"2024-04-02 03:00:00","11","andria","12.55","1","57.61","1","0.0","1","null","6","null","6","0.0","5","992.06","1","41.231637","16.30298"],
    [2213,"2024-04-02 04:00:00","11","andria","11.93","1","61.18","1","0.0","1","null","6","null","6","0.0","5","992.36","1","41.231637","16.30298"],
    [2214,"2024-04-02 05:00:00","11","andria","12.12","1","60.83","1","0.0","1","null","6","null","6","0.0","5","992.72","1","41.231637","16.30298"],
    [2215,"2024-04-02 06:00:00","11","andria","11.88","1","61.17","1","0.0","1","null","6","null","6","0.0","5","993.03","1","41.231637","16.30298"],
    [2216,"2024-04-02 07:00:00","11","andria","11.79","1","59.02","1","0.0","1","null","6","null","6","35.95","1","993.31","1","41.231637","16.30298"],
    [2217,"2024-04-02 08:00:00","11","andria","13.56","1","50.32","1","0.0","1","null","6","null","6","156.46","1","993.69","1","41.231637","16.30298"],
    [2218,"2024-04-02 09:00:00","11","andria","15.63","1","42.77","1","0.0","1","null","6","null","6","323.1","1","993.55","1","41.231637","16.30298"],
    [2219,"2024-04-02 10:00:00","11","andria","17.69","1","32.39","1","0.0","1","null","6","null","6","670.4","1","993.49","1","41.231637","16.30298"],
    [2220,"2024-04-02 11:00:00","11","andria","18.86","1","28.88","1","0.0","1","null","6","null","6","843.82","1","993.17","1","41.231637","16.30298"],
    [2221,"2024-04-02 12:00:00","11","andria","19.97","1","24.92","1","0.0","1","null","6","null","6","872.23","1","992.76","1","41.231637","16.30298"],
    [2222,"2024-04-02 13:00:00","11","andria","20.43","1","23.98","1","0.0","1","null","6","null","6","848.15","1","992.49","1","41.231637","16.30298"],
    [2223,"2024-04-02 14:00:00","11","andria","20.71","1","23.85","1","0.0","1","null","6","null","6","728.0","1","992.43","1","41.231637","16.30298"],
    [2224,"2024-04-02 15:00:00","11","andria","21.0","1","23.95","1","0.0","1","null","6","null","6","579.24","1","992.44","1","41.231637","16.30298"],
    [2225,"2024-04-02 16:00:00","11","andria","20.67","1","25.05","1","0.0","1","null","6","null","6","312.41","1","992.51","1","41.231637","16.30298"],
    [2226,"2024-04-02 17:00:00","11","andria","17.98","1","38.75","1","0.0","1","null","6","null","6","82.79","1","993.32","1","41.231637","16.30298"],
    [2227,"2024-04-02 18:00:00","11","andria","16.92","1","44.43","1","0.0","1","null","6","null","6","47.42","1","993.83","1","41.231637","16.30298"],
    [2228,"2024-04-02 19:00:00","11","andria","16.16","1","45.79","1","0.0","1","null","6","null","6","0.0","5","994.24","1","41.231637","16.30298"],
    [2229,"2024-04-02 20:00:00","11","andria","15.05","1","54.58","1","0.0","1","null","6","null","6","0.0","5","994.91","1","41.231637","16.30298"],
    [2230,"2024-04-02 21:00:00","11","andria","14.61","1","48.79","1","0.0","1","null","6","null","6","0.0","5","995.09","1","41.231637","16.30298"],
    [2231,"2024-04-02 22:00:00","11","andria","13.89","1","50.17","1","0.0","1","null","6","null","6","0.0","5","995.49","1","41.231637","16.30298"],
    [2232,"2024-04-02 23:00:00","11","andria","12.97","1","54.78","1","0.0","1","null","6","null","6","0.0","5","995.67","1","41.231637","16.30298"],
    [2233,"2024-04-03 00:00:00","11","andria","12.6","1","56.25","1","0.0","1","null","6","null","6","0.0","5","996.0","1","41.231637","16.30298"],
    [2234,"2024-04-03 01:00:00","11","andria","12.26","1","55.62","1","0.0","1","null","6","null","6","0.0","5","995.78","1","41.231637","16.30298"],
    [2235,"2024-04-03 02:00:00","11","andria","11.85","1","56.99","1","0.0","1","null","6","null","6","0.0","1","995.58","1","41.231637","16.30298"],
    [2236,"2024-04-03 03:00:00","11","andria","11.71","1","58.07","1","0.0","1","null","6","null","6","0.0","5","995.17","1","41.231637","16.30298"],
    [2237,"2024-04-03 04:00:00","11","andria","11.67","1","57.28","1","0.0","1","null","6","null","6","0.0","5","995.03","1","41.231637","16.30298"],
    [2238,"2024-04-03 05:00:00","11","andria","11.45","1","56.76","1","0.0","1","null","6","null","6","0.0","5","994.68","1","41.231637","16.30298"],
    [2239,"2024-04-03 06:00:00","11","andria","11.1","1","56.92","1","0.0","1","null","6","null","6","0.0","5","994.63","1","41.231637","16.30298"],
    [2240,"2024-04-03 07:00:00","11","andria","12.14","1","52.88","1","0.0","1","null","6","null","6","47.44","1","994.95","1","41.231637","16.30298"],
    [2241,"2024-04-03 08:00:00","11","andria","14.72","1","45.58","1","0.0","1","null","6","null","6","208.24","1","994.91","1","41.231637","16.30298"],
    [2242,"2024-04-03 09:00:00","11","andria","18.18","1","36.05","1","0.0","1","null","6","null","6","467.49","1","994.79","1","41.231637","16.30298"],
    [2243,"2024-04-03 10:00:00","11","andria","20.32","1","32.63","1","0.0","1","null","6","null","6","604.45","1","994.52","1","41.231637","16.30298"],
    [2244,"2024-04-03 11:00:00","11","andria","20.51","1","37.99","1","0.0","1","null","6","null","6","625.25","1","994.48","1","41.231637","16.30298"],
    [2245,"2024-04-03 12:00:00","11","andria","19.72","1","38.3","1","0.0","1","null","6","null","6","593.95","1","994.5","1","41.231637","16.30298"],
    [2246,"2024-04-03 13:00:00","11","andria","19.58","1","37.56","1","0.0","1","null","6","null","6","454.39","1","994.19","1","41.231637","16.30298"],
    [2247,"2024-04-03 14:00:00","11","andria","19.48","1","38.22","1","0.0","1","null","6","null","6","390.34","1","994.05","1","41.231637","16.30298"],
    [2248,"2024-04-03 15:00:00","11","andria","18.83","1","41.49","1","0.0","1","null","6","null","6","287.48","1","993.95","1","41.231637","16.30298"],
    [2249,"2024-04-03 16:00:00","11","andria","18.69","1","43.4","1","0.0","1","null","6","null","6","231.26","1","993.38","1","41.231637","16.30298"],
    [2250,"2024-04-03 17:00:00","11","andria","19.05","1","32.64","1","0.0","1","null","6","null","6","106.31","1","993.35","1","41.231637","16.30298"],
    [2251,"2024-04-03 18:00:00","11","andria","18.34","1","31.65","1","0.0","1","null","6","null","6","28.91","1","993.59","1","41.231637","16.30298"],
    [2252,"2024-04-03 19:00:00","11","andria","17.19","1","36.55","1","0.0","1","null","6","null","6","0.0","5","994.04","1","41.231637","16.30298"],
    [2253,"2024-04-03 20:00:00","11","andria","15.92","1","40.31","1","0.0","1","null","6","null","6","0.0","5","994.45","1","41.231637","16.30298"],
    [2254,"2024-04-03 21:00:00","11","andria","14.92","1","44.76","1","0.0","1","null","6","null","6","0.0","5","994.76","1","41.231637","16.30298"],
    [2255,"2024-04-03 22:00:00","11","andria","14.7","1","45.64","1","0.0","1","null","6","null","6","0.0","5","994.92","1","41.231637","16.30298"],
    [2256,"2024-04-03 23:00:00","11","andria","14.26","1","48.24","1","0.0","1","null","6","null","6","0.0","5","995.13","1","41.231637","16.30298"],
    [2257,"2024-04-04 00:00:00","11","andria","13.86","1","45.68","1","0.0","1","null","6","null","6","0.0","5","995.18","1","41.231637","16.30298"],
    [2258,"2024-04-04 01:00:00","11","andria","13.4","1","43.58","1","0.0","1","null","6","null","6","0.0","5","995.49","1","41.231637","16.30298"],
    [2259,"2024-04-04 02:00:00","11","andria","12.91","1","47.3","1","0.0","1","null","6","null","6","0.0","1","995.35","1","41.231637","16.30298"],
    [2260,"2024-04-04 03:00:00","11","andria","12.68","1","50.47","1","0.0","1","null","6","null","6","0.0","5","995.53","1","41.231637","16.30298"],
    [2261,"2024-04-04 04:00:00","11","andria","12.37","1","54.61","1","0.0","1","null","6","null","6","0.0","5","995.55","1","41.231637","16.30298"],
    [2262,"2024-04-04 05:00:00","11","andria","12.21","1","57.58","1","0.0","1","null","6","null","6","0.0","1","996.01","1","41.231637","16.30298"],
    [2263,"2024-04-04 06:00:00","11","andria","11.81","1","58.86","1","0.0","1","null","6","null","6","0.0","5","996.16","1","41.231637","16.30298"],
    [2264,"2024-04-04 07:00:00","11","andria","12.28","1","57.34","1","0.0","1","null","6","null","6","19.11","1","996.65","1","41.231637","16.30298"],
    [2265,"2024-04-04 08:00:00","11","andria","14.51","1","51.19","1","0.0","1","null","6","null","6","212.43","1","997.12","1","41.231637","16.30298"],
    [2266,"2024-04-04 09:00:00","11","andria","17.49","1","41.55","1","0.0","1","null","6","null","6","509.07","1","997.44","1","41.231637","16.30298"],
    [2267,"2024-04-04 10:00:00","11","andria","19.04","1","35.26","1","0.0","1","null","6","null","6","644.17","1","997.26","1","41.231637","16.30298"],
    [2268,"2024-04-04 11:00:00","11","andria","20.84","1","31.15","1","0.0","1","null","6","null","6","822.33","1","997.3","1","41.231637","16.30298"],
    [2269,"2024-04-04 12:00:00","11","andria","21.97","1","28.56","1","0.0","1","null","6","null","6","859.0","1","996.8","1","41.231637","16.30298"],
    [2270,"2024-04-04 13:00:00","11","andria","21.63","1","28.43","1","0.0","1","null","6","null","6","837.45","1","996.71","1","41.231637","16.30298"],
    [2271,"2024-04-04 14:00:00","11","andria","21.77","1","29.03","1","0.0","1","null","6","null","6","768.03","1","996.48","1","41.231637","16.30298"],
    [2272,"2024-04-04 15:00:00","11","andria","21.73","1","31.83","1","0.0","1","null","6","null","6","541.08","1","996.31","1","41.231637","16.30298"],
    [2273,"2024-04-04 16:00:00","11","andria","20.78","1","35.57","1","0.0","1","null","6","null","6","307.89","1","996.12","1","41.231637","16.30298"],
    [2274,"2024-04-04 17:00:00","11","andria","18.48","1","41.63","1","0.0","1","null","6","null","6","52.35","1","996.71","1","41.231637","16.30298"],
    [2275,"2024-04-04 18:00:00","11","andria","17.49","1","43.94","1","0.0","1","null","6","null","6","30.22","1","996.91","1","41.231637","16.30298"],
    [2276,"2024-04-04 19:00:00","11","andria","16.37","1","48.93","1","0.0","1","null","6","null","6","0.0","5","997.17","1","41.231637","16.30298"],
    [2277,"2024-04-04 20:00:00","11","andria","15.72","1","49.59","1","0.0","1","null","6","null","6","0.0","5","997.86","1","41.231637","16.30298"],
    [2278,"2024-04-04 21:00:00","11","andria","15.3","1","49.69","1","0.0","1","null","6","null","6","0.0","5","998.53","1","41.231637","16.30298"],
    [2279,"2024-04-04 22:00:00","11","andria","15.38","1","51.77","1","0.0","1","null","6","null","6","0.0","5","998.8","1","41.231637","16.30298"],
    [2280,"2024-04-04 23:00:00","11","andria","14.82","1","53.78","1","0.0","1","null","6","null","6","0.0","5","998.75","1","41.231637","16.30298"],
    [2281,"2024-04-05 00:00:00","11","andria","14.21","1","55.7","1","0.0","1","null","6","null","6","0.0","5","998.75","1","41.231637","16.30298"],
    [2282,"2024-04-05 01:00:00","11","andria","13.88","1","56.33","1","0.0","1","null","6","null","6","0.0","5","998.75","1","41.231637","16.30298"],
    [2283,"2024-04-05 02:00:00","11","andria","13.55","1","56.81","1","0.0","1","null","6","null","6","0.0","5","998.98","1","41.231637","16.30298"],
    [2284,"2024-04-05 03:00:00","11","andria","13.76","1","51.07","1","0.0","1","null","6","null","6","0.0","1","998.85","1","41.231637","16.30298"],
    [2285,"2024-04-05 04:00:00","11","andria","13.9","1","46.71","1","0.0","1","null","6","null","6","0.0","1","998.9","1","41.231637","16.30298"],
    [2286,"2024-04-05 05:00:00","11","andria","13.42","1","47.59","1","0.0","1","null","6","null","6","0.0","5","998.89","1","41.231637","16.30298"],
    [2287,"2024-04-05 06:00:00","11","andria","13.41","1","47.53","1","0.0","1","null","6","null","6","0.0","5","999.64","1","41.231637","16.30298"],
    [2288,"2024-04-05 07:00:00","11","andria","13.65","1","47.3","1","0.0","1","null","6","null","6","26.01","1","1000.27","1","41.231637","16.30298"],
    [2289,"2024-04-05 08:00:00","11","andria","15.75","1","43.24","1","0.0","1","null","6","null","6","215.46","1","1000.45","1","41.231637","16.30298"],
    [2290,"2024-04-05 09:00:00","11","andria","19.05","1","38.26","1","0.0","1","null","6","null","6","495.16","1","1000.57","1","41.231637","16.30298"],
    [2291,"2024-04-05 10:00:00","11","andria","19.86","1","37.88","1","0.0","1","null","6","null","6","622.99","1","1000.64","1","41.231637","16.30298"],
    [2292,"2024-04-05 11:00:00","11","andria","21.52","1","34.02","1","0.0","1","null","6","null","6","753.48","1","1000.39","1","41.231637","16.30298"],
    [2293,"2024-04-05 12:00:00","11","andria","22.03","1","31.71","1","0.0","1","null","6","null","6","862.36","1","1000.49","1","41.231637","16.30298"],
    [2294,"2024-04-05 13:00:00","11","andria","21.82","1","29.98","1","0.0","1","null","6","null","6","811.24","1","1000.1","1","41.231637","16.30298"],
    [2295,"2024-04-05 14:00:00","11","andria","20.65","1","32.92","1","0.0","1","null","6","null","6","522.87","1","1000.17","1","41.231637","16.30298"],
    [2296,"2024-04-05 15:00:00","11","andria","21.75","1","29.74","1","0.0","1","null","6","null","6","513.5","1","1000.05","1","41.231637","16.30298"],
    [2297,"2024-04-05 16:00:00","11","andria","22.46","1","26.79","1","0.0","1","null","6","null","6","323.08","1","999.61","1","41.231637","16.30298"],
    [2298,"2024-04-05 17:00:00","11","andria","19.95","1","32.68","1","0.0","1","null","6","null","6","56.8","1","999.41","1","41.231637","16.30298"],
    [2299,"2024-04-05 18:00:00","11","andria","18.7","1","37.97","1","0.0","1","null","6","null","6","31.23","1","1000.22","1","41.231637","16.30298"],
    [2300,"2024-04-05 19:00:00","11","andria","16.99","1","44.49","1","0.0","1","null","6","null","6","0.0","5","999.93","1","41.231637","16.30298"],
    [2301,"2024-04-05 20:00:00","11","andria","15.87","1","46.26","1","0.0","1","null","6","null","6","0.0","5","1000.48","1","41.231637","16.30298"],
    [2302,"2024-04-05 21:00:00","11","andria","15.66","1","45.4","1","0.0","1","null","6","null","6","0.0","5","1000.55","1","41.231637","16.30298"],
    [2303,"2024-04-05 22:00:00","11","andria","15.11","1","50.08","1","0.0","1","null","6","null","6","0.0","5","1000.95","1","41.231637","16.30298"],
    [2304,"2024-04-05 23:00:00","11","andria","15.12","1","50.95","1","0.0","1","null","6","null","6","0.0","5","1000.62","1","41.231637","16.30298"],
    [2305,"2024-04-06 00:00:00","11","andria","14.75","1","52.52","1","0.0","1","null","6","null","6","0.0","5","1000.59","1","41.231637","16.30298"],
    [2306,"2024-04-06 01:00:00","11","andria","13.85","1","56.24","1","0.0","1","null","6","null","6","0.0","5","1000.53","1","41.231637","16.30298"],
    [2307,"2024-04-06 02:00:00","11","andria","14.18","1","54.54","1","0.0","1","null","6","null","6","0.0","5","1000.26","1","41.231637","16.30298"],
    [2308,"2024-04-06 03:00:00","11","andria","14.7","1","52.42","1","0.0","1","null","6","null","6","0.0","5","1000.05","1","41.231637","16.30298"],
    [2309,"2024-04-06 04:00:00","11","andria","14.06","1","55.07","1","0.0","1","null","6","null","6","0.0","5","999.9","1","41.231637","16.30298"],
    [2310,"2024-04-06 05:00:00","11","andria","12.81","1","60.27","1","0.0","1","null","6","null","6","0.0","5","999.85","1","41.231637","16.30298"],
    [2311,"2024-04-06 06:00:00","11","andria","13.31","1","58.74","1","0.0","1","null","6","null","6","0.0","5","1000.37","1","41.231637","16.30298"],
    [2312,"2024-04-06 07:00:00","11","andria","14.45","1","55.9","1","0.0","1","null","6","null","6","58.63","1","1000.91","1","41.231637","16.30298"],
    [2313,"2024-04-06 08:00:00","11","andria","16.81","1","51.97","1","0.0","1","null","6","null","6","188.81","1","1000.73","1","41.231637","16.30298"],
    [2314,"2024-04-06 09:00:00","11","andria","19.49","1","47.73","1","0.0","1","null","6","null","6","352.23","1","1000.56","1","41.231637","16.30298"],
    [2315,"2024-04-06 10:00:00","11","andria","20.82","1","44.55","1","0.0","1","null","6","null","6","541.28","1","1001.11","1","41.231637","16.30298"],
    [2316,"2024-04-06 11:00:00","11","andria","20.79","1","46.89","1","0.0","1","null","6","null","6","635.99","1","1000.88","1","41.231637","16.30298"],
    [2317,"2024-04-06 12:00:00","11","andria","22.1","1","41.24","1","0.0","1","null","6","null","6","704.71","1","1000.43","1","41.231637","16.30298"],
    [2318,"2024-04-06 13:00:00","11","andria","23.15","1","35.69","1","0.0","1","null","6","null","6","689.51","1","999.87","1","41.231637","16.30298"],
    [2319,"2024-04-06 14:00:00","11","andria","24.9","1","30.61","1","0.0","1","null","6","null","6","775.39","1","999.28","1","41.231637","16.30298"],
    [2320,"2024-04-06 15:00:00","11","andria","24.38","1","29.56","1","0.0","1","null","6","null","6","512.77","1","998.8","1","41.231637","16.30298"],
    [2321,"2024-04-06 16:00:00","11","andria","23.09","1","31.0","1","0.0","1","null","6","null","6","324.55","1","998.62","1","41.231637","16.30298"],
    [2322,"2024-04-06 17:00:00","11","andria","20.94","1","34.75","1","0.0","1","null","6","null","6","53.53","1","998.72","1","41.231637","16.30298"],
    [2323,"2024-04-06 18:00:00","11","andria","19.8","1","36.14","1","0.0","1","null","6","null","6","24.65","1","998.55","1","41.231637","16.30298"],
    [2324,"2024-04-06 19:00:00","11","andria","18.45","1","36.31","1","0.0","1","null","6","null","6","0.0","5","999.09","1","41.231637","16.30298"],
    [2325,"2024-04-06 20:00:00","11","andria","17.72","1","39.36","1","0.0","1","null","6","null","6","0.0","5","999.12","1","41.231637","16.30298"],
    [2326,"2024-04-06 21:00:00","11","andria","16.84","1","45.85","1","0.0","1","null","6","null","6","0.0","5","999.38","1","41.231637","16.30298"],
    [2327,"2024-04-06 22:00:00","11","andria","16.09","1","49.55","1","0.0","1","null","6","null","6","0.0","5","999.43","1","41.231637","16.30298"],
    [2328,"2024-04-06 23:00:00","11","andria","15.5","1","51.83","1","0.0","1","null","6","null","6","0.0","5","999.46","1","41.231637","16.30298"],
    [2329,"2024-04-07 00:00:00","11","andria","15.73","1","52.62","1","0.0","1","null","6","null","6","0.0","5","998.98","1","41.231637","16.30298"],
    [2330,"2024-04-07 01:00:00","11","andria","15.45","1","52.8","1","0.0","1","null","6","null","6","0.0","5","999.16","1","41.231637","16.30298"],
    [2331,"2024-04-07 02:00:00","11","andria","14.93","1","56.54","1","0.0","1","null","6","null","6","0.0","5","998.96","1","41.231637","16.30298"],
    [2332,"2024-04-07 03:00:00","11","andria","15.5","1","57.08","1","0.0","1","null","6","null","6","0.0","5","998.59","1","41.231637","16.30298"],
    [2333,"2024-04-07 04:00:00","11","andria","15.41","1","60.2","1","0.0","1","null","6","null","6","0.0","5","998.02","1","41.231637","16.30298"],
    [2334,"2024-04-07 05:00:00","11","andria","15.32","1","59.79","1","0.0","1","null","6","null","6","0.0","5","997.97","1","41.231637","16.30298"],
    [2335,"2024-04-07 06:00:00","11","andria","15.22","1","59.43","1","0.0","1","null","6","null","6","0.0","5","998.35","1","41.231637","16.30298"],
    [2336,"2024-04-07 07:00:00","11","andria","15.14","1","58.79","1","0.0","1","null","6","null","6","22.23","1","998.6","1","41.231637","16.30298"],
    [2337,"2024-04-07 08:00:00","11","andria","17.14","1","53.75","1","0.0","1","null","6","null","6","221.86","1","998.56","1","41.231637","16.30298"],
    [2338,"2024-04-07 09:00:00","11","andria","20.68","1","42.36","1","0.0","1","null","6","null","6","518.25","1","998.11","1","41.231637","16.30298"],
    [2339,"2024-04-07 10:00:00","11","andria","22.78","1","34.13","1","0.0","1","null","6","null","6","680.25","1","997.82","1","41.231637","16.30298"],
    [2340,"2024-04-07 11:00:00","11","andria","24.56","1","29.06","1","0.0","1","null","6","null","6","839.38","1","997.16","1","41.231637","16.30298"],
    [2341,"2024-04-07 12:00:00","11","andria","25.89","1","27.99","1","0.0","1","null","6","null","6","870.41","1","996.66","1","41.231637","16.30298"],
    [2342,"2024-04-07 13:00:00","11","andria","25.27","1","32.82","1","0.0","1","null","6","null","6","849.25","1","996.37","1","41.231637","16.30298"],
    [2343,"2024-04-07 14:00:00","11","andria","25.26","1","29.35","1","0.0","1","null","6","null","6","783.47","1","995.76","1","41.231637","16.30298"],
    [2344,"2024-04-07 15:00:00","11","andria","25.76","1","29.14","1","0.0","1","null","6","null","6","529.2","1","995.47","1","41.231637","16.30298"],
    [2345,"2024-04-07 16:00:00","11","andria","24.39","1","32.78","1","0.0","1","null","6","null","6","335.27","1","995.01","1","41.231637","16.30298"],
    [2346,"2024-04-07 17:00:00","11","andria","21.7","1","37.49","1","0.0","1","null","6","null","6","54.34","1","995.16","1","41.231637","16.30298"],
    [2347,"2024-04-07 18:00:00","11","andria","20.5","1","40.8","1","0.0","1","null","6","null","6","32.65","1","995.34","1","41.231637","16.30298"],
    [2348,"2024-04-07 19:00:00","11","andria","19.23","1","44.52","1","0.0","1","null","6","null","6","0.0","5","995.19","1","41.231637","16.30298"],
    [2349,"2024-04-07 20:00:00","11","andria","18.95","1","43.29","1","0.0","1","null","6","null","6","0.0","5","995.2","1","41.231637","16.30298"],
    [2350,"2024-04-07 21:00:00","11","andria","18.11","1","37.4","1","0.0","1","null","6","null","6","0.0","5","995.49","1","41.231637","16.30298"],
    [2351,"2024-04-07 22:00:00","11","andria","17.44","1","37.7","1","0.0","1","null","6","null","6","0.0","5","995.68","1","41.231637","16.30298"],
    [2352,"2024-04-07 23:00:00","11","andria","16.9","1","39.68","1","0.0","1","null","6","null","6","0.0","5","995.85","1","41.231637","16.30298"],
    [2353,"2024-04-08 00:00:00","11","andria","16.96","1","37.15","1","0.0","1","null","6","null","6","0.0","5","995.59","1","41.231637","16.30298"],
    [2354,"2024-04-08 01:00:00","11","andria","16.78","1","35.45","1","0.0","1","null","6","null","6","0.0","5","995.38","1","41.231637","16.30298"],
    [2355,"2024-04-08 02:00:00","11","andria","16.52","1","34.73","1","0.0","1","null","6","null","6","0.0","5","995.23","1","41.231637","16.30298"],
    [2356,"2024-04-08 03:00:00","11","andria","16.34","1","34.1","1","0.0","1","null","6","null","6","0.0","5","995.38","1","41.231637","16.30298"],
    [2357,"2024-04-08 04:00:00","11","andria","15.35","1","36.54","1","0.0","1","null","6","null","6","0.0","5","995.43","1","41.231637","16.30298"],
    [2358,"2024-04-08 05:00:00","11","andria","14.21","1","39.7","1","0.0","1","null","6","null","6","0.0","5","995.43","1","41.231637","16.30298"],
    [2359,"2024-04-08 06:00:00","11","andria","13.52","1","41.59","1","0.0","1","null","6","null","6","5.64","1","995.59","1","41.231637","16.30298"],
    [2360,"2024-04-08 07:00:00","11","andria","14.45","1","40.54","1","0.0","1","null","6","null","6","27.76","1","995.82","1","41.231637","16.30298"],
    [2361,"2024-04-08 08:00:00","11","andria","18.09","1","35.28","1","0.0","1","null","6","null","6","227.06","1","996.33","1","41.231637","16.30298"],
    [2362,"2024-04-08 09:00:00","11","andria","22.88","1","28.36","1","0.0","1","null","6","null","6","511.99","1","996.02","1","41.231637","16.30298"],
    [2363,"2024-04-08 10:00:00","11","andria","23.66","1","30.72","1","0.0","1","null","6","null","6","639.79","1","995.56","1","41.231637","16.30298"],
    [2364,"2024-04-08 11:00:00","11","andria","24.17","1","31.58","1","0.0","1","null","6","null","6","813.28","1","995.31","1","41.231637","16.30298"],
    [2365,"2024-04-08 12:00:00","11","andria","24.73","1","31.91","1","0.0","1","null","6","null","6","858.97","1","994.66","1","41.231637","16.30298"],
    [2366,"2024-04-08 13:00:00","11","andria","25.29","1","32.95","1","0.0","1","null","6","null","6","826.43","1","994.11","1","41.231637","16.30298"],
    [2367,"2024-04-08 14:00:00","11","andria","24.95","1","36.2","1","0.0","1","null","6","null","6","748.94","1","993.8","1","41.231637","16.30298"],
    [2368,"2024-04-08 15:00:00","11","andria","24.33","1","37.17","1","0.0","1","null","6","null","6","512.56","1","993.59","1","41.231637","16.30298"],
    [2369,"2024-04-08 16:00:00","11","andria","23.85","1","38.65","1","0.0","1","null","6","null","6","352.74","1","993.23","1","41.231637","16.30298"],
    [2370,"2024-04-08 17:00:00","11","andria","22.17","1","43.36","1","0.0","1","null","6","null","6","66.81","1","993.35","1","41.231637","16.30298"],
    [2371,"2024-04-08 18:00:00","11","andria","21.09","1","48.18","1","0.0","1","null","6","null","6","34.23","1","993.43","1","41.231637","16.30298"],
    [2372,"2024-04-08 19:00:00","11","andria","19.73","1","53.59","1","0.0","1","null","6","null","6","0.0","5","993.37","1","41.231637","16.30298"],
    [2373,"2024-04-08 20:00:00","11","andria","19.81","1","42.87","1","0.0","1","null","6","null","6","0.0","5","993.68","1","41.231637","16.30298"],
    [2374,"2024-04-08 21:00:00","11","andria","19.08","1","41.78","1","0.0","1","null","6","null","6","0.0","5","994.01","1","41.231637","16.30298"],
    [2375,"2024-04-08 22:00:00","11","andria","18.51","1","43.89","1","0.0","1","null","6","null","6","0.0","5","993.86","1","41.231637","16.30298"],
    [2376,"2024-04-08 23:00:00","11","andria","18.34","1","43.91","1","0.0","1","null","6","null","6","0.0","5","993.57","1","41.231637","16.30298"],
    [2377,"2024-04-09 00:00:00","11","andria","18.4","1","47.74","1","0.0","1","null","6","null","6","0.0","5","993.81","1","41.231637","16.30298"],
    [2378,"2024-04-09 01:00:00","11","andria","16.71","1","58.57","1","0.0","1","null","6","null","6","0.0","5","993.59","1","41.231637","16.30298"],
    [2379,"2024-04-09 02:00:00","11","andria","15.76","1","66.41","1","0.0","1","null","6","null","6","0.0","5","993.51","1","41.231637","16.30298"],
    [2380,"2024-04-09 03:00:00","11","andria","15.37","1","72.89","1","0.0","1","null","6","null","6","0.0","5","993.27","1","41.231637","16.30298"],
    [2381,"2024-04-09 04:00:00","11","andria","14.72","1","76.3","1","0.0","1","null","6","null","6","0.0","5","993.43","1","41.231637","16.30298"],
    [2382,"2024-04-09 05:00:00","11","andria","14.96","1","71.91","1","0.0","1","null","6","null","6","0.0","5","993.62","1","41.231637","16.30298"],
    [2383,"2024-04-09 06:00:00","11","andria","15.01","1","68.12","1","0.0","1","null","6","null","6","0.0","5","993.6","1","41.231637","16.30298"],
    [2384,"2024-04-09 07:00:00","11","andria","15.98","1","57.69","1","0.0","1","null","6","null","6","30.25","1","993.67","1","41.231637","16.30298"],
    [2385,"2024-04-09 08:00:00","11","andria","18.83","1","48.51","1","0.0","1","null","6","null","6","200.55","1","993.77","1","41.231637","16.30298"],
    [2386,"2024-04-09 09:00:00","11","andria","22.32","1","43.32","1","0.0","1","null","6","null","6","482.95","1","993.38","1","41.231637","16.30298"],
    [2387,"2024-04-09 10:00:00","11","andria","24.81","1","36.06","1","0.0","1","null","6","null","6","643.89","1","993.1","1","41.231637","16.30298"],
    [2388,"2024-04-09 11:00:00","11","andria","26.5","1","33.46","1","0.0","1","null","6","null","6","816.16","1","992.51","1","41.231637","16.30298"],
    [2389,"2024-04-09 12:00:00","11","andria","26.99","1","31.63","1","0.0","1","null","6","null","6","817.1","1","992.22","1","41.231637","16.30298"],
    [2390,"2024-04-09 13:00:00","11","andria","27.44","1","28.2","1","0.0","1","null","6","null","6","747.79","1","991.76","1","41.231637","16.30298"],
    [2391,"2024-04-09 14:00:00","11","andria","28.02","1","26.84","1","0.0","1","null","6","null","6","715.47","1","991.31","1","41.231637","16.30298"],
    [2392,"2024-04-09 15:00:00","11","andria","28.86","1","25.84","1","0.0","1","null","6","null","6","534.22","1","990.75","1","41.231637","16.30298"],
    [2393,"2024-04-09 16:00:00","11","andria","28.14","1","27.4","1","0.0","1","null","6","null","6","313.88","1","990.28","1","41.231637","16.30298"],
    [2394,"2024-04-09 17:00:00","11","andria","25.9","1","31.15","1","0.0","1","null","6","null","6","75.72","1","990.58","1","41.231637","16.30298"],
    [2395,"2024-04-09 18:00:00","11","andria","24.67","1","30.21","1","0.0","1","null","6","null","6","37.05","1","990.56","1","41.231637","16.30298"],
    [2396,"2024-04-09 19:00:00","11","andria","23.14","1","34.96","1","0.0","1","null","6","null","6","0.0","5","990.98","1","41.231637","16.30298"],
    [2397,"2024-04-09 20:00:00","11","andria","21.47","1","36.56","1","0.0","1","null","6","null","6","0.0","5","991.68","1","41.231637","16.30298"],
    [2398,"2024-04-09 21:00:00","11","andria","20.51","1","33.11","1","0.0","1","null","6","null","6","0.0","5","992.12","1","41.231637","16.30298"],
    [2399,"2024-04-09 22:00:00","11","andria","19.97","1","32.68","1","0.0","1","null","6","null","6","0.0","5","991.92","1","41.231637","16.30298"],
    [2400,"2024-04-09 23:00:00","11","andria","19.22","1","31.6","1","0.0","1","null","6","null","6","0.0","5","991.86","1","41.231637","16.30298"],
    [2401,"2024-04-10 00:00:00","11","andria","19.69","1","26.17","1","0.0","1","null","6","null","6","0.0","5","991.48","1","41.231637","16.30298"],
    [2402,"2024-04-10 01:00:00","11","andria","19.15","1","27.36","1","0.0","1","null","6","null","6","0.0","5","991.43","1","41.231637","16.30298"],
    [2403,"2024-04-10 02:00:00","11","andria","18.49","1","29.45","1","0.0","1","null","6","null","6","0.0","1","991.03","1","41.231637","16.30298"],
    [2404,"2024-04-10 03:00:00","11","andria","16.61","1","35.07","1","0.0","1","null","6","null","6","0.0","5","991.17","1","41.231637","16.30298"],
    [2405,"2024-04-10 04:00:00","11","andria","16.27","1","37.47","1","0.0","1","null","6","null","6","0.0","5","990.77","1","41.231637","16.30298"],
    [2406,"2024-04-10 05:00:00","11","andria","16.32","1","37.25","1","0.0","1","null","6","null","6","0.0","5","990.88","1","41.231637","16.30298"],
    [2407,"2024-04-10 06:00:00","11","andria","15.91","1","37.5","1","0.0","1","null","6","null","6","0.0","5","991.16","1","41.231637","16.30298"],
    [2408,"2024-04-10 07:00:00","11","andria","15.91","1","40.9","1","0.0","1","null","6","null","6","43.77","1","991.56","1","41.231637","16.30298"],
    [2409,"2024-04-10 08:00:00","11","andria","17.7","1","39.16","1","0.0","1","null","6","null","6","217.89","1","991.99","1","41.231637","16.30298"],
    [2410,"2024-04-10 09:00:00","11","andria","20.46","1","37.07","1","0.0","1","null","6","null","6","513.48","1","992.1","1","41.231637","16.30298"],
    [2411,"2024-04-10 10:00:00","11","andria","21.29","1","38.25","1","0.0","1","null","6","null","6","332.13","1","992.17","1","41.231637","16.30298"],
    [2412,"2024-04-10 11:00:00","11","andria","22.52","1","39.16","1","0.0","1","null","6","null","6","619.05","1","992.28","1","41.231637","16.30298"],
    [2413,"2024-04-10 12:00:00","11","andria","24.16","1","37.69","1","0.0","1","null","6","null","6","716.12","1","991.92","1","41.231637","16.30298"],
    [2414,"2024-04-10 13:00:00","11","andria","23.56","1","42.48","1","0.0","1","null","6","null","6","518.31","1","991.62","1","41.231637","16.30298"],
    [2415,"2024-04-10 14:00:00","11","andria","23.02","1","42.87","1","0.0","1","null","6","null","6","489.27","1","992.1","1","41.231637","16.30298"],
    [2416,"2024-04-10 15:00:00","11","andria","23.58","1","38.64","1","0.0","1","null","6","null","6","409.57","1","992.16","1","41.231637","16.30298"],
    [2417,"2024-04-10 16:00:00","11","andria","22.57","1","38.31","1","0.0","1","null","6","null","6","284.59","1","992.68","1","41.231637","16.30298"],
    [2418,"2024-04-10 17:00:00","11","andria","20.47","1","39.55","1","0.0","1","null","6","null","6","115.23","1","993.69","1","41.231637","16.30298"],
    [2419,"2024-04-10 18:00:00","11","andria","18.91","1","40.63","1","0.0","1","null","6","null","6","38.79","1","994.38","1","41.231637","16.30298"],
    [2420,"2024-04-10 19:00:00","11","andria","17.46","1","43.67","1","0.0","1","null","6","null","6","0.0","5","994.66","1","41.231637","16.30298"],
    [2421,"2024-04-10 20:00:00","11","andria","16.7","1","44.13","1","0.0","1","null","6","null","6","0.0","5","994.94","1","41.231637","16.30298"],
    [2422,"2024-04-10 21:00:00","11","andria","16.12","1","45.53","1","0.0","1","null","6","null","6","0.0","5","996.13","1","41.231637","16.30298"],
    [2423,"2024-04-10 22:00:00","11","andria","16.07","1","45.25","1","0.0","1","null","6","null","6","0.0","5","996.84","1","41.231637","16.30298"],
    [2424,"2024-04-10 23:00:00","11","andria","15.85","1","46.69","1","0.0","1","null","6","null","6","0.0","5","997.29","1","41.231637","16.30298"],
    [2425,"2024-04-11 00:00:00","11","andria","15.34","1","48.08","1","0.0","1","null","6","null","6","0.0","5","997.72","1","41.231637","16.30298"],
    [2426,"2024-04-11 01:00:00","11","andria","15.08","1","45.2","1","0.0","1","null","6","null","6","0.0","5","997.91","1","41.231637","16.30298"],
    [2427,"2024-04-11 02:00:00","11","andria","14.88","1","44.29","1","0.0","1","null","6","null","6","0.0","5","997.64","1","41.231637","16.30298"],
    [2428,"2024-04-11 03:00:00","11","andria","14.66","1","43.23","1","0.0","1","null","6","null","6","0.0","5","997.87","1","41.231637","16.30298"],
    [2429,"2024-04-11 04:00:00","11","andria","14.67","1","40.87","1","0.0","1","null","6","null","6","0.0","5","997.86","1","41.231637","16.30298"],
    [2430,"2024-04-11 05:00:00","11","andria","14.59","1","41.13","1","0.0","1","null","6","null","6","0.0","5","998.13","1","41.231637","16.30298"],
    [2431,"2024-04-11 06:00:00","11","andria","14.36","1","44.8","1","0.0","1","null","6","null","6","8.22","1","998.26","1","41.231637","16.30298"],
    [2432,"2024-04-11 07:00:00","11","andria","14.58","1","50.78","1","0.0","1","null","6","null","6","70.75","1","998.49","1","41.231637","16.30298"],
    [2433,"2024-04-11 08:00:00","11","andria","15.45","1","57.58","1","0.0","1","null","6","null","6","153.0","1","998.57","1","41.231637","16.30298"],
    [2434,"2024-04-11 09:00:00","11","andria","16.01","1","59.34","1","0.0","1","null","6","null","6","194.31","1","999.36","1","41.231637","16.30298"],
    [2435,"2024-04-11 10:00:00","11","andria","16.73","1","61.37","1","0.0","1","null","6","null","6","262.96","1","999.51","1","41.231637","16.30298"],
    [2436,"2024-04-11 11:00:00","11","andria","17.97","1","58.48","1","0.0","1","null","6","null","6","303.55","1","999.74","1","41.231637","16.30298"],
    [2437,"2024-04-11 12:00:00","11","andria","18.37","1","54.91","1","0.0","1","null","6","null","6","243.54","1","1000.26","1","41.231637","16.30298"],
    [2438,"2024-04-11 13:00:00","11","andria","19.9","1","47.71","1","0.0","1","null","6","null","6","381.35","1","1000.16","1","41.231637","16.30298"],
    [2439,"2024-04-11 14:00:00","11","andria","20.78","1","42.97","1","0.0","1","null","6","null","6","419.86","1","999.69","1","41.231637","16.30298"],
    [2440,"2024-04-11 15:00:00","11","andria","21.34","1","41.29","1","0.0","1","null","6","null","6","351.96","1","999.71","1","41.231637","16.30298"],
    [2441,"2024-04-11 16:00:00","11","andria","21.64","1","43.36","1","0.0","1","null","6","null","6","255.76","1","999.37","1","41.231637","16.30298"],
    [2442,"2024-04-11 17:00:00","11","andria","19.75","1","50.74","1","0.0","1","null","6","null","6","112.16","1","999.61","1","41.231637","16.30298"],
    [2443,"2024-04-11 18:00:00","11","andria","18.74","1","50.89","1","0.0","1","null","6","null","6","51.96","1","1000.09","1","41.231637","16.30298"],
    [2444,"2024-04-11 19:00:00","11","andria","17.45","1","53.77","1","0.0","1","null","6","null","6","7.77","1","999.83","1","41.231637","16.30298"],
    [2445,"2024-04-11 20:00:00","11","andria","16.3","1","57.19","1","0.0","1","null","6","null","6","0.0","5","1000.81","1","41.231637","16.30298"],
    [2446,"2024-04-11 21:00:00","11","andria","15.43","1","61.76","1","0.0","1","null","6","null","6","0.0","5","1001.66","1","41.231637","16.30298"],
    [2447,"2024-04-11 22:00:00","11","andria","14.72","1","66.59","1","0.0","1","null","6","null","6","0.0","5","1002.27","1","41.231637","16.30298"],
    [2448,"2024-04-11 23:00:00","11","andria","14.2","1","70.9","1","0.0","1","null","6","null","6","0.0","5","1002.53","1","41.231637","16.30298"],
    [2449,"2024-04-12 00:00:00","11","andria","13.88","1","74.98","1","0.0","1","null","6","null","6","0.0","5","1002.82","1","41.231637","16.30298"],
    [2450,"2024-04-12 01:00:00","11","andria","13.62","1","73.49","1","0.0","1","null","6","null","6","0.0","5","1002.44","1","41.231637","16.30298"],
    [2451,"2024-04-12 02:00:00","11","andria","13.62","1","67.25","1","0.0","1","null","6","null","6","0.0","5","1002.38","1","41.231637","16.30298"],
    [2452,"2024-04-12 03:00:00","11","andria","13.75","1","62.0","1","0.0","1","null","6","null","6","0.0","5","1002.13","1","41.231637","16.30298"],
    [2453,"2024-04-12 04:00:00","11","andria","13.95","1","58.76","1","0.0","1","null","6","null","6","0.0","5","1002.44","1","41.231637","16.30298"],
    [2454,"2024-04-12 05:00:00","11","andria","13.95","1","58.66","1","0.0","1","null","6","null","6","0.0","5","1002.14","1","41.231637","16.30298"],
    [2455,"2024-04-12 06:00:00","11","andria","13.84","1","60.52","1","0.0","1","null","6","null","6","6.26","1","1002.43","1","41.231637","16.30298"],
    [2456,"2024-04-12 07:00:00","11","andria","14.29","1","60.38","1","0.0","1","null","6","null","6","28.95","1","1002.51","1","41.231637","16.30298"],
    [2457,"2024-04-12 08:00:00","11","andria","16.14","1","56.57","1","0.0","1","null","6","null","6","233.95","1","1002.9","1","41.231637","16.30298"],
    [2458,"2024-04-12 09:00:00","11","andria","18.5","1","50.87","1","0.0","1","null","6","null","6","515.57","1","1003.16","1","41.231637","16.30298"],
    [2459,"2024-04-12 10:00:00","11","andria","20.68","1","45.82","1","0.0","1","null","6","null","6","673.65","1","1003.02","1","41.231637","16.30298"],
    [2460,"2024-04-12 11:00:00","11","andria","22.62","1","39.75","1","0.0","1","null","6","null","6","817.31","1","1002.71","1","41.231637","16.30298"],
    [2461,"2024-04-12 12:00:00","11","andria","24.61","1","33.77","1","0.0","1","null","6","null","6","850.69","1","1002.25","1","41.231637","16.30298"],
    [2462,"2024-04-12 13:00:00","11","andria","24.84","1","31.21","1","0.0","1","null","6","null","6","826.9","1","1002.24","1","41.231637","16.30298"],
    [2463,"2024-04-12 14:00:00","11","andria","25.48","1","31.35","1","0.0","1","null","6","null","6","756.65","1","1001.85","1","41.231637","16.30298"],
    [2464,"2024-04-12 15:00:00","11","andria","25.51","1","31.08","1","0.0","1","null","6","null","6","554.02","1","1001.19","1","41.231637","16.30298"],
    [2465,"2024-04-12 16:00:00","11","andria","24.01","1","37.41","1","0.0","1","null","6","null","6","263.45","1","1000.92","1","41.231637","16.30298"],
    [2466,"2024-04-12 17:00:00","11","andria","22.03","1","44.62","1","0.0","1","null","6","null","6","64.14","1","1001.23","1","41.231637","16.30298"],
    [2467,"2024-04-12 18:00:00","11","andria","21.48","1","43.63","1","0.0","1","null","6","null","6","35.68","1","1001.13","1","41.231637","16.30298"],
    [2468,"2024-04-12 19:00:00","11","andria","20.65","1","43.63","1","0.0","1","null","6","null","6","5.43","1","1001.11","1","41.231637","16.30298"],
    [2469,"2024-04-12 20:00:00","11","andria","19.65","1","45.26","1","0.0","1","null","6","null","6","0.0","5","1001.61","1","41.231637","16.30298"],
    [2470,"2024-04-12 21:00:00","11","andria","17.76","1","49.61","1","0.0","1","null","6","null","6","0.0","5","1001.8","1","41.231637","16.30298"],
    [2471,"2024-04-12 22:00:00","11","andria","16.67","1","54.12","1","0.0","1","null","6","null","6","0.0","5","1001.78","1","41.231637","16.30298"],
    [2472,"2024-04-12 23:00:00","11","andria","15.99","1","56.63","1","0.0","1","null","6","null","6","0.0","5","1002.49","1","41.231637","16.30298"],
    [2473,"2024-04-13 00:00:00","11","andria","15.48","1","58.34","1","0.0","1","null","6","null","6","0.0","5","1003.08","1","41.231637","16.30298"],
    [2474,"2024-04-13 01:00:00","11","andria","14.97","1","60.96","1","0.0","1","null","6","null","6","0.0","5","1002.88","1","41.231637","16.30298"],
    [2475,"2024-04-13 02:00:00","11","andria","14.66","1","62.26","1","0.0","1","null","6","null","6","0.0","5","1002.77","1","41.231637","16.30298"],
    [2476,"2024-04-13 03:00:00","11","andria","14.66","1","62.4","1","0.0","1","null","6","null","6","0.0","5","1002.44","1","41.231637","16.30298"],
    [2477,"2024-04-13 04:00:00","11","andria","14.58","1","61.4","1","0.0","1","null","6","null","6","0.0","5","1002.36","1","41.231637","16.30298"],
    [2478,"2024-04-13 05:00:00","11","andria","14.79","1","57.98","1","0.0","1","null","6","null","6","0.0","5","1002.32","1","41.231637","16.30298"],
    [2479,"2024-04-13 06:00:00","11","andria","15.16","1","54.59","1","0.0","1","null","6","null","6","0.0","5","1002.13","1","41.231637","16.30298"],
    [2480,"2024-04-13 07:00:00","11","andria","15.97","1","53.25","1","0.0","1","null","6","null","6","29.72","1","1002.62","1","41.231637","16.30298"],
    [2481,"2024-04-13 08:00:00","11","andria","17.96","1","47.9","1","0.0","1","null","6","null","6","236.15","1","1002.55","1","41.231637","16.30298"],
    [2482,"2024-04-13 09:00:00","11","andria","20.4","1","41.83","1","0.0","1","null","6","null","6","517.81","1","1002.49","1","41.231637","16.30298"],
    [2483,"2024-04-13 10:00:00","11","andria","22.69","1","36.56","1","0.0","1","null","6","null","6","675.6","1","1002.27","1","41.231637","16.30298"],
    [2484,"2024-04-13 11:00:00","11","andria","24.34","1","32.69","1","0.0","1","null","6","null","6","814.59","1","1001.93","1","41.231637","16.30298"],
    [2485,"2024-04-13 12:00:00","11","andria","25.96","1","28.7","1","0.0","1","null","6","null","6","852.31","1","1001.44","1","41.231637","16.30298"],
    [2486,"2024-04-13 13:00:00","11","andria","27.15","1","27.9","1","0.0","1","null","6","null","6","825.15","1","1001.21","1","41.231637","16.30298"],
    [2487,"2024-04-13 14:00:00","11","andria","26.93","1","29.83","1","0.0","1","null","6","null","6","754.78","1","1000.61","1","41.231637","16.30298"],
    [2488,"2024-04-13 15:00:00","11","andria","26.52","1","31.21","1","0.0","1","null","6","null","6","547.33","1","1000.46","1","41.231637","16.30298"],
    [2489,"2024-04-13 16:00:00","11","andria","25.98","1","31.06","1","0.0","1","null","6","null","6","257.73","1","1000.02","1","41.231637","16.30298"],
    [2490,"2024-04-13 17:00:00","11","andria","24.21","1","34.42","1","0.0","1","null","6","null","6","64.01","1","1000.13","1","41.231637","16.30298"],
    [2491,"2024-04-13 18:00:00","11","andria","22.62","1","40.88","1","0.0","1","null","6","null","6","38.72","1","1000.53","1","41.231637","16.30298"],
    [2492,"2024-04-13 19:00:00","11","andria","21.4","1","44.48","1","0.0","1","null","6","null","6","6.76","1","1000.53","1","41.231637","16.30298"],
    [2493,"2024-04-13 20:00:00","11","andria","20.38","1","46.93","1","0.0","1","null","6","null","6","0.0","5","1000.85","1","41.231637","16.30298"],
    [2494,"2024-04-13 21:00:00","11","andria","19.92","1","43.4","1","0.0","1","null","6","null","6","0.0","5","1001.25","1","41.231637","16.30298"],
    [2495,"2024-04-13 22:00:00","11","andria","18.62","1","45.84","1","0.0","1","null","6","null","6","0.0","5","1001.25","1","41.231637","16.30298"],
    [2496,"2024-04-13 23:00:00","11","andria","17.68","1","47.41","1","0.0","1","null","6","null","6","0.0","5","1000.94","1","41.231637","16.30298"],
    [2497,"2024-04-14 00:00:00","11","andria","17.12","1","49.18","1","0.0","1","null","6","null","6","0.0","5","1001.17","1","41.231637","16.30298"],
    [2498,"2024-04-14 01:00:00","11","andria","16.7","1","51.05","1","0.0","1","null","6","null","6","0.0","5","1001.42","1","41.231637","16.30298"],
    [2499,"2024-04-14 02:00:00","11","andria","16.68","1","50.07","1","0.0","1","null","6","null","6","0.0","5","1000.97","1","41.231637","16.30298"],
    [2500,"2024-04-14 03:00:00","11","andria","16.22","1","51.21","1","0.0","1","null","6","null","6","0.0","5","1000.9","1","41.231637","16.30298"],
    [2501,"2024-04-14 04:00:00","11","andria","16.06","1","51.71","1","0.0","1","null","6","null","6","0.0","5","1001.05","1","41.231637","16.30298"],
    [2502,"2024-04-14 05:00:00","11","andria","15.85","1","52.43","1","0.0","1","null","6","null","6","0.0","5","1001.1","1","41.231637","16.30298"],
    [2503,"2024-04-14 06:00:00","11","andria","16.17","1","50.95","1","0.0","1","null","6","null","6","5.7","1","1000.87","1","41.231637","16.30298"],
    [2504,"2024-04-14 07:00:00","11","andria","17.14","1","47.09","1","0.0","1","null","6","null","6","30.23","1","1000.98","1","41.231637","16.30298"],
    [2505,"2024-04-14 08:00:00","11","andria","19.87","1","41.38","1","0.0","1","null","6","null","6","249.6","1","1000.69","1","41.231637","16.30298"],
    [2506,"2024-04-14 09:00:00","11","andria","22.99","1","34.29","1","0.0","1","null","6","null","6","530.53","1","1000.85","1","41.231637","16.30298"],
    [2507,"2024-04-14 10:00:00","11","andria","24.82","1","29.54","1","0.0","1","null","6","null","6","693.74","1","1000.7","1","41.231637","16.30298"],
    [2508,"2024-04-14 11:00:00","11","andria","27.05","1","23.75","1","0.0","1","null","6","null","6","831.33","1","1000.47","1","41.231637","16.30298"],
    [2509,"2024-04-14 12:00:00","11","andria","28.25","1","23.77","1","0.0","1","null","6","null","6","870.07","1","1000.07","1","41.231637","16.30298"],
    [2510,"2024-04-14 13:00:00","11","andria","27.95","1","25.3","1","0.0","1","null","6","null","6","845.57","1","999.68","1","41.231637","16.30298"],
    [2511,"2024-04-14 14:00:00","11","andria","27.62","1","25.39","1","0.0","1","null","6","null","6","772.33","1","999.23","1","41.231637","16.30298"],
    [2512,"2024-04-14 15:00:00","11","andria","26.8","1","28.64","1","0.0","1","null","6","null","6","586.61","1","998.78","1","41.231637","16.30298"],
    [2513,"2024-04-14 16:00:00","11","andria","25.19","1","32.77","1","0.0","1","null","6","null","6","232.42","1","998.13","1","41.231637","16.30298"],
    [2514,"2024-04-14 17:00:00","11","andria","23.93","1","32.98","1","0.0","1","null","6","null","6","58.66","1","998.3","1","41.231637","16.30298"],
    [2515,"2024-04-14 18:00:00","11","andria","22.79","1","32.73","1","0.0","1","null","6","null","6","35.23","1","998.11","1","41.231637","16.30298"],
    [2516,"2024-04-14 19:00:00","11","andria","21.64","1","33.72","1","0.0","1","null","6","null","6","5.74","1","997.89","1","41.231637","16.30298"],
    [2517,"2024-04-14 20:00:00","11","andria","21.19","1","35.77","1","0.0","1","null","6","null","6","0.0","5","998.11","1","41.231637","16.30298"],
    [2518,"2024-04-14 21:00:00","11","andria","20.72","1","37.15","1","0.0","1","null","6","null","6","0.0","5","997.97","1","41.231637","16.30298"],
    [2519,"2024-04-14 22:00:00","11","andria","20.43","1","36.35","1","0.0","1","null","6","null","6","0.0","5","997.87","1","41.231637","16.30298"],
    [2520,"2024-04-14 23:00:00","11","andria","20.02","1","37.41","1","0.0","1","null","6","null","6","0.0","5","997.91","1","41.231637","16.30298"],
    [2521,"2024-04-15 00:00:00","11","andria","18.52","1","44.12","1","0.0","1","null","6","null","6","0.0","5","997.23","1","41.231637","16.30298"],
    [2522,"2024-04-15 01:00:00","11","andria","17.14","1","50.29","1","0.0","1","null","6","null","6","0.0","5","997.19","1","41.231637","16.30298"],
    [2523,"2024-04-15 02:00:00","11","andria","17.1","1","49.43","1","0.0","1","null","6","null","6","0.0","5","996.49","1","41.231637","16.30298"],
    [2524,"2024-04-15 03:00:00","11","andria","17.27","1","47.1","1","0.0","1","null","6","null","6","0.0","5","996.24","1","41.231637","16.30298"],
    [2525,"2024-04-15 04:00:00","11","andria","17.51","1","44.28","1","0.0","1","null","6","null","6","0.0","5","995.84","1","41.231637","16.30298"],
    [2526,"2024-04-15 05:00:00","11","andria","17.51","1","41.9","1","0.0","1","null","6","null","6","0.0","5","995.37","1","41.231637","16.30298"],
    [2527,"2024-04-15 06:00:00","11","andria","16.81","1","43.6","1","0.0","1","null","6","null","6","14.01","1","994.93","1","41.231637","16.30298"],
    [2528,"2024-04-15 07:00:00","11","andria","18.29","1","42.21","1","0.0","1","null","6","null","6","67.6","1","994.91","1","41.231637","16.30298"],
    [2529,"2024-04-15 08:00:00","11","andria","20.51","1","40.59","1","0.0","1","null","6","null","6","137.96","1","994.67","1","41.231637","16.30298"],
    [2530,"2024-04-15 09:00:00","11","andria","23.3","1","34.75","1","0.0","1","null","6","null","6","345.67","1","994.48","1","41.231637","16.30298"],
    [2531,"2024-04-15 10:00:00","11","andria","27.41","1","22.06","1","0.0","1","null","6","null","6","556.91","1","993.81","1","41.231637","16.30298"],
    [2532,"2024-04-15 11:00:00","11","andria","26.07","1","22.05","1","0.0","1","null","6","null","6","212.28","1","994.22","1","41.231637","16.30298"],
    [2533,"2024-04-15 12:00:00","11","andria","25.99","1","25.23","1","0.0","1","null","6","null","6","496.56","1","993.69","1","41.231637","16.30298"],
    [2534,"2024-04-15 13:00:00","11","andria","28.24","1","19.12","1","0.0","1","null","6","null","6","639.63","1","992.41","1","41.231637","16.30298"],
    [2535,"2024-04-15 14:00:00","11","andria","29.03","1","18.18","1","0.0","1","null","6","null","6","428.53","1","991.27","1","41.231637","16.30298"],
    [2536,"2024-04-15 15:00:00","11","andria","28.98","1","18.49","1","0.0","1","null","6","null","6","325.13","1","990.74","1","41.231637","16.30298"],
    [2537,"2024-04-15 16:00:00","11","andria","28.78","1","18.6","1","0.0","1","null","6","null","6","228.97","1","990.15","1","41.231637","16.30298"],
    [2538,"2024-04-15 17:00:00","11","andria","27.99","1","20.91","1","0.0","1","null","6","null","6","113.45","1","989.64","1","41.231637","16.30298"],
    [2539,"2024-04-15 18:00:00","11","andria","26.96","1","24.22","1","0.0","1","null","6","null","6","50.02","1","989.77","1","41.231637","16.30298"],
    [2540,"2024-04-15 19:00:00","11","andria","25.37","1","30.96","1","0.0","1","null","6","null","6","5.26","1","989.98","1","41.231637","16.30298"],
    [2541,"2024-04-15 20:00:00","11","andria","23.98","1","33.92","1","0.0","1","null","6","null","6","0.0","5","989.98","1","41.231637","16.30298"],
    [2542,"2024-04-15 21:00:00","11","andria","23.37","1","27.19","1","0.0","1","null","6","null","6","0.0","5","990.08","1","41.231637","16.30298"],
    [2543,"2024-04-15 22:00:00","11","andria","23.11","1","25.19","1","0.0","1","null","6","null","6","0.0","5","989.43","1","41.231637","16.30298"],
    [2544,"2024-04-15 23:00:00","11","andria","22.85","1","25.78","1","0.0","1","null","6","null","6","0.0","5","989.04","1","41.231637","16.30298"],
    [2545,"2024-04-16 00:00:00","11","andria","22.55","1","27.62","1","0.0","1","null","6","null","6","0.0","5","988.54","1","41.231637","16.30298"],
    [2546,"2024-04-16 01:00:00","11","andria","23.28","1","26.74","1","0.0","1","null","6","null","6","0.0","5","987.28","1","41.231637","16.30298"],
    [2547,"2024-04-16 02:00:00","11","andria","21.38","1","31.67","1","0.0","1","null","6","null","6","0.0","5","986.75","1","41.231637","16.30298"],
    [2548,"2024-04-16 03:00:00","11","andria","20.42","1","35.13","1","0.0","1","null","6","null","6","0.0","5","986.17","1","41.231637","16.30298"],
    [2549,"2024-04-16 04:00:00","11","andria","20.8","1","32.92","1","0.0","1","null","6","null","6","0.0","5","985.67","1","41.231637","16.30298"],
    [2550,"2024-04-16 05:00:00","11","andria","20.5","1","34.27","1","0.0","1","null","6","null","6","0.0","5","984.7","1","41.231637","16.30298"],
    [2551,"2024-04-16 06:00:00","11","andria","20.26","1","34.43","1","0.0","1","null","6","null","6","0.0","5","984.49","1","41.231637","16.30298"],
    [2552,"2024-04-16 07:00:00","11","andria","21.2","1","32.61","1","0.0","1","null","6","null","6","36.05","1","983.91","1","41.231637","16.30298"],
    [2553,"2024-04-16 08:00:00","11","andria","22.0","1","32.32","1","0.0","1","null","6","null","6","121.05","1","983.03","1","41.231637","16.30298"],
    [2554,"2024-04-16 09:00:00","11","andria","24.19","1","28.18","1","0.0","1","null","6","null","6","196.42","1","982.68","1","41.231637","16.30298"],
    [2555,"2024-04-16 10:00:00","11","andria","25.72","1","25.16","1","0.0","1","null","6","null","6","294.74","1","982.44","1","41.231637","16.30298"],
    [2556,"2024-04-16 11:00:00","11","andria","26.68","1","24.36","1","0.0","1","null","6","null","6","527.37","1","981.94","1","41.231637","16.30298"],
    [2557,"2024-04-16 12:00:00","11","andria","27.01","1","22.83","1","0.0","1","null","6","null","6","348.15","1","981.31","1","41.231637","16.30298"],
    [2558,"2024-04-16 13:00:00","11","andria","26.96","1","22.83","1","0.0","1","null","6","null","6","449.63","1","980.62","1","41.231637","16.30298"],
    [2559,"2024-04-16 14:00:00","11","andria","25.8","1","27.34","1","0.0","1","null","6","null","6","268.08","1","980.65","1","41.231637","16.30298"],
    [2560,"2024-04-16 15:00:00","11","andria","23.81","1","34.79","1","0.0","1","null","6","null","6","141.69","1","980.27","1","41.231637","16.30298"],
    [2561,"2024-04-16 16:00:00","11","andria","22.55","1","40.21","1","0.0","1","null","6","null","6","27.84","1","980.08","1","41.231637","16.30298"],
    [2562,"2024-04-16 17:00:00","11","andria","20.07","1","55.54","1","0.0","1","null","6","null","6","40.32","1","980.27","1","41.231637","16.30298"],
    [2563,"2024-04-16 18:00:00","11","andria","18.51","1","60.7","1","0.0","1","null","6","null","6","13.39","1","979.58","1","41.231637","16.30298"],
    [2564,"2024-04-16 19:00:00","11","andria","18.42","1","61.1","1","0.0","1","null","6","null","6","0.0","5","979.17","1","41.231637","16.30298"],
    [2565,"2024-04-16 20:00:00","11","andria","18.35","1","56.52","1","0.0","1","null","6","null","6","0.0","5","978.74","1","41.231637","16.30298"],
    [2566,"2024-04-16 21:00:00","11","andria","18.2","1","53.82","1","0.0","1","null","6","null","6","0.0","5","978.5","1","41.231637","16.30298"],
    [2567,"2024-04-16 22:00:00","11","andria","17.86","1","55.05","1","0.0","1","null","6","null","6","0.0","5","978.8","1","41.231637","16.30298"],
    [2568,"2024-04-16 23:00:00","11","andria","18.09","1","54.07","1","0.0","1","null","6","null","6","0.0","5","978.54","1","41.231637","16.30298"],
    [2569,"2024-04-17 00:00:00","11","andria","17.75","1","56.34","1","0.0","1","null","6","null","6","0.0","5","978.3","1","41.231637","16.30298"],
    [2570,"2024-04-17 01:00:00","11","andria","17.18","1","57.21","1","0.0","1","null","6","null","6","0.0","5","977.55","1","41.231637","16.30298"],
    [2571,"2024-04-17 02:00:00","11","andria","17.03","1","57.23","1","0.0","1","null","6","null","6","0.0","5","976.97","1","41.231637","16.30298"],
    [2572,"2024-04-17 03:00:00","11","andria","16.79","1","60.72","1","0.0","1","null","6","null","6","0.0","5","977.34","1","41.231637","16.30298"],
    [2573,"2024-04-17 04:00:00","11","andria","15.6","1","59.71","1","0.0","1","null","6","null","6","0.0","5","977.34","1","41.231637","16.30298"],
    [2574,"2024-04-17 05:00:00","11","andria","15.08","1","57.6","1","0.0","1","null","6","null","6","0.0","5","977.47","1","41.231637","16.30298"],
    [2575,"2024-04-17 06:00:00","11","andria","13.91","1","64.2","1","0.0","1","null","6","null","6","9.74","1","977.9","1","41.231637","16.30298"],
    [2576,"2024-04-17 07:00:00","11","andria","13.56","1","62.97","1","0.0","1","null","6","null","6","55.33","1","978.63","1","41.231637","16.30298"],
    [2577,"2024-04-17 08:00:00","11","andria","13.92","1","59.5","1","0.0","1","null","6","null","6","234.09","1","978.74","1","41.231637","16.30298"],
    [2578,"2024-04-17 09:00:00","11","andria","15.39","1","55.4","1","0.0","1","null","6","null","6","483.62","1","978.4","1","41.231637","16.30298"],
    [2579,"2024-04-17 10:00:00","11","andria","16.55","1","50.54","1","0.0","1","null","6","null","6","588.32","1","978.71","1","41.231637","16.30298"],
    [2580,"2024-04-17 11:00:00","11","andria","16.54","1","48.19","1","0.0","1","null","6","null","6","522.28","1","978.63","1","41.231637","16.30298"],
    [2581,"2024-04-17 12:00:00","11","andria","17.05","1","41.83","1","0.0","1","null","6","null","6","590.56","1","978.85","1","41.231637","16.30298"],
    [2582,"2024-04-17 13:00:00","11","andria","17.81","1","34.67","1","0.0","1","null","6","null","6","826.44","1","978.49","1","41.231637","16.30298"],
    [2583,"2024-04-17 14:00:00","11","andria","17.41","1","36.5","1","0.0","1","null","6","null","6","386.17","1","978.62","1","41.231637","16.30298"],
    [2584,"2024-04-17 15:00:00","11","andria","16.48","1","39.25","1","0.0","1","null","6","null","6","245.75","1","978.77","1","41.231637","16.30298"],
    [2585,"2024-04-17 16:00:00","11","andria","15.55","1","41.21","1","0.0","1","null","6","null","6","86.58","1","979.26","1","41.231637","16.30298"],
    [2586,"2024-04-17 17:00:00","11","andria","13.85","1","48.75","1","0.0","1","null","6","null","6","39.51","1","980.34","1","41.231637","16.30298"],
    [2587,"2024-04-17 18:00:00","11","andria","12.03","1","55.86","1","0.0","1","null","6","null","6","11.96","1","981.34","1","41.231637","16.30298"],
    [2588,"2024-04-17 19:00:00","11","andria","10.98","1","59.2","1","0.0","1","null","6","null","6","0.0","5","981.71","1","41.231637","16.30298"],
    [2589,"2024-04-17 20:00:00","11","andria","10.38","1","60.28","1","0.0","1","null","6","null","6","0.0","5","982.08","1","41.231637","16.30298"],
    [2590,"2024-04-17 21:00:00","11","andria","10.33","1","57.91","1","0.0","1","null","6","null","6","0.0","5","982.6","1","41.231637","16.30298"],
    [2591,"2024-04-17 22:00:00","11","andria","10.32","1","55.11","1","0.0","1","null","6","null","6","0.0","5","982.62","1","41.231637","16.30298"],
    [2592,"2024-04-17 23:00:00","11","andria","10.23","1","55.63","1","0.0","1","null","6","null","6","0.0","5","982.78","1","41.231637","16.30298"],
    [2593,"2024-04-18 00:00:00","11","andria","10.2","1","57.64","1","0.0","1","null","6","null","6","0.0","1","983.02","1","41.231637","16.30298"],
    [2594,"2024-04-18 01:00:00","11","andria","9.99","1","57.68","1","0.0","1","null","6","null","6","0.0","5","983.02","1","41.231637","16.30298"],
    [2595,"2024-04-18 02:00:00","11","andria","9.85","1","57.82","1","0.0","1","null","6","null","6","0.0","5","983.1","1","41.231637","16.30298"],
    [2596,"2024-04-18 03:00:00","11","andria","9.62","1","58.34","1","0.0","1","null","6","null","6","0.0","1","983.14","1","41.231637","16.30298"],
    [2597,"2024-04-18 04:00:00","11","andria","9.59","1","57.51","1","0.0","1","null","6","null","6","0.0","5","983.18","1","41.231637","16.30298"],
    [2598,"2024-04-18 05:00:00","11","andria","9.41","1","57.8","1","0.0","1","null","6","null","6","0.0","5","983.11","1","41.231637","16.30298"],
    [2599,"2024-04-18 06:00:00","11","andria","9.43","1","57.75","1","0.0","1","null","6","null","6","0.0","5","983.38","1","41.231637","16.30298"],
    [2600,"2024-04-18 07:00:00","11","andria","10.22","1","55.34","1","0.0","1","null","6","null","6","23.61","1","983.99","1","41.231637","16.30298"],
    [2601,"2024-04-18 08:00:00","11","andria","12.67","1","50.17","1","0.0","1","null","6","null","6","293.66","1","984.14","1","41.231637","16.30298"],
    [2602,"2024-04-18 09:00:00","11","andria","14.95","1","45.32","1","0.0","1","null","6","null","6","546.59","1","983.98","1","41.231637","16.30298"],
    [2603,"2024-04-18 10:00:00","11","andria","15.71","1","39.87","1","0.0","1","null","6","null","6","494.09","1","984.06","1","41.231637","16.30298"],
    [2604,"2024-04-18 11:00:00","11","andria","15.45","1","40.01","1","0.0","1","null","6","null","6","191.78","1","984.32","1","41.231637","16.30298"],
    [2605,"2024-04-18 12:00:00","11","andria","13.93","1","50.44","1","1.0","1","null","6","null","6","72.33","1","984.45","1","41.231637","16.30298"],
    [2606,"2024-04-18 13:00:00","11","andria","11.85","1","72.94","1","2.4","1","null","6","null","6","282.94","1","985.16","1","41.231637","16.30298"],
    [2607,"2024-04-18 14:00:00","11","andria","13.68","1","61.86","1","0.0","1","null","6","null","6","456.84","1","984.54","1","41.231637","16.30298"],
    [2608,"2024-04-18 15:00:00","11","andria","13.99","1","51.08","1","0.0","1","null","6","null","6","155.45","1","984.47","1","41.231637","16.30298"],
    [2609,"2024-04-18 16:00:00","11","andria","9.84","1","71.65","1","2.0","1","null","6","null","6","44.57","1","985.59","1","41.231637","16.30298"],
    [2610,"2024-04-18 17:00:00","11","andria","9.62","1","74.3","1","0.8","1","null","6","null","6","19.46","1","985.81","1","41.231637","16.30298"],
    [2611,"2024-04-18 18:00:00","11","andria","10.01","1","74.04","1","0.2","1","null","6","null","6","24.56","1","986.21","1","41.231637","16.30298"],
    [2612,"2024-04-18 19:00:00","11","andria","10.25","1","71.57","1","0.0","1","null","6","null","6","0.0","5","986.41","1","41.231637","16.30298"],
    [2613,"2024-04-18 20:00:00","11","andria","10.59","1","68.94","1","0.0","1","null","6","null","6","0.0","5","986.75","1","41.231637","16.30298"],
    [2614,"2024-04-18 21:00:00","11","andria","9.98","1","78.07","1","0.0","1","null","6","null","6","0.0","5","987.44","1","41.231637","16.30298"],
    [2615,"2024-04-18 22:00:00","11","andria","9.4","1","80.31","1","0.0","1","null","6","null","6","0.0","5","987.67","1","41.231637","16.30298"],
    [2616,"2024-04-18 23:00:00","11","andria","9.34","1","80.72","1","0.0","1","null","6","null","6","0.0","5","987.48","1","41.231637","16.30298"],
    [2617,"2024-04-19 00:00:00","11","andria","9.11","1","79.75","1","0.0","1","null","6","null","6","0.0","5","987.22","1","41.231637","16.30298"],
    [2618,"2024-04-19 01:00:00","11","andria","9.09","1","80.56","1","0.0","1","null","6","null","6","0.0","5","987.17","1","41.231637","16.30298"],
    [2619,"2024-04-19 02:00:00","11","andria","8.88","1","79.23","1","0.0","1","null","6","null","6","0.0","5","986.83","1","41.231637","16.30298"],
    [2620,"2024-04-19 03:00:00","11","andria","8.66","1","79.8","1","0.0","1","null","6","null","6","0.0","5","986.53","1","41.231637","16.30298"],
    [2621,"2024-04-19 04:00:00","11","andria","8.79","1","78.5","1","0.0","1","null","6","null","6","0.0","5","986.21","1","41.231637","16.30298"],
    [2622,"2024-04-19 05:00:00","11","andria","9.04","1","78.03","1","0.0","1","null","6","null","6","0.0","5","985.88","1","41.231637","16.30298"],
    [2623,"2024-04-19 06:00:00","11","andria","8.67","1","81.65","1","0.0","1","null","6","null","6","0.0","5","986.15","1","41.231637","16.30298"],
    [2624,"2024-04-19 07:00:00","11","andria","8.28","1","84.06","1","0.0","1","null","6","null","6","7.75","1","986.35","1","41.231637","16.30298"],
    [2625,"2024-04-19 08:00:00","11","andria","7.72","1","88.74","1","0.8","1","null","6","null","6","21.52","1","986.76","1","41.231637","16.30298"],
    [2626,"2024-04-19 09:00:00","11","andria","7.4","1","90.08","1","2.0","1","null","6","null","6","47.36","1","987.44","1","41.231637","16.30298"],
    [2627,"2024-04-19 10:00:00","11","andria","8.04","1","91.52","1","0.8","1","null","6","null","6","148.81","1","987.51","1","41.231637","16.30298"],
    [2628,"2024-04-19 11:00:00","11","andria","8.63","1","91.6","1","0.0","1","null","6","null","6","156.43","1","987.6","1","41.231637","16.30298"],
    [2629,"2024-04-19 12:00:00","11","andria","9.06","1","90.39","1","0.8","1","null","6","null","6","139.48","1","987.9","1","41.231637","16.30298"],
    [2630,"2024-04-19 13:00:00","11","andria","10.05","1","86.41","1","0.2","1","null","6","null","6","316.41","1","987.87","1","41.231637","16.30298"],
    [2631,"2024-04-19 14:00:00","11","andria","11.12","1","73.05","1","0.0","1","null","6","null","6","265.72","1","987.57","1","41.231637","16.30298"],
    [2632,"2024-04-19 15:00:00","11","andria","11.91","1","66.26","1","0.0","1","null","6","null","6","238.32","1","987.39","1","41.231637","16.30298"],
    [2633,"2024-04-19 16:00:00","11","andria","13.43","1","56.82","1","0.0","1","null","6","null","6","231.41","1","987.09","1","41.231637","16.30298"],
    [2634,"2024-04-19 17:00:00","11","andria","13.55","1","46.8","1","0.0","1","null","6","null","6","88.81","1","987.36","1","41.231637","16.30298"],
    [2635,"2024-04-19 18:00:00","11","andria","12.97","1","45.63","1","0.0","1","null","6","null","6","42.51","1","988.12","1","41.231637","16.30298"],
    [2636,"2024-04-19 19:00:00","11","andria","12.26","1","47.51","1","0.0","1","null","6","null","6","9.2","1","988.73","1","41.231637","16.30298"],
    [2637,"2024-04-19 20:00:00","11","andria","10.73","1","52.53","1","0.0","1","null","6","null","6","0.0","5","989.02","1","41.231637","16.30298"],
    [2638,"2024-04-19 21:00:00","11","andria","9.61","1","57.45","1","0.0","1","null","6","null","6","0.0","5","989.48","1","41.231637","16.30298"],
    [2639,"2024-04-19 22:00:00","11","andria","8.83","1","59.96","1","0.0","1","null","6","null","6","0.0","5","989.52","1","41.231637","16.30298"],
    [2640,"2024-04-19 23:00:00","11","andria","8.52","1","60.67","1","0.0","1","null","6","null","6","0.0","5","989.36","1","41.231637","16.30298"],
    [2641,"2024-04-20 00:00:00","11","andria","8.71","1","59.33","1","0.0","1","null","6","null","6","0.0","5","989.23","1","41.231637","16.30298"],
    [2642,"2024-04-20 01:00:00","11","andria","8.54","1","60.56","1","0.0","1","null","6","null","6","0.0","1","988.58","1","41.231637","16.30298"],
    [2643,"2024-04-20 02:00:00","11","andria","8.25","1","60.03","1","0.0","1","null","6","null","6","0.0","5","987.98","1","41.231637","16.30298"],
    [2644,"2024-04-20 03:00:00","11","andria","8.49","1","53.92","1","0.0","1","null","6","null","6","0.0","5","987.56","1","41.231637","16.30298"],
    [2645,"2024-04-20 04:00:00","11","andria","8.37","1","50.72","1","0.0","1","null","6","null","6","0.0","5","987.25","1","41.231637","16.30298"],
    [2646,"2024-04-20 05:00:00","11","andria","8.63","1","47.04","1","0.0","1","null","6","null","6","0.0","5","987.02","1","41.231637","16.30298"],
    [2647,"2024-04-20 06:00:00","11","andria","9.07","1","51.03","1","0.0","1","null","6","null","6","0.0","5","986.55","1","41.231637","16.30298"],
    [2648,"2024-04-20 07:00:00","11","andria","10.16","1","53.34","1","0.0","1","null","6","null","6","23.54","1","986.57","1","41.231637","16.30298"],
    [2649,"2024-04-20 08:00:00","11","andria","13.3","1","44.07","1","0.0","1","null","6","null","6","332.87","1","986.21","1","41.231637","16.30298"],
    [2650,"2024-04-20 09:00:00","11","andria","15.12","1","36.44","1","0.0","1","null","6","null","6","434.13","1","985.89","1","41.231637","16.30298"],
    [2651,"2024-04-20 10:00:00","11","andria","16.14","1","32.31","1","0.0","1","null","6","null","6","586.41","1","986.08","1","41.231637","16.30298"],
    [2652,"2024-04-20 11:00:00","11","andria","17.0","1","27.17","1","0.0","1","null","6","null","6","871.28","1","986.1","1","41.231637","16.30298"],
    [2653,"2024-04-20 12:00:00","11","andria","17.91","1","24.73","1","0.0","1","null","6","null","6","873.28","1","985.79","1","41.231637","16.30298"],
    [2654,"2024-04-20 13:00:00","11","andria","18.32","1","25.74","1","0.0","1","null","6","null","6","534.29","1","985.09","1","41.231637","16.30298"],
    [2655,"2024-04-20 14:00:00","11","andria","16.8","1","32.04","1","0.0","1","null","6","null","6","155.65","1","985.29","1","41.231637","16.30298"],
    [2656,"2024-04-20 15:00:00","11","andria","14.98","1","54.11","1","0.4","1","null","6","null","6","27.95","1","984.78","1","41.231637","16.30298"],
    [2657,"2024-04-20 16:00:00","11","andria","12.05","1","69.59","1","1.4","1","null","6","null","6","28.27","1","985.96","1","41.231637","16.30298"],
    [2658,"2024-04-20 17:00:00","11","andria","11.25","1","79.25","1","0.6","1","null","6","null","6","21.46","1","986.11","1","41.231637","16.30298"],
    [2659,"2024-04-20 18:00:00","11","andria","10.77","1","84.92","1","0.2","1","null","6","null","6","15.37","1","986.05","1","41.231637","16.30298"],
    [2660,"2024-04-20 19:00:00","11","andria","10.24","1","83.26","1","0.2","1","null","6","null","6","0.0","5","986.15","1","41.231637","16.30298"],
    [2661,"2024-04-20 20:00:00","11","andria","10.19","1","83.75","1","0.0","1","null","6","null","6","0.0","5","985.99","1","41.231637","16.30298"],
    [2662,"2024-04-20 21:00:00","11","andria","10.03","1","83.38","1","0.8","1","null","6","null","6","0.0","5","986.34","1","41.231637","16.30298"],
    [2663,"2024-04-20 22:00:00","11","andria","9.66","1","86.96","1","0.4","1","null","6","null","6","0.0","5","986.27","1","41.231637","16.30298"],
    [2664,"2024-04-20 23:00:00","11","andria","9.52","1","87.04","1","0.6","1","null","6","null","6","0.0","5","986.08","1","41.231637","16.30298"],
    [2665,"2024-04-21 00:00:00","11","andria","9.57","1","85.53","1","0.8","1","null","6","null","6","0.0","5","985.86","1","41.231637","16.30298"],
    [2666,"2024-04-21 01:00:00","11","andria","8.68","1","89.95","1","0.0","1","null","6","null","6","0.0","5","986.0","1","41.231637","16.30298"],
    [2667,"2024-04-21 02:00:00","11","andria","7.73","1","91.76","1","0.0","1","null","6","null","6","0.0","5","985.79","1","41.231637","16.30298"],
    [2668,"2024-04-21 03:00:00","11","andria","7.37","1","89.01","1","0.0","1","null","6","null","6","0.0","1","985.68","1","41.231637","16.30298"],
    [2669,"2024-04-21 04:00:00","11","andria","7.24","1","84.83","1","0.0","1","null","6","null","6","0.0","5","985.34","1","41.231637","16.30298"],
    [2670,"2024-04-21 05:00:00","11","andria","7.08","1","80.87","1","0.0","1","null","6","null","6","0.0","5","985.29","1","41.231637","16.30298"],
    [2671,"2024-04-21 06:00:00","11","andria","7.11","1","78.02","1","0.0","1","null","6","null","6","12.55","1","985.4","1","41.231637","16.30298"],
    [2672,"2024-04-21 07:00:00","11","andria","7.43","1","76.93","1","0.0","1","null","6","null","6","36.08","1","985.38","1","41.231637","16.30298"],
    [2673,"2024-04-21 08:00:00","11","andria","8.21","1","74.74","1","0.0","1","null","6","null","6","127.13","1","984.9","1","41.231637","16.30298"],
    [2674,"2024-04-21 09:00:00","11","andria","8.63","1","76.05","1","0.0","1","null","6","null","6","91.7","1","985.43","1","41.231637","16.30298"],
    [2675,"2024-04-21 10:00:00","11","andria","9.45","1","80.06","1","0.4","1","null","6","null","6","159.1","1","986.21","1","41.231637","16.30298"],
    [2676,"2024-04-21 11:00:00","11","andria","8.85","1","89.36","1","1.6","1","null","6","null","6","120.55","1","987.34","1","41.231637","16.30298"],
    [2677,"2024-04-21 12:00:00","11","andria","9.32","1","85.14","1","0.0","1","null","6","null","6","117.06","1","987.95","1","41.231637","16.30298"],
    [2678,"2024-04-21 13:00:00","11","andria","10.44","1","71.55","1","0.2","1","null","6","null","6","130.36","1","988.62","1","41.231637","16.30298"],
    [2679,"2024-04-21 14:00:00","11","andria","11.32","1","71.43","1","0.0","1","null","6","null","6","482.29","1","988.95","1","41.231637","16.30298"],
    [2680,"2024-04-21 15:00:00","11","andria","12.0","1","65.18","1","0.0","1","null","6","null","6","153.32","1","988.67","1","41.231637","16.30298"],
    [2681,"2024-04-21 16:00:00","11","andria","12.15","1","64.21","1","0.0","1","null","6","null","6","172.33","1","989.02","1","41.231637","16.30298"],
    [2682,"2024-04-21 17:00:00","11","andria","13.33","1","54.67","1","0.0","1","null","6","null","6","109.49","1","989.22","1","41.231637","16.30298"],
    [2683,"2024-04-21 18:00:00","11","andria","12.47","1","56.57","1","0.0","1","null","6","null","6","38.55","1","989.46","1","41.231637","16.30298"],
    [2684,"2024-04-21 19:00:00","11","andria","11.61","1","60.87","1","0.0","1","null","6","null","6","7.88","1","990.24","1","41.231637","16.30298"],
    [2685,"2024-04-21 20:00:00","11","andria","10.56","1","66.76","1","0.0","1","null","6","null","6","0.0","5","990.89","1","41.231637","16.30298"],
    [2686,"2024-04-21 21:00:00","11","andria","9.85","1","69.47","1","0.0","1","null","6","null","6","0.0","5","991.28","1","41.231637","16.30298"],
    [2687,"2024-04-21 22:00:00","11","andria","8.65","1","72.58","1","0.0","1","null","6","null","6","0.0","5","991.9","1","41.231637","16.30298"],
    [2688,"2024-04-21 23:00:00","11","andria","8.14","1","72.51","1","0.0","1","null","6","null","6","0.0","5","992.26","1","41.231637","16.30298"],
    [2689,"2024-04-22 00:00:00","11","andria","7.81","1","70.85","1","0.0","1","null","6","null","6","0.0","5","992.31","1","41.231637","16.30298"],
    [2690,"2024-04-22 01:00:00","11","andria","7.12","1","71.98","1","0.0","1","null","6","null","6","0.0","5","992.21","1","41.231637","16.30298"],
    [2691,"2024-04-22 02:00:00","11","andria","7.02","1","73.38","1","0.0","1","null","6","null","6","0.0","5","991.76","1","41.231637","16.30298"],
    [2692,"2024-04-22 03:00:00","11","andria","6.96","1","73.12","1","0.0","1","null","6","null","6","0.0","1","991.54","1","41.231637","16.30298"],
    [2693,"2024-04-22 04:00:00","11","andria","7.24","1","72.66","1","0.0","1","null","6","null","6","0.0","5","991.01","1","41.231637","16.30298"],
    [2694,"2024-04-22 05:00:00","11","andria","7.16","1","73.64","1","0.0","1","null","6","null","6","0.0","5","990.9","1","41.231637","16.30298"],
    [2695,"2024-04-22 06:00:00","11","andria","7.08","1","73.73","1","0.0","1","null","6","null","6","9.28","1","990.56","1","41.231637","16.30298"],
    [2696,"2024-04-22 07:00:00","11","andria","8.2","1","71.21","1","0.0","1","null","6","null","6","53.61","1","990.69","1","41.231637","16.30298"],
    [2697,"2024-04-22 08:00:00","11","andria","11.61","1","58.52","1","0.0","1","null","6","null","6","333.48","1","990.27","1","41.231637","16.30298"],
    [2698,"2024-04-22 09:00:00","11","andria","14.1","1","52.73","1","0.0","1","null","6","null","6","519.29","1","989.83","1","41.231637","16.30298"],
    [2699,"2024-04-22 10:00:00","11","andria","15.15","1","48.25","1","0.0","1","null","6","null","6","715.65","1","989.66","1","41.231637","16.30298"],
    [2700,"2024-04-22 11:00:00","11","andria","15.79","1","46.52","1","0.0","1","null","6","null","6","507.07","1","989.6","1","41.231637","16.30298"],
    [2701,"2024-04-22 12:00:00","11","andria","16.72","1","43.6","1","0.0","1","null","6","null","6","465.89","1","989.58","1","41.231637","16.30298"],
    [2702,"2024-04-22 13:00:00","11","andria","17.59","1","40.78","1","0.0","1","null","6","null","6","561.74","1","989.12","1","41.231637","16.30298"],
    [2703,"2024-04-22 14:00:00","11","andria","17.57","1","49.21","1","0.0","1","null","6","null","6","498.98","1","988.63","1","41.231637","16.30298"],
    [2704,"2024-04-22 15:00:00","11","andria","17.64","1","51.08","1","0.0","1","null","6","null","6","467.88","1","988.02","1","41.231637","16.30298"],
    [2705,"2024-04-22 16:00:00","11","andria","16.8","1","54.1","1","0.0","1","null","6","null","6","246.84","1","987.24","1","41.231637","16.30298"],
    [2706,"2024-04-22 17:00:00","11","andria","16.37","1","54.08","1","0.0","1","null","6","null","6","161.05","1","987.17","1","41.231637","16.30298"],
    [2707,"2024-04-22 18:00:00","11","andria","15.63","1","56.75","1","0.0","1","null","6","null","6","69.8","1","986.82","1","41.231637","16.30298"],
    [2708,"2024-04-22 19:00:00","11","andria","14.9","1","58.31","1","0.0","1","null","6","null","6","20.01","1","986.8","1","41.231637","16.30298"],
    [2709,"2024-04-22 20:00:00","11","andria","14.3","1","53.73","1","0.0","1","null","6","null","6","0.0","5","987.09","1","41.231637","16.30298"],
    [2710,"2024-04-22 21:00:00","11","andria","13.9","1","47.09","1","0.0","1","null","6","null","6","0.0","5","987.16","1","41.231637","16.30298"],
    [2711,"2024-04-22 22:00:00","11","andria","13.67","1","43.1","1","0.0","1","null","6","null","6","0.0","5","987.37","1","41.231637","16.30298"],
    [2712,"2024-04-22 23:00:00","11","andria","14.04","1","40.9","1","0.0","1","null","6","null","6","0.0","5","986.65","1","41.231637","16.30298"],
    [2713,"2024-04-23 00:00:00","11","andria","13.32","1","46.98","1","0.0","1","null","6","null","6","0.0","5","986.72","1","41.231637","16.30298"],
    [2714,"2024-04-23 01:00:00","11","andria","12.23","1","54.1","1","0.0","1","null","6","null","6","0.0","5","986.4","1","41.231637","16.30298"],
    [2715,"2024-04-23 02:00:00","11","andria","11.65","1","56.54","1","0.0","1","null","6","null","6","0.0","1","985.73","1","41.231637","16.30298"],
    [2716,"2024-04-23 03:00:00","11","andria","11.11","1","58.86","1","0.0","1","null","6","null","6","0.0","5","985.63","1","41.231637","16.30298"],
    [2717,"2024-04-23 04:00:00","11","andria","10.62","1","60.89","1","0.0","1","null","6","null","6","0.0","5","985.35","1","41.231637","16.30298"],
    [2718,"2024-04-23 05:00:00","11","andria","10.09","1","62.99","1","0.0","1","null","6","null","6","0.0","5","984.93","1","41.231637","16.30298"],
    [2719,"2024-04-23 06:00:00","11","andria","9.95","1","63.54","1","0.0","1","null","6","null","6","18.01","1","984.58","1","41.231637","16.30298"],
    [2720,"2024-04-23 07:00:00","11","andria","11.32","1","58.82","1","0.0","1","null","6","null","6","73.54","1","984.49","1","41.231637","16.30298"],
    [2721,"2024-04-23 08:00:00","11","andria","13.87","1","51.21","1","0.0","1","null","6","null","6","301.31","1","983.86","1","41.231637","16.30298"],
    [2722,"2024-04-23 09:00:00","11","andria","15.59","1","46.05","1","0.0","1","null","6","null","6","505.38","1","983.29","1","41.231637","16.30298"],
    [2723,"2024-04-23 10:00:00","11","andria","15.67","1","45.88","1","0.0","1","null","6","null","6","432.95","1","983.25","1","41.231637","16.30298"],
    [2724,"2024-04-23 11:00:00","11","andria","16.83","1","40.97","1","0.0","1","null","6","null","6","587.02","1","982.64","1","41.231637","16.30298"],
    [2725,"2024-04-23 12:00:00","11","andria","18.74","1","31.0","1","0.0","1","null","6","null","6","841.43","1","982.19","1","41.231637","16.30298"],
    [2726,"2024-04-23 13:00:00","11","andria","19.95","1","25.27","1","0.0","1","null","6","null","6","866.52","1","981.57","1","41.231637","16.30298"],
    [2727,"2024-04-23 14:00:00","11","andria","19.62","1","30.01","1","0.0","1","null","6","null","6","634.23","1","981.17","1","41.231637","16.30298"],
    [2728,"2024-04-23 15:00:00","11","andria","17.72","1","42.64","1","0.0","1","null","6","null","6","119.98","1","981.14","1","41.231637","16.30298"],
    [2729,"2024-04-23 16:00:00","11","andria","14.95","1","61.82","1","0.6","1","null","6","null","6","84.05","1","981.94","1","41.231637","16.30298"],
    [2730,"2024-04-23 17:00:00","11","andria","16.47","1","47.32","1","0.0","1","null","6","null","6","99.05","1","981.39","1","41.231637","16.30298"],
    [2731,"2024-04-23 18:00:00","11","andria","16.54","1","37.32","1","0.0","1","null","6","null","6","37.22","1","982.03","1","41.231637","16.30298"],
    [2732,"2024-04-23 19:00:00","11","andria","14.8","1","38.0","1","0.0","1","null","6","null","6","10.28","1","983.0","1","41.231637","16.30298"],
    [2733,"2024-04-23 20:00:00","11","andria","13.25","1","38.83","1","0.0","1","null","6","null","6","0.0","5","983.78","1","41.231637","16.30298"],
    [2734,"2024-04-23 21:00:00","11","andria","12.22","1","43.44","1","0.0","1","null","6","null","6","0.0","5","984.8","1","41.231637","16.30298"],
    [2735,"2024-04-23 22:00:00","11","andria","11.5","1","46.68","1","0.0","1","null","6","null","6","0.0","5","985.17","1","41.231637","16.30298"],
    [2736,"2024-04-23 23:00:00","11","andria","11.39","1","46.26","1","0.0","1","null","6","null","6","0.0","5","985.64","1","41.231637","16.30298"],
    [2737,"2024-04-24 00:00:00","11","andria","10.56","1","53.1","1","0.0","1","null","6","null","6","0.0","5","985.91","1","41.231637","16.30298"],
    [2738,"2024-04-24 01:00:00","11","andria","9.96","1","54.2","1","0.0","1","null","6","null","6","0.0","5","985.98","1","41.231637","16.30298"],
    [2739,"2024-04-24 02:00:00","11","andria","9.96","1","51.06","1","0.0","1","null","6","null","6","0.0","5","985.72","1","41.231637","16.30298"],
    [2740,"2024-04-24 03:00:00","11","andria","9.41","1","49.65","1","0.0","1","null","6","null","6","0.0","5","985.61","1","41.231637","16.30298"],
    [2741,"2024-04-24 04:00:00","11","andria","8.14","1","55.52","1","0.0","1","null","6","null","6","0.0","5","985.46","1","41.231637","16.30298"],
    [2742,"2024-04-24 05:00:00","11","andria","7.66","1","58.62","1","0.0","1","null","6","null","6","0.0","5","985.15","1","41.231637","16.30298"],
    [2743,"2024-04-24 06:00:00","11","andria","8.47","1","57.47","1","0.0","1","null","6","null","6","9.88","1","985.02","1","41.231637","16.30298"],
    [2744,"2024-04-24 07:00:00","11","andria","10.01","1","54.55","1","0.0","1","null","6","null","6","37.2","1","985.14","1","41.231637","16.30298"],
    [2745,"2024-04-24 08:00:00","11","andria","10.25","1","59.25","1","0.0","1","null","6","null","6","31.64","1","985.51","1","41.231637","16.30298"],
    [2746,"2024-04-24 09:00:00","11","andria","10.45","1","61.43","1","0.6","1","null","6","null","6","53.84","1","985.44","1","41.231637","16.30298"],
    [2747,"2024-04-24 10:00:00","11","andria","9.02","1","79.92","1","1.2","1","null","6","null","6","119.27","1","986.18","1","41.231637","16.30298"],
    [2748,"2024-04-24 11:00:00","11","andria","9.38","1","83.55","1","0.2","1","null","6","null","6","251.95","1","986.03","1","41.231637","16.30298"],
    [2749,"2024-04-24 12:00:00","11","andria","13.45","1","62.67","1","0.0","1","null","6","null","6","902.63","1","984.97","1","41.231637","16.30298"],
    [2750,"2024-04-24 13:00:00","11","andria","15.83","1","50.45","1","0.0","1","null","6","null","6","681.41","1","984.39","1","41.231637","16.30298"],
    [2751,"2024-04-24 14:00:00","11","andria","14.91","1","56.06","1","0.0","1","null","6","null","6","467.06","1","984.24","1","41.231637","16.30298"],
    [2752,"2024-04-24 15:00:00","11","andria","14.54","1","55.98","1","0.0","1","null","6","null","6","277.71","1","983.7","1","41.231637","16.30298"],
    [2753,"2024-04-24 16:00:00","11","andria","15.47","1","46.5","1","0.0","1","null","6","null","6","168.73","1","983.29","1","41.231637","16.30298"],
    [2754,"2024-04-24 17:00:00","11","andria","15.67","1","34.25","1","0.0","1","null","6","null","6","115.79","1","983.12","1","41.231637","16.30298"],
    [2755,"2024-04-24 18:00:00","11","andria","15.16","1","33.03","1","0.0","1","null","6","null","6","67.25","1","983.34","1","41.231637","16.30298"],
    [2756,"2024-04-24 19:00:00","11","andria","14.43","1","33.35","1","0.0","1","null","6","null","6","26.83","1","983.9","1","41.231637","16.30298"],
    [2757,"2024-04-24 20:00:00","11","andria","12.81","1","39.91","1","0.0","1","null","6","null","6","0.0","5","984.16","1","41.231637","16.30298"],
    [2758,"2024-04-24 21:00:00","11","andria","11.63","1","46.36","1","0.0","1","null","6","null","6","0.0","5","985.04","1","41.231637","16.30298"],
    [2759,"2024-04-24 22:00:00","11","andria","10.78","1","50.63","1","0.0","1","null","6","null","6","0.0","5","985.01","1","41.231637","16.30298"],
    [2760,"2024-04-24 23:00:00","11","andria","10.11","1","54.93","1","0.0","1","null","6","null","6","0.0","5","984.78","1","41.231637","16.30298"],
    [2761,"2024-04-25 00:00:00","11","andria","9.61","1","56.47","1","0.0","1","null","6","null","6","0.0","5","985.14","1","41.231637","16.30298"],
    [2762,"2024-04-25 01:00:00","11","andria","9.19","1","56.61","1","0.0","1","null","6","null","6","0.0","5","984.79","1","41.231637","16.30298"],
    [2763,"2024-04-25 02:00:00","11","andria","8.81","1","57.0","1","0.0","1","null","6","null","6","0.0","5","984.59","1","41.231637","16.30298"],
    [2764,"2024-04-25 03:00:00","11","andria","8.35","1","58.73","1","0.0","1","null","6","null","6","0.0","5","984.39","1","41.231637","16.30298"],
    [2765,"2024-04-25 04:00:00","11","andria","7.97","1","60.72","1","0.0","1","null","6","null","6","0.0","5","984.32","1","41.231637","16.30298"],
    [2766,"2024-04-25 05:00:00","11","andria","7.77","1","62.67","1","0.0","1","null","6","null","6","0.0","5","984.24","1","41.231637","16.30298"],
    [2767,"2024-04-25 06:00:00","11","andria","7.95","1","63.88","1","0.0","1","null","6","null","6","6.71","1","984.42","1","41.231637","16.30298"],
    [2768,"2024-04-25 07:00:00","11","andria","8.83","1","61.24","1","0.0","1","null","6","null","6","25.03","1","984.82","1","41.231637","16.30298"],
    [2769,"2024-04-25 08:00:00","11","andria","11.37","1","54.17","1","0.0","1","null","6","null","6","364.77","1","984.55","1","41.231637","16.30298"],
    [2770,"2024-04-25 09:00:00","11","andria","13.41","1","47.53","1","0.0","1","null","6","null","6","574.81","1","984.62","1","41.231637","16.30298"],
    [2771,"2024-04-25 10:00:00","11","andria","14.79","1","41.1","1","0.0","1","null","6","null","6","776.6","1","984.03","1","41.231637","16.30298"],
    [2772,"2024-04-25 11:00:00","11","andria","16.1","1","35.35","1","0.0","1","null","6","null","6","935.22","1","984.31","1","41.231637","16.30298"],
    [2773,"2024-04-25 12:00:00","11","andria","17.27","1","30.18","1","0.0","1","null","6","null","6","893.48","1","984.36","1","41.231637","16.30298"],
    [2774,"2024-04-25 13:00:00","11","andria","17.44","1","35.53","1","0.0","1","null","6","null","6","563.65","1","984.07","1","41.231637","16.30298"],
    [2775,"2024-04-25 14:00:00","11","andria","16.19","1","43.41","1","0.0","1","null","6","null","6","307.0","1","984.4","1","41.231637","16.30298"],
    [2776,"2024-04-25 15:00:00","11","andria","15.7","1","47.06","1","0.0","1","null","6","null","6","247.87","1","984.4","1","41.231637","16.30298"],
    [2777,"2024-04-25 16:00:00","11","andria","14.86","1","51.16","1","0.0","1","null","6","null","6","91.74","1","984.6","1","41.231637","16.30298"],
    [2778,"2024-04-25 17:00:00","11","andria","14.05","1","59.14","1","0.0","1","null","6","null","6","111.91","1","985.68","1","41.231637","16.30298"],
    [2779,"2024-04-25 18:00:00","11","andria","14.35","1","56.54","1","0.0","1","null","6","null","6","50.03","1","985.4","1","41.231637","16.30298"],
    [2780,"2024-04-25 19:00:00","11","andria","13.46","1","60.49","1","0.0","1","null","6","null","6","9.35","1","986.15","1","41.231637","16.30298"],
    [2781,"2024-04-25 20:00:00","11","andria","12.88","1","61.14","1","0.0","1","null","6","null","6","0.0","5","986.95","1","41.231637","16.30298"],
    [2782,"2024-04-25 21:00:00","11","andria","12.81","1","56.2","1","0.0","1","null","6","null","6","0.0","5","987.87","1","41.231637","16.30298"],
    [2783,"2024-04-25 22:00:00","11","andria","12.68","1","53.97","1","0.0","1","null","6","null","6","0.0","1","988.22","1","41.231637","16.30298"],
    [2784,"2024-04-25 23:00:00","11","andria","12.28","1","55.75","1","0.0","1","null","6","null","6","0.0","5","988.67","1","41.231637","16.30298"],
    [2785,"2024-04-26 00:00:00","11","andria","11.69","1","56.61","1","0.0","1","null","6","null","6","0.0","5","988.67","1","41.231637","16.30298"],
    [2786,"2024-04-26 01:00:00","11","andria","11.46","1","54.52","1","0.0","1","null","6","null","6","0.0","5","988.73","1","41.231637","16.30298"],
    [2787,"2024-04-26 02:00:00","11","andria","11.17","1","55.41","1","0.0","1","null","6","null","6","0.0","5","988.5","1","41.231637","16.30298"],
    [2788,"2024-04-26 03:00:00","11","andria","10.49","1","56.85","1","0.0","1","null","6","null","6","0.0","5","988.63","1","41.231637","16.30298"],
    [2789,"2024-04-26 04:00:00","11","andria","10.1","1","56.2","1","0.0","1","null","6","null","6","0.0","5","988.81","1","41.231637","16.30298"],
    [2790,"2024-04-26 05:00:00","11","andria","9.3","1","59.09","1","0.0","1","null","6","null","6","0.0","5","989.11","1","41.231637","16.30298"],
    [2791,"2024-04-26 06:00:00","11","andria","10.42","1","54.56","1","0.0","1","null","6","null","6","17.73","1","989.19","1","41.231637","16.30298"],
    [2792,"2024-04-26 07:00:00","11","andria","11.88","1","51.55","1","0.0","1","null","6","null","6","72.23","1","989.38","1","41.231637","16.30298"],
    [2793,"2024-04-26 08:00:00","11","andria","14.1","1","45.25","1","0.0","1","null","6","null","6","233.82","1","989.57","1","41.231637","16.30298"],
    [2794,"2024-04-26 09:00:00","11","andria","14.97","1","42.48","1","0.0","1","null","6","null","6","311.01","1","989.51","1","41.231637","16.30298"],
    [2795,"2024-04-26 10:00:00","11","andria","17.05","1","37.94","1","0.0","1","null","6","null","6","467.17","1","989.59","1","41.231637","16.30298"],
    [2796,"2024-04-26 11:00:00","11","andria","17.02","1","37.01","1","0.0","1","null","6","null","6","317.71","1","989.42","1","41.231637","16.30298"],
    [2797,"2024-04-26 12:00:00","11","andria","17.9","1","35.14","1","0.0","1","null","6","null","6","414.39","1","989.44","1","41.231637","16.30298"],
    [2798,"2024-04-26 13:00:00","11","andria","18.58","1","32.17","1","0.0","1","null","6","null","6","393.32","1","989.33","1","41.231637","16.30298"],
    [2799,"2024-04-26 14:00:00","11","andria","18.23","1","34.7","1","0.0","1","null","6","null","6","158.93","1","989.3","1","41.231637","16.30298"],
    [2800,"2024-04-26 15:00:00","11","andria","17.43","1","43.18","1","0.0","1","null","6","null","6","134.45","1","989.45","1","41.231637","16.30298"],
    [2801,"2024-04-26 16:00:00","11","andria","17.01","1","44.67","1","0.0","1","null","6","null","6","126.47","1","989.43","1","41.231637","16.30298"],
    [2802,"2024-04-26 17:00:00","11","andria","17.08","1","50.8","1","0.0","1","null","6","null","6","153.72","1","989.51","1","41.231637","16.30298"],
    [2803,"2024-04-26 18:00:00","11","andria","16.68","1","52.75","1","0.0","1","null","6","null","6","55.82","1","989.58","1","41.231637","16.30298"],
    [2804,"2024-04-26 19:00:00","11","andria","15.21","1","63.72","1","0.0","1","null","6","null","6","14.55","1","990.31","1","41.231637","16.30298"],
    [2805,"2024-04-26 20:00:00","11","andria","14.36","1","56.75","1","0.0","1","null","6","null","6","0.0","5","991.13","1","41.231637","16.30298"],
    [2806,"2024-04-26 21:00:00","11","andria","13.92","1","57.67","1","0.0","1","null","6","null","6","0.0","5","991.43","1","41.231637","16.30298"],
    [2807,"2024-04-26 22:00:00","11","andria","12.98","1","65.11","1","0.0","1","null","6","null","6","0.0","5","991.63","1","41.231637","16.30298"],
    [2808,"2024-04-26 23:00:00","11","andria","12.96","1","65.0","1","0.0","1","null","6","null","6","0.0","5","991.36","1","41.231637","16.30298"],
    [2809,"2024-04-27 00:00:00","11","andria","12.9","1","65.38","1","0.0","1","null","6","null","6","0.0","5","991.72","1","41.231637","16.30298"],
    [2810,"2024-04-27 01:00:00","11","andria","12.69","1","65.71","1","0.0","1","null","6","null","6","0.0","5","991.66","1","41.231637","16.30298"],
    [2811,"2024-04-27 02:00:00","11","andria","11.5","1","71.84","1","0.0","1","null","6","null","6","0.0","5","991.37","1","41.231637","16.30298"],
    [2812,"2024-04-27 03:00:00","11","andria","11.0","1","73.87","1","0.0","1","null","6","null","6","0.0","5","991.62","1","41.231637","16.30298"],
    [2813,"2024-04-27 04:00:00","11","andria","11.01","1","73.86","1","0.0","1","null","6","null","6","0.0","5","991.72","1","41.231637","16.30298"],
    [2814,"2024-04-27 05:00:00","11","andria","10.45","1","73.97","1","0.0","1","null","6","null","6","0.0","1","992.22","1","41.231637","16.30298"],
    [2815,"2024-04-27 06:00:00","11","andria","10.33","1","68.68","1","0.0","1","null","6","null","6","8.08","1","992.82","1","41.231637","16.30298"],
    [2816,"2024-04-27 07:00:00","11","andria","11.41","1","62.28","1","0.0","1","null","6","null","6","29.93","1","993.41","1","41.231637","16.30298"],
    [2817,"2024-04-27 08:00:00","11","andria","15.29","1","50.56","1","0.0","1","null","6","null","6","334.71","1","993.62","1","41.231637","16.30298"],
    [2818,"2024-04-27 09:00:00","11","andria","19.36","1","43.72","1","0.0","1","null","6","null","6","540.65","1","993.06","1","41.231637","16.30298"],
    [2819,"2024-04-27 10:00:00","11","andria","19.48","1","48.51","1","0.0","1","null","6","null","6","743.39","1","993.12","1","41.231637","16.30298"],
    [2820,"2024-04-27 11:00:00","11","andria","19.98","1","48.39","1","0.0","1","null","6","null","6","887.98","1","993.41","1","41.231637","16.30298"],
    [2821,"2024-04-27 12:00:00","11","andria","20.61","1","47.03","1","0.0","1","null","6","null","6","871.42","1","993.21","1","41.231637","16.30298"],
    [2822,"2024-04-27 13:00:00","11","andria","20.95","1","47.72","1","0.0","1","null","6","null","6","846.35","1","993.1","1","41.231637","16.30298"],
    [2823,"2024-04-27 14:00:00","11","andria","21.58","1","44.39","1","0.0","1","null","6","null","6","804.39","1","993.17","1","41.231637","16.30298"],
    [2824,"2024-04-27 15:00:00","11","andria","21.69","1","39.08","1","0.0","1","null","6","null","6","472.01","1","993.34","1","41.231637","16.30298"],
    [2825,"2024-04-27 16:00:00","11","andria","20.88","1","38.96","1","0.0","1","null","6","null","6","148.39","1","993.19","1","41.231637","16.30298"],
    [2826,"2024-04-27 17:00:00","11","andria","19.69","1","39.13","1","0.0","1","null","6","null","6","101.37","1","992.94","1","41.231637","16.30298"],
    [2827,"2024-04-27 18:00:00","11","andria","18.71","1","38.91","1","0.0","1","null","6","null","6","40.84","1","993.43","1","41.231637","16.30298"],
    [2828,"2024-04-27 19:00:00","11","andria","17.2","1","48.91","1","0.0","1","null","6","null","6","12.35","1","993.24","1","41.231637","16.30298"],
    [2829,"2024-04-27 20:00:00","11","andria","15.71","1","61.53","1","0.0","1","null","6","null","6","0.0","5","994.09","1","41.231637","16.30298"],
    [2830,"2024-04-27 21:00:00","11","andria","15.26","1","59.97","1","0.0","1","null","6","null","6","0.0","5","994.95","1","41.231637","16.30298"],
    [2831,"2024-04-27 22:00:00","11","andria","14.94","1","54.47","1","0.0","1","null","6","null","6","0.0","5","995.22","1","41.231637","16.30298"],
    [2832,"2024-04-27 23:00:00","11","andria","14.66","1","54.85","1","0.0","1","null","6","null","6","0.0","5","995.14","1","41.231637","16.30298"],
    [2833,"2024-04-28 00:00:00","11","andria","13.95","1","57.27","1","0.0","1","null","6","null","6","0.0","5","995.07","1","41.231637","16.30298"],
    [2834,"2024-04-28 01:00:00","11","andria","13.37","1","57.41","1","0.0","1","null","6","null","6","0.0","5","995.68","1","41.231637","16.30298"],
    [2835,"2024-04-28 02:00:00","11","andria","13.53","1","55.94","1","0.0","1","null","6","null","6","0.0","5","995.26","1","41.231637","16.30298"],
    [2836,"2024-04-28 03:00:00","11","andria","12.88","1","54.76","1","0.0","1","null","6","null","6","0.0","5","995.68","1","41.231637","16.30298"],
    [2837,"2024-04-28 04:00:00","11","andria","12.59","1","54.21","1","0.0","1","null","6","null","6","0.0","5","995.41","1","41.231637","16.30298"],
    [2838,"2024-04-28 05:00:00","11","andria","12.13","1","54.21","1","0.0","1","null","6","null","6","0.0","5","995.96","1","41.231637","16.30298"],
    [2839,"2024-04-28 06:00:00","11","andria","11.83","1","57.62","1","0.0","1","null","6","null","6","9.79","1","996.14","1","41.231637","16.30298"],
    [2840,"2024-04-28 07:00:00","11","andria","12.87","1","57.46","1","0.0","1","null","6","null","6","30.39","1","996.12","1","41.231637","16.30298"],
    [2841,"2024-04-28 08:00:00","11","andria","16.12","1","57.05","1","0.0","1","null","6","null","6","340.64","1","996.61","1","41.231637","16.30298"],
    [2842,"2024-04-28 09:00:00","11","andria","20.8","1","46.41","1","0.0","1","null","6","null","6","501.99","1","996.37","1","41.231637","16.30298"],
    [2843,"2024-04-28 10:00:00","11","andria","21.49","1","47.19","1","0.0","1","null","6","null","6","775.25","1","996.11","1","41.231637","16.30298"],
    [2844,"2024-04-28 11:00:00","11","andria","22.61","1","41.79","1","0.0","1","null","6","null","6","903.54","1","995.61","1","41.231637","16.30298"],
    [2845,"2024-04-28 12:00:00","11","andria","23.39","1","34.76","1","0.0","1","null","6","null","6","883.0","1","995.22","1","41.231637","16.30298"],
    [2846,"2024-04-28 13:00:00","11","andria","23.72","1","30.79","1","0.0","1","null","6","null","6","860.8","1","995.07","1","41.231637","16.30298"],
    [2847,"2024-04-28 14:00:00","11","andria","23.89","1","31.92","1","0.0","1","null","6","null","6","819.77","1","994.84","1","41.231637","16.30298"],
    [2848,"2024-04-28 15:00:00","11","andria","23.13","1","33.64","1","0.0","1","null","6","null","6","476.57","1","994.53","1","41.231637","16.30298"],
    [2849,"2024-04-28 16:00:00","11","andria","22.36","1","34.11","1","0.0","1","null","6","null","6","137.19","1","994.08","1","41.231637","16.30298"],
    [2850,"2024-04-28 17:00:00","11","andria","20.7","1","33.05","1","0.0","1","null","6","null","6","105.63","1","994.82","1","41.231637","16.30298"],
    [2851,"2024-04-28 18:00:00","11","andria","19.14","1","44.88","1","0.0","1","null","6","null","6","34.07","1","994.81","1","41.231637","16.30298"],
    [2852,"2024-04-28 19:00:00","11","andria","17.4","1","55.94","1","0.0","1","null","6","null","6","11.73","1","994.69","1","41.231637","16.30298"],
    [2853,"2024-04-28 20:00:00","11","andria","15.75","1","65.39","1","0.0","1","null","6","null","6","0.0","5","994.96","1","41.231637","16.30298"],
    [2854,"2024-04-28 21:00:00","11","andria","15.17","1","69.26","1","0.0","1","null","6","null","6","0.0","5","995.62","1","41.231637","16.30298"],
    [2855,"2024-04-28 22:00:00","11","andria","14.81","1","65.91","1","0.0","1","null","6","null","6","0.0","5","995.66","1","41.231637","16.30298"],
    [2856,"2024-04-28 23:00:00","11","andria","14.37","1","55.9","1","0.0","1","null","6","null","6","0.0","5","995.99","1","41.231637","16.30298"],
    [2857,"2024-04-29 00:00:00","11","andria","13.79","1","56.81","1","0.0","1","null","6","null","6","0.0","5","996.4","1","41.231637","16.30298"],
    [2858,"2024-04-29 01:00:00","11","andria","13.42","1","61.55","1","0.0","1","null","6","null","6","0.0","5","996.25","1","41.231637","16.30298"],
    [2859,"2024-04-29 02:00:00","11","andria","12.89","1","62.18","1","0.0","1","null","6","null","6","0.0","5","996.22","1","41.231637","16.30298"],
    [2860,"2024-04-29 03:00:00","11","andria","12.4","1","62.09","1","0.0","1","null","6","null","6","0.0","5","996.33","1","41.231637","16.30298"],
    [2861,"2024-04-29 04:00:00","11","andria","12.2","1","60.7","1","0.0","1","null","6","null","6","0.0","5","996.14","1","41.231637","16.30298"],
    [2862,"2024-04-29 05:00:00","11","andria","12.06","1","59.25","1","0.0","1","null","6","null","6","0.0","5","996.46","1","41.231637","16.30298"],
    [2863,"2024-04-29 06:00:00","11","andria","12.26","1","60.69","1","0.0","1","null","6","null","6","11.59","1","996.66","1","41.231637","16.30298"],
    [2864,"2024-04-29 07:00:00","11","andria","12.91","1","68.65","1","0.0","1","null","6","null","6","36.4","1","996.72","1","41.231637","16.30298"],
    [2865,"2024-04-29 08:00:00","11","andria","15.1","1","69.38","1","0.0","1","null","6","null","6","325.51","1","997.22","1","41.231637","16.30298"],
    [2866,"2024-04-29 09:00:00","11","andria","18.93","1","54.58","1","0.0","1","null","6","null","6","469.19","1","996.8","1","41.231637","16.30298"],
    [2867,"2024-04-29 10:00:00","11","andria","21.48","1","41.41","1","0.0","1","null","6","null","6","753.32","1","996.83","1","41.231637","16.30298"],
    [2868,"2024-04-29 11:00:00","11","andria","22.3","1","38.62","1","0.0","1","null","6","null","6","884.7","1","996.67","1","41.231637","16.30298"],
    [2869,"2024-04-29 12:00:00","11","andria","23.42","1","30.91","1","0.0","1","null","6","null","6","873.02","1","996.29","1","41.231637","16.30298"],
    [2870,"2024-04-29 13:00:00","11","andria","23.97","1","29.75","1","0.0","1","null","6","null","6","849.83","1","996.14","1","41.231637","16.30298"],
    [2871,"2024-04-29 14:00:00","11","andria","23.71","1","30.38","1","0.0","1","null","6","null","6","802.98","1","996.2","1","41.231637","16.30298"],
    [2872,"2024-04-29 15:00:00","11","andria","24.07","1","30.11","1","0.0","1","null","6","null","6","460.48","1","995.85","1","41.231637","16.30298"],
    [2873,"2024-04-29 16:00:00","11","andria","22.89","1","34.52","1","0.0","1","null","6","null","6","135.38","1","995.0","1","41.231637","16.30298"],
    [2874,"2024-04-29 17:00:00","11","andria","20.86","1","46.69","1","0.0","1","null","6","null","6","86.67","1","995.53","1","41.231637","16.30298"],
    [2875,"2024-04-29 18:00:00","11","andria","19.3","1","55.58","1","0.0","1","null","6","null","6","41.96","1","995.6","1","41.231637","16.30298"],
    [2876,"2024-04-29 19:00:00","11","andria","17.8","1","63.18","1","0.0","1","null","6","null","6","12.55","1","995.62","1","41.231637","16.30298"],
    [2877,"2024-04-29 20:00:00","11","andria","16.39","1","69.34","1","0.0","1","null","6","null","6","0.0","5","995.87","1","41.231637","16.30298"],
    [2878,"2024-04-29 21:00:00","11","andria","15.76","1","69.32","1","0.0","1","null","6","null","6","0.0","5","996.72","1","41.231637","16.30298"],
    [2879,"2024-04-29 22:00:00","11","andria","15.5","1","69.27","1","0.0","1","null","6","null","6","0.0","5","997.03","1","41.231637","16.30298"],
    [2880,"2024-04-29 23:00:00","11","andria","14.91","1","64.7","1","0.0","1","null","6","null","6","0.0","5","997.32","1","41.231637","16.30298"],
    [2881,"2024-04-30 00:00:00","11","andria","14.67","1","62.26","1","0.0","1","null","6","null","6","0.0","5","997.18","1","41.231637","16.30298"],
    [2882,"2024-04-30 01:00:00","11","andria","14.51","1","58.54","1","0.0","1","null","6","null","6","0.0","5","997.01","1","41.231637","16.30298"],
    [2883,"2024-04-30 02:00:00","11","andria","13.51","1","62.29","1","0.0","1","null","6","null","6","0.0","5","996.45","1","41.231637","16.30298"],
    [2884,"2024-04-30 03:00:00","11","andria","13.06","1","59.4","1","0.0","1","null","6","null","6","0.0","5","996.56","1","41.231637","16.30298"],
    [2885,"2024-04-30 04:00:00","11","andria","12.6","1","55.05","1","0.0","1","null","6","null","6","0.0","5","996.08","1","41.231637","16.30298"],
    [2886,"2024-04-30 05:00:00","11","andria","12.42","1","53.96","1","0.0","1","null","6","null","6","0.0","5","995.95","1","41.231637","16.30298"],
    [2887,"2024-04-30 06:00:00","11","andria","12.65","1","51.78","1","0.0","1","null","6","null","6","11.06","1","996.19","1","41.231637","16.30298"],
    [2888,"2024-04-30 07:00:00","11","andria","14.12","1","48.91","1","0.0","1","null","6","null","6","29.21","1","995.81","1","41.231637","16.30298"],
    [2889,"2024-04-30 08:00:00","11","andria","18.27","1","40.5","1","0.0","1","null","6","null","6","325.12","1","995.88","1","41.231637","16.30298"],
    [2890,"2024-04-30 09:00:00","11","andria","21.69","1","34.43","1","0.0","1","null","6","null","6","502.47","1","995.44","1","41.231637","16.30298"],
    [2891,"2024-04-30 10:00:00","11","andria","22.25","1","35.8","1","0.0","1","null","6","null","6","775.59","1","995.4","1","41.231637","16.30298"],
    [2892,"2024-04-30 11:00:00","11","andria","23.64","1","33.12","1","0.0","1","null","6","null","6","866.29","1","995.02","1","41.231637","16.30298"],
    [2893,"2024-04-30 12:00:00","11","andria","23.91","1","34.25","1","0.0","1","null","6","null","6","852.95","1","994.24","1","41.231637","16.30298"],
    [2894,"2024-04-30 13:00:00","11","andria","23.97","1","40.31","1","0.0","1","null","6","null","6","833.76","1","993.91","1","41.231637","16.30298"],
    [2895,"2024-04-30 14:00:00","11","andria","24.07","1","44.79","1","0.0","1","null","6","null","6","789.42","1","992.91","1","41.231637","16.30298"],
    [2896,"2024-04-30 15:00:00","11","andria","23.37","1","46.88","1","0.0","1","null","6","null","6","491.89","1","992.63","1","41.231637","16.30298"],
    [2897,"2024-04-30 16:00:00","11","andria","22.91","1","45.19","1","0.0","1","null","6","null","6","157.23","1","991.91","1","41.231637","16.30298"],
    [2898,"2024-04-30 17:00:00","11","andria","22.6","1","41.13","1","0.0","1","null","6","null","6","114.58","1","991.65","1","41.231637","16.30298"],
    [2899,"2024-04-30 18:00:00","11","andria","21.71","1","44.48","1","0.0","1","null","6","null","6","58.8","1","990.82","1","41.231637","16.30298"],
    [2900,"2024-04-30 19:00:00","11","andria","20.75","1","47.0","1","0.0","1","null","6","null","6","8.4","1","990.86","1","41.231637","16.30298"],
    [2901,"2024-04-30 20:00:00","11","andria","19.74","1","50.38","1","0.0","1","null","6","null","6","0.0","5","990.83","1","41.231637","16.30298"],
    [2902,"2024-04-30 21:00:00","11","andria","19.55","1","47.54","1","0.0","1","null","6","null","6","0.0","5","991.26","1","41.231637","16.30298"],
    [2903,"2024-04-30 22:00:00","11","andria","19.96","1","34.26","1","0.0","1","null","6","null","6","0.0","5","990.96","1","41.231637","16.30298"],
    [2904,"2024-04-30 23:00:00","11","andria","19.6","1","36.33","1","0.0","1","null","6","null","6","0.0","5","990.74","1","41.231637","16.30298"],
    [2905,"2024-05-01 00:00:00","11","andria","18.86","1","40.17","1","0.0","1","null","6","null","6","0.0","5","990.45","1","41.231637","16.30298"],
    [2906,"2024-05-01 01:00:00","11","andria","17.87","1","45.58","1","0.0","1","null","6","null","6","0.0","5","990.06","1","41.231637","16.30298"],
    [2907,"2024-05-01 02:00:00","11","andria","17.34","1","48.12","1","0.0","1","null","6","null","6","0.0","5","989.3","1","41.231637","16.30298"],
    [2908,"2024-05-01 03:00:00","11","andria","17.18","1","49.02","1","0.0","1","null","6","null","6","0.0","5","989.01","1","41.231637","16.30298"],
    [2909,"2024-05-01 04:00:00","11","andria","17.08","1","47.01","1","0.0","1","null","6","null","6","0.0","5","988.42","1","41.231637","16.30298"],
    [2910,"2024-05-01 05:00:00","11","andria","16.99","1","46.88","1","0.0","1","null","6","null","6","0.0","5","988.29","1","41.231637","16.30298"],
    [2911,"2024-05-01 06:00:00","11","andria","16.72","1","57.08","1","0.0","1","null","6","null","6","7.54","1","988.3","1","41.231637","16.30298"],
    [2912,"2024-05-01 07:00:00","11","andria","16.17","1","65.04","1","0.0","1","null","6","null","6","21.76","1","988.09","1","41.231637","16.30298"],
    [2913,"2024-05-01 08:00:00","11","andria","17.39","1","59.78","1","0.6","1","null","6","null","6","83.53","1","987.56","1","41.231637","16.30298"],
    [2914,"2024-05-01 09:00:00","11","andria","19.22","1","51.17","1","0.0","1","null","6","null","6","313.84","1","987.28","1","41.231637","16.30298"],
    [2915,"2024-05-01 10:00:00","11","andria","22.38","1","40.74","1","0.0","1","null","6","null","6","702.66","1","987.06","1","41.231637","16.30298"],
    [2916,"2024-05-01 11:00:00","11","andria","24.36","1","37.31","1","0.0","1","null","6","null","6","842.65","1","986.36","1","41.231637","16.30298"],
    [2917,"2024-05-01 12:00:00","11","andria","25.31","1","35.9","1","0.0","1","null","6","null","6","843.87","1","985.53","1","41.231637","16.30298"],
    [2918,"2024-05-01 13:00:00","11","andria","25.11","1","41.54","1","0.0","1","null","6","null","6","788.76","1","984.85","1","41.231637","16.30298"],
    [2919,"2024-05-01 14:00:00","11","andria","25.14","1","39.87","1","0.0","1","null","6","null","6","430.32","1","984.99","1","41.231637","16.30298"],
    [2920,"2024-05-01 15:00:00","11","andria","24.68","1","40.8","1","0.0","1","null","6","null","6","232.81","1","984.96","1","41.231637","16.30298"],
    [2921,"2024-05-01 16:00:00","11","andria","21.33","1","53.16","1","0.0","1","null","6","null","6","174.78","1","985.65","1","41.231637","16.30298"],
    [2922,"2024-05-01 17:00:00","11","andria","22.65","1","48.4","1","0.0","1","null","6","null","6","125.69","1","985.74","1","41.231637","16.30298"],
    [2923,"2024-05-01 18:00:00","11","andria","21.38","1","57.69","1","0.0","1","null","6","null","6","52.28","1","985.83","1","41.231637","16.30298"],
    [2924,"2024-05-01 19:00:00","11","andria","20.38","1","59.62","1","0.0","1","null","6","null","6","7.24","1","986.14","1","41.231637","16.30298"],
    [2925,"2024-05-01 20:00:00","11","andria","19.49","1","63.83","1","0.2","1","null","6","null","6","0.0","5","987.06","1","41.231637","16.30298"],
    [2926,"2024-05-01 21:00:00","11","andria","18.95","1","55.29","1","0.0","1","null","6","null","6","0.0","5","988.16","1","41.231637","16.30298"],
    [2927,"2024-05-01 22:00:00","11","andria","17.7","1","56.81","1","0.0","1","null","6","null","6","0.0","5","988.11","1","41.231637","16.30298"],
    [2928,"2024-05-01 23:00:00","11","andria","16.68","1","56.34","1","0.0","1","null","6","null","6","0.0","5","988.42","1","41.231637","16.30298"],
    [2929,"2024-05-02 00:00:00","11","andria","15.82","1","58.19","1","0.0","1","null","6","null","6","0.0","5","988.98","1","41.231637","16.30298"],
    [2930,"2024-05-02 01:00:00","11","andria","15.48","1","57.21","1","0.0","1","null","6","null","6","0.0","5","988.84","1","41.231637","16.30298"],
    [2931,"2024-05-02 02:00:00","11","andria","15.12","1","58.38","1","0.0","1","null","6","null","6","0.0","5","988.97","1","41.231637","16.30298"],
    [2932,"2024-05-02 03:00:00","11","andria","14.86","1","59.51","1","0.0","1","null","6","null","6","0.0","5","988.48","1","41.231637","16.30298"],
    [2933,"2024-05-02 04:00:00","11","andria","14.71","1","60.03","1","0.0","1","null","6","null","6","0.0","5","988.59","1","41.231637","16.30298"],
    [2934,"2024-05-02 05:00:00","11","andria","14.81","1","59.63","1","0.0","1","null","6","null","6","0.0","5","988.39","1","41.231637","16.30298"],
    [2935,"2024-05-02 06:00:00","11","andria","14.92","1","58.11","1","0.0","1","null","6","null","6","12.22","1","988.5","1","41.231637","16.30298"],
    [2936,"2024-05-02 07:00:00","11","andria","16.06","1","54.63","1","0.0","1","null","6","null","6","36.53","1","988.78","1","41.231637","16.30298"],
    [2937,"2024-05-02 08:00:00","11","andria","18.39","1","47.27","1","0.0","1","null","6","null","6","312.86","1","988.48","1","41.231637","16.30298"],
    [2938,"2024-05-02 09:00:00","11","andria","19.99","1","42.56","1","0.0","1","null","6","null","6","395.9","1","988.22","1","41.231637","16.30298"],
    [2939,"2024-05-02 10:00:00","11","andria","21.08","1","38.85","1","0.0","1","null","6","null","6","790.21","1","988.37","1","41.231637","16.30298"],
    [2940,"2024-05-02 11:00:00","11","andria","22.7","1","33.31","1","0.0","1","null","6","null","6","902.44","1","987.95","1","41.231637","16.30298"],
    [2941,"2024-05-02 12:00:00","11","andria","23.72","1","29.94","1","0.0","1","null","6","null","6","829.77","1","987.47","1","41.231637","16.30298"],
    [2942,"2024-05-02 13:00:00","11","andria","24.0","1","31.28","1","0.0","1","null","6","null","6","872.69","1","987.27","1","41.231637","16.30298"],
    [2943,"2024-05-02 14:00:00","11","andria","23.41","1","32.73","1","0.0","1","null","6","null","6","380.89","1","987.24","1","41.231637","16.30298"],
    [2944,"2024-05-02 15:00:00","11","andria","21.7","1","36.32","1","0.0","1","null","6","null","6","86.18","1","987.82","1","41.231637","16.30298"],
    [2945,"2024-05-02 16:00:00","11","andria","17.19","1","57.54","1","0.0","1","null","6","null","6","71.9","1","988.86","1","41.231637","16.30298"],
    [2946,"2024-05-02 17:00:00","11","andria","15.21","1","70.96","1","0.0","1","null","6","null","6","89.75","1","988.95","1","41.231637","16.30298"],
    [2947,"2024-05-02 18:00:00","11","andria","14.42","1","60.44","1","0.0","1","null","6","null","6","52.17","1","988.6","1","41.231637","16.30298"],
    [2948,"2024-05-02 19:00:00","11","andria","14.62","1","58.34","1","0.2","1","null","6","null","6","6.66","1","988.92","1","41.231637","16.30298"],
    [2949,"2024-05-02 20:00:00","11","andria","13.87","1","57.58","1","0.0","1","null","6","null","6","0.0","5","989.13","1","41.231637","16.30298"],
    [2950,"2024-05-02 21:00:00","11","andria","13.58","1","52.85","1","0.0","1","null","6","null","6","0.0","5","989.02","1","41.231637","16.30298"],
    [2951,"2024-05-02 22:00:00","11","andria","13.28","1","55.31","1","0.0","1","null","6","null","6","0.0","5","989.25","1","41.231637","16.30298"],
    [2952,"2024-05-02 23:00:00","11","andria","12.96","1","58.04","1","0.0","1","null","6","null","6","0.0","5","989.37","1","41.231637","16.30298"],
    [2953,"2024-05-03 00:00:00","11","andria","12.26","1","62.06","1","0.0","1","null","6","null","6","0.0","5","989.44","1","41.231637","16.30298"],
    [2954,"2024-05-03 01:00:00","11","andria","12.21","1","60.84","1","0.0","1","null","6","null","6","0.0","5","988.93","1","41.231637","16.30298"],
    [2955,"2024-05-03 02:00:00","11","andria","12.59","1","53.97","1","0.0","1","null","6","null","6","0.0","5","988.25","1","41.231637","16.30298"],
    [2956,"2024-05-03 03:00:00","11","andria","12.46","1","54.89","1","0.0","1","null","6","null","6","0.0","5","988.46","1","41.231637","16.30298"],
    [2957,"2024-05-03 04:00:00","11","andria","11.92","1","56.46","1","0.0","1","null","6","null","6","0.0","5","988.38","1","41.231637","16.30298"],
    [2958,"2024-05-03 05:00:00","11","andria","11.87","1","55.63","1","0.0","1","null","6","null","6","0.0","5","988.28","1","41.231637","16.30298"],
    [2959,"2024-05-03 06:00:00","11","andria","11.86","1","56.74","1","0.0","1","null","6","null","6","8.47","1","988.49","1","41.231637","16.30298"],
    [2960,"2024-05-03 07:00:00","11","andria","12.67","1","55.66","1","0.0","1","null","6","null","6","23.86","1","988.97","1","41.231637","16.30298"],
    [2961,"2024-05-03 08:00:00","11","andria","14.53","1","48.67","1","0.0","1","null","6","null","6","330.26","1","989.45","1","41.231637","16.30298"],
    [2962,"2024-05-03 09:00:00","11","andria","16.53","1","43.15","1","0.0","1","null","6","null","6","595.65","1","989.25","1","41.231637","16.30298"],
    [2963,"2024-05-03 10:00:00","11","andria","17.58","1","40.45","1","0.0","1","null","6","null","6","770.14","1","989.33","1","41.231637","16.30298"],
    [2964,"2024-05-03 11:00:00","11","andria","18.65","1","37.57","1","0.0","1","null","6","null","6","784.28","1","989.12","1","41.231637","16.30298"],
    [2965,"2024-05-03 12:00:00","11","andria","19.23","1","35.72","1","0.0","1","null","6","null","6","716.12","1","989.05","1","41.231637","16.30298"],
    [2966,"2024-05-03 13:00:00","11","andria","19.45","1","34.78","1","0.0","1","null","6","null","6","586.32","1","988.55","1","41.231637","16.30298"],
    [2967,"2024-05-03 14:00:00","11","andria","20.1","1","32.82","1","0.0","1","null","6","null","6","733.73","1","988.14","1","41.231637","16.30298"],
    [2968,"2024-05-03 15:00:00","11","andria","19.64","1","35.89","1","0.0","1","null","6","null","6","406.68","1","988.06","1","41.231637","16.30298"],
    [2969,"2024-05-03 16:00:00","11","andria","17.53","1","45.15","1","0.0","1","null","6","null","6","208.92","1","988.87","1","41.231637","16.30298"],
    [2970,"2024-05-03 17:00:00","11","andria","16.77","1","48.57","1","0.0","1","null","6","null","6","126.56","1","988.84","1","41.231637","16.30298"],
    [2971,"2024-05-03 18:00:00","11","andria","15.91","1","50.66","1","0.0","1","null","6","null","6","44.47","1","988.85","1","41.231637","16.30298"],
    [2972,"2024-05-03 19:00:00","11","andria","15.43","1","50.61","1","0.0","1","null","6","null","6","6.0","1","989.04","1","41.231637","16.30298"],
    [2973,"2024-05-03 20:00:00","11","andria","14.73","1","54.97","1","0.0","1","null","6","null","6","0.0","5","989.47","1","41.231637","16.30298"],
    [2974,"2024-05-03 21:00:00","11","andria","14.22","1","59.48","1","0.0","1","null","6","null","6","0.0","5","989.64","1","41.231637","16.30298"],
    [2975,"2024-05-03 22:00:00","11","andria","13.73","1","62.72","1","0.0","1","null","6","null","6","0.0","5","990.31","1","41.231637","16.30298"],
    [2976,"2024-05-03 23:00:00","11","andria","13.24","1","65.35","1","0.0","1","null","6","null","6","0.0","5","990.4","1","41.231637","16.30298"],
    [2977,"2024-05-04 00:00:00","11","andria","12.83","1","67.29","1","0.0","1","null","6","null","6","0.0","5","990.34","1","41.231637","16.30298"],
    [2978,"2024-05-04 01:00:00","11","andria","12.46","1","66.8","1","0.0","1","null","6","null","6","0.0","5","990.12","1","41.231637","16.30298"],
    [2979,"2024-05-04 02:00:00","11","andria","11.99","1","67.65","1","0.0","1","null","6","null","6","0.0","5","989.61","1","41.231637","16.30298"],
    [2980,"2024-05-04 03:00:00","11","andria","11.84","1","66.7","1","0.0","1","null","6","null","6","0.0","5","989.75","1","41.231637","16.30298"],
    [2981,"2024-05-04 04:00:00","11","andria","11.67","1","66.45","1","0.0","1","null","6","null","6","0.0","5","989.72","1","41.231637","16.30298"],
    [2982,"2024-05-04 05:00:00","11","andria","11.39","1","67.42","1","0.0","1","null","6","null","6","0.0","5","989.84","1","41.231637","16.30298"],
    [2983,"2024-05-04 06:00:00","11","andria","11.45","1","67.01","1","0.0","1","null","6","null","6","8.41","1","990.32","1","41.231637","16.30298"],
    [2984,"2024-05-04 07:00:00","11","andria","12.74","1","60.61","1","0.0","1","null","6","null","6","24.39","1","990.82","1","41.231637","16.30298"],
    [2985,"2024-05-04 08:00:00","11","andria","14.79","1","52.62","1","0.0","1","null","6","null","6","319.06","1","990.91","1","41.231637","16.30298"],
    [2986,"2024-05-04 09:00:00","11","andria","16.98","1","46.43","1","0.0","1","null","6","null","6","495.18","1","990.68","1","41.231637","16.30298"],
    [2987,"2024-05-04 10:00:00","11","andria","18.16","1","43.13","1","0.0","1","null","6","null","6","780.7","1","990.98","1","41.231637","16.30298"],
    [2988,"2024-05-04 11:00:00","11","andria","19.05","1","41.6","1","0.0","1","null","6","null","6","735.52","1","990.82","1","41.231637","16.30298"],
    [2989,"2024-05-04 12:00:00","11","andria","19.09","1","42.71","1","0.0","1","null","6","null","6","648.76","1","990.72","1","41.231637","16.30298"],
    [2990,"2024-05-04 13:00:00","11","andria","19.14","1","42.22","1","0.0","1","null","6","null","6","382.68","1","990.89","1","41.231637","16.30298"],
    [2991,"2024-05-04 14:00:00","11","andria","18.54","1","49.41","1","0.0","1","null","6","null","6","315.23","1","991.08","1","41.231637","16.30298"],
    [2992,"2024-05-04 15:00:00","11","andria","18.8","1","50.81","1","0.0","1","null","6","null","6","350.56","1","991.41","1","41.231637","16.30298"],
    [2993,"2024-05-04 16:00:00","11","andria","19.22","1","46.54","1","0.0","1","null","6","null","6","170.16","1","991.15","1","41.231637","16.30298"],
    [2994,"2024-05-04 17:00:00","11","andria","18.95","1","45.03","1","0.0","1","null","6","null","6","68.08","1","991.45","1","41.231637","16.30298"],
    [2995,"2024-05-04 18:00:00","11","andria","17.75","1","59.36","1","0.0","1","null","6","null","6","38.77","1","991.78","1","41.231637","16.30298"],
    [2996,"2024-05-04 19:00:00","11","andria","16.47","1","65.87","1","0.0","1","null","6","null","6","10.14","1","991.98","1","41.231637","16.30298"],
    [2997,"2024-05-04 20:00:00","11","andria","15.99","1","59.74","1","0.0","1","null","6","null","6","0.0","5","992.66","1","41.231637","16.30298"],
    [2998,"2024-05-04 21:00:00","11","andria","15.11","1","61.88","1","0.0","1","null","6","null","6","0.0","5","993.37","1","41.231637","16.30298"],
    [2999,"2024-05-04 22:00:00","11","andria","14.42","1","64.53","1","0.0","1","null","6","null","6","0.0","5","993.92","1","41.231637","16.30298"],
    [3000,"2024-05-04 23:00:00","11","andria","14.24","1","63.05","1","0.0","1","null","6","null","6","0.0","1","994.21","1","41.231637","16.30298"],
    [3001,"2024-05-05 00:00:00","11","andria","13.77","1","64.56","1","0.0","1","null","6","null","6","0.0","5","994.16","1","41.231637","16.30298"],
    [3002,"2024-05-05 01:00:00","11","andria","13.51","1","65.01","1","0.0","1","null","6","null","6","0.0","5","993.77","1","41.231637","16.30298"],
    [3003,"2024-05-05 02:00:00","11","andria","13.2","1","65.71","1","0.0","1","null","6","null","6","0.0","5","993.75","1","41.231637","16.30298"],
    [3004,"2024-05-05 03:00:00","11","andria","13.26","1","65.37","1","0.0","1","null","6","null","6","0.0","5","993.7","1","41.231637","16.30298"],
    [3005,"2024-05-05 04:00:00","11","andria","13.2","1","65.47","1","0.0","1","null","6","null","6","0.0","5","993.57","1","41.231637","16.30298"],
    [3006,"2024-05-05 05:00:00","11","andria","13.24","1","66.16","1","0.0","1","null","6","null","6","0.0","5","993.68","1","41.231637","16.30298"],
    [3007,"2024-05-05 06:00:00","11","andria","13.53","1","64.41","1","0.0","1","null","6","null","6","9.73","1","993.81","1","41.231637","16.30298"],
    [3008,"2024-05-05 07:00:00","11","andria","14.53","1","61.08","1","0.0","1","null","6","null","6","24.87","1","993.96","1","41.231637","16.30298"],
    [3009,"2024-05-05 08:00:00","11","andria","16.96","1","52.5","1","0.0","1","null","6","null","6","324.98","1","994.34","1","41.231637","16.30298"],
    [3010,"2024-05-05 09:00:00","11","andria","19.74","1","44.11","1","0.0","1","null","6","null","6","542.88","1","994.13","1","41.231637","16.30298"],
    [3011,"2024-05-05 10:00:00","11","andria","21.36","1","38.85","1","0.0","1","null","6","null","6","838.61","1","993.91","1","41.231637","16.30298"],
    [3012,"2024-05-05 11:00:00","11","andria","22.3","1","39.26","1","0.0","1","null","6","null","6","895.8","1","993.46","1","41.231637","16.30298"],
    [3013,"2024-05-05 12:00:00","11","andria","22.6","1","36.49","1","0.0","1","null","6","null","6","903.77","1","992.92","1","41.231637","16.30298"],
    [3014,"2024-05-05 13:00:00","11","andria","23.09","1","33.66","1","0.0","1","null","6","null","6","879.03","1","992.78","1","41.231637","16.30298"],
    [3015,"2024-05-05 14:00:00","11","andria","23.59","1","33.85","1","0.0","1","null","6","null","6","816.29","1","992.6","1","41.231637","16.30298"],
    [3016,"2024-05-05 15:00:00","11","andria","23.6","1","34.24","1","0.0","1","null","6","null","6","527.5","1","992.29","1","41.231637","16.30298"],
    [3017,"2024-05-05 16:00:00","11","andria","22.44","1","38.0","1","0.0","1","null","6","null","6","136.46","1","991.84","1","41.231637","16.30298"],
    [3018,"2024-05-05 17:00:00","11","andria","21.42","1","40.48","1","0.0","1","null","6","null","6","78.73","1","991.66","1","41.231637","16.30298"],
    [3019,"2024-05-05 18:00:00","11","andria","20.09","1","43.9","1","0.0","1","null","6","null","6","60.7","1","991.94","1","41.231637","16.30298"],
    [3020,"2024-05-05 19:00:00","11","andria","19.25","1","44.9","1","0.0","1","null","6","null","6","14.32","1","992.06","1","41.231637","16.30298"],
    [3021,"2024-05-05 20:00:00","11","andria","18.58","1","48.88","1","0.0","1","null","6","null","6","0.0","5","992.57","1","41.231637","16.30298"],
    [3022,"2024-05-05 21:00:00","11","andria","19.13","1","43.69","1","0.0","1","null","6","null","6","0.0","5","992.7","1","41.231637","16.30298"],
    [3023,"2024-05-05 22:00:00","11","andria","18.24","1","45.47","1","0.0","1","null","6","null","6","0.0","5","992.78","1","41.231637","16.30298"],
    [3024,"2024-05-05 23:00:00","11","andria","17.29","1","52.45","1","0.0","1","null","6","null","6","0.0","5","992.84","1","41.231637","16.30298"],
    [3025,"2024-05-06 00:00:00","11","andria","16.33","1","57.45","1","0.0","1","null","6","null","6","0.0","5","993.06","1","41.231637","16.30298"],
    [3026,"2024-05-06 01:00:00","11","andria","15.79","1","59.1","1","0.0","1","null","6","null","6","0.0","5","992.72","1","41.231637","16.30298"],
    [3027,"2024-05-06 02:00:00","11","andria","15.62","1","60.4","1","0.0","1","null","6","null","6","0.0","5","992.44","1","41.231637","16.30298"],
    [3028,"2024-05-06 03:00:00","11","andria","15.45","1","59.66","1","0.0","1","null","6","null","6","0.0","5","992.25","1","41.231637","16.30298"],
    [3029,"2024-05-06 04:00:00","11","andria","15.1","1","58.73","1","0.0","1","null","6","null","6","0.0","5","992.13","1","41.231637","16.30298"],
    [3030,"2024-05-06 05:00:00","11","andria","14.83","1","57.26","1","0.0","1","null","6","null","6","0.0","5","992.33","1","41.231637","16.30298"],
    [3031,"2024-05-06 06:00:00","11","andria","14.74","1","56.55","1","0.0","1","null","6","null","6","10.17","1","992.47","1","41.231637","16.30298"],
    [3032,"2024-05-06 07:00:00","11","andria","16.02","1","53.21","1","0.0","1","null","6","null","6","29.24","1","992.6","1","41.231637","16.30298"],
    [3033,"2024-05-06 08:00:00","11","andria","19.06","1","45.04","1","0.0","1","null","6","null","6","297.61","1","992.75","1","41.231637","16.30298"],
    [3034,"2024-05-06 09:00:00","11","andria","23.21","1","37.37","1","0.0","1","null","6","null","6","513.26","1","992.34","1","41.231637","16.30298"],
    [3035,"2024-05-06 10:00:00","11","andria","24.34","1","37.09","1","0.0","1","null","6","null","6","797.47","1","991.87","1","41.231637","16.30298"],
    [3036,"2024-05-06 11:00:00","11","andria","24.55","1","36.46","1","0.0","1","null","6","null","6","857.29","1","991.39","1","41.231637","16.30298"],
    [3037,"2024-05-06 12:00:00","11","andria","24.36","1","37.43","1","0.0","1","null","6","null","6","830.04","1","991.11","1","41.231637","16.30298"],
    [3038,"2024-05-06 13:00:00","11","andria","24.64","1","37.84","1","0.0","1","null","6","null","6","792.4","1","990.76","1","41.231637","16.30298"],
    [3039,"2024-05-06 14:00:00","11","andria","24.79","1","39.44","1","0.0","1","null","6","null","6","761.81","1","990.46","1","41.231637","16.30298"],
    [3040,"2024-05-06 15:00:00","11","andria","23.62","1","47.59","1","0.0","1","null","6","null","6","492.77","1","990.14","1","41.231637","16.30298"],
    [3041,"2024-05-06 16:00:00","11","andria","23.21","1","48.96","1","0.0","1","null","6","null","6","150.07","1","990.11","1","41.231637","16.30298"],
    [3042,"2024-05-06 17:00:00","11","andria","23.59","1","44.63","1","0.0","1","null","6","null","6","67.19","1","989.86","1","41.231637","16.30298"],
    [3043,"2024-05-06 18:00:00","11","andria","24.34","1","37.07","1","0.0","1","null","6","null","6","38.16","1","989.62","1","41.231637","16.30298"],
    [3044,"2024-05-06 19:00:00","11","andria","23.53","1","37.37","1","0.0","1","null","6","null","6","16.02","1","989.63","1","41.231637","16.30298"],
    [3045,"2024-05-06 20:00:00","11","andria","21.58","1","38.03","1","0.0","1","null","6","null","6","0.0","5","990.41","1","41.231637","16.30298"],
    [3046,"2024-05-06 21:00:00","11","andria","19.82","1","40.92","1","0.0","1","null","6","null","6","0.0","5","990.89","1","41.231637","16.30298"],
    [3047,"2024-05-06 22:00:00","11","andria","19.29","1","36.97","1","0.0","1","null","6","null","6","0.0","5","991.11","1","41.231637","16.30298"],
    [3048,"2024-05-06 23:00:00","11","andria","18.97","1","36.55","1","0.0","1","null","6","null","6","0.0","5","991.05","1","41.231637","16.30298"],
    [3049,"2024-05-07 00:00:00","11","andria","18.44","1","39.42","1","0.0","1","null","6","null","6","0.0","5","991.03","1","41.231637","16.30298"],
    [3050,"2024-05-07 01:00:00","11","andria","17.92","1","42.57","1","0.0","1","null","6","null","6","0.0","5","990.64","1","41.231637","16.30298"],
    [3051,"2024-05-07 02:00:00","11","andria","17.25","1","47.43","1","0.0","1","null","6","null","6","0.0","5","990.34","1","41.231637","16.30298"],
    [3052,"2024-05-07 03:00:00","11","andria","16.46","1","56.69","1","0.0","1","null","6","null","6","0.0","5","990.69","1","41.231637","16.30298"],
    [3053,"2024-05-07 04:00:00","11","andria","16.74","1","51.96","1","0.0","1","null","6","null","6","0.0","5","990.24","1","41.231637","16.30298"],
    [3054,"2024-05-07 05:00:00","11","andria","16.58","1","52.69","1","0.0","1","null","6","null","6","0.0","5","990.08","1","41.231637","16.30298"],
    [3055,"2024-05-07 06:00:00","11","andria","16.62","1","53.28","1","0.0","1","null","6","null","6","21.8","1","990.18","1","41.231637","16.30298"],
    [3056,"2024-05-07 07:00:00","11","andria","17.81","1","49.02","1","0.0","1","null","6","null","6","80.3","1","989.95","1","41.231637","16.30298"],
    [3057,"2024-05-07 08:00:00","11","andria","19.27","1","45.24","1","0.0","1","null","6","null","6","179.91","1","990.63","1","41.231637","16.30298"],
    [3058,"2024-05-07 09:00:00","11","andria","21.86","1","40.72","1","0.0","1","null","6","null","6","356.01","1","990.35","1","41.231637","16.30298"],
    [3059,"2024-05-07 10:00:00","11","andria","24.9","1","33.01","1","0.0","1","null","6","null","6","705.2","1","989.95","1","41.231637","16.30298"],
    [3060,"2024-05-07 11:00:00","11","andria","26.4","1","27.14","1","0.0","1","null","6","null","6","583.47","1","989.52","1","41.231637","16.30298"],
    [3061,"2024-05-07 12:00:00","11","andria","25.33","1","34.65","1","0.0","1","null","6","null","6","713.31","1","989.26","1","41.231637","16.30298"],
    [3062,"2024-05-07 13:00:00","11","andria","26.2","1","31.7","1","0.0","1","null","6","null","6","810.36","1","989.12","1","41.231637","16.30298"],
    [3063,"2024-05-07 14:00:00","11","andria","26.76","1","29.77","1","0.0","1","null","6","null","6","775.88","1","989.19","1","41.231637","16.30298"],
    [3064,"2024-05-07 15:00:00","11","andria","26.45","1","29.36","1","0.0","1","null","6","null","6","378.22","1","989.11","1","41.231637","16.30298"],
    [3065,"2024-05-07 16:00:00","11","andria","25.98","1","29.91","1","0.0","1","null","6","null","6","178.4","1","989.13","1","41.231637","16.30298"],
    [3066,"2024-05-07 17:00:00","11","andria","24.59","1","30.11","1","0.0","1","null","6","null","6","105.73","1","989.12","1","41.231637","16.30298"],
    [3067,"2024-05-07 18:00:00","11","andria","24.54","1","29.62","1","0.0","1","null","6","null","6","53.46","1","989.1","1","41.231637","16.30298"],
    [3068,"2024-05-07 19:00:00","11","andria","23.97","1","27.1","1","0.0","1","null","6","null","6","14.08","1","989.25","1","41.231637","16.30298"],
    [3069,"2024-05-07 20:00:00","11","andria","22.9","1","30.14","1","0.0","1","null","6","null","6","0.0","5","989.48","1","41.231637","16.30298"],
    [3070,"2024-05-07 21:00:00","11","andria","22.07","1","32.61","1","0.0","1","null","6","null","6","0.0","5","990.23","1","41.231637","16.30298"],
    [3071,"2024-05-07 22:00:00","11","andria","21.0","1","36.79","1","0.0","1","null","6","null","6","0.0","5","991.16","1","41.231637","16.30298"],
    [3072,"2024-05-07 23:00:00","11","andria","19.26","1","45.32","1","0.0","1","null","6","null","6","0.0","5","991.28","1","41.231637","16.30298"],
    [3073,"2024-05-08 00:00:00","11","andria","18.51","1","48.42","1","0.0","1","null","6","null","6","0.0","5","991.28","1","41.231637","16.30298"],
    [3074,"2024-05-08 01:00:00","11","andria","18.12","1","43.25","1","0.0","1","null","6","null","6","0.0","5","991.06","1","41.231637","16.30298"],
    [3075,"2024-05-08 02:00:00","11","andria","17.22","1","45.65","1","0.0","1","null","6","null","6","0.0","5","990.81","1","41.231637","16.30298"],
    [3076,"2024-05-08 03:00:00","11","andria","16.22","1","48.26","1","0.0","1","null","6","null","6","0.0","5","990.81","1","41.231637","16.30298"],
    [3077,"2024-05-08 04:00:00","11","andria","15.62","1","51.78","1","0.0","1","null","6","null","6","0.0","5","990.91","1","41.231637","16.30298"],
    [3078,"2024-05-08 05:00:00","11","andria","15.35","1","59.02","1","0.0","1","null","6","null","6","0.0","5","990.96","1","41.231637","16.30298"],
    [3079,"2024-05-08 06:00:00","11","andria","15.57","1","62.04","1","0.0","1","null","6","null","6","18.5","1","991.7","1","41.231637","16.30298"],
    [3080,"2024-05-08 07:00:00","11","andria","16.43","1","61.22","1","0.0","1","null","6","null","6","51.81","1","991.58","1","41.231637","16.30298"],
    [3081,"2024-05-08 08:00:00","11","andria","17.84","1","56.45","1","0.0","1","null","6","null","6","276.45","1","991.74","1","41.231637","16.30298"],
    [3082,"2024-05-08 09:00:00","11","andria","20.98","1","45.82","1","0.0","1","null","6","null","6","514.51","1","991.39","1","41.231637","16.30298"],
    [3083,"2024-05-08 10:00:00","11","andria","22.42","1","41.09","1","0.0","1","null","6","null","6","736.75","1","991.29","1","41.231637","16.30298"],
    [3084,"2024-05-08 11:00:00","11","andria","23.44","1","46.11","1","0.0","1","null","6","null","6","827.2","1","991.07","1","41.231637","16.30298"],
    [3085,"2024-05-08 12:00:00","11","andria","23.92","1","48.68","1","0.0","1","null","6","null","6","850.21","1","990.61","1","41.231637","16.30298"],
    [3086,"2024-05-08 13:00:00","11","andria","23.48","1","45.72","1","0.0","1","null","6","null","6","617.75","1","990.21","1","41.231637","16.30298"],
    [3087,"2024-05-08 14:00:00","11","andria","20.77","1","49.48","1","0.0","1","null","6","null","6","107.98","1","990.29","1","41.231637","16.30298"],
    [3088,"2024-05-08 15:00:00","11","andria","20.34","1","53.32","1","0.0","1","null","6","null","6","241.08","1","990.23","1","41.231637","16.30298"],
    [3089,"2024-05-08 16:00:00","11","andria","18.99","1","64.92","1","0.0","1","null","6","null","6","83.21","1","990.0","1","41.231637","16.30298"],
    [3090,"2024-05-08 17:00:00","11","andria","18.51","1","71.06","1","0.0","1","null","6","null","6","67.46","1","989.96","1","41.231637","16.30298"],
    [3091,"2024-05-08 18:00:00","11","andria","18.07","1","73.55","1","0.0","1","null","6","null","6","59.83","1","990.26","1","41.231637","16.30298"],
    [3092,"2024-05-08 19:00:00","11","andria","17.48","1","77.18","1","0.0","1","null","6","null","6","9.67","1","990.51","1","41.231637","16.30298"],
    [3093,"2024-05-08 20:00:00","11","andria","17.12","1","78.91","1","0.0","1","null","6","null","6","0.0","5","990.7","1","41.231637","16.30298"],
    [3094,"2024-05-08 21:00:00","11","andria","16.72","1","80.2","1","0.0","1","null","6","null","6","0.0","5","991.13","1","41.231637","16.30298"],
    [3095,"2024-05-08 22:00:00","11","andria","16.62","1","79.98","1","0.0","1","null","6","null","6","0.0","5","991.53","1","41.231637","16.30298"],
    [3096,"2024-05-08 23:00:00","11","andria","16.14","1","82.31","1","0.0","1","null","6","null","6","0.0","5","991.32","1","41.231637","16.30298"],
    [3097,"2024-05-09 00:00:00","11","andria","15.87","1","82.8","1","0.0","1","null","6","null","6","0.0","5","991.47","1","41.231637","16.30298"],
    [3098,"2024-05-09 01:00:00","11","andria","15.51","1","84.11","1","0.0","1","null","6","null","6","0.0","5","991.01","1","41.231637","16.30298"],
    [3099,"2024-05-09 02:00:00","11","andria","15.05","1","84.84","1","0.0","1","null","6","null","6","0.0","5","990.88","1","41.231637","16.30298"],
    [3100,"2024-05-09 03:00:00","11","andria","14.57","1","86.02","1","0.0","1","null","6","null","6","0.0","5","990.45","1","41.231637","16.30298"],
    [3101,"2024-05-09 04:00:00","11","andria","14.55","1","85.72","1","0.0","1","null","6","null","6","0.0","5","990.17","1","41.231637","16.30298"],
    [3102,"2024-05-09 05:00:00","11","andria","14.55","1","85.54","1","0.0","1","null","6","null","6","0.0","5","990.24","1","41.231637","16.30298"],
    [3103,"2024-05-09 06:00:00","11","andria","14.56","1","84.79","1","0.0","1","null","6","null","6","30.34","1","989.93","1","41.231637","16.30298"],
    [3104,"2024-05-09 07:00:00","11","andria","15.24","1","80.65","1","0.0","1","null","6","null","6","84.93","1","990.37","1","41.231637","16.30298"],
    [3105,"2024-05-09 08:00:00","11","andria","16.86","1","72.16","1","0.0","1","null","6","null","6","259.76","1","990.59","1","41.231637","16.30298"],
    [3106,"2024-05-09 09:00:00","11","andria","19.98","1","60.41","1","0.0","1","null","6","null","6","508.83","1","990.4","1","41.231637","16.30298"],
    [3107,"2024-05-09 10:00:00","11","andria","21.51","1","53.36","1","0.0","1","null","6","null","6","663.08","1","990.08","1","41.231637","16.30298"],
    [3108,"2024-05-09 11:00:00","11","andria","22.68","1","48.37","1","0.0","1","null","6","null","6","609.38","1","989.81","1","41.231637","16.30298"],
    [3109,"2024-05-09 12:00:00","11","andria","23.13","1","45.14","1","0.0","1","null","6","null","6","856.38","1","989.9","1","41.231637","16.30298"],
    [3110,"2024-05-09 13:00:00","11","andria","22.64","1","49.98","1","0.0","1","null","6","null","6","629.6","1","989.99","1","41.231637","16.30298"],
    [3111,"2024-05-09 14:00:00","11","andria","21.29","1","59.73","1","0.0","1","null","6","null","6","615.51","1","989.87","1","41.231637","16.30298"],
    [3112,"2024-05-09 15:00:00","11","andria","21.97","1","58.27","1","0.0","1","null","6","null","6","441.02","1","989.33","1","41.231637","16.30298"],
    [3113,"2024-05-09 16:00:00","11","andria","21.19","1","60.06","1","0.0","1","null","6","null","6","183.79","1","989.36","1","41.231637","16.30298"],
    [3114,"2024-05-09 17:00:00","11","andria","20.61","1","56.34","1","0.0","1","null","6","null","6","95.66","1","989.78","1","41.231637","16.30298"],
    [3115,"2024-05-09 18:00:00","11","andria","20.97","1","48.96","1","0.0","1","null","6","null","6","77.05","1","989.43","1","41.231637","16.30298"],
    [3116,"2024-05-09 19:00:00","11","andria","20.37","1","51.64","1","0.0","1","null","6","null","6","16.19","1","989.89","1","41.231637","16.30298"],
    [3117,"2024-05-09 20:00:00","11","andria","20.04","1","55.49","1","0.0","1","null","6","null","6","0.0","5","990.25","1","41.231637","16.30298"],
    [3118,"2024-05-09 21:00:00","11","andria","19.38","1","62.08","1","0.0","1","null","6","null","6","0.0","5","991.06","1","41.231637","16.30298"],
    [3119,"2024-05-09 22:00:00","11","andria","17.29","1","75.54","1","1.0","1","null","6","null","6","0.0","5","991.95","1","41.231637","16.30298"],
    [3120,"2024-05-09 23:00:00","11","andria","15.76","1","85.17","1","1.4","1","null","6","null","6","0.0","5","992.1","1","41.231637","16.30298"],
    [3121,"2024-05-10 00:00:00","11","andria","15.5","1","85.3","1","0.0","1","null","6","null","6","0.0","5","992.23","1","41.231637","16.30298"],
    [3122,"2024-05-10 01:00:00","11","andria","15.38","1","82.31","1","0.0","1","null","6","null","6","0.0","5","992.34","1","41.231637","16.30298"],
    [3123,"2024-05-10 02:00:00","11","andria","15.04","1","80.24","1","0.0","1","null","6","null","6","0.0","5","991.93","1","41.231637","16.30298"],
    [3124,"2024-05-10 03:00:00","11","andria","14.99","1","81.01","1","0.0","1","null","6","null","6","0.0","5","991.86","1","41.231637","16.30298"],
    [3125,"2024-05-10 04:00:00","11","andria","14.68","1","81.47","1","0.0","1","null","6","null","6","0.0","5","991.61","1","41.231637","16.30298"],
    [3126,"2024-05-10 05:00:00","11","andria","14.38","1","81.42","1","0.0","1","null","6","null","6","0.0","5","991.67","1","41.231637","16.30298"],
    [3127,"2024-05-10 06:00:00","11","andria","14.24","1","80.41","1","0.0","1","null","6","null","6","15.07","1","991.89","1","41.231637","16.30298"],
    [3128,"2024-05-10 07:00:00","11","andria","14.94","1","75.48","1","0.0","1","null","6","null","6","41.93","1","991.98","1","41.231637","16.30298"],
    [3129,"2024-05-10 08:00:00","11","andria","16.99","1","67.43","1","0.0","1","null","6","null","6","260.31","1","992.36","1","41.231637","16.30298"],
    [3130,"2024-05-10 09:00:00","11","andria","19.51","1","60.83","1","0.0","1","null","6","null","6","584.56","1","992.02","1","41.231637","16.30298"],
    [3131,"2024-05-10 10:00:00","11","andria","20.81","1","51.57","1","0.0","1","null","6","null","6","660.72","1","992.03","1","41.231637","16.30298"],
    [3132,"2024-05-10 11:00:00","11","andria","21.68","1","45.54","1","0.0","1","null","6","null","6","812.88","1","991.88","1","41.231637","16.30298"],
    [3133,"2024-05-10 12:00:00","11","andria","22.21","1","38.53","1","0.0","1","null","6","null","6","811.17","1","991.88","1","41.231637","16.30298"],
    [3134,"2024-05-10 13:00:00","11","andria","22.86","1","32.42","1","0.0","1","null","6","null","6","752.64","1","991.58","1","41.231637","16.30298"],
    [3135,"2024-05-10 14:00:00","11","andria","23.12","1","32.05","1","0.0","1","null","6","null","6","766.97","1","991.11","1","41.231637","16.30298"],
    [3136,"2024-05-10 15:00:00","11","andria","23.27","1","33.08","1","0.0","1","null","6","null","6","429.66","1","990.97","1","41.231637","16.30298"],
    [3137,"2024-05-10 16:00:00","11","andria","22.41","1","39.06","1","0.0","1","null","6","null","6","176.79","1","990.5","1","41.231637","16.30298"],
    [3138,"2024-05-10 17:00:00","11","andria","22.05","1","38.95","1","0.0","1","null","6","null","6","119.44","1","990.32","1","41.231637","16.30298"],
    [3139,"2024-05-10 18:00:00","11","andria","21.29","1","40.87","1","0.0","1","null","6","null","6","42.94","1","990.3","1","41.231637","16.30298"],
    [3140,"2024-05-10 19:00:00","11","andria","19.88","1","48.69","1","0.0","1","null","6","null","6","15.0","1","990.97","1","41.231637","16.30298"],
    [3141,"2024-05-10 20:00:00","11","andria","18.84","1","51.25","1","0.0","1","null","6","null","6","0.0","5","991.0","1","41.231637","16.30298"],
    [3142,"2024-05-10 21:00:00","11","andria","18.03","1","52.95","1","0.0","1","null","6","null","6","0.0","5","991.6","1","41.231637","16.30298"],
    [3143,"2024-05-10 22:00:00","11","andria","16.81","1","52.04","1","0.0","1","null","6","null","6","0.0","5","992.04","1","41.231637","16.30298"],
    [3144,"2024-05-10 23:00:00","11","andria","16.25","1","58.09","1","0.0","1","null","6","null","6","0.0","5","992.37","1","41.231637","16.30298"],
    [3145,"2024-05-11 00:00:00","11","andria","15.86","1","62.94","1","0.0","1","null","6","null","6","0.0","5","992.44","1","41.231637","16.30298"],
    [3146,"2024-05-11 01:00:00","11","andria","15.39","1","63.65","1","0.0","1","null","6","null","6","0.0","5","991.89","1","41.231637","16.30298"],
    [3147,"2024-05-11 02:00:00","11","andria","15.13","1","58.37","1","0.0","1","null","6","null","6","0.0","5","991.96","1","41.231637","16.30298"],
    [3148,"2024-05-11 03:00:00","11","andria","14.8","1","56.45","1","0.0","1","null","6","null","6","0.0","5","991.98","1","41.231637","16.30298"],
    [3149,"2024-05-11 04:00:00","11","andria","14.48","1","58.85","1","0.0","1","null","6","null","6","0.0","5","991.94","1","41.231637","16.30298"],
    [3150,"2024-05-11 05:00:00","11","andria","14.14","1","58.82","1","0.0","1","null","6","null","6","0.0","5","991.82","1","41.231637","16.30298"],
    [3151,"2024-05-11 06:00:00","11","andria","14.21","1","58.66","1","0.0","1","null","6","null","6","14.05","1","992.18","1","41.231637","16.30298"],
    [3152,"2024-05-11 07:00:00","11","andria","15.12","1","61.08","1","0.0","1","null","6","null","6","34.07","1","992.68","1","41.231637","16.30298"],
    [3153,"2024-05-11 08:00:00","11","andria","17.26","1","57.72","1","0.0","1","null","6","null","6","268.95","1","992.89","1","41.231637","16.30298"],
    [3154,"2024-05-11 09:00:00","11","andria","20.51","1","49.22","1","0.0","1","null","6","null","6","602.72","1","992.9","1","41.231637","16.30298"],
    [3155,"2024-05-11 10:00:00","11","andria","21.46","1","47.23","1","0.0","1","null","6","null","6","779.05","1","992.7","1","41.231637","16.30298"],
    [3156,"2024-05-11 11:00:00","11","andria","22.26","1","46.73","1","0.0","1","null","6","null","6","900.18","1","992.88","1","41.231637","16.30298"],
    [3157,"2024-05-11 12:00:00","11","andria","22.54","1","45.37","1","0.0","1","null","6","null","6","908.84","1","992.75","1","41.231637","16.30298"],
    [3158,"2024-05-11 13:00:00","11","andria","22.63","1","42.94","1","0.0","1","null","6","null","6","900.06","1","992.71","1","41.231637","16.30298"],
    [3159,"2024-05-11 14:00:00","11","andria","22.37","1","34.7","1","0.0","1","null","6","null","6","834.43","1","992.93","1","41.231637","16.30298"],
    [3160,"2024-05-11 15:00:00","11","andria","21.81","1","35.57","1","0.0","1","null","6","null","6","434.53","1","993.03","1","41.231637","16.30298"],
    [3161,"2024-05-11 16:00:00","11","andria","21.16","1","33.79","1","0.0","1","null","6","null","6","174.48","1","993.23","1","41.231637","16.30298"],
    [3162,"2024-05-11 17:00:00","11","andria","20.91","1","30.6","1","0.0","1","null","6","null","6","80.6","1","993.23","1","41.231637","16.30298"],
    [3163,"2024-05-11 18:00:00","11","andria","20.56","1","29.44","1","0.0","1","null","6","null","6","37.41","1","993.05","1","41.231637","16.30298"],
    [3164,"2024-05-11 19:00:00","11","andria","19.95","1","31.0","1","0.0","1","null","6","null","6","12.24","1","993.25","1","41.231637","16.30298"],
    [3165,"2024-05-11 20:00:00","11","andria","18.57","1","37.22","1","0.0","1","null","6","null","6","0.0","5","993.99","1","41.231637","16.30298"],
    [3166,"2024-05-11 21:00:00","11","andria","18.09","1","38.38","1","0.0","1","null","6","null","6","0.0","5","994.24","1","41.231637","16.30298"],
    [3167,"2024-05-11 22:00:00","11","andria","16.58","1","40.36","1","0.0","1","null","6","null","6","0.0","5","994.54","1","41.231637","16.30298"],
    [3168,"2024-05-11 23:00:00","11","andria","15.9","1","41.76","1","0.0","1","null","6","null","6","0.0","5","994.96","1","41.231637","16.30298"],
    [3169,"2024-05-12 00:00:00","11","andria","15.73","1","44.92","1","0.0","1","null","6","null","6","0.0","5","995.03","1","41.231637","16.30298"],
    [3170,"2024-05-12 01:00:00","11","andria","15.29","1","48.47","1","0.0","1","null","6","null","6","0.0","5","994.89","1","41.231637","16.30298"],
    [3171,"2024-05-12 02:00:00","11","andria","15.14","1","48.97","1","0.0","1","null","6","null","6","0.0","5","994.44","1","41.231637","16.30298"],
    [3172,"2024-05-12 03:00:00","11","andria","15.21","1","47.6","1","0.0","1","null","6","null","6","0.0","5","994.63","1","41.231637","16.30298"],
    [3173,"2024-05-12 04:00:00","11","andria","15.0","1","45.43","1","0.0","1","null","6","null","6","0.0","5","994.65","1","41.231637","16.30298"],
    [3174,"2024-05-12 05:00:00","11","andria","14.96","1","44.79","1","0.0","1","null","6","null","6","0.0","5","994.58","1","41.231637","16.30298"],
    [3175,"2024-05-12 06:00:00","11","andria","15.27","1","44.23","1","0.0","1","null","6","null","6","12.93","1","994.44","1","41.231637","16.30298"],
    [3176,"2024-05-12 07:00:00","11","andria","16.39","1","42.28","1","0.0","1","null","6","null","6","37.86","1","994.24","1","41.231637","16.30298"],
    [3177,"2024-05-12 08:00:00","11","andria","18.88","1","35.26","1","0.0","1","null","6","null","6","254.57","1","994.51","1","41.231637","16.30298"],
    [3178,"2024-05-12 09:00:00","11","andria","22.3","1","28.05","1","0.0","1","null","6","null","6","667.97","1","994.5","1","41.231637","16.30298"],
    [3179,"2024-05-12 10:00:00","11","andria","24.31","1","24.22","1","0.0","1","null","6","null","6","858.44","1","994.13","1","41.231637","16.30298"],
    [3180,"2024-05-12 11:00:00","11","andria","25.62","1","22.34","1","0.0","1","null","6","null","6","902.44","1","993.86","1","41.231637","16.30298"],
    [3181,"2024-05-12 12:00:00","11","andria","25.34","1","24.19","1","0.0","1","null","6","null","6","915.8","1","993.7","1","41.231637","16.30298"],
    [3182,"2024-05-12 13:00:00","11","andria","25.35","1","25.84","1","0.0","1","null","6","null","6","885.68","1","993.55","1","41.231637","16.30298"],
    [3183,"2024-05-12 14:00:00","11","andria","25.53","1","25.24","1","0.0","1","null","6","null","6","831.59","1","993.46","1","41.231637","16.30298"],
    [3184,"2024-05-12 15:00:00","11","andria","25.12","1","26.44","1","0.0","1","null","6","null","6","531.76","1","993.42","1","41.231637","16.30298"],
    [3185,"2024-05-12 16:00:00","11","andria","24.02","1","26.17","1","0.0","1","null","6","null","6","157.88","1","993.04","1","41.231637","16.30298"],
    [3186,"2024-05-12 17:00:00","11","andria","22.69","1","28.09","1","0.0","1","null","6","null","6","62.52","1","992.78","1","41.231637","16.30298"],
    [3187,"2024-05-12 18:00:00","11","andria","21.72","1","28.63","1","0.0","1","null","6","null","6","37.85","1","992.87","1","41.231637","16.30298"],
    [3188,"2024-05-12 19:00:00","11","andria","20.89","1","29.92","1","0.0","1","null","6","null","6","13.39","1","993.19","1","41.231637","16.30298"],
    [3189,"2024-05-12 20:00:00","11","andria","19.87","1","32.38","1","0.0","1","null","6","null","6","0.0","5","993.61","1","41.231637","16.30298"],
    [3190,"2024-05-12 21:00:00","11","andria","19.05","1","34.77","1","0.0","1","null","6","null","6","0.0","5","994.08","1","41.231637","16.30298"],
    [3191,"2024-05-12 22:00:00","11","andria","18.63","1","34.93","1","0.0","1","null","6","null","6","0.0","5","994.28","1","41.231637","16.30298"],
    [3192,"2024-05-12 23:00:00","11","andria","18.27","1","35.57","1","0.0","1","null","6","null","6","0.0","5","994.63","1","41.231637","16.30298"],
    [3193,"2024-05-13 00:00:00","11","andria","17.51","1","39.52","1","0.0","1","null","6","null","6","0.0","5","993.85","1","41.231637","16.30298"],
    [3194,"2024-05-13 01:00:00","11","andria","16.37","1","42.21","1","0.0","1","null","6","null","6","0.0","5","993.54","1","41.231637","16.30298"],
    [3195,"2024-05-13 02:00:00","11","andria","15.92","1","44.65","1","0.0","1","null","6","null","6","0.0","5","993.23","1","41.231637","16.30298"],
    [3196,"2024-05-13 03:00:00","11","andria","15.98","1","48.83","1","0.0","1","null","6","null","6","0.0","5","993.48","1","41.231637","16.30298"],
    [3197,"2024-05-13 04:00:00","11","andria","15.88","1","51.54","1","0.0","1","null","6","null","6","0.0","5","993.09","1","41.231637","16.30298"],
    [3198,"2024-05-13 05:00:00","11","andria","15.69","1","53.46","1","0.0","1","null","6","null","6","0.0","5","992.93","1","41.231637","16.30298"],
    [3199,"2024-05-13 06:00:00","11","andria","15.6","1","53.96","1","0.0","1","null","6","null","6","19.19","1","993.46","1","41.231637","16.30298"],
    [3200,"2024-05-13 07:00:00","11","andria","16.74","1","51.94","1","0.0","1","null","6","null","6","49.17","1","993.37","1","41.231637","16.30298"],
    [3201,"2024-05-13 08:00:00","11","andria","19.81","1","45.06","1","0.0","1","null","6","null","6","290.55","1","993.55","1","41.231637","16.30298"],
    [3202,"2024-05-13 09:00:00","11","andria","23.82","1","37.61","1","0.0","1","null","6","null","6","604.55","1","993.26","1","41.231637","16.30298"],
    [3203,"2024-05-13 10:00:00","11","andria","23.47","1","40.78","1","0.0","1","null","6","null","6","695.35","1","992.4","1","41.231637","16.30298"],
    [3204,"2024-05-13 11:00:00","11","andria","24.96","1","36.35","1","0.0","1","null","6","null","6","756.59","1","992.18","1","41.231637","16.30298"],
    [3205,"2024-05-13 12:00:00","11","andria","24.86","1","33.66","1","0.0","1","null","6","null","6","719.36","1","991.5","1","41.231637","16.30298"],
    [3206,"2024-05-13 13:00:00","11","andria","25.19","1","31.75","1","0.0","1","null","6","null","6","696.27","1","991.4","1","41.231637","16.30298"],
    [3207,"2024-05-13 14:00:00","11","andria","25.53","1","29.93","1","0.0","1","null","6","null","6","723.8","1","991.28","1","41.231637","16.30298"],
    [3208,"2024-05-13 15:00:00","11","andria","24.52","1","32.57","1","0.0","1","null","6","null","6","310.47","1","990.72","1","41.231637","16.30298"],
    [3209,"2024-05-13 16:00:00","11","andria","22.82","1","34.33","1","0.0","1","null","6","null","6","171.74","1","990.33","1","41.231637","16.30298"],
    [3210,"2024-05-13 17:00:00","11","andria","22.05","1","38.57","1","0.0","1","null","6","null","6","88.86","1","990.2","1","41.231637","16.30298"],
    [3211,"2024-05-13 18:00:00","11","andria","21.06","1","43.31","1","0.0","1","null","6","null","6","13.9","1","990.02","1","41.231637","16.30298"],
    [3212,"2024-05-13 19:00:00","11","andria","20.94","1","45.94","1","0.0","1","null","6","null","6","23.27","1","989.81","1","41.231637","16.30298"],
    [3213,"2024-05-13 20:00:00","11","andria","19.81","1","50.78","1","0.0","1","null","6","null","6","0.0","5","989.98","1","41.231637","16.30298"],
    [3214,"2024-05-13 21:00:00","11","andria","18.66","1","63.55","1","0.0","1","null","6","null","6","0.0","5","990.41","1","41.231637","16.30298"],
    [3215,"2024-05-13 22:00:00","11","andria","18.18","1","65.15","1","0.0","1","null","6","null","6","0.0","5","990.27","1","41.231637","16.30298"],
    [3216,"2024-05-13 23:00:00","11","andria","18.28","1","61.83","1","0.0","1","null","6","null","6","0.0","5","989.67","1","41.231637","16.30298"],
    [3217,"2024-05-14 00:00:00","11","andria","17.98","1","69.92","1","0.0","1","null","6","null","6","0.0","5","989.52","1","41.231637","16.30298"],
    [3218,"2024-05-14 01:00:00","11","andria","17.5","1","72.2","1","0.0","1","null","6","null","6","0.0","5","989.43","1","41.231637","16.30298"],
    [3219,"2024-05-14 02:00:00","11","andria","17.4","1","76.55","1","0.0","1","null","6","null","6","0.0","5","988.81","1","41.231637","16.30298"],
    [3220,"2024-05-14 03:00:00","11","andria","17.02","1","78.89","1","0.0","1","null","6","null","6","0.0","5","988.31","1","41.231637","16.30298"],
    [3221,"2024-05-14 04:00:00","11","andria","16.59","1","71.26","1","0.0","1","null","6","null","6","0.0","5","987.94","1","41.231637","16.30298"],
    [3222,"2024-05-14 05:00:00","11","andria","16.53","1","59.86","1","0.0","1","null","6","null","6","0.0","5","987.85","1","41.231637","16.30298"],
    [3223,"2024-05-14 06:00:00","11","andria","16.47","1","61.15","1","0.0","1","null","6","null","6","13.85","1","988.24","1","41.231637","16.30298"],
    [3224,"2024-05-14 07:00:00","11","andria","16.99","1","63.67","1","0.0","1","null","6","null","6","94.67","1","988.15","1","41.231637","16.30298"],
    [3225,"2024-05-14 08:00:00","11","andria","18.33","1","61.94","1","0.0","1","null","6","null","6","244.42","1","988.05","1","41.231637","16.30298"],
    [3226,"2024-05-14 09:00:00","11","andria","21.78","1","48.83","1","0.0","1","null","6","null","6","603.22","1","987.59","1","41.231637","16.30298"],
    [3227,"2024-05-14 10:00:00","11","andria","22.2","1","52.16","1","0.0","1","null","6","null","6","614.6","1","987.35","1","41.231637","16.30298"],
    [3228,"2024-05-14 11:00:00","11","andria","22.75","1","51.92","1","0.0","1","null","6","null","6","844.64","1","987.36","1","41.231637","16.30298"],
    [3229,"2024-05-14 12:00:00","11","andria","23.46","1","51.33","1","0.0","1","null","6","null","6","887.33","1","986.94","1","41.231637","16.30298"],
    [3230,"2024-05-14 13:00:00","11","andria","24.0","1","49.71","1","0.0","1","null","6","null","6","859.38","1","986.64","1","41.231637","16.30298"],
    [3231,"2024-05-14 14:00:00","11","andria","24.87","1","47.35","1","0.0","1","null","6","null","6","777.56","1","986.36","1","41.231637","16.30298"],
    [3232,"2024-05-14 15:00:00","11","andria","24.84","1","46.79","1","0.0","1","null","6","null","6","454.09","1","985.89","1","41.231637","16.30298"],
    [3233,"2024-05-14 16:00:00","11","andria","24.27","1","46.74","1","0.0","1","null","6","null","6","135.65","1","985.59","1","41.231637","16.30298"],
    [3234,"2024-05-14 17:00:00","11","andria","23.35","1","44.3","1","0.0","1","null","6","null","6","71.58","1","985.68","1","41.231637","16.30298"],
    [3235,"2024-05-14 18:00:00","11","andria","22.62","1","47.79","1","0.0","1","null","6","null","6","42.45","1","985.69","1","41.231637","16.30298"],
    [3236,"2024-05-14 19:00:00","11","andria","21.22","1","55.46","1","0.0","1","null","6","null","6","12.2","1","986.25","1","41.231637","16.30298"],
    [3237,"2024-05-14 20:00:00","11","andria","19.63","1","63.11","1","0.0","1","null","6","null","6","0.0","5","986.74","1","41.231637","16.30298"],
    [3238,"2024-05-14 21:00:00","11","andria","18.78","1","68.18","1","0.0","1","null","6","null","6","0.0","5","987.61","1","41.231637","16.30298"],
    [3239,"2024-05-14 22:00:00","11","andria","18.2","1","70.11","1","0.0","1","null","6","null","6","0.0","5","987.99","1","41.231637","16.30298"],
    [3240,"2024-05-14 23:00:00","11","andria","17.75","1","72.49","1","0.0","1","null","6","null","6","0.0","5","987.82","1","41.231637","16.30298"],
    [3241,"2024-05-15 00:00:00","11","andria","17.46","1","72.87","1","0.0","1","null","6","null","6","0.0","5","987.84","1","41.231637","16.30298"],
    [3242,"2024-05-15 01:00:00","11","andria","17.2","1","73.97","1","0.0","1","null","6","null","6","0.0","5","987.85","1","41.231637","16.30298"],
    [3243,"2024-05-15 02:00:00","11","andria","17.26","1","73.68","1","0.0","1","null","6","null","6","0.0","5","987.4","1","41.231637","16.30298"],
    [3244,"2024-05-15 03:00:00","11","andria","16.77","1","75.47","1","0.0","1","null","6","null","6","0.0","5","987.26","1","41.231637","16.30298"],
    [3245,"2024-05-15 04:00:00","11","andria","16.41","1","77.91","1","0.0","1","null","6","null","6","0.0","5","986.62","1","41.231637","16.30298"],
    [3246,"2024-05-15 05:00:00","11","andria","16.53","1","75.74","1","0.0","1","null","6","null","6","0.0","5","986.44","1","41.231637","16.30298"],
    [3247,"2024-05-15 06:00:00","11","andria","16.12","1","78.46","1","0.0","1","null","6","null","6","17.81","1","986.83","1","41.231637","16.30298"],
    [3248,"2024-05-15 07:00:00","11","andria","17.0","1","77.65","1","0.0","1","null","6","null","6","46.72","1","987.2","1","41.231637","16.30298"],
    [3249,"2024-05-15 08:00:00","11","andria","19.79","1","63.45","1","0.0","1","null","6","null","6","236.24","1","987.6","1","41.231637","16.30298"],
    [3250,"2024-05-15 09:00:00","11","andria","21.52","1","54.87","1","0.0","1","null","6","null","6","298.96","1","987.39","1","41.231637","16.30298"],
    [3251,"2024-05-15 10:00:00","11","andria","22.6","1","50.67","1","0.0","1","null","6","null","6","428.46","1","987.01","1","41.231637","16.30298"],
    [3252,"2024-05-15 11:00:00","11","andria","24.17","1","45.7","1","0.0","1","null","6","null","6","551.92","1","986.61","1","41.231637","16.30298"],
    [3253,"2024-05-15 12:00:00","11","andria","25.21","1","41.44","1","0.0","1","null","6","null","6","754.51","1","986.33","1","41.231637","16.30298"],
    [3254,"2024-05-15 13:00:00","11","andria","26.85","1","36.69","1","0.0","1","null","6","null","6","831.18","1","985.58","1","41.231637","16.30298"],
    [3255,"2024-05-15 14:00:00","11","andria","26.6","1","37.11","1","0.0","1","null","6","null","6","585.53","1","985.3","1","41.231637","16.30298"],
    [3256,"2024-05-15 15:00:00","11","andria","25.25","1","43.07","1","0.0","1","null","6","null","6","327.97","1","985.26","1","41.231637","16.30298"],
    [3257,"2024-05-15 16:00:00","11","andria","23.79","1","48.97","1","0.0","1","null","6","null","6","206.03","1","985.67","1","41.231637","16.30298"],
    [3258,"2024-05-15 17:00:00","11","andria","22.41","1","52.83","1","0.0","1","null","6","null","6","134.14","1","985.73","1","41.231637","16.30298"],
    [3259,"2024-05-15 18:00:00","11","andria","21.37","1","57.06","1","0.0","1","null","6","null","6","58.26","1","985.56","1","41.231637","16.30298"],
    [3260,"2024-05-15 19:00:00","11","andria","20.29","1","61.21","1","0.0","1","null","6","null","6","19.52","1","985.72","1","41.231637","16.30298"],
    [3261,"2024-05-15 20:00:00","11","andria","19.32","1","65.95","1","0.0","1","null","6","null","6","0.0","5","985.82","1","41.231637","16.30298"],
    [3262,"2024-05-15 21:00:00","11","andria","18.93","1","67.72","1","0.0","1","null","6","null","6","0.0","5","986.79","1","41.231637","16.30298"],
    [3263,"2024-05-15 22:00:00","11","andria","18.61","1","69.57","1","0.0","1","null","6","null","6","0.0","5","986.72","1","41.231637","16.30298"],
    [3264,"2024-05-15 23:00:00","11","andria","18.46","1","70.82","1","0.0","1","null","6","null","6","0.0","5","986.79","1","41.231637","16.30298"],
    [3265,"2024-05-16 00:00:00","11","andria","18.44","1","71.04","1","0.0","1","null","6","null","6","0.0","5","986.71","1","41.231637","16.30298"],
    [3266,"2024-05-16 01:00:00","11","andria","18.4","1","72.68","1","0.0","1","null","6","null","6","0.0","5","986.31","1","41.231637","16.30298"],
    [3267,"2024-05-16 02:00:00","11","andria","17.78","1","79.06","1","0.2","1","null","6","null","6","0.0","5","986.15","1","41.231637","16.30298"],
    [3268,"2024-05-16 03:00:00","11","andria","17.53","1","80.29","1","0.0","1","null","6","null","6","0.0","5","986.06","1","41.231637","16.30298"],
    [3269,"2024-05-16 04:00:00","11","andria","17.07","1","81.98","1","0.0","1","null","6","null","6","0.0","5","985.97","1","41.231637","16.30298"],
    [3270,"2024-05-16 05:00:00","11","andria","17.3","1","81.1","1","0.0","1","null","6","null","6","0.0","5","986.09","1","41.231637","16.30298"],
    [3271,"2024-05-16 06:00:00","11","andria","17.52","1","80.87","1","0.0","1","null","6","null","6","34.72","1","985.55","1","41.231637","16.30298"],
    [3272,"2024-05-16 07:00:00","11","andria","18.16","1","77.91","1","0.0","1","null","6","null","6","84.95","1","984.89","1","41.231637","16.30298"],
    [3273,"2024-05-16 08:00:00","11","andria","19.02","1","72.02","1","0.0","1","null","6","null","6","201.79","1","984.77","1","41.231637","16.30298"],
    [3274,"2024-05-16 09:00:00","11","andria","20.53","1","66.82","1","0.0","1","null","6","null","6","339.0","1","984.2","1","41.231637","16.30298"],
    [3275,"2024-05-16 10:00:00","11","andria","22.13","1","61.08","1","0.0","1","null","6","null","6","590.47","1","984.22","1","41.231637","16.30298"],
    [3276,"2024-05-16 11:00:00","11","andria","23.67","1","55.23","1","0.0","1","null","6","null","6","716.16","1","983.56","1","41.231637","16.30298"],
    [3277,"2024-05-16 12:00:00","11","andria","25.09","1","51.28","1","0.0","1","null","6","null","6","795.51","1","982.87","1","41.231637","16.30298"],
    [3278,"2024-05-16 13:00:00","11","andria","25.87","1","47.68","1","0.0","1","null","6","null","6","820.23","1","982.18","1","41.231637","16.30298"],
    [3279,"2024-05-16 14:00:00","11","andria","27.51","1","41.66","1","0.0","1","null","6","null","6","756.62","1","981.36","1","41.231637","16.30298"],
    [3280,"2024-05-16 15:00:00","11","andria","29.17","1","38.15","1","0.0","1","null","6","null","6","570.01","1","980.23","1","41.231637","16.30298"],
    [3281,"2024-05-16 16:00:00","11","andria","28.43","1","39.67","1","0.0","1","null","6","null","6","153.41","1","980.33","1","41.231637","16.30298"],
    [3282,"2024-05-16 17:00:00","11","andria","27.46","1","44.25","1","0.0","1","null","6","null","6","179.43","1","980.18","1","41.231637","16.30298"],
    [3283,"2024-05-16 18:00:00","11","andria","27.16","1","45.31","1","0.0","1","null","6","null","6","79.23","1","980.32","1","41.231637","16.30298"],
    [3284,"2024-05-16 19:00:00","11","andria","25.63","1","49.69","1","0.0","1","null","6","null","6","18.09","1","981.23","1","41.231637","16.30298"],
    [3285,"2024-05-16 20:00:00","11","andria","23.68","1","56.02","1","0.0","1","null","6","null","6","0.0","5","982.36","1","41.231637","16.30298"],
    [3286,"2024-05-16 21:00:00","11","andria","22.48","1","59.49","1","0.0","1","null","6","null","6","0.0","5","983.17","1","41.231637","16.30298"],
    [3287,"2024-05-16 22:00:00","11","andria","21.65","1","61.61","1","0.0","1","null","6","null","6","0.0","5","984.06","1","41.231637","16.30298"],
    [3288,"2024-05-16 23:00:00","11","andria","20.63","1","62.11","1","0.0","1","null","6","null","6","0.0","5","984.11","1","41.231637","16.30298"],
    [3289,"2024-05-17 00:00:00","11","andria","20.35","1","61.52","1","0.0","1","null","6","null","6","0.0","5","984.39","1","41.231637","16.30298"],
    [3290,"2024-05-17 01:00:00","11","andria","20.75","1","56.14","1","0.0","1","null","6","null","6","0.0","5","984.81","1","41.231637","16.30298"],
    [3291,"2024-05-17 02:00:00","11","andria","20.92","1","50.65","1","0.0","1","null","6","null","6","0.0","5","985.19","1","41.231637","16.30298"],
    [3292,"2024-05-17 03:00:00","11","andria","19.82","1","54.46","1","0.0","1","null","6","null","6","0.0","5","986.22","1","41.231637","16.30298"],
    [3293,"2024-05-17 04:00:00","11","andria","18.64","1","59.02","1","0.0","1","null","6","null","6","0.0","5","985.92","1","41.231637","16.30298"],
    [3294,"2024-05-17 05:00:00","11","andria","18.34","1","57.33","1","0.0","1","null","6","null","6","0.0","5","986.78","1","41.231637","16.30298"],
    [3295,"2024-05-17 06:00:00","11","andria","18.2","1","54.45","1","0.0","1","null","6","null","6","13.73","1","987.3","1","41.231637","16.30298"],
    [3296,"2024-05-17 07:00:00","11","andria","19.77","1","48.58","1","0.0","1","null","6","null","6","30.1","1","987.81","1","41.231637","16.30298"],
    [3297,"2024-05-17 08:00:00","11","andria","21.97","1","40.79","1","0.0","1","null","6","null","6","292.86","1","988.3","1","41.231637","16.30298"],
    [3298,"2024-05-17 09:00:00","11","andria","24.64","1","33.46","1","0.0","1","null","6","null","6","693.62","1","988.33","1","41.231637","16.30298"],
    [3299,"2024-05-17 10:00:00","11","andria","25.68","1","29.12","1","0.0","1","null","6","null","6","870.05","1","987.89","1","41.231637","16.30298"],
    [3300,"2024-05-17 11:00:00","11","andria","26.96","1","19.97","1","0.0","1","null","6","null","6","924.8","1","988.22","1","41.231637","16.30298"],
    [3301,"2024-05-17 12:00:00","11","andria","27.75","1","17.24","1","0.0","1","null","6","null","6","946.76","1","988.0","1","41.231637","16.30298"],
    [3302,"2024-05-17 13:00:00","11","andria","28.81","1","19.09","1","0.0","1","null","6","null","6","913.76","1","988.18","1","41.231637","16.30298"],
    [3303,"2024-05-17 14:00:00","11","andria","26.22","1","37.44","1","0.0","1","null","6","null","6","829.35","1","988.54","1","41.231637","16.30298"],
    [3304,"2024-05-17 15:00:00","11","andria","26.19","1","38.97","1","0.0","1","null","6","null","6","473.13","1","988.77","1","41.231637","16.30298"],
    [3305,"2024-05-17 16:00:00","11","andria","24.16","1","46.37","1","0.0","1","null","6","null","6","158.31","1","989.02","1","41.231637","16.30298"],
    [3306,"2024-05-17 17:00:00","11","andria","23.45","1","48.49","1","0.0","1","null","6","null","6","78.37","1","988.76","1","41.231637","16.30298"],
    [3307,"2024-05-17 18:00:00","11","andria","22.04","1","57.79","1","0.0","1","null","6","null","6","43.65","1","989.26","1","41.231637","16.30298"],
    [3308,"2024-05-17 19:00:00","11","andria","20.58","1","64.83","1","0.0","1","null","6","null","6","14.14","1","989.6","1","41.231637","16.30298"],
    [3309,"2024-05-17 20:00:00","11","andria","19.42","1","68.89","1","0.0","1","null","6","null","6","0.0","5","990.11","1","41.231637","16.30298"],
    [3310,"2024-05-17 21:00:00","11","andria","18.96","1","72.32","1","0.0","1","null","6","null","6","0.0","5","990.29","1","41.231637","16.30298"],
    [3311,"2024-05-17 22:00:00","11","andria","19.2","1","64.41","1","0.0","1","null","6","null","6","0.0","5","990.58","1","41.231637","16.30298"],
    [3312,"2024-05-17 23:00:00","11","andria","19.09","1","60.17","1","0.0","1","null","6","null","6","0.0","5","990.55","1","41.231637","16.30298"],
    [3313,"2024-05-18 00:00:00","11","andria","19.08","1","51.48","1","0.0","1","null","6","null","6","0.0","5","990.53","1","41.231637","16.30298"],
    [3314,"2024-05-18 01:00:00","11","andria","19.33","1","47.87","1","0.0","1","null","6","null","6","0.0","5","990.03","1","41.231637","16.30298"],
    [3315,"2024-05-18 02:00:00","11","andria","18.55","1","55.75","1","0.0","1","null","6","null","6","0.0","5","989.48","1","41.231637","16.30298"],
    [3316,"2024-05-18 03:00:00","11","andria","17.85","1","59.39","1","0.0","1","null","6","null","6","0.0","5","989.5","1","41.231637","16.30298"],
    [3317,"2024-05-18 04:00:00","11","andria","17.4","1","56.08","1","0.0","1","null","6","null","6","0.0","5","989.83","1","41.231637","16.30298"],
    [3318,"2024-05-18 05:00:00","11","andria","16.52","1","57.44","1","0.0","1","null","6","null","6","0.0","5","990.38","1","41.231637","16.30298"],
    [3319,"2024-05-18 06:00:00","11","andria","15.7","1","71.51","1","0.0","1","null","6","null","6","33.61","1","990.47","1","41.231637","16.30298"],
    [3320,"2024-05-18 07:00:00","11","andria","16.27","1","79.39","1","0.0","1","null","6","null","6","95.25","1","990.88","1","41.231637","16.30298"],
    [3321,"2024-05-18 08:00:00","11","andria","18.38","1","74.91","1","0.0","1","null","6","null","6","254.72","1","990.42","1","41.231637","16.30298"],
    [3322,"2024-05-18 09:00:00","11","andria","21.33","1","63.78","1","0.0","1","null","6","null","6","473.33","1","990.62","1","41.231637","16.30298"],
    [3323,"2024-05-18 10:00:00","11","andria","22.28","1","62.43","1","0.0","1","null","6","null","6","598.54","1","990.73","1","41.231637","16.30298"],
    [3324,"2024-05-18 11:00:00","11","andria","22.98","1","59.18","1","0.0","1","null","6","null","6","654.85","1","990.67","1","41.231637","16.30298"],
    [3325,"2024-05-18 12:00:00","11","andria","23.44","1","58.17","1","0.0","1","null","6","null","6","541.09","1","990.62","1","41.231637","16.30298"],
    [3326,"2024-05-18 13:00:00","11","andria","22.96","1","59.78","1","0.0","1","null","6","null","6","505.34","1","989.62","1","41.231637","16.30298"],
    [3327,"2024-05-18 14:00:00","11","andria","21.09","1","66.03","1","0.0","1","null","6","null","6","133.25","1","990.04","1","41.231637","16.30298"],
    [3328,"2024-05-18 15:00:00","11","andria","19.51","1","74.6","1","0.6","1","null","6","null","6","53.52","1","990.44","1","41.231637","16.30298"],
    [3329,"2024-05-18 16:00:00","11","andria","17.64","1","90.38","1","1.0","1","null","6","null","6","60.68","1","990.99","1","41.231637","16.30298"],
    [3330,"2024-05-18 17:00:00","11","andria","16.79","1","89.1","1","2.4","1","null","6","null","6","28.1","1","991.18","1","41.231637","16.30298"],
    [3331,"2024-05-18 18:00:00","11","andria","16.27","1","88.75","1","1.0","1","null","6","null","6","20.82","1","990.91","1","41.231637","16.30298"],
    [3332,"2024-05-18 19:00:00","11","andria","16.34","1","89.25","1","0.8","1","null","6","null","6","5.93","1","990.78","1","41.231637","16.30298"],
    [3333,"2024-05-18 20:00:00","11","andria","16.52","1","90.65","1","0.4","1","null","6","null","6","0.0","5","990.21","1","41.231637","16.30298"],
    [3334,"2024-05-18 21:00:00","11","andria","16.65","1","90.91","1","0.0","1","null","6","null","6","0.0","5","990.23","1","41.231637","16.30298"],
    [3335,"2024-05-18 22:00:00","11","andria","16.53","1","89.53","1","0.0","1","null","6","null","6","0.0","5","990.76","1","41.231637","16.30298"],
    [3336,"2024-05-18 23:00:00","11","andria","16.44","1","91.09","1","0.0","1","null","6","null","6","0.0","5","990.31","1","41.231637","16.30298"],
    [3337,"2024-05-19 00:00:00","11","andria","16.41","1","92.69","1","0.0","1","null","6","null","6","0.0","5","990.2","1","41.231637","16.30298"],
    [3338,"2024-05-19 01:00:00","11","andria","16.06","1","93.56","1","0.0","1","null","6","null","6","0.0","5","989.3","1","41.231637","16.30298"],
    [3339,"2024-05-19 02:00:00","11","andria","15.61","1","93.84","1","0.0","1","null","6","null","6","0.0","5","988.91","1","41.231637","16.30298"],
    [3340,"2024-05-19 03:00:00","11","andria","15.45","1","94.57","1","0.2","1","null","6","null","6","5.17","1","988.62","1","41.231637","16.30298"],
    [3341,"2024-05-19 04:00:00","11","andria","15.31","1","94.72","1","0.0","1","null","6","null","6","0.0","5","988.21","1","41.231637","16.30298"],
    [3342,"2024-05-19 05:00:00","11","andria","14.84","1","94.97","1","0.0","1","null","6","null","6","6.7","1","988.68","1","41.231637","16.30298"],
    [3343,"2024-05-19 06:00:00","11","andria","15.1","1","95.1","1","0.0","1","null","6","null","6","34.61","1","989.55","1","41.231637","16.30298"],
    [3344,"2024-05-19 07:00:00","11","andria","15.88","1","93.13","1","0.0","1","null","6","null","6","78.06","1","989.44","1","41.231637","16.30298"],
    [3345,"2024-05-19 08:00:00","11","andria","17.77","1","86.02","1","0.0","1","null","6","null","6","257.54","1","990.19","1","41.231637","16.30298"],
    [3346,"2024-05-19 09:00:00","11","andria","21.87","1","65.01","1","0.0","1","null","6","null","6","562.72","1","989.54","1","41.231637","16.30298"],
    [3347,"2024-05-19 10:00:00","11","andria","22.9","1","64.98","1","0.0","1","null","6","null","6","648.34","1","989.4","1","41.231637","16.30298"],
    [3348,"2024-05-19 11:00:00","11","andria","23.0","1","65.3","1","0.0","1","null","6","null","6","799.64","1","989.4","1","41.231637","16.30298"],
    [3349,"2024-05-19 12:00:00","11","andria","24.2","1","58.63","1","0.0","1","null","6","null","6","772.92","1","988.74","1","41.231637","16.30298"],
    [3350,"2024-05-19 13:00:00","11","andria","24.64","1","56.98","1","0.0","1","null","6","null","6","540.73","1","988.44","1","41.231637","16.30298"],
    [3351,"2024-05-19 14:00:00","11","andria","24.16","1","59.32","1","0.0","1","null","6","null","6","395.69","1","988.33","1","41.231637","16.30298"],
    [3352,"2024-05-19 15:00:00","11","andria","22.86","1","63.85","1","0.0","1","null","6","null","6","150.63","1","987.44","1","41.231637","16.30298"],
    [3353,"2024-05-19 16:00:00","11","andria","22.02","1","66.56","1","0.0","1","null","6","null","6","115.73","1","986.92","1","41.231637","16.30298"],
    [3354,"2024-05-19 17:00:00","11","andria","20.4","1","78.58","1","14.4","1","null","6","null","6","7.41","1","987.84","1","41.231637","16.30298"],
    [3355,"2024-05-19 18:00:00","11","andria","18.19","1","93.55","1","15.0","1","null","6","null","6","25.66","1","987.62","1","41.231637","16.30298"],
    [3356,"2024-05-19 19:00:00","11","andria","17.78","1","94.93","1","0.0","1","null","6","null","6","24.11","1","987.28","1","41.231637","16.30298"],
    [3357,"2024-05-19 20:00:00","11","andria","18.01","1","95.33","1","0.0","1","null","6","null","6","5.7","1","987.36","1","41.231637","16.30298"],
    [3358,"2024-05-19 21:00:00","11","andria","17.87","1","95.83","1","0.0","1","null","6","null","6","0.0","5","988.38","1","41.231637","16.30298"],
    [3359,"2024-05-19 22:00:00","11","andria","17.71","1","95.8","1","0.0","1","null","6","null","6","0.0","5","988.6","1","41.231637","16.30298"],
    [3360,"2024-05-19 23:00:00","11","andria","17.47","1","95.61","1","0.0","1","null","6","null","6","0.0","5","988.97","1","41.231637","16.30298"],
    [3361,"2024-05-20 00:00:00","11","andria","16.9","1","95.71","1","0.0","1","null","6","null","6","0.0","5","988.38","1","41.231637","16.30298"],
    [3362,"2024-05-20 01:00:00","11","andria","16.8","1","95.44","1","0.0","1","null","6","null","6","0.0","5","988.01","1","41.231637","16.30298"],
    [3363,"2024-05-20 02:00:00","11","andria","16.58","1","95.41","1","0.0","1","null","6","null","6","0.0","5","987.82","1","41.231637","16.30298"],
    [3364,"2024-05-20 03:00:00","11","andria","16.37","1","95.79","1","0.0","1","null","6","null","6","0.0","5","987.87","1","41.231637","16.30298"],
    [3365,"2024-05-20 04:00:00","11","andria","16.51","1","96.28","1","0.0","1","null","6","null","6","0.0","5","988.07","1","41.231637","16.30298"],
    [3366,"2024-05-20 05:00:00","11","andria","16.62","1","96.15","1","0.0","1","null","6","null","6","0.0","5","988.23","1","41.231637","16.30298"],
    [3367,"2024-05-20 06:00:00","11","andria","16.87","1","96.06","1","0.0","1","null","6","null","6","33.59","1","988.54","1","41.231637","16.30298"],
    [3368,"2024-05-20 07:00:00","11","andria","17.04","1","94.69","1","0.0","1","null","6","null","6","86.19","1","988.47","1","41.231637","16.30298"],
    [3369,"2024-05-20 08:00:00","11","andria","17.64","1","92.35","1","0.0","1","null","6","null","6","130.9","1","988.73","1","41.231637","16.30298"],
    [3370,"2024-05-20 09:00:00","11","andria","19.27","1","85.26","1","0.0","1","null","6","null","6","465.56","1","988.65","1","41.231637","16.30298"],
    [3371,"2024-05-20 10:00:00","11","andria","22.02","1","73.68","1","0.0","1","null","6","null","6","692.52","1","988.23","1","41.231637","16.30298"],
    [3372,"2024-05-20 11:00:00","11","andria","23.02","1","69.67","1","0.2","1","null","6","null","6","479.35","1","987.76","1","41.231637","16.30298"],
    [3373,"2024-05-20 12:00:00","11","andria","23.52","1","66.88","1","0.0","1","null","6","null","6","690.22","1","987.35","1","41.231637","16.30298"],
    [3374,"2024-05-20 13:00:00","11","andria","23.31","1","67.26","1","0.0","1","null","6","null","6","495.36","1","987.33","1","41.231637","16.30298"],
    [3375,"2024-05-20 14:00:00","11","andria","24.87","1","61.5","1","0.0","1","null","6","null","6","670.11","1","987.18","1","41.231637","16.30298"],
    [3376,"2024-05-20 15:00:00","11","andria","25.34","1","60.47","1","0.0","1","null","6","null","6","469.19","1","986.53","1","41.231637","16.30298"],
    [3377,"2024-05-20 16:00:00","11","andria","23.55","1","68.44","1","0.0","1","null","6","null","6","166.74","1","986.13","1","41.231637","16.30298"],
    [3378,"2024-05-20 17:00:00","11","andria","23.05","1","69.12","1","0.0","1","null","6","null","6","109.58","1","985.51","1","41.231637","16.30298"],
    [3379,"2024-05-20 18:00:00","11","andria","22.24","1","72.11","1","0.0","1","null","6","null","6","58.14","1","985.26","1","41.231637","16.30298"],
    [3380,"2024-05-20 19:00:00","11","andria","20.94","1","78.74","1","0.0","1","null","6","null","6","25.2","1","985.07","1","41.231637","16.30298"],
    [3381,"2024-05-20 20:00:00","11","andria","19.64","1","84.98","1","0.0","1","null","6","null","6","0.0","5","985.08","1","41.231637","16.30298"],
    [3382,"2024-05-20 21:00:00","11","andria","19.15","1","88.34","1","0.0","1","null","6","null","6","0.0","5","985.22","1","41.231637","16.30298"],
    [3383,"2024-05-20 22:00:00","11","andria","18.89","1","88.97","1","0.0","1","null","6","null","6","0.0","5","985.13","1","41.231637","16.30298"],
    [3384,"2024-05-20 23:00:00","11","andria","18.76","1","82.69","1","0.0","1","null","6","null","6","0.0","5","984.77","1","41.231637","16.30298"],
    [3385,"2024-05-21 00:00:00","11","andria","18.85","1","75.44","1","0.0","1","null","6","null","6","0.0","5","984.24","1","41.231637","16.30298"],
    [3386,"2024-05-21 01:00:00","11","andria","18.39","1","74.18","1","0.0","1","null","6","null","6","0.0","5","983.92","1","41.231637","16.30298"],
    [3387,"2024-05-21 02:00:00","11","andria","17.64","1","76.74","1","0.0","1","null","6","null","6","0.0","5","983.15","1","41.231637","16.30298"],
    [3388,"2024-05-21 03:00:00","11","andria","17.82","1","77.61","1","0.0","1","null","6","null","6","0.0","5","983.19","1","41.231637","16.30298"],
    [3389,"2024-05-21 04:00:00","11","andria","17.56","1","80.81","1","0.0","1","null","6","null","6","0.0","5","982.56","1","41.231637","16.30298"],
    [3390,"2024-05-21 05:00:00","11","andria","17.37","1","81.04","1","0.0","1","null","6","null","6","5.63","1","982.46","1","41.231637","16.30298"],
    [3391,"2024-05-21 06:00:00","11","andria","17.53","1","79.43","1","0.0","1","null","6","null","6","33.09","1","983.07","1","41.231637","16.30298"],
    [3392,"2024-05-21 07:00:00","11","andria","19.92","1","66.43","1","0.0","1","null","6","null","6","79.91","1","983.49","1","41.231637","16.30298"],
    [3393,"2024-05-21 08:00:00","11","andria","22.29","1","57.92","1","0.0","1","null","6","null","6","188.58","1","983.52","1","41.231637","16.30298"],
    [3394,"2024-05-21 09:00:00","11","andria","24.77","1","53.17","1","0.0","1","null","6","null","6","453.23","1","983.63","1","41.231637","16.30298"],
    [3395,"2024-05-21 10:00:00","11","andria","26.43","1","42.02","1","0.0","1","null","6","null","6","714.53","1","983.94","1","41.231637","16.30298"],
    [3396,"2024-05-21 11:00:00","11","andria","26.82","1","38.89","1","0.0","1","null","6","null","6","781.82","1","984.02","1","41.231637","16.30298"],
    [3397,"2024-05-21 12:00:00","11","andria","27.35","1","34.29","1","0.0","1","null","6","null","6","916.99","1","984.38","1","41.231637","16.30298"],
    [3398,"2024-05-21 13:00:00","11","andria","27.48","1","33.1","1","0.0","1","null","6","null","6","906.21","1","984.68","1","41.231637","16.30298"],
    [3399,"2024-05-21 14:00:00","11","andria","27.25","1","33.41","1","0.0","1","null","6","null","6","840.85","1","985.2","1","41.231637","16.30298"],
    [3400,"2024-05-21 15:00:00","11","andria","26.94","1","33.97","1","0.0","1","null","6","null","6","488.07","1","985.34","1","41.231637","16.30298"],
    [3401,"2024-05-21 16:00:00","11","andria","26.18","1","34.72","1","0.0","1","null","6","null","6","142.43","1","985.35","1","41.231637","16.30298"],
    [3402,"2024-05-21 17:00:00","11","andria","25.68","1","35.89","1","0.0","1","null","6","null","6","77.57","1","985.76","1","41.231637","16.30298"],
    [3403,"2024-05-21 18:00:00","11","andria","24.79","1","38.65","1","0.0","1","null","6","null","6","38.6","1","985.66","1","41.231637","16.30298"],
    [3404,"2024-05-21 19:00:00","11","andria","23.54","1","40.86","1","0.0","1","null","6","null","6","15.41","1","986.34","1","41.231637","16.30298"],
    [3405,"2024-05-21 20:00:00","11","andria","22.03","1","43.98","1","0.0","1","null","6","null","6","0.0","5","986.88","1","41.231637","16.30298"],
    [3406,"2024-05-21 21:00:00","11","andria","20.82","1","47.59","1","0.0","1","null","6","null","6","0.0","5","987.92","1","41.231637","16.30298"],
    [3407,"2024-05-21 22:00:00","11","andria","19.76","1","51.61","1","0.0","1","null","6","null","6","5.58","1","988.12","1","41.231637","16.30298"],
    [3408,"2024-05-21 23:00:00","11","andria","19.08","1","51.4","1","0.0","1","null","6","null","6","0.0","5","988.76","1","41.231637","16.30298"],
    [3409,"2024-05-22 00:00:00","11","andria","18.37","1","51.87","1","0.0","1","null","6","null","6","0.0","5","989.36","1","41.231637","16.30298"],
    [3410,"2024-05-22 01:00:00","11","andria","17.67","1","53.59","1","0.0","1","null","6","null","6","0.0","5","988.93","1","41.231637","16.30298"],
    [3411,"2024-05-22 02:00:00","11","andria","17.29","1","54.68","1","0.0","1","null","6","null","6","0.0","5","988.98","1","41.231637","16.30298"],
    [3412,"2024-05-22 03:00:00","11","andria","17.34","1","53.52","1","0.0","1","null","6","null","6","0.0","5","988.58","1","41.231637","16.30298"],
    [3413,"2024-05-22 04:00:00","11","andria","17.15","1","54.01","1","0.0","1","null","6","null","6","0.0","5","988.73","1","41.231637","16.30298"],
    [3414,"2024-05-22 05:00:00","11","andria","17.33","1","54.52","1","0.0","1","null","6","null","6","0.0","5","988.81","1","41.231637","16.30298"],
    [3415,"2024-05-22 06:00:00","11","andria","17.47","1","55.72","1","0.0","1","null","6","null","6","14.18","1","988.96","1","41.231637","16.30298"],
    [3416,"2024-05-22 07:00:00","11","andria","18.28","1","54.54","1","0.0","1","null","6","null","6","26.52","1","989.4","1","41.231637","16.30298"],
    [3417,"2024-05-22 08:00:00","11","andria","19.81","1","49.17","1","0.0","1","null","6","null","6","295.36","1","989.44","1","41.231637","16.30298"],
    [3418,"2024-05-22 09:00:00","11","andria","22.18","1","40.56","1","0.0","1","null","6","null","6","710.84","1","989.54","1","41.231637","16.30298"],
    [3419,"2024-05-22 10:00:00","11","andria","23.17","1","33.74","1","0.0","1","null","6","null","6","846.07","1","989.61","1","41.231637","16.30298"],
    [3420,"2024-05-22 11:00:00","11","andria","23.65","1","32.31","1","0.0","1","null","6","null","6","861.34","1","989.89","1","41.231637","16.30298"],
    [3421,"2024-05-22 12:00:00","11","andria","24.15","1","34.04","1","0.0","1","null","6","null","6","747.03","1","989.51","1","41.231637","16.30298"],
    [3422,"2024-05-22 13:00:00","11","andria","24.11","1","46.64","1","0.0","1","null","6","null","6","710.21","1","989.62","1","41.231637","16.30298"],
    [3423,"2024-05-22 14:00:00","11","andria","23.55","1","48.0","1","0.0","1","null","6","null","6","674.02","1","989.45","1","41.231637","16.30298"],
    [3424,"2024-05-22 15:00:00","11","andria","24.21","1","44.35","1","0.0","1","null","6","null","6","385.95","1","989.69","1","41.231637","16.30298"],
    [3425,"2024-05-22 16:00:00","11","andria","23.16","1","46.69","1","0.0","1","null","6","null","6","129.9","1","989.31","1","41.231637","16.30298"],
    [3426,"2024-05-22 17:00:00","11","andria","22.33","1","49.6","1","0.0","1","null","6","null","6","75.6","1","989.79","1","41.231637","16.30298"],
    [3427,"2024-05-22 18:00:00","11","andria","20.38","1","59.99","1","0.0","1","null","6","null","6","40.15","1","990.39","1","41.231637","16.30298"],
    [3428,"2024-05-22 19:00:00","11","andria","19.24","1","49.07","1","0.0","1","null","6","null","6","27.74","1","990.52","1","41.231637","16.30298"],
    [3429,"2024-05-22 20:00:00","11","andria","18.82","1","54.14","1","0.0","1","null","6","null","6","0.0","5","990.72","1","41.231637","16.30298"],
    [3430,"2024-05-22 21:00:00","11","andria","18.74","1","57.88","1","0.0","1","null","6","null","6","0.0","5","991.08","1","41.231637","16.30298"],
    [3431,"2024-05-22 22:00:00","11","andria","18.77","1","52.48","1","0.0","1","null","6","null","6","0.0","5","991.75","1","41.231637","16.30298"],
    [3432,"2024-05-22 23:00:00","11","andria","18.32","1","53.59","1","0.0","1","null","6","null","6","0.0","5","992.39","1","41.231637","16.30298"],
    [3433,"2024-05-23 00:00:00","11","andria","18.12","1","54.84","1","0.0","1","null","6","null","6","0.0","5","992.48","1","41.231637","16.30298"],
    [3434,"2024-05-23 01:00:00","11","andria","17.91","1","54.88","1","0.0","1","null","6","null","6","0.0","5","992.06","1","41.231637","16.30298"],
    [3435,"2024-05-23 02:00:00","11","andria","17.6","1","54.47","1","0.0","1","null","6","null","6","0.0","5","991.7","1","41.231637","16.30298"],
    [3436,"2024-05-23 03:00:00","11","andria","17.28","1","55.72","1","0.0","1","null","6","null","6","0.0","5","992.04","1","41.231637","16.30298"],
    [3437,"2024-05-23 04:00:00","11","andria","16.92","1","57.01","1","0.0","1","null","6","null","6","0.0","5","992.72","1","41.231637","16.30298"],
    [3438,"2024-05-23 05:00:00","11","andria","16.36","1","60.17","1","0.0","1","null","6","null","6","0.0","5","993.0","1","41.231637","16.30298"],
    [3439,"2024-05-23 06:00:00","11","andria","16.51","1","59.47","1","0.0","1","null","6","null","6","18.04","1","993.32","1","41.231637","16.30298"],
    [3440,"2024-05-23 07:00:00","11","andria","17.82","1","55.96","1","0.0","1","null","6","null","6","30.76","1","993.56","1","41.231637","16.30298"],
    [3441,"2024-05-23 08:00:00","11","andria","19.8","1","49.08","1","0.0","1","null","6","null","6","290.05","1","993.97","1","41.231637","16.30298"],
    [3442,"2024-05-23 09:00:00","11","andria","22.52","1","41.94","1","0.0","1","null","6","null","6","700.51","1","993.39","1","41.231637","16.30298"],
    [3443,"2024-05-23 10:00:00","11","andria","24.26","1","36.25","1","0.0","1","null","6","null","6","864.36","1","993.15","1","41.231637","16.30298"],
    [3444,"2024-05-23 11:00:00","11","andria","25.23","1","34.02","1","0.0","1","null","6","null","6","895.27","1","993.15","1","41.231637","16.30298"],
    [3445,"2024-05-23 12:00:00","11","andria","25.12","1","33.17","1","0.0","1","null","6","null","6","926.51","1","993.36","1","41.231637","16.30298"],
    [3446,"2024-05-23 13:00:00","11","andria","25.36","1","31.91","1","0.0","1","null","6","null","6","898.4","1","993.44","1","41.231637","16.30298"],
    [3447,"2024-05-23 14:00:00","11","andria","26.38","1","31.32","1","0.0","1","null","6","null","6","832.09","1","993.07","1","41.231637","16.30298"],
    [3448,"2024-05-23 15:00:00","11","andria","26.78","1","30.66","1","0.0","1","null","6","null","6","488.64","1","992.78","1","41.231637","16.30298"],
    [3449,"2024-05-23 16:00:00","11","andria","24.82","1","37.85","1","0.0","1","null","6","null","6","129.79","1","992.57","1","41.231637","16.30298"],
    [3450,"2024-05-23 17:00:00","11","andria","23.25","1","46.78","1","0.0","1","null","6","null","6","75.14","1","992.36","1","41.231637","16.30298"],
    [3451,"2024-05-23 18:00:00","11","andria","22.11","1","46.55","1","0.0","1","null","6","null","6","39.46","1","992.47","1","41.231637","16.30298"],
    [3452,"2024-05-23 19:00:00","11","andria","21.44","1","48.82","1","0.0","1","null","6","null","6","17.99","1","992.69","1","41.231637","16.30298"],
    [3453,"2024-05-23 20:00:00","11","andria","20.03","1","56.95","1","0.0","1","null","6","null","6","0.0","5","992.56","1","41.231637","16.30298"],
    [3454,"2024-05-23 21:00:00","11","andria","19.76","1","57.22","1","0.0","1","null","6","null","6","0.0","5","993.64","1","41.231637","16.30298"],
    [3455,"2024-05-23 22:00:00","11","andria","20.18","1","50.49","1","0.0","1","null","6","null","6","0.0","5","993.95","1","41.231637","16.30298"],
    [3456,"2024-05-23 23:00:00","11","andria","19.99","1","47.97","1","0.0","1","null","6","null","6","0.0","5","994.0","1","41.231637","16.30298"],
    [3457,"2024-05-24 00:00:00","11","andria","18.84","1","51.16","1","0.0","1","null","6","null","6","0.0","5","994.07","1","41.231637","16.30298"],
    [3458,"2024-05-24 01:00:00","11","andria","18.26","1","53.03","1","0.0","1","null","6","null","6","0.0","5","993.93","1","41.231637","16.30298"],
    [3459,"2024-05-24 02:00:00","11","andria","17.88","1","53.63","1","0.0","1","null","6","null","6","0.0","5","993.89","1","41.231637","16.30298"],
    [3460,"2024-05-24 03:00:00","11","andria","17.12","1","56.03","1","0.0","1","null","6","null","6","0.0","5","994.43","1","41.231637","16.30298"],
    [3461,"2024-05-24 04:00:00","11","andria","17.0","1","54.59","1","0.0","1","null","6","null","6","0.0","5","993.98","1","41.231637","16.30298"],
    [3462,"2024-05-24 05:00:00","11","andria","16.42","1","55.64","1","0.0","1","null","6","null","6","0.0","5","994.17","1","41.231637","16.30298"],
    [3463,"2024-05-24 06:00:00","11","andria","16.46","1","55.12","1","0.0","1","null","6","null","6","16.25","1","994.09","1","41.231637","16.30298"],
    [3464,"2024-05-24 07:00:00","11","andria","17.88","1","52.48","1","0.0","1","null","6","null","6","33.65","1","995.05","1","41.231637","16.30298"],
    [3465,"2024-05-24 08:00:00","11","andria","19.71","1","46.61","1","0.0","1","null","6","null","6","297.11","1","995.42","1","41.231637","16.30298"],
    [3466,"2024-05-24 09:00:00","11","andria","22.33","1","40.09","1","0.0","1","null","6","null","6","703.28","1","995.19","1","41.231637","16.30298"],
    [3467,"2024-05-24 10:00:00","11","andria","23.4","1","40.26","1","0.0","1","null","6","null","6","864.14","1","995.2","1","41.231637","16.30298"],
    [3468,"2024-05-24 11:00:00","11","andria","24.23","1","41.0","1","0.0","1","null","6","null","6","877.08","1","994.7","1","41.231637","16.30298"],
    [3469,"2024-05-24 12:00:00","11","andria","23.4","1","48.24","1","0.0","1","null","6","null","6","679.37","1","994.96","1","41.231637","16.30298"],
    [3470,"2024-05-24 13:00:00","11","andria","23.15","1","51.98","1","0.0","1","null","6","null","6","755.14","1","994.87","1","41.231637","16.30298"],
    [3471,"2024-05-24 14:00:00","11","andria","24.27","1","49.48","1","0.0","1","null","6","null","6","840.59","1","994.25","1","41.231637","16.30298"],
    [3472,"2024-05-24 15:00:00","11","andria","24.82","1","46.39","1","0.0","1","null","6","null","6","483.49","1","994.15","1","41.231637","16.30298"],
    [3473,"2024-05-24 16:00:00","11","andria","23.78","1","46.78","1","0.0","1","null","6","null","6","154.02","1","994.07","1","41.231637","16.30298"],
    [3474,"2024-05-24 17:00:00","11","andria","22.91","1","49.34","1","0.0","1","null","6","null","6","124.23","1","993.44","1","41.231637","16.30298"],
    [3475,"2024-05-24 18:00:00","11","andria","22.06","1","55.69","1","0.0","1","null","6","null","6","88.48","1","993.99","1","41.231637","16.30298"],
    [3476,"2024-05-24 19:00:00","11","andria","20.86","1","58.77","1","0.0","1","null","6","null","6","22.86","1","994.08","1","41.231637","16.30298"],
    [3477,"2024-05-24 20:00:00","11","andria","19.7","1","64.74","1","0.0","1","null","6","null","6","0.0","5","994.29","1","41.231637","16.30298"],
    [3478,"2024-05-24 21:00:00","11","andria","19.0","1","66.55","1","0.0","1","null","6","null","6","0.0","5","994.53","1","41.231637","16.30298"],
    [3479,"2024-05-24 22:00:00","11","andria","18.88","1","58.87","1","0.0","1","null","6","null","6","0.0","5","994.18","1","41.231637","16.30298"],
    [3480,"2024-05-24 23:00:00","11","andria","18.4","1","60.95","1","0.0","1","null","6","null","6","0.0","5","994.2","1","41.231637","16.30298"],
    [3481,"2024-05-25 00:00:00","11","andria","18.28","1","59.04","1","0.0","1","null","6","null","6","0.0","5","994.17","1","41.231637","16.30298"],
    [3482,"2024-05-25 01:00:00","11","andria","18.08","1","63.15","1","0.0","1","null","6","null","6","0.0","5","994.45","1","41.231637","16.30298"],
    [3483,"2024-05-25 02:00:00","11","andria","17.24","1","68.39","1","0.0","1","null","6","null","6","0.0","5","993.63","1","41.231637","16.30298"],
    [3484,"2024-05-25 03:00:00","11","andria","16.87","1","72.0","1","0.0","1","null","6","null","6","0.0","5","994.15","1","41.231637","16.30298"],
    [3485,"2024-05-25 04:00:00","11","andria","16.44","1","72.03","1","0.0","1","null","6","null","6","0.0","5","993.65","1","41.231637","16.30298"],
    [3486,"2024-05-25 05:00:00","11","andria","16.4","1","71.73","1","0.0","1","null","6","null","6","0.0","5","993.1","1","41.231637","16.30298"],
    [3487,"2024-05-25 06:00:00","11","andria","16.68","1","69.1","1","0.0","1","null","6","null","6","52.36","1","992.92","1","41.231637","16.30298"],
    [3488,"2024-05-25 07:00:00","11","andria","18.27","1","63.39","1","0.0","1","null","6","null","6","98.23","1","992.97","1","41.231637","16.30298"],
    [3489,"2024-05-25 08:00:00","11","andria","19.61","1","56.17","1","0.0","1","null","6","null","6","139.85","1","992.6","1","41.231637","16.30298"],
    [3490,"2024-05-25 09:00:00","11","andria","20.4","1","54.59","1","0.0","1","null","6","null","6","203.02","1","992.04","1","41.231637","16.30298"],
    [3491,"2024-05-25 10:00:00","11","andria","20.48","1","58.98","1","0.0","1","null","6","null","6","341.23","1","992.38","1","41.231637","16.30298"],
    [3492,"2024-05-25 11:00:00","11","andria","22.86","1","45.35","1","0.0","1","null","6","null","6","598.4","1","992.13","1","41.231637","16.30298"],
    [3493,"2024-05-25 12:00:00","11","andria","23.76","1","40.89","1","0.0","1","null","6","null","6","471.23","1","991.53","1","41.231637","16.30298"],
    [3494,"2024-05-25 13:00:00","11","andria","22.42","1","47.96","1","0.0","1","null","6","null","6","197.79","1","990.95","1","41.231637","16.30298"],
    [3495,"2024-05-25 14:00:00","11","andria","21.48","1","48.57","1","0.0","1","null","6","null","6","145.95","1","991.86","1","41.231637","16.30298"],
    [3496,"2024-05-25 15:00:00","11","andria","20.14","1","56.04","1","0.0","1","null","6","null","6","105.78","1","992.05","1","41.231637","16.30298"],
    [3497,"2024-05-25 16:00:00","11","andria","18.38","1","65.13","1","0.0","1","null","6","null","6","113.54","1","992.2","1","41.231637","16.30298"],
    [3498,"2024-05-25 17:00:00","11","andria","18.12","1","64.23","1","0.0","1","null","6","null","6","75.22","1","991.22","1","41.231637","16.30298"],
    [3499,"2024-05-25 18:00:00","11","andria","18.56","1","54.42","1","0.0","1","null","6","null","6","43.73","1","990.9","1","41.231637","16.30298"],
    [3500,"2024-05-25 19:00:00","11","andria","18.69","1","53.78","1","0.0","1","null","6","null","6","12.34","1","990.9","1","41.231637","16.30298"],
    [3501,"2024-05-25 20:00:00","11","andria","17.83","1","62.81","1","0.2","1","null","6","null","6","0.0","5","991.87","1","41.231637","16.30298"],
    [3502,"2024-05-25 21:00:00","11","andria","16.13","1","72.15","1","0.6","1","null","6","null","6","0.0","5","992.89","1","41.231637","16.30298"],
    [3503,"2024-05-25 22:00:00","11","andria","15.48","1","70.54","1","0.2","1","null","6","null","6","0.0","5","992.75","1","41.231637","16.30298"],
    [3504,"2024-05-25 23:00:00","11","andria","15.74","1","66.33","1","0.0","1","null","6","null","6","0.0","5","992.26","1","41.231637","16.30298"],
    [3505,"2024-05-26 00:00:00","11","andria","15.96","1","64.44","1","0.0","1","null","6","null","6","0.0","5","992.69","1","41.231637","16.30298"],
    [3506,"2024-05-26 01:00:00","11","andria","16.59","1","57.08","1","0.0","1","null","6","null","6","0.0","5","991.94","1","41.231637","16.30298"],
    [3507,"2024-05-26 02:00:00","11","andria","16.89","1","53.56","1","0.0","1","null","6","null","6","0.0","5","991.89","1","41.231637","16.30298"],
    [3508,"2024-05-26 03:00:00","11","andria","16.41","1","66.46","1","0.0","1","null","6","null","6","0.0","5","992.17","1","41.231637","16.30298"],
    [3509,"2024-05-26 04:00:00","11","andria","16.24","1","75.48","1","0.0","1","null","6","null","6","0.0","5","991.63","1","41.231637","16.30298"],
    [3510,"2024-05-26 05:00:00","11","andria","15.94","1","80.46","1","0.0","1","null","6","null","6","0.0","5","991.65","1","41.231637","16.30298"],
    [3511,"2024-05-26 06:00:00","11","andria","16.06","1","79.11","1","0.0","1","null","6","null","6","15.4","1","991.88","1","41.231637","16.30298"],
    [3512,"2024-05-26 07:00:00","11","andria","17.31","1","69.56","1","0.0","1","null","6","null","6","35.06","1","992.26","1","41.231637","16.30298"],
    [3513,"2024-05-26 08:00:00","11","andria","18.81","1","60.57","1","0.0","1","null","6","null","6","307.83","1","992.67","1","41.231637","16.30298"],
    [3514,"2024-05-26 09:00:00","11","andria","21.39","1","51.54","1","0.0","1","null","6","null","6","680.09","1","992.31","1","41.231637","16.30298"],
    [3515,"2024-05-26 10:00:00","11","andria","22.72","1","48.26","1","0.0","1","null","6","null","6","662.32","1","992.45","1","41.231637","16.30298"],
    [3516,"2024-05-26 11:00:00","11","andria","21.83","1","52.37","1","0.0","1","null","6","null","6","743.77","1","993.36","1","41.231637","16.30298"],
    [3517,"2024-05-26 12:00:00","11","andria","22.44","1","47.62","1","0.0","1","null","6","null","6","922.36","1","993.35","1","41.231637","16.30298"],
    [3518,"2024-05-26 13:00:00","11","andria","23.4","1","41.26","1","0.0","1","null","6","null","6","873.12","1","993.2","1","41.231637","16.30298"],
    [3519,"2024-05-26 14:00:00","11","andria","23.7","1","38.61","1","0.0","1","null","6","null","6","839.45","1","992.98","1","41.231637","16.30298"],
    [3520,"2024-05-26 15:00:00","11","andria","23.52","1","38.14","1","0.0","1","null","6","null","6","491.1","1","992.28","1","41.231637","16.30298"],
    [3521,"2024-05-26 16:00:00","11","andria","22.32","1","42.4","1","0.0","1","null","6","null","6","128.04","1","992.85","1","41.231637","16.30298"],
    [3522,"2024-05-26 17:00:00","11","andria","21.7","1","47.16","1","0.0","1","null","6","null","6","74.19","1","992.63","1","41.231637","16.30298"],
    [3523,"2024-05-26 18:00:00","11","andria","20.65","1","53.89","1","0.0","1","null","6","null","6","42.54","1","992.79","1","41.231637","16.30298"],
    [3524,"2024-05-26 19:00:00","11","andria","19.8","1","58.74","1","0.0","1","null","6","null","6","19.97","1","993.37","1","41.231637","16.30298"],
    [3525,"2024-05-26 20:00:00","11","andria","18.62","1","68.21","1","0.0","1","null","6","null","6","5.83","1","993.71","1","41.231637","16.30298"],
    [3526,"2024-05-26 21:00:00","11","andria","18.04","1","71.78","1","0.0","1","null","6","null","6","0.0","5","994.96","1","41.231637","16.30298"],
    [3527,"2024-05-26 22:00:00","11","andria","17.76","1","73.15","1","0.0","1","null","6","null","6","0.0","5","994.97","1","41.231637","16.30298"],
    [3528,"2024-05-26 23:00:00","11","andria","17.34","1","74.16","1","0.0","1","null","6","null","6","0.0","5","995.41","1","41.231637","16.30298"],
    [3529,"2024-05-27 00:00:00","11","andria","16.7","1","75.45","1","0.0","1","null","6","null","6","0.0","5","995.06","1","41.231637","16.30298"],
    [3530,"2024-05-27 01:00:00","11","andria","16.39","1","73.34","1","0.0","1","null","6","null","6","0.0","5","994.89","1","41.231637","16.30298"],
    [3531,"2024-05-27 02:00:00","11","andria","16.29","1","77.11","1","0.0","1","null","6","null","6","0.0","5","994.49","1","41.231637","16.30298"],
    [3532,"2024-05-27 03:00:00","11","andria","15.85","1","81.26","1","0.0","1","null","6","null","6","0.0","5","994.34","1","41.231637","16.30298"],
    [3533,"2024-05-27 04:00:00","11","andria","15.6","1","83.3","1","0.0","1","null","6","null","6","0.0","5","994.12","1","41.231637","16.30298"],
    [3534,"2024-05-27 05:00:00","11","andria","15.42","1","84.57","1","0.0","1","null","6","null","6","6.25","1","994.26","1","41.231637","16.30298"],
    [3535,"2024-05-27 06:00:00","11","andria","15.51","1","83.9","1","0.0","1","null","6","null","6","22.16","1","994.62","1","41.231637","16.30298"],
    [3536,"2024-05-27 07:00:00","11","andria","16.29","1","80.69","1","0.0","1","null","6","null","6","46.81","1","994.99","1","41.231637","16.30298"],
    [3537,"2024-05-27 08:00:00","11","andria","18.04","1","69.43","1","0.0","1","null","6","null","6","284.11","1","994.79","1","41.231637","16.30298"],
    [3538,"2024-05-27 09:00:00","11","andria","21.62","1","50.37","1","0.0","1","null","6","null","6","611.79","1","994.64","1","41.231637","16.30298"],
    [3539,"2024-05-27 10:00:00","11","andria","22.45","1","43.68","1","0.0","1","null","6","null","6","688.04","1","994.55","1","41.231637","16.30298"],
    [3540,"2024-05-27 11:00:00","11","andria","22.95","1","44.08","1","0.0","1","null","6","null","6","363.75","1","994.65","1","41.231637","16.30298"],
    [3541,"2024-05-27 12:00:00","11","andria","21.33","1","50.16","1","0.0","1","null","6","null","6","311.0","1","994.72","1","41.231637","16.30298"],
    [3542,"2024-05-27 13:00:00","11","andria","23.03","1","44.5","1","0.0","1","null","6","null","6","721.89","1","994.52","1","41.231637","16.30298"],
    [3543,"2024-05-27 14:00:00","11","andria","22.62","1","46.91","1","0.0","1","null","6","null","6","383.21","1","993.68","1","41.231637","16.30298"],
    [3544,"2024-05-27 15:00:00","11","andria","23.55","1","46.89","1","0.0","1","null","6","null","6","469.36","1","993.63","1","41.231637","16.30298"],
    [3545,"2024-05-27 16:00:00","11","andria","22.34","1","50.81","1","0.0","1","null","6","null","6","134.87","1","993.33","1","41.231637","16.30298"],
    [3546,"2024-05-27 17:00:00","11","andria","21.49","1","53.85","1","0.0","1","null","6","null","6","72.83","1","992.84","1","41.231637","16.30298"],
    [3547,"2024-05-27 18:00:00","11","andria","20.84","1","55.58","1","0.0","1","null","6","null","6","44.65","1","992.6","1","41.231637","16.30298"],
    [3548,"2024-05-27 19:00:00","11","andria","20.27","1","57.18","1","0.0","1","null","6","null","6","22.6","1","992.51","1","41.231637","16.30298"],
    [3549,"2024-05-27 20:00:00","11","andria","19.15","1","64.65","1","0.0","1","null","6","null","6","7.22","1","992.75","1","41.231637","16.30298"],
    [3550,"2024-05-27 21:00:00","11","andria","18.14","1","70.85","1","0.0","1","null","6","null","6","0.0","5","993.54","1","41.231637","16.30298"],
    [3551,"2024-05-27 22:00:00","11","andria","17.76","1","72.95","1","0.0","1","null","6","null","6","0.0","5","993.91","1","41.231637","16.30298"],
    [3552,"2024-05-27 23:00:00","11","andria","17.48","1","73.08","1","0.0","1","null","6","null","6","0.0","5","993.99","1","41.231637","16.30298"],
    [3553,"2024-05-28 00:00:00","11","andria","17.24","1","73.03","1","0.0","1","null","6","null","6","0.0","5","992.8","1","41.231637","16.30298"],
    [3554,"2024-05-28 01:00:00","11","andria","17.12","1","72.97","1","0.0","1","null","6","null","6","0.0","5","992.71","1","41.231637","16.30298"],
    [3555,"2024-05-28 02:00:00","11","andria","16.52","1","71.52","1","0.0","1","null","6","null","6","0.0","5","992.49","1","41.231637","16.30298"],
    [3556,"2024-05-28 03:00:00","11","andria","16.7","1","68.79","1","0.0","1","null","6","null","6","0.0","5","991.96","1","41.231637","16.30298"],
    [3557,"2024-05-28 04:00:00","11","andria","16.7","1","68.13","1","0.0","1","null","6","null","6","0.0","5","991.85","1","41.231637","16.30298"],
    [3558,"2024-05-28 05:00:00","11","andria","16.96","1","67.83","1","0.0","1","null","6","null","6","0.0","5","991.84","1","41.231637","16.30298"],
    [3559,"2024-05-28 06:00:00","11","andria","16.87","1","67.61","1","0.0","1","null","6","null","6","27.32","1","991.31","1","41.231637","16.30298"],
    [3560,"2024-05-28 07:00:00","11","andria","18.08","1","62.85","1","0.0","1","null","6","null","6","48.54","1","992.35","1","41.231637","16.30298"],
    [3561,"2024-05-28 08:00:00","11","andria","19.79","1","58.1","1","0.0","1","null","6","null","6","217.21","1","991.77","1","41.231637","16.30298"],
    [3562,"2024-05-28 09:00:00","11","andria","22.24","1","52.5","1","0.0","1","null","6","null","6","547.8","1","991.27","1","41.231637","16.30298"],
    [3563,"2024-05-28 10:00:00","11","andria","23.01","1","51.52","1","0.0","1","null","6","null","6","519.34","1","990.86","1","41.231637","16.30298"],
    [3564,"2024-05-28 11:00:00","11","andria","24.03","1","50.74","1","0.0","1","null","6","null","6","848.34","1","991.07","1","41.231637","16.30298"],
    [3565,"2024-05-28 12:00:00","11","andria","24.39","1","49.45","1","0.0","1","null","6","null","6","911.55","1","990.6","1","41.231637","16.30298"],
    [3566,"2024-05-28 13:00:00","11","andria","24.63","1","48.61","1","0.0","1","null","6","null","6","897.21","1","989.92","1","41.231637","16.30298"],
    [3567,"2024-05-28 14:00:00","11","andria","25.09","1","47.89","1","0.0","1","null","6","null","6","835.94","1","989.9","1","41.231637","16.30298"],
    [3568,"2024-05-28 15:00:00","11","andria","25.72","1","44.56","1","0.0","1","null","6","null","6","518.13","1","989.46","1","41.231637","16.30298"],
    [3569,"2024-05-28 16:00:00","11","andria","24.31","1","45.49","1","0.0","1","null","6","null","6","122.77","1","989.26","1","41.231637","16.30298"],
    [3570,"2024-05-28 17:00:00","11","andria","23.67","1","45.28","1","0.0","1","null","6","null","6","121.65","1","990.19","1","41.231637","16.30298"],
    [3571,"2024-05-28 18:00:00","11","andria","23.29","1","40.55","1","0.0","1","null","6","null","6","48.71","1","989.69","1","41.231637","16.30298"],
    [3572,"2024-05-28 19:00:00","11","andria","21.97","1","47.89","1","0.0","1","null","6","null","6","19.14","1","989.54","1","41.231637","16.30298"],
    [3573,"2024-05-28 20:00:00","11","andria","20.04","1","69.36","1","0.0","1","null","6","null","6","5.85","1","990.17","1","41.231637","16.30298"],
    [3574,"2024-05-28 21:00:00","11","andria","19.15","1","74.29","1","0.0","1","null","6","null","6","0.0","5","990.57","1","41.231637","16.30298"],
    [3575,"2024-05-28 22:00:00","11","andria","18.78","1","77.83","1","0.0","1","null","6","null","6","0.0","5","990.76","1","41.231637","16.30298"],
    [3576,"2024-05-28 23:00:00","11","andria","18.47","1","78.24","1","0.0","1","null","6","null","6","7.8","1","991.39","1","41.231637","16.30298"],
    [3577,"2024-05-29 00:00:00","11","andria","18.04","1","77.9","1","0.0","1","null","6","null","6","0.0","5","991.52","1","41.231637","16.30298"],
    [3578,"2024-05-29 01:00:00","11","andria","17.66","1","77.18","1","0.0","1","null","6","null","6","0.0","5","991.5","1","41.231637","16.30298"],
    [3579,"2024-05-29 02:00:00","11","andria","17.12","1","76.11","1","0.0","1","null","6","null","6","0.0","5","991.27","1","41.231637","16.30298"],
    [3580,"2024-05-29 03:00:00","11","andria","17.01","1","78.45","1","0.0","1","null","6","null","6","0.0","5","991.62","1","41.231637","16.30298"],
    [3581,"2024-05-29 04:00:00","11","andria","16.88","1","78.62","1","0.0","1","null","6","null","6","0.0","5","990.42","1","41.231637","16.30298"],
    [3582,"2024-05-29 05:00:00","11","andria","17.14","1","78.67","1","0.0","1","null","6","null","6","0.0","5","990.86","1","41.231637","16.30298"],
    [3583,"2024-05-29 06:00:00","11","andria","17.26","1","77.54","1","0.0","1","null","6","null","6","30.57","1","991.08","1","41.231637","16.30298"],
    [3584,"2024-05-29 07:00:00","11","andria","17.99","1","77.06","1","0.0","1","null","6","null","6","72.28","1","990.55","1","41.231637","16.30298"],
    [3585,"2024-05-29 08:00:00","11","andria","18.68","1","72.08","1","0.0","1","null","6","null","6","201.14","1","990.98","1","41.231637","16.30298"],
    [3586,"2024-05-29 09:00:00","11","andria","21.62","1","60.79","1","0.0","1","null","6","null","6","535.64","1","990.9","1","41.231637","16.30298"],
    [3587,"2024-05-29 10:00:00","11","andria","23.58","1","47.48","1","0.0","1","null","6","null","6","803.39","1","990.63","1","41.231637","16.30298"],
    [3588,"2024-05-29 11:00:00","11","andria","23.99","1","43.52","1","0.0","1","null","6","null","6","845.53","1","990.23","1","41.231637","16.30298"],
    [3589,"2024-05-29 12:00:00","11","andria","25.01","1","39.76","1","0.0","1","null","6","null","6","915.34","1","989.8","1","41.231637","16.30298"],
    [3590,"2024-05-29 13:00:00","11","andria","26.1","1","38.63","1","0.0","1","null","6","null","6","897.79","1","989.57","1","41.231637","16.30298"],
    [3591,"2024-05-29 14:00:00","11","andria","25.81","1","40.82","1","0.0","1","null","6","null","6","835.11","1","988.82","1","41.231637","16.30298"],
    [3592,"2024-05-29 15:00:00","11","andria","24.69","1","49.25","1","0.0","1","null","6","null","6","454.51","1","988.23","1","41.231637","16.30298"],
    [3593,"2024-05-29 16:00:00","11","andria","23.56","1","51.89","1","0.0","1","null","6","null","6","137.05","1","987.95","1","41.231637","16.30298"],
    [3594,"2024-05-29 17:00:00","11","andria","22.94","1","57.03","1","0.0","1","null","6","null","6","95.15","1","987.5","1","41.231637","16.30298"],
    [3595,"2024-05-29 18:00:00","11","andria","21.97","1","62.11","1","0.0","1","null","6","null","6","54.55","1","988.4","1","41.231637","16.30298"],
    [3596,"2024-05-29 19:00:00","11","andria","21.28","1","64.46","1","0.0","1","null","6","null","6","24.07","1","988.36","1","41.231637","16.30298"],
    [3597,"2024-05-29 20:00:00","11","andria","20.2","1","70.24","1","0.0","1","null","6","null","6","6.83","1","988.58","1","41.231637","16.30298"],
    [3598,"2024-05-29 21:00:00","11","andria","19.18","1","73.76","1","0.0","1","null","6","null","6","0.0","5","988.73","1","41.231637","16.30298"],
    [3599,"2024-05-29 22:00:00","11","andria","18.65","1","72.73","1","0.0","1","null","6","null","6","5.09","1","988.87","1","41.231637","16.30298"],
    [3600,"2024-05-29 23:00:00","11","andria","18.5","1","59.99","1","0.0","1","null","6","null","6","0.0","5","988.37","1","41.231637","16.30298"],
    [3601,"2024-05-30 00:00:00","11","andria","17.91","1","60.13","1","0.0","1","null","6","null","6","0.0","5","989.25","1","41.231637","16.30298"],
    [3602,"2024-05-30 01:00:00","11","andria","17.46","1","62.51","1","0.0","1","null","6","null","6","5.08","1","988.1","1","41.231637","16.30298"],
    [3603,"2024-05-30 02:00:00","11","andria","17.33","1","65.22","1","0.0","1","null","6","null","6","0.0","5","987.7","1","41.231637","16.30298"],
    [3604,"2024-05-30 03:00:00","11","andria","17.06","1","68.65","1","0.0","1","null","6","null","6","0.0","5","987.36","1","41.231637","16.30298"],
    [3605,"2024-05-30 04:00:00","11","andria","16.53","1","67.55","1","0.0","1","null","6","null","6","0.0","5","987.14","1","41.231637","16.30298"],
    [3606,"2024-05-30 05:00:00","11","andria","16.94","1","63.07","1","0.0","1","null","6","null","6","5.64","1","987.41","1","41.231637","16.30298"],
    [3607,"2024-05-30 06:00:00","11","andria","17.95","1","62.65","1","0.0","1","null","6","null","6","46.28","1","987.47","1","41.231637","16.30298"],
    [3608,"2024-05-30 07:00:00","11","andria","19.01","1","65.09","1","0.0","1","null","6","null","6","54.48","1","987.28","1","41.231637","16.30298"],
    [3609,"2024-05-30 08:00:00","11","andria","20.79","1","58.19","1","0.0","1","null","6","null","6","275.48","1","987.13","1","41.231637","16.30298"],
    [3610,"2024-05-30 09:00:00","11","andria","24.2","1","52.01","1","0.0","1","null","6","null","6","641.65","1","986.45","1","41.231637","16.30298"],
    [3611,"2024-05-30 10:00:00","11","andria","25.63","1","49.42","1","0.0","1","null","6","null","6","785.63","1","985.94","1","41.231637","16.30298"],
    [3612,"2024-05-30 11:00:00","11","andria","25.99","1","45.86","1","0.0","1","null","6","null","6","762.85","1","985.91","1","41.231637","16.30298"],
    [3613,"2024-05-30 12:00:00","11","andria","26.86","1","41.04","1","0.0","1","null","6","null","6","865.18","1","985.72","1","41.231637","16.30298"],
    [3614,"2024-05-30 13:00:00","11","andria","27.0","1","40.45","1","0.0","1","null","6","null","6","840.74","1","984.97","1","41.231637","16.30298"],
    [3615,"2024-05-30 14:00:00","11","andria","27.75","1","38.77","1","0.0","1","null","6","null","6","774.28","1","984.31","1","41.231637","16.30298"],
    [3616,"2024-05-30 15:00:00","11","andria","28.13","1","39.39","1","0.0","1","null","6","null","6","520.51","1","983.62","1","41.231637","16.30298"],
    [3617,"2024-05-30 16:00:00","11","andria","25.34","1","50.17","1","0.0","1","null","6","null","6","160.41","1","983.89","1","41.231637","16.30298"],
    [3618,"2024-05-30 17:00:00","11","andria","24.3","1","52.37","1","0.0","1","null","6","null","6","136.75","1","984.09","1","41.231637","16.30298"],
    [3619,"2024-05-30 18:00:00","11","andria","22.99","1","53.64","1","0.0","1","null","6","null","6","61.47","1","984.29","1","41.231637","16.30298"],
    [3620,"2024-05-30 19:00:00","11","andria","23.0","1","49.79","1","0.0","1","null","6","null","6","25.81","1","984.14","1","41.231637","16.30298"],
    [3621,"2024-05-30 20:00:00","11","andria","23.09","1","44.67","1","0.0","1","null","6","null","6","0.0","5","984.53","1","41.231637","16.30298"],
    [3622,"2024-05-30 21:00:00","11","andria","22.9","1","39.56","1","0.0","1","null","6","null","6","0.0","5","984.41","1","41.231637","16.30298"],
    [3623,"2024-05-30 22:00:00","11","andria","22.1","1","45.41","1","0.0","1","null","6","null","6","0.0","5","984.65","1","41.231637","16.30298"],
    [3624,"2024-05-30 23:00:00","11","andria","21.57","1","48.38","1","0.0","1","null","6","null","6","0.0","5","985.14","1","41.231637","16.30298"],
    [3625,"2024-05-31 00:00:00","11","andria","21.38","1","47.07","1","0.0","1","null","6","null","6","0.0","5","984.96","1","41.231637","16.30298"],
    [3626,"2024-05-31 01:00:00","11","andria","21.12","1","47.47","1","0.0","1","null","6","null","6","0.0","5","984.23","1","41.231637","16.30298"],
    [3627,"2024-05-31 02:00:00","11","andria","20.82","1","48.62","1","0.0","1","null","6","null","6","0.0","5","984.14","1","41.231637","16.30298"],
    [3628,"2024-05-31 03:00:00","11","andria","20.29","1","49.84","1","0.0","1","null","6","null","6","0.0","5","983.83","1","41.231637","16.30298"],
    [3629,"2024-05-31 04:00:00","11","andria","19.88","1","51.04","1","0.0","1","null","6","null","6","5.42","1","983.78","1","41.231637","16.30298"],
    [3630,"2024-05-31 05:00:00","11","andria","20.1","1","51.23","1","0.0","1","null","6","null","6","9.1","1","984.17","1","41.231637","16.30298"],
    [3631,"2024-05-31 06:00:00","11","andria","20.47","1","49.31","1","0.0","1","null","6","null","6","47.1","1","983.66","1","41.231637","16.30298"],
    [3632,"2024-05-31 07:00:00","11","andria","21.11","1","46.9","1","0.0","1","null","6","null","6","51.87","1","983.83","1","41.231637","16.30298"],
    [3633,"2024-05-31 08:00:00","11","andria","22.86","1","40.16","1","0.0","1","null","6","null","6","164.91","1","984.21","1","41.231637","16.30298"],
    [3634,"2024-05-31 09:00:00","11","andria","23.19","1","39.68","1","0.0","1","null","6","null","6","235.33","1","984.37","1","41.231637","16.30298"],
    [3635,"2024-05-31 10:00:00","11","andria","23.89","1","37.09","1","0.0","1","null","6","null","6","258.66","1","985.1","1","41.231637","16.30298"],
    [3636,"2024-05-31 11:00:00","11","andria","25.29","1","34.88","1","0.0","1","null","6","null","6","384.79","1","984.96","1","41.231637","16.30298"],
    [3637,"2024-05-31 12:00:00","11","andria","25.15","1","35.79","1","0.0","1","null","6","null","6","262.49","1","984.66","1","41.231637","16.30298"],
    [3638,"2024-05-31 13:00:00","11","andria","24.7","1","38.27","1","0.0","1","null","6","null","6","126.96","1","984.95","1","41.231637","16.30298"],
    [3639,"2024-05-31 14:00:00","11","andria","24.58","1","39.99","1","0.0","1","null","6","null","6","102.03","1","985.06","1","41.231637","16.30298"],
    [3640,"2024-05-31 15:00:00","11","andria","24.3","1","42.3","1","0.0","1","null","6","null","6","80.34","1","985.35","1","41.231637","16.30298"],
    [3641,"2024-05-31 16:00:00","11","andria","24.0","1","42.72","1","0.0","1","null","6","null","6","61.06","1","985.48","1","41.231637","16.30298"],
    [3642,"2024-05-31 17:00:00","11","andria","24.07","1","39.32","1","0.0","1","null","6","null","6","93.76","1","985.68","1","41.231637","16.30298"],
    [3643,"2024-05-31 18:00:00","11","andria","24.29","1","37.98","1","0.0","1","null","6","null","6","58.08","1","985.48","1","41.231637","16.30298"],
    [3644,"2024-05-31 19:00:00","11","andria","23.9","1","40.87","1","0.0","1","null","6","null","6","15.8","1","985.64","1","41.231637","16.30298"],
    [3645,"2024-05-31 20:00:00","11","andria","23.67","1","38.09","1","0.0","1","null","6","null","6","8.86","1","985.8","1","41.231637","16.30298"],
    [3646,"2024-05-31 21:00:00","11","andria","22.82","1","40.3","1","0.0","1","null","6","null","6","0.0","5","986.71","1","41.231637","16.30298"],
    [3647,"2024-05-31 22:00:00","11","andria","22.11","1","41.39","1","0.0","1","null","6","null","6","0.0","5","986.86","1","41.231637","16.30298"],
    [3648,"2024-05-31 23:00:00","11","andria","21.91","1","39.74","1","0.0","1","null","6","null","6","6.02","1","987.04","1","41.231637","16.30298\t"]
]}
